<?xml version='1.0' encoding='UTF-8'?><gpx version="1.1" creator="JPX - https://github.com/jenetics/jpx" xmlns="http://www.topografix.com/GPX/1/1"><trk><trkseg><trkpt lat="43.715533742476126" lon="11.164864544790936"><ele>313.2</ele><time>2026-04-25T08:16:07.006Z</time></trkpt><trkpt lat="43.71549202467674" lon="11.164784603654004"><ele>312.4</ele><time>2026-04-25T08:16:08.006Z</time></trkpt><trkpt lat="43.7153789758824" lon="11.16462062195943"><ele>311.6</ele><time>2026-04-25T08:16:10.006Z</time></trkpt><trkpt lat="43.715326503782684" lon="11.164532721483623"><ele>310.8</ele><time>2026-04-25T08:16:11.006Z</time></trkpt><trkpt lat="43.7152750345777" lon="11.164455331064662"><ele>310.0</ele><time>2026-04-25T08:16:12.006Z</time></trkpt><trkpt lat="43.71523004937054" lon="11.164371395327631"><ele>309.5</ele><time>2026-04-25T08:16:13.006Z</time></trkpt><trkpt lat="43.71517586846159" lon="11.164296602358169"><ele>309.0</ele><time>2026-04-25T08:16:14.006Z</time></trkpt><trkpt lat="43.715134015228394" lon="11.16421128090022"><ele>308.5</ele><time>2026-04-25T08:16:15.006Z</time></trkpt><trkpt lat="43.715093861631686" lon="11.164128176997853"><ele>308.0</ele><time>2026-04-25T08:16:16.006Z</time></trkpt><trkpt lat="43.715053287825725" lon="11.164060184020027"><ele>307.5</ele><time>2026-04-25T08:16:17.006Z</time></trkpt><trkpt lat="43.7149558891078" lon="11.16400511201682"><ele>307.0</ele><time>2026-04-25T08:16:19.006Z</time></trkpt><trkpt lat="43.71487708197545" lon="11.163993141471375"><ele>308.3333333333333</ele><time>2026-04-25T08:16:20.006Z</time></trkpt><trkpt lat="43.71477805374294" lon="11.163987797330096"><ele>309.66666666666663</ele><time>2026-04-25T08:16:21.006Z</time></trkpt><trkpt lat="43.71469162136495" lon="11.163993121693842"><ele>311.0</ele><time>2026-04-25T08:16:22.006Z</time></trkpt><trkpt lat="43.71459913599186" lon="11.163993741747303"><ele>312.3333333333333</ele><time>2026-04-25T08:16:23.006Z</time></trkpt><trkpt lat="43.71453480003038" lon="11.163988999428254"><ele>313.6666666666667</ele><time>2026-04-25T08:16:24.006Z</time></trkpt><trkpt lat="43.71447358222364" lon="11.163968389074"><ele>315.0</ele><time>2026-04-25T08:16:25.006Z</time></trkpt><trkpt lat="43.71439779089614" lon="11.163922042250647"><ele>316.1666666666667</ele><time>2026-04-25T08:16:26.007Z</time></trkpt><trkpt lat="43.71433057619689" lon="11.163885320740643"><ele>317.3333333333333</ele><time>2026-04-25T08:16:27.007Z</time></trkpt><trkpt lat="43.714258846939686" lon="11.163845392306715"><ele>318.5</ele><time>2026-04-25T08:16:28.007Z</time></trkpt><trkpt lat="43.71418033024506" lon="11.163814470498979"><ele>319.66666666666663</ele><time>2026-04-25T08:16:29.007Z</time></trkpt><trkpt lat="43.71410065902882" lon="11.163784883661405"><ele>320.8333333333333</ele><time>2026-04-25T08:16:30.007Z</time></trkpt><trkpt lat="43.714042426243786" lon="11.163739336311464"><ele>322.0</ele><time>2026-04-25T08:16:31.007Z</time></trkpt><trkpt lat="43.71396147954604" lon="11.163728940583654"><ele>322.0</ele><time>2026-04-25T08:16:32.007Z</time></trkpt><trkpt lat="43.71389223206876" lon="11.163725695989784"><ele>322.0</ele><time>2026-04-25T08:16:33.007Z</time></trkpt><trkpt lat="43.713807238563916" lon="11.163722022220394"><ele>322.0</ele><time>2026-04-25T08:16:34.007Z</time></trkpt><trkpt lat="43.71372742041355" lon="11.16374058942121"><ele>322.0</ele><time>2026-04-25T08:16:35.007Z</time></trkpt><trkpt lat="43.713654895759355" lon="11.163777129759108"><ele>322.0</ele><time>2026-04-25T08:16:36.007Z</time></trkpt><trkpt lat="43.7135842744601" lon="11.16381284375688"><ele>322.0</ele><time>2026-04-25T08:16:37.007Z</time></trkpt><trkpt lat="43.713508077529376" lon="11.163831793478817"><ele>322.16666666666663</ele><time>2026-04-25T08:16:38.007Z</time></trkpt><trkpt lat="43.713430463656366" lon="11.163840895850752"><ele>322.3333333333333</ele><time>2026-04-25T08:16:39.007Z</time></trkpt><trkpt lat="43.71334991267919" lon="11.16386363781134"><ele>322.5</ele><time>2026-04-25T08:16:40.007Z</time></trkpt><trkpt lat="43.71327148938675" lon="11.163884982557823"><ele>322.6666666666667</ele><time>2026-04-25T08:16:41.007Z</time></trkpt><trkpt lat="43.71319845823182" lon="11.163880634525523"><ele>322.83333333333337</ele><time>2026-04-25T08:16:42.007Z</time></trkpt><trkpt lat="43.71312341612283" lon="11.163887190475561"><ele>323.0</ele><time>2026-04-25T08:16:43.007Z</time></trkpt><trkpt lat="43.71300805323785" lon="11.163891437493174"><ele>323.0</ele><time>2026-04-25T08:16:45.007Z</time></trkpt><trkpt lat="43.71289180093974" lon="11.16385838669587"><ele>323.0</ele><time>2026-04-25T08:16:47.007Z</time></trkpt><trkpt lat="43.71283071229749" lon="11.163816148448081"><ele>323.0</ele><time>2026-04-25T08:16:48.007Z</time></trkpt><trkpt lat="43.7127515288692" lon="11.163757839456647"><ele>323.0</ele><time>2026-04-25T08:16:50.007Z</time></trkpt><trkpt lat="43.71269710259308" lon="11.163690233923077"><ele>323.0</ele><time>2026-04-25T08:17:24.008Z</time></trkpt><trkpt lat="43.712601955626894" lon="11.163648495892057"><ele>321.83333333333337</ele><time>2026-04-25T08:17:27.008Z</time></trkpt><trkpt lat="43.7124884689115" lon="11.163605105782745"><ele>320.6666666666667</ele><time>2026-04-25T08:17:29.008Z</time></trkpt><trkpt lat="43.71242429196441" lon="11.163569411034926"><ele>319.5</ele><time>2026-04-25T08:17:30.008Z</time></trkpt><trkpt lat="43.71236622169418" lon="11.163531541731205"><ele>318.3333333333333</ele><time>2026-04-25T08:17:31.008Z</time></trkpt><trkpt lat="43.712305786116296" lon="11.16345456403728"><ele>317.16666666666663</ele><time>2026-04-25T08:17:32.008Z</time></trkpt><trkpt lat="43.71223246036871" lon="11.163411597918854"><ele>316.0</ele><time>2026-04-25T08:17:33.009Z</time></trkpt><trkpt lat="43.71216131682625" lon="11.163369910503263"><ele>316.0</ele><time>2026-04-25T08:17:34.009Z</time></trkpt><trkpt lat="43.71208859727332" lon="11.163327299598885"><ele>316.0</ele><time>2026-04-25T08:17:35.009Z</time></trkpt><trkpt lat="43.71200160586894" lon="11.163310109012668"><ele>316.0</ele><time>2026-04-25T08:17:36.009Z</time></trkpt><trkpt lat="43.71192937781606" lon="11.163255807116888"><ele>316.0</ele><time>2026-04-25T08:17:37.009Z</time></trkpt><trkpt lat="43.71185045225211" lon="11.163200823003399"><ele>316.0</ele><time>2026-04-25T08:17:38.009Z</time></trkpt><trkpt lat="43.711780085889615" lon="11.16316003204554"><ele>316.0</ele><time>2026-04-25T08:17:39.009Z</time></trkpt><trkpt lat="43.71170631452168" lon="11.163138245476606"><ele>316.00000000000006</ele><time>2026-04-25T08:17:40.009Z</time></trkpt><trkpt lat="43.711644218115836" lon="11.163113847371996"><ele>316.0</ele><time>2026-04-25T08:17:41.009Z</time></trkpt><trkpt lat="43.711560753763884" lon="11.163038848626858"><ele>316.0</ele><time>2026-04-25T08:17:43.009Z</time></trkpt><trkpt lat="43.71150922069677" lon="11.162985807224786"><ele>316.0</ele><time>2026-04-25T08:17:44.009Z</time></trkpt><trkpt lat="43.711456561903006" lon="11.162924987608118"><ele>316.0</ele><time>2026-04-25T08:17:45.009Z</time></trkpt><trkpt lat="43.71140343811431" lon="11.162858707509777"><ele>316.00000000000006</ele><time>2026-04-25T08:17:46.009Z</time></trkpt><trkpt lat="43.71135436905941" lon="11.162775991712198"><ele>316.0</ele><time>2026-04-25T08:17:47.009Z</time></trkpt><trkpt lat="43.71132312737577" lon="11.16268626532612"><ele>316.00000000000006</ele><time>2026-04-25T08:17:48.009Z</time></trkpt><trkpt lat="43.71131826288483" lon="11.162589932015274"><ele>316.0</ele><time>2026-04-25T08:17:49.009Z</time></trkpt><trkpt lat="43.7112815653482" lon="11.16251809789528"><ele>316.0</ele><time>2026-04-25T08:17:55.009Z</time></trkpt><trkpt lat="43.711256490852556" lon="11.162412786043618"><ele>316.0</ele><time>2026-04-25T08:17:57.009Z</time></trkpt><trkpt lat="43.71126613581571" lon="11.16230967608983"><ele>316.0</ele><time>2026-04-25T08:17:58.009Z</time></trkpt><trkpt lat="43.711273991208714" lon="11.162206180799426"><ele>316.00000000000006</ele><time>2026-04-25T08:17:59.009Z</time></trkpt><trkpt lat="43.71127895882459" lon="11.162103038887656"><ele>316.0</ele><time>2026-04-25T08:18:00.009Z</time></trkpt><trkpt lat="43.71129362526918" lon="11.16201632829932"><ele>316.40000000000003</ele><time>2026-04-25T08:18:01.009Z</time></trkpt><trkpt lat="43.71130235978609" lon="11.161875082404329"><ele>316.8</ele><time>2026-04-25T08:18:03.009Z</time></trkpt><trkpt lat="43.71127946156835" lon="11.161708450830412"><ele>317.20000000000005</ele><time>2026-04-25T08:18:05.009Z</time></trkpt><trkpt lat="43.71128519123303" lon="11.161612210826634"><ele>317.6</ele><time>2026-04-25T08:18:06.01Z</time></trkpt><trkpt lat="43.71129322541836" lon="11.161441344514246"><ele>318.0</ele><time>2026-04-25T08:18:08.01Z</time></trkpt><trkpt lat="43.71129768572678" lon="11.161342344518705"><ele>316.5</ele><time>2026-04-25T08:18:09.01Z</time></trkpt><trkpt lat="43.71130358321613" lon="11.161250006337974"><ele>315.0</ele><time>2026-04-25T08:18:10.01Z</time></trkpt><trkpt lat="43.711309412099396" lon="11.161154280720224"><ele>313.5</ele><time>2026-04-25T08:18:11.01Z</time></trkpt><trkpt lat="43.71136504889586" lon="11.160982820538722"><ele>312.0</ele><time>2026-04-25T08:18:13.01Z</time></trkpt><trkpt lat="43.71139210181974" lon="11.16089857040428"><ele>310.5</ele><time>2026-04-25T08:18:14.01Z</time></trkpt><trkpt lat="43.711412571163194" lon="11.16080204949165"><ele>309.0</ele><time>2026-04-25T08:18:15.01Z</time></trkpt><trkpt lat="43.71142840209155" lon="11.160690918306484"><ele>307.0</ele><time>2026-04-25T08:18:16.01Z</time></trkpt><trkpt lat="43.71147435321893" lon="11.160536442790933"><ele>305.0</ele><time>2026-04-25T08:18:18.01Z</time></trkpt><trkpt lat="43.7115247056283" lon="11.160438889362903"><ele>303.0</ele><time>2026-04-25T08:18:20.01Z</time></trkpt><trkpt lat="43.71158284347017" lon="11.160373420460347"><ele>301.0</ele><time>2026-04-25T08:18:22.01Z</time></trkpt><trkpt lat="43.711673499244085" lon="11.160337599184706"><ele>299.0</ele><time>2026-04-25T08:18:24.01Z</time></trkpt><trkpt lat="43.711739499793865" lon="11.160320261107264"><ele>297.0</ele><time>2026-04-25T08:18:25.01Z</time></trkpt><trkpt lat="43.711808083322026" lon="11.160309294076946"><ele>297.0</ele><time>2026-04-25T08:18:26.01Z</time></trkpt><trkpt lat="43.711873219556566" lon="11.160289519797491"><ele>297.0</ele><time>2026-04-25T08:18:27.01Z</time></trkpt><trkpt lat="43.71196232284679" lon="11.160234476043778"><ele>297.0</ele><time>2026-04-25T08:18:29.01Z</time></trkpt><trkpt lat="43.712038090950365" lon="11.16013289981367"><ele>297.0</ele><time>2026-04-25T08:18:31.01Z</time></trkpt><trkpt lat="43.712081890620595" lon="11.159973329441938"><ele>297.0</ele><time>2026-04-25T08:18:33.01Z</time></trkpt><trkpt lat="43.71214065636587" lon="11.159792919480894"><ele>300.3333333333333</ele><time>2026-04-25T08:18:35.01Z</time></trkpt><trkpt lat="43.71216558066837" lon="11.15967120189337"><ele>303.6666666666667</ele><time>2026-04-25T08:18:36.01Z</time></trkpt><trkpt lat="43.71219627829848" lon="11.159573291146847"><ele>307.0</ele><time>2026-04-25T08:18:37.01Z</time></trkpt><trkpt lat="43.71221908497865" lon="11.15947017329427"><ele>310.33333333333337</ele><time>2026-04-25T08:18:38.01Z</time></trkpt><trkpt lat="43.712249290031586" lon="11.159361210996803"><ele>313.6666666666667</ele><time>2026-04-25T08:18:39.011Z</time></trkpt><trkpt lat="43.7122722712164" lon="11.159264397311352"><ele>317.0</ele><time>2026-04-25T08:18:40.011Z</time></trkpt><trkpt lat="43.71229965320353" lon="11.159165037734672"><ele>317.0</ele><time>2026-04-25T08:18:41.011Z</time></trkpt><trkpt lat="43.7123321700227" lon="11.159067826315543"><ele>317.0</ele><time>2026-04-25T08:18:42.011Z</time></trkpt><trkpt lat="43.71237216790052" lon="11.15891188039075"><ele>317.0</ele><time>2026-04-25T08:18:44.011Z</time></trkpt><trkpt lat="43.712429413509554" lon="11.158832761529247"><ele>317.0</ele><time>2026-04-25T08:18:45.011Z</time></trkpt><trkpt lat="43.71249031634471" lon="11.158748460375788"><ele>317.0</ele><time>2026-04-25T08:18:46.011Z</time></trkpt><trkpt lat="43.71255743977543" lon="11.158673772973861"><ele>318.5</ele><time>2026-04-25T08:18:47.011Z</time></trkpt><trkpt lat="43.71263054102089" lon="11.158604146907809"><ele>320.0</ele><time>2026-04-25T08:18:48.011Z</time></trkpt><trkpt lat="43.712687950634866" lon="11.158531912733793"><ele>321.5</ele><time>2026-04-25T08:18:49.011Z</time></trkpt><trkpt lat="43.71275704543694" lon="11.158467819951374"><ele>323.0</ele><time>2026-04-25T08:18:50.011Z</time></trkpt><trkpt lat="43.712820794766955" lon="11.15840385227699"><ele>324.5</ele><time>2026-04-25T08:18:51.011Z</time></trkpt><trkpt lat="43.71288968057185" lon="11.158340226437888"><ele>326.0</ele><time>2026-04-25T08:18:52.011Z</time></trkpt><trkpt lat="43.712966078682506" lon="11.158275459936684"><ele>326.0</ele><time>2026-04-25T08:18:53.011Z</time></trkpt><trkpt lat="43.713028779897776" lon="11.158210123372207"><ele>326.0</ele><time>2026-04-25T08:18:54.011Z</time></trkpt><trkpt lat="43.71309033356132" lon="11.158152562227624"><ele>326.0</ele><time>2026-04-25T08:18:55.011Z</time></trkpt><trkpt lat="43.713150217925374" lon="11.158105568360408"><ele>326.0</ele><time>2026-04-25T08:18:56.011Z</time></trkpt><trkpt lat="43.71319999651862" lon="11.158046940605619"><ele>326.0</ele><time>2026-04-25T08:18:57.011Z</time></trkpt><trkpt lat="43.71323591404814" lon="11.157966476135563"><ele>326.0</ele><time>2026-04-25T08:18:58.011Z</time></trkpt><trkpt lat="43.71326523249628" lon="11.157877314761617"><ele>326.0</ele><time>2026-04-25T08:18:59.011Z</time></trkpt><trkpt lat="43.71330143204779" lon="11.15776467824017"><ele>323.1666666666667</ele><time>2026-04-25T08:19:00.011Z</time></trkpt><trkpt lat="43.713328853331554" lon="11.157649168326177"><ele>320.33333333333337</ele><time>2026-04-25T08:19:01.011Z</time></trkpt><trkpt lat="43.713369602183974" lon="11.15752826441796"><ele>317.5</ele><time>2026-04-25T08:19:02.011Z</time></trkpt><trkpt lat="43.71341967554306" lon="11.157409620600593"><ele>314.6666666666667</ele><time>2026-04-25T08:19:03.011Z</time></trkpt><trkpt lat="43.71346421293366" lon="11.157301273701378"><ele>311.8333333333333</ele><time>2026-04-25T08:19:04.011Z</time></trkpt><trkpt lat="43.713505969700115" lon="11.157217841973981"><ele>309.0</ele><time>2026-04-25T08:19:05.011Z</time></trkpt><trkpt lat="43.713543537305" lon="11.157118188523281"><ele>306.8</ele><time>2026-04-25T08:19:06.011Z</time></trkpt><trkpt lat="43.713570475571494" lon="11.15701907837803"><ele>304.59999999999997</ele><time>2026-04-25T08:19:07.011Z</time></trkpt><trkpt lat="43.713650259194345" lon="11.156834592801422"><ele>302.4</ele><time>2026-04-25T08:19:09.011Z</time></trkpt><trkpt lat="43.71368779759714" lon="11.156727725092798"><ele>300.2</ele><time>2026-04-25T08:19:10.011Z</time></trkpt><trkpt lat="43.713725271183066" lon="11.156635005710331"><ele>298.0</ele><time>2026-04-25T08:19:11.011Z</time></trkpt><trkpt lat="43.7137637289205" lon="11.156540826456624"><ele>301.16666666666663</ele><time>2026-04-25T08:19:12.011Z</time></trkpt><trkpt lat="43.713803555960965" lon="11.156445451670729"><ele>304.3333333333333</ele><time>2026-04-25T08:19:13.012Z</time></trkpt><trkpt lat="43.71384232828988" lon="11.156356213903813"><ele>307.5</ele><time>2026-04-25T08:19:14.012Z</time></trkpt><trkpt lat="43.713899549267886" lon="11.156264507001888"><ele>310.6666666666667</ele><time>2026-04-25T08:19:15.012Z</time></trkpt><trkpt lat="43.71395058786203" lon="11.156191342631926"><ele>313.83333333333337</ele><time>2026-04-25T08:19:16.012Z</time></trkpt><trkpt lat="43.713996455941164" lon="11.156112624475288"><ele>317.0</ele><time>2026-04-25T08:19:17.012Z</time></trkpt><trkpt lat="43.71403182837182" lon="11.1560365545002"><ele>317.0</ele><time>2026-04-25T08:19:18.012Z</time></trkpt><trkpt lat="43.714062040372156" lon="11.155944325732191"><ele>317.0</ele><time>2026-04-25T08:19:19.012Z</time></trkpt><trkpt lat="43.714095456627064" lon="11.155865205730416"><ele>317.0</ele><time>2026-04-25T08:19:20.012Z</time></trkpt><trkpt lat="43.7141297825579" lon="11.155778417344944"><ele>317.0</ele><time>2026-04-25T08:19:21.012Z</time></trkpt><trkpt lat="43.71416482087973" lon="11.155698609598135"><ele>317.0</ele><time>2026-04-25T08:19:22.012Z</time></trkpt><trkpt lat="43.714187937131136" lon="11.155539770301882"><ele>317.0</ele><time>2026-04-25T08:19:24.012Z</time></trkpt><trkpt lat="43.714169341992424" lon="11.155358914475807"><ele>317.0</ele><time>2026-04-25T08:19:26.012Z</time></trkpt><trkpt lat="43.714139708796424" lon="11.155250712243408"><ele>317.0</ele><time>2026-04-25T08:19:27.012Z</time></trkpt><trkpt lat="43.714109681915495" lon="11.155156874302927"><ele>317.0</ele><time>2026-04-25T08:19:28.012Z</time></trkpt><trkpt lat="43.71407509267754" lon="11.155001155741997"><ele>317.0</ele><time>2026-04-25T08:19:30.012Z</time></trkpt><trkpt lat="43.71408192651044" lon="11.15487351505501"><ele>317.0</ele><time>2026-04-25T08:19:32.012Z</time></trkpt><trkpt lat="43.71408667280069" lon="11.154780312970464"><ele>317.0</ele><time>2026-04-25T08:19:34.012Z</time></trkpt><trkpt lat="43.71412365866406" lon="11.154642060559073"><ele>317.0</ele><time>2026-04-25T08:19:36.012Z</time></trkpt><trkpt lat="43.71414479839828" lon="11.154535590652076"><ele>317.0</ele><time>2026-04-25T08:19:37.012Z</time></trkpt><trkpt lat="43.71416149996522" lon="11.154436105912444"><ele>317.0</ele><time>2026-04-25T08:19:38.012Z</time></trkpt><trkpt lat="43.71418341740374" lon="11.154339528769844"><ele>317.0</ele><time>2026-04-25T08:19:39.012Z</time></trkpt><trkpt lat="43.71420427833528" lon="11.154240592936379"><ele>317.0</ele><time>2026-04-25T08:19:40.012Z</time></trkpt><trkpt lat="43.71422919992447" lon="11.154091476175905"><ele>317.0</ele><time>2026-04-25T08:19:42.012Z</time></trkpt><trkpt lat="43.714238365072205" lon="11.154001797589832"><ele>316.57142857142856</ele><time>2026-04-25T08:19:43.012Z</time></trkpt><trkpt lat="43.71424797172303" lon="11.15391418138172"><ele>316.1428571428571</ele><time>2026-04-25T08:19:44.012Z</time></trkpt><trkpt lat="43.714259852834275" lon="11.153810530240715"><ele>315.71428571428567</ele><time>2026-04-25T08:19:45.012Z</time></trkpt><trkpt lat="43.71427633247261" lon="11.1537249069437"><ele>315.2857142857143</ele><time>2026-04-25T08:19:46.013Z</time></trkpt><trkpt lat="43.71429002893107" lon="11.153623661718097"><ele>314.85714285714283</ele><time>2026-04-25T08:19:49.013Z</time></trkpt><trkpt lat="43.714324539975046" lon="11.153549602916733"><ele>314.4285714285714</ele><time>2026-04-25T08:19:53.013Z</time></trkpt><trkpt lat="43.714399266814056" lon="11.153498430219072"><ele>314.0</ele><time>2026-04-25T08:19:55.013Z</time></trkpt><trkpt lat="43.71452207493059" lon="11.153509788425977"><ele>318.25</ele><time>2026-04-25T08:19:57.013Z</time></trkpt><trkpt lat="43.714600794474165" lon="11.15349549688546"><ele>322.5</ele><time>2026-04-25T08:19:58.013Z</time></trkpt><trkpt lat="43.71469426245187" lon="11.15344726960728"><ele>326.75</ele><time>2026-04-25T08:19:59.013Z</time></trkpt><trkpt lat="43.714826979946835" lon="11.153364428777598"><ele>331.0</ele><time>2026-04-25T08:20:00.013Z</time></trkpt><trkpt lat="43.71498296707947" lon="11.153269946122686"><ele>331.0</ele><time>2026-04-25T08:20:01.013Z</time></trkpt><trkpt lat="43.715126809738145" lon="11.153214200488021"><ele>331.0</ele><time>2026-04-25T08:20:02.013Z</time></trkpt><trkpt lat="43.71524356966427" lon="11.153160283913046"><ele>331.0</ele><time>2026-04-25T08:20:03.013Z</time></trkpt><trkpt lat="43.71533620680114" lon="11.15311740423352"><ele>331.0</ele><time>2026-04-25T08:20:04.013Z</time></trkpt><trkpt lat="43.715407410971345" lon="11.153068593356172"><ele>331.3333333333333</ele><time>2026-04-25T08:20:05.013Z</time></trkpt><trkpt lat="43.71544758701902" lon="11.152999178772676"><ele>331.66666666666663</ele><time>2026-04-25T08:20:06.013Z</time></trkpt><trkpt lat="43.715474046056336" lon="11.152888180074166"><ele>332.0</ele><time>2026-04-25T08:20:07.013Z</time></trkpt><trkpt lat="43.71548909392888" lon="11.15274541952121"><ele>332.3333333333333</ele><time>2026-04-25T08:20:08.013Z</time></trkpt><trkpt lat="43.715509936145516" lon="11.152636603248151"><ele>332.6666666666667</ele><time>2026-04-25T08:20:09.013Z</time></trkpt><trkpt lat="43.715575018526366" lon="11.152582554034044"><ele>333.0</ele><time>2026-04-25T08:20:10.013Z</time></trkpt><trkpt lat="43.71565689464354" lon="11.1525568813626"><ele>333.0</ele><time>2026-04-25T08:20:11.013Z</time></trkpt><trkpt lat="43.71575600298596" lon="11.152535701176657"><ele>333.0</ele><time>2026-04-25T08:20:12.013Z</time></trkpt><trkpt lat="43.71586651978535" lon="11.152519756287766"><ele>333.0</ele><time>2026-04-25T08:20:13.013Z</time></trkpt><trkpt lat="43.71597134385643" lon="11.1525045088893"><ele>333.0</ele><time>2026-04-25T08:20:14.013Z</time></trkpt><trkpt lat="43.71606970275833" lon="11.152500477611564"><ele>333.0</ele><time>2026-04-25T08:20:15.013Z</time></trkpt><trkpt lat="43.71616788784447" lon="11.152486911232872"><ele>331.6666666666667</ele><time>2026-04-25T08:20:16.013Z</time></trkpt><trkpt lat="43.7162722124407" lon="11.152477841989068"><ele>330.3333333333333</ele><time>2026-04-25T08:20:17.013Z</time></trkpt><trkpt lat="43.71635725970865" lon="11.152468901438159"><ele>329.0</ele><time>2026-04-25T08:20:18.013Z</time></trkpt><trkpt lat="43.71643646041071" lon="11.152462665425892"><ele>327.66666666666663</ele><time>2026-04-25T08:20:19.014Z</time></trkpt><trkpt lat="43.71650946711864" lon="11.152482165835508"><ele>326.3333333333333</ele><time>2026-04-25T08:20:20.014Z</time></trkpt><trkpt lat="43.716586191717745" lon="11.152553430397383"><ele>325.0</ele><time>2026-04-25T08:20:21.014Z</time></trkpt><trkpt lat="43.716673668524855" lon="11.152656579336258"><ele>325.0</ele><time>2026-04-25T08:20:22.014Z</time></trkpt><trkpt lat="43.71677017620198" lon="11.152744292357593"><ele>325.0</ele><time>2026-04-25T08:20:23.014Z</time></trkpt><trkpt lat="43.716867515443454" lon="11.15282143597406"><ele>325.0</ele><time>2026-04-25T08:20:24.014Z</time></trkpt><trkpt lat="43.71696870384561" lon="11.15288991730049"><ele>325.0</ele><time>2026-04-25T08:20:25.014Z</time></trkpt><trkpt lat="43.717062646622395" lon="11.15295325643085"><ele>325.0</ele><time>2026-04-25T08:20:26.014Z</time></trkpt><trkpt lat="43.71714790609401" lon="11.15299109279004"><ele>322.66666666666663</ele><time>2026-04-25T08:20:27.014Z</time></trkpt><trkpt lat="43.71724088140791" lon="11.152985419087047"><ele>320.3333333333333</ele><time>2026-04-25T08:20:28.014Z</time></trkpt><trkpt lat="43.71733629934345" lon="11.152952952370635"><ele>318.0</ele><time>2026-04-25T08:20:29.014Z</time></trkpt><trkpt lat="43.71741230305175" lon="11.152935492616262"><ele>315.6666666666667</ele><time>2026-04-25T08:20:30.014Z</time></trkpt><trkpt lat="43.7174879865638" lon="11.152938358590202"><ele>313.33333333333337</ele><time>2026-04-25T08:20:31.014Z</time></trkpt><trkpt lat="43.71758132599828" lon="11.15296489415877"><ele>311.0</ele><time>2026-04-25T08:20:32.014Z</time></trkpt><trkpt lat="43.717688006667146" lon="11.153038717640234"><ele>311.6</ele><time>2026-04-25T08:20:33.014Z</time></trkpt><trkpt lat="43.7177894170227" lon="11.153092641663376"><ele>312.20000000000005</ele><time>2026-04-25T08:20:34.014Z</time></trkpt><trkpt lat="43.717873487674375" lon="11.153124608166994"><ele>312.79999999999995</ele><time>2026-04-25T08:20:35.014Z</time></trkpt><trkpt lat="43.71795427137323" lon="11.153120888757522"><ele>313.4</ele><time>2026-04-25T08:20:36.014Z</time></trkpt><trkpt lat="43.718036523519984" lon="11.153088977261412"><ele>314.0</ele><time>2026-04-25T08:20:37.014Z</time></trkpt><trkpt lat="43.71811725321694" lon="11.153021549472331"><ele>314.0</ele><time>2026-04-25T08:20:38.014Z</time></trkpt><trkpt lat="43.71817418267169" lon="11.15290513899429"><ele>314.0</ele><time>2026-04-25T08:20:39.014Z</time></trkpt><trkpt lat="43.71822248914892" lon="11.15279716810473"><ele>314.0</ele><time>2026-04-25T08:20:40.014Z</time></trkpt><trkpt lat="43.718282427460025" lon="11.152721885700853"><ele>314.0</ele><time>2026-04-25T08:20:41.014Z</time></trkpt><trkpt lat="43.71835917987982" lon="11.152684710492911"><ele>314.0</ele><time>2026-04-25T08:20:42.014Z</time></trkpt><trkpt lat="43.71848052493849" lon="11.152667882409505"><ele>314.0</ele><time>2026-04-25T08:20:43.014Z</time></trkpt><trkpt lat="43.71860975776084" lon="11.15264164137176"><ele>314.0</ele><time>2026-04-25T08:20:44.014Z</time></trkpt><trkpt lat="43.71872369996049" lon="11.152625719000005"><ele>314.0</ele><time>2026-04-25T08:20:45.014Z</time></trkpt><trkpt lat="43.71881831304265" lon="11.152605178029722"><ele>314.0</ele><time>2026-04-25T08:20:46.014Z</time></trkpt><trkpt lat="43.71889855354669" lon="11.152609980578337"><ele>314.0</ele><time>2026-04-25T08:20:47.014Z</time></trkpt><trkpt lat="43.71897566419577" lon="11.152639908589487"><ele>314.0</ele><time>2026-04-25T08:20:48.014Z</time></trkpt><trkpt lat="43.71905736065568" lon="11.152670926445039"><ele>314.0</ele><time>2026-04-25T08:20:49.014Z</time></trkpt><trkpt lat="43.719164594179695" lon="11.152721165762078"><ele>314.0</ele><time>2026-04-25T08:20:50.014Z</time></trkpt><trkpt lat="43.71927592345627" lon="11.152762466137935"><ele>314.0</ele><time>2026-04-25T08:20:51.014Z</time></trkpt><trkpt lat="43.71937764296919" lon="11.152780733967246"><ele>314.0</ele><time>2026-04-25T08:20:52.015Z</time></trkpt><trkpt lat="43.719468305162444" lon="11.152804022802895"><ele>314.0</ele><time>2026-04-25T08:20:53.015Z</time></trkpt><trkpt lat="43.71955255015268" lon="11.15283265821222"><ele>314.0</ele><time>2026-04-25T08:20:54.015Z</time></trkpt><trkpt lat="43.719630047258896" lon="11.152870036371281"><ele>314.0</ele><time>2026-04-25T08:20:55.015Z</time></trkpt><trkpt lat="43.719731247109564" lon="11.152903333794482"><ele>314.0</ele><time>2026-04-25T08:20:56.015Z</time></trkpt><trkpt lat="43.71984996670841" lon="11.152947428346472"><ele>314.0</ele><time>2026-04-25T08:20:57.015Z</time></trkpt><trkpt lat="43.71996707281381" lon="11.152972177019883"><ele>314.0</ele><time>2026-04-25T08:20:58.015Z</time></trkpt><trkpt lat="43.720076109350735" lon="11.152979437317654"><ele>314.0</ele><time>2026-04-25T08:20:59.015Z</time></trkpt><trkpt lat="43.72016694858334" lon="11.15298210666425"><ele>314.0</ele><time>2026-04-25T08:21:00.015Z</time></trkpt><trkpt lat="43.72024100185654" lon="11.153003015325188"><ele>314.0</ele><time>2026-04-25T08:21:01.015Z</time></trkpt><trkpt lat="43.72029959637416" lon="11.15305295646934"><ele>314.0</ele><time>2026-04-25T08:21:02.015Z</time></trkpt><trkpt lat="43.72036482749413" lon="11.15311399546043"><ele>314.0</ele><time>2026-04-25T08:21:03.015Z</time></trkpt><trkpt lat="43.72043003098394" lon="11.153188262446093"><ele>315.75</ele><time>2026-04-25T08:21:04.015Z</time></trkpt><trkpt lat="43.72052132046286" lon="11.15327685059065"><ele>317.5</ele><time>2026-04-25T08:21:05.015Z</time></trkpt><trkpt lat="43.72063620542935" lon="11.153404353041964"><ele>319.25</ele><time>2026-04-25T08:21:06.015Z</time></trkpt><trkpt lat="43.72074885652814" lon="11.153511632911162"><ele>321.0</ele><time>2026-04-25T08:21:07.015Z</time></trkpt><trkpt lat="43.720855051861236" lon="11.153592843485429"><ele>321.0</ele><time>2026-04-25T08:21:08.015Z</time></trkpt><trkpt lat="43.720953061623" lon="11.153685520132942"><ele>321.0</ele><time>2026-04-25T08:21:09.015Z</time></trkpt><trkpt lat="43.72105144423585" lon="11.153792121503068"><ele>321.0</ele><time>2026-04-25T08:21:10.015Z</time></trkpt><trkpt lat="43.721166890153334" lon="11.153913488061283"><ele>321.0</ele><time>2026-04-25T08:21:11.015Z</time></trkpt><trkpt lat="43.72128167110656" lon="11.15405477416814"><ele>319.5</ele><time>2026-04-25T08:21:12.015Z</time></trkpt><trkpt lat="43.721382821253215" lon="11.154211225072645"><ele>318.0</ele><time>2026-04-25T08:21:13.015Z</time></trkpt><trkpt lat="43.72147172653514" lon="11.15435420092443"><ele>316.5</ele><time>2026-04-25T08:21:14.015Z</time></trkpt><trkpt lat="43.721562957112596" lon="11.154468641962765"><ele>315.0</ele><time>2026-04-25T08:21:15.015Z</time></trkpt><trkpt lat="43.721649665868796" lon="11.154577587325925"><ele>315.0</ele><time>2026-04-25T08:21:16.015Z</time></trkpt><trkpt lat="43.7217259363593" lon="11.154676281743386"><ele>315.0</ele><time>2026-04-25T08:21:17.015Z</time></trkpt><trkpt lat="43.72178677893108" lon="11.154771060576943"><ele>315.0</ele><time>2026-04-25T08:21:18.015Z</time></trkpt><trkpt lat="43.72185101547305" lon="11.154831402521523"><ele>315.0</ele><time>2026-04-25T08:21:19.015Z</time></trkpt><trkpt lat="43.721943010680135" lon="11.154870676986437"><ele>315.0</ele><time>2026-04-25T08:21:20.015Z</time></trkpt><trkpt lat="43.72203909274256" lon="11.154900109654804"><ele>316.0</ele><time>2026-04-25T08:21:21.015Z</time></trkpt><trkpt lat="43.72216706117399" lon="11.15489993877277"><ele>317.0</ele><time>2026-04-25T08:21:22.015Z</time></trkpt><trkpt lat="43.72229049823758" lon="11.154896639893215"><ele>318.0</ele><time>2026-04-25T08:21:23.015Z</time></trkpt><trkpt lat="43.72239946733847" lon="11.15486908251012"><ele>319.0</ele><time>2026-04-25T08:21:24.015Z</time></trkpt><trkpt lat="43.7224940424565" lon="11.154862912457956"><ele>316.2</ele><time>2026-04-25T08:21:25.015Z</time></trkpt><trkpt lat="43.72257352980441" lon="11.154891920116741"><ele>313.4</ele><time>2026-04-25T08:21:26.016Z</time></trkpt><trkpt lat="43.72265277230067" lon="11.154957383954937"><ele>310.6</ele><time>2026-04-25T08:21:27.016Z</time></trkpt><trkpt lat="43.72273161764445" lon="11.155028853200427"><ele>307.8</ele><time>2026-04-25T08:21:28.016Z</time></trkpt><trkpt lat="43.72280088611384" lon="11.155109627680186"><ele>305.0</ele><time>2026-04-25T08:21:29.016Z</time></trkpt><trkpt lat="43.722871499610676" lon="11.155214448674572"><ele>305.0</ele><time>2026-04-25T08:21:30.016Z</time></trkpt><trkpt lat="43.72293874673903" lon="11.155321620719961"><ele>305.0</ele><time>2026-04-25T08:21:31.016Z</time></trkpt><trkpt lat="43.72300522982842" lon="11.155419401374326"><ele>305.0</ele><time>2026-04-25T08:21:32.016Z</time></trkpt><trkpt lat="43.72304784427886" lon="11.155510837674255"><ele>305.0</ele><time>2026-04-25T08:21:33.016Z</time></trkpt><trkpt lat="43.72307593183047" lon="11.155621432764445"><ele>305.0</ele><time>2026-04-25T08:21:34.016Z</time></trkpt><trkpt lat="43.72311300354131" lon="11.155765946584877"><ele>303.33333333333337</ele><time>2026-04-25T08:21:35.016Z</time></trkpt><trkpt lat="43.723142129734924" lon="11.155919474485623"><ele>301.6666666666667</ele><time>2026-04-25T08:21:36.016Z</time></trkpt><trkpt lat="43.72317577886938" lon="11.156015977738637"><ele>300.0</ele><time>2026-04-25T08:21:37.016Z</time></trkpt><trkpt lat="43.72321446829494" lon="11.15612545837884"><ele>298.3333333333333</ele><time>2026-04-25T08:21:38.016Z</time></trkpt><trkpt lat="43.72325159042649" lon="11.156221288727625"><ele>296.66666666666663</ele><time>2026-04-25T08:21:39.016Z</time></trkpt><trkpt lat="43.723289966937976" lon="11.156313831112588"><ele>295.0</ele><time>2026-04-25T08:21:40.016Z</time></trkpt><trkpt lat="43.72333172836312" lon="11.156394479614187"><ele>295.0</ele><time>2026-04-25T08:21:41.016Z</time></trkpt><trkpt lat="43.72339003141087" lon="11.15648826001227"><ele>295.0</ele><time>2026-04-25T08:21:42.016Z</time></trkpt><trkpt lat="43.72345200123535" lon="11.156600881496262"><ele>295.0</ele><time>2026-04-25T08:21:43.016Z</time></trkpt><trkpt lat="43.72353015298887" lon="11.156676982015439"><ele>295.0</ele><time>2026-04-25T08:21:44.016Z</time></trkpt><trkpt lat="43.72360016749996" lon="11.156739534380105"><ele>295.0</ele><time>2026-04-25T08:21:45.016Z</time></trkpt><trkpt lat="43.72367366352253" lon="11.156790462611255"><ele>294.2</ele><time>2026-04-25T08:21:46.016Z</time></trkpt><trkpt lat="43.723735923010096" lon="11.156817429356774"><ele>293.4</ele><time>2026-04-25T08:21:47.016Z</time></trkpt><trkpt lat="43.72385678178403" lon="11.156635216886805"><ele>292.6</ele><time>2026-04-25T08:21:54.016Z</time></trkpt><trkpt lat="43.72384510393154" lon="11.156530400819706"><ele>291.8</ele><time>2026-04-25T08:21:55.016Z</time></trkpt><trkpt lat="43.723837475452655" lon="11.1564179146239"><ele>291.0</ele><time>2026-04-25T08:21:56.016Z</time></trkpt><trkpt lat="43.72383873627374" lon="11.156303527539643"><ele>291.0</ele><time>2026-04-25T08:21:57.016Z</time></trkpt><trkpt lat="43.72383715729783" lon="11.156175608667963"><ele>291.0</ele><time>2026-04-25T08:21:58.016Z</time></trkpt><trkpt lat="43.72381853337077" lon="11.156061366405059"><ele>291.0</ele><time>2026-04-25T08:21:59.017Z</time></trkpt><trkpt lat="43.723781484638316" lon="11.155918425733688"><ele>291.0</ele><time>2026-04-25T08:22:00.017Z</time></trkpt><trkpt lat="43.72373540948144" lon="11.155773740579743"><ele>291.0</ele><time>2026-04-25T08:22:01.017Z</time></trkpt><trkpt lat="43.7236857493138" lon="11.15562661272516"><ele>292.0</ele><time>2026-04-25T08:22:02.017Z</time></trkpt><trkpt lat="43.723643339116826" lon="11.155473416960625"><ele>293.0</ele><time>2026-04-25T08:22:03.017Z</time></trkpt><trkpt lat="43.7236339900972" lon="11.155303652247898"><ele>294.0</ele><time>2026-04-25T08:22:04.017Z</time></trkpt><trkpt lat="43.72363725493996" lon="11.1551214365007"><ele>295.0</ele><time>2026-04-25T08:22:05.017Z</time></trkpt><trkpt lat="43.72364545559838" lon="11.154926989189196"><ele>297.66666666666663</ele><time>2026-04-25T08:22:06.017Z</time></trkpt><trkpt lat="43.7236592472248" lon="11.154714716829897"><ele>300.3333333333333</ele><time>2026-04-25T08:22:07.017Z</time></trkpt><trkpt lat="43.723657858638575" lon="11.154499862933397"><ele>303.0</ele><time>2026-04-25T08:22:08.017Z</time></trkpt><trkpt lat="43.72365583183569" lon="11.154289941682997"><ele>303.0</ele><time>2026-04-25T08:22:09.017Z</time></trkpt><trkpt lat="43.723650838043994" lon="11.154090311031958"><ele>303.0</ele><time>2026-04-25T08:22:10.017Z</time></trkpt><trkpt lat="43.72363484645739" lon="11.153885708480114"><ele>303.0</ele><time>2026-04-25T08:22:11.017Z</time></trkpt><trkpt lat="43.72361173898856" lon="11.153666143659105"><ele>305.0</ele><time>2026-04-25T08:22:12.017Z</time></trkpt><trkpt lat="43.72357638923173" lon="11.153435291941362"><ele>307.0</ele><time>2026-04-25T08:22:13.017Z</time></trkpt><trkpt lat="43.72354820731225" lon="11.1532481263153"><ele>309.0</ele><time>2026-04-25T08:22:14.017Z</time></trkpt><trkpt lat="43.72353434559455" lon="11.153079181810822"><ele>311.0</ele><time>2026-04-25T08:22:15.017Z</time></trkpt><trkpt lat="43.72353486868559" lon="11.152889059508329"><ele>313.20000000000005</ele><time>2026-04-25T08:22:16.017Z</time></trkpt><trkpt lat="43.723532838678445" lon="11.152720527999275"><ele>315.40000000000003</ele><time>2026-04-25T08:22:17.017Z</time></trkpt><trkpt lat="43.72354082579365" lon="11.152567503811369"><ele>317.6</ele><time>2026-04-25T08:22:18.017Z</time></trkpt><trkpt lat="43.723547693476576" lon="11.152421476509032"><ele>319.8</ele><time>2026-04-25T08:22:19.017Z</time></trkpt><trkpt lat="43.723533992149385" lon="11.152297001063594"><ele>322.0</ele><time>2026-04-25T08:22:20.017Z</time></trkpt><trkpt lat="43.72350306917211" lon="11.152194770081891"><ele>322.0</ele><time>2026-04-25T08:22:21.017Z</time></trkpt><trkpt lat="43.72346610684155" lon="11.152092472687455"><ele>322.0</ele><time>2026-04-25T08:22:22.017Z</time></trkpt><trkpt lat="43.723445708030134" lon="11.151982809854387"><ele>322.0</ele><time>2026-04-25T08:22:23.017Z</time></trkpt><trkpt lat="43.72342789523888" lon="11.151871876688544"><ele>322.0</ele><time>2026-04-25T08:22:24.017Z</time></trkpt><trkpt lat="43.7234257703545" lon="11.151740450506338"><ele>322.0</ele><time>2026-04-25T08:22:25.017Z</time></trkpt><trkpt lat="43.723416743347975" lon="11.151618469285552"><ele>322.0</ele><time>2026-04-25T08:22:26.017Z</time></trkpt><trkpt lat="43.7233999091913" lon="11.151488783270475"><ele>321.8</ele><time>2026-04-25T08:22:27.017Z</time></trkpt><trkpt lat="43.72340392407666" lon="11.15137727301684"><ele>321.6</ele><time>2026-04-25T08:22:28.017Z</time></trkpt><trkpt lat="43.7234311413324" lon="11.151282048292925"><ele>321.40000000000003</ele><time>2026-04-25T08:22:29.017Z</time></trkpt><trkpt lat="43.72347617485704" lon="11.151180682213223"><ele>321.20000000000005</ele><time>2026-04-25T08:22:30.017Z</time></trkpt><trkpt lat="43.72353081463863" lon="11.151068871389953"><ele>321.0</ele><time>2026-04-25T08:22:31.017Z</time></trkpt><trkpt lat="43.72360931416583" lon="11.150934219093115"><ele>321.0</ele><time>2026-04-25T08:22:32.018Z</time></trkpt><trkpt lat="43.723712102590596" lon="11.150775079547847"><ele>321.0</ele><time>2026-04-25T08:22:33.018Z</time></trkpt><trkpt lat="43.723791724904444" lon="11.150611696834794"><ele>321.0</ele><time>2026-04-25T08:22:34.018Z</time></trkpt><trkpt lat="43.72387330952819" lon="11.150445477543169"><ele>321.0</ele><time>2026-04-25T08:22:35.018Z</time></trkpt><trkpt lat="43.723942151325886" lon="11.150287605350652"><ele>320.25</ele><time>2026-04-25T08:22:36.018Z</time></trkpt><trkpt lat="43.72399529031824" lon="11.15013027914195"><ele>319.5</ele><time>2026-04-25T08:22:37.018Z</time></trkpt><trkpt lat="43.724040843272284" lon="11.149978414059056"><ele>318.75</ele><time>2026-04-25T08:22:38.018Z</time></trkpt><trkpt lat="43.724076851436074" lon="11.149822791929079"><ele>318.0</ele><time>2026-04-25T08:22:39.018Z</time></trkpt><trkpt lat="43.72408683206287" lon="11.149674966726135"><ele>317.75</ele><time>2026-04-25T08:22:40.018Z</time></trkpt><trkpt lat="43.72406959487654" lon="11.149395828009554"><ele>317.5</ele><time>2026-04-25T08:22:42.018Z</time></trkpt><trkpt lat="43.72403439461392" lon="11.14925606171333"><ele>317.25</ele><time>2026-04-25T08:22:43.018Z</time></trkpt><trkpt lat="43.72400932199686" lon="11.149121996676067"><ele>317.0</ele><time>2026-04-25T08:22:44.018Z</time></trkpt><trkpt lat="43.723992877318096" lon="11.148967127689478"><ele>316.2</ele><time>2026-04-25T08:22:45.018Z</time></trkpt><trkpt lat="43.723991643029564" lon="11.148821814928478"><ele>315.4</ele><time>2026-04-25T08:22:46.018Z</time></trkpt><trkpt lat="43.72400405253343" lon="11.148683286102674"><ele>314.6</ele><time>2026-04-25T08:22:47.018Z</time></trkpt><trkpt lat="43.7240190311245" lon="11.148540131750018"><ele>313.8</ele><time>2026-04-25T08:22:48.018Z</time></trkpt><trkpt lat="43.72401494200636" lon="11.148406008521775"><ele>313.0</ele><time>2026-04-25T08:22:49.018Z</time></trkpt><trkpt lat="43.723970240773546" lon="11.148276057384617"><ele>311.25</ele><time>2026-04-25T08:22:50.018Z</time></trkpt><trkpt lat="43.72391916279235" lon="11.148102423640218"><ele>309.5</ele><time>2026-04-25T08:22:51.018Z</time></trkpt><trkpt lat="43.7238804671715" lon="11.14790748160351"><ele>307.75</ele><time>2026-04-25T08:22:52.018Z</time></trkpt><trkpt lat="43.723879179175825" lon="11.14770863845771"><ele>306.0</ele><time>2026-04-25T08:22:53.018Z</time></trkpt><trkpt lat="43.723861288139354" lon="11.147528858153086"><ele>303.5</ele><time>2026-04-25T08:22:54.018Z</time></trkpt><trkpt lat="43.72381991591575" lon="11.147362494790286"><ele>301.0</ele><time>2026-04-25T08:22:55.018Z</time></trkpt><trkpt lat="43.72375059739273" lon="11.147202677826053"><ele>298.5</ele><time>2026-04-25T08:22:56.018Z</time></trkpt><trkpt lat="43.723668584710104" lon="11.147059993543545"><ele>296.0</ele><time>2026-04-25T08:22:57.018Z</time></trkpt><trkpt lat="43.723593276935304" lon="11.146915394411911"><ele>296.5</ele><time>2026-04-25T08:22:58.018Z</time></trkpt><trkpt lat="43.72353063622294" lon="11.146777811670722"><ele>297.0</ele><time>2026-04-25T08:22:59.018Z</time></trkpt><trkpt lat="43.72348214268936" lon="11.146624115763494"><ele>297.5</ele><time>2026-04-25T08:23:00.018Z</time></trkpt><trkpt lat="43.72342770628315" lon="11.146464506265888"><ele>298.0</ele><time>2026-04-25T08:23:01.018Z</time></trkpt><trkpt lat="43.72336342703287" lon="11.146305274821215"><ele>298.0</ele><time>2026-04-25T08:23:02.018Z</time></trkpt><trkpt lat="43.723304270398664" lon="11.146158781688818"><ele>298.0</ele><time>2026-04-25T08:23:03.018Z</time></trkpt><trkpt lat="43.723259539228366" lon="11.146059986221157"><ele>298.0</ele><time>2026-04-25T08:23:04.018Z</time></trkpt><trkpt lat="43.72324731337525" lon="11.145965394861827"><ele>298.0</ele><time>2026-04-25T08:23:07.019Z</time></trkpt><trkpt lat="43.72320742971337" lon="11.14577939765257"><ele>298.0</ele><time>2026-04-25T08:23:12.019Z</time></trkpt><trkpt lat="43.723144391473554" lon="11.145632543284925"><ele>300.0</ele><time>2026-04-25T08:23:13.019Z</time></trkpt><trkpt lat="43.7230919580183" lon="11.14547032625744"><ele>302.0</ele><time>2026-04-25T08:23:14.019Z</time></trkpt><trkpt lat="43.72306864926654" lon="11.145284602231966"><ele>304.0</ele><time>2026-04-25T08:23:15.019Z</time></trkpt><trkpt lat="43.72308066016875" lon="11.145106503028437"><ele>306.0</ele><time>2026-04-25T08:23:16.019Z</time></trkpt><trkpt lat="43.72312798217994" lon="11.14491496073321"><ele>309.0</ele><time>2026-04-25T08:23:17.019Z</time></trkpt><trkpt lat="43.72318243934031" lon="11.144716576088996"><ele>312.0</ele><time>2026-04-25T08:23:18.019Z</time></trkpt><trkpt lat="43.72323285806114" lon="11.144504159251422"><ele>315.0</ele><time>2026-04-25T08:23:19.019Z</time></trkpt><trkpt lat="43.72327752810948" lon="11.144306204582659"><ele>315.0</ele><time>2026-04-25T08:23:20.019Z</time></trkpt><trkpt lat="43.72331921448788" lon="11.144109974780864"><ele>315.0</ele><time>2026-04-25T08:23:21.019Z</time></trkpt><trkpt lat="43.72335731920522" lon="11.143913946829445"><ele>315.0</ele><time>2026-04-25T08:23:22.019Z</time></trkpt><trkpt lat="43.723383606548275" lon="11.143752110743334"><ele>315.0</ele><time>2026-04-25T08:23:23.019Z</time></trkpt><trkpt lat="43.72339319204727" lon="11.143617621323454"><ele>316.5</ele><time>2026-04-25T08:23:24.019Z</time></trkpt><trkpt lat="43.723379966566284" lon="11.143504759008223"><ele>318.0</ele><time>2026-04-25T08:23:25.019Z</time></trkpt><trkpt lat="43.72331752292393" lon="11.14338542072631"><ele>319.5</ele><time>2026-04-25T08:23:26.019Z</time></trkpt><trkpt lat="43.72322700906951" lon="11.143253785909891"><ele>321.0</ele><time>2026-04-25T08:23:27.019Z</time></trkpt><trkpt lat="43.72312513672219" lon="11.143122284032659"><ele>321.0</ele><time>2026-04-25T08:23:28.019Z</time></trkpt><trkpt lat="43.723006599482794" lon="11.14297180390167"><ele>321.0</ele><time>2026-04-25T08:23:29.019Z</time></trkpt><trkpt lat="43.722898500729286" lon="11.142835982403273"><ele>321.0</ele><time>2026-04-25T08:23:30.019Z</time></trkpt><trkpt lat="43.72281047004418" lon="11.142718264949828"><ele>321.0</ele><time>2026-04-25T08:23:31.019Z</time></trkpt><trkpt lat="43.722739829689246" lon="11.14261221437655"><ele>323.25</ele><time>2026-04-25T08:23:32.019Z</time></trkpt><trkpt lat="43.72267759075239" lon="11.142497001972462"><ele>325.5</ele><time>2026-04-25T08:23:33.019Z</time></trkpt><trkpt lat="43.72261863637562" lon="11.142344766524602"><ele>327.75</ele><time>2026-04-25T08:23:34.019Z</time></trkpt><trkpt lat="43.72258680203883" lon="11.142159715846837"><ele>330.0</ele><time>2026-04-25T08:23:35.019Z</time></trkpt><trkpt lat="43.72256711613291" lon="11.14197722658784"><ele>330.25</ele><time>2026-04-25T08:23:36.019Z</time></trkpt><trkpt lat="43.72257118539673" lon="11.141798489255585"><ele>330.5</ele><time>2026-04-25T08:23:37.019Z</time></trkpt><trkpt lat="43.72260029519375" lon="11.141608446687172"><ele>330.75</ele><time>2026-04-25T08:23:38.019Z</time></trkpt><trkpt lat="43.72265200121054" lon="11.141396734717882"><ele>331.0</ele><time>2026-04-25T08:23:39.02Z</time></trkpt><trkpt lat="43.7226855290285" lon="11.141186446816405"><ele>331.0</ele><time>2026-04-25T08:23:40.02Z</time></trkpt><trkpt lat="43.722722289598295" lon="11.140973499691807"><ele>331.0</ele><time>2026-04-25T08:23:41.02Z</time></trkpt><trkpt lat="43.72276947093082" lon="11.140750255211424"><ele>331.0</ele><time>2026-04-25T08:23:42.02Z</time></trkpt><trkpt lat="43.722822434113574" lon="11.140543024992436"><ele>327.2</ele><time>2026-04-25T08:23:43.02Z</time></trkpt><trkpt lat="43.72285454599036" lon="11.140379171111439"><ele>323.40000000000003</ele><time>2026-04-25T08:23:44.02Z</time></trkpt><trkpt lat="43.72287321932297" lon="11.140256033753174"><ele>319.6</ele><time>2026-04-25T08:23:45.02Z</time></trkpt><trkpt lat="43.722866403980824" lon="11.140149918416848"><ele>315.8</ele><time>2026-04-25T08:23:46.02Z</time></trkpt><trkpt lat="43.72284013104123" lon="11.140064139775339"><ele>312.0</ele><time>2026-04-25T08:23:47.02Z</time></trkpt><trkpt lat="43.722773089596096" lon="11.139977231494568"><ele>315.6</ele><time>2026-04-25T08:23:48.019Z</time></trkpt><trkpt lat="43.72268699563522" lon="11.139888521793754"><ele>319.2</ele><time>2026-04-25T08:23:49.017Z</time></trkpt><trkpt lat="43.72259221339926" lon="11.139796269763034"><ele>322.8</ele><time>2026-04-25T08:23:50.016Z</time></trkpt><trkpt lat="43.72252237559792" lon="11.139694770851916"><ele>326.4</ele><time>2026-04-25T08:23:51.015Z</time></trkpt><trkpt lat="43.7225130639054" lon="11.139595980233263"><ele>330.0</ele><time>2026-04-25T08:23:52.013Z</time></trkpt><trkpt lat="43.722561187230326" lon="11.139490396112661"><ele>328.75</ele><time>2026-04-25T08:23:53.012Z</time></trkpt><trkpt lat="43.72263929776141" lon="11.139344019170927"><ele>327.5</ele><time>2026-04-25T08:23:54.01Z</time></trkpt><trkpt lat="43.72274093069003" lon="11.13919409669025"><ele>326.25</ele><time>2026-04-25T08:23:55.009Z</time></trkpt><trkpt lat="43.72281889455258" lon="11.139030704775358"><ele>325.0</ele><time>2026-04-25T08:23:56.008Z</time></trkpt><trkpt lat="43.72287479458345" lon="11.138862734449958"><ele>325.0</ele><time>2026-04-25T08:23:57.007Z</time></trkpt><trkpt lat="43.72292576935137" lon="11.13865034490448"><ele>325.0</ele><time>2026-04-25T08:23:58.007Z</time></trkpt><trkpt lat="43.722959332832666" lon="11.138466257049151"><ele>325.0</ele><time>2026-04-25T08:23:59.006Z</time></trkpt><trkpt lat="43.722973925391344" lon="11.138317017389976"><ele>325.0</ele><time>2026-04-25T08:24:00.005Z</time></trkpt><trkpt lat="43.72297475015691" lon="11.138192376669515"><ele>326.5</ele><time>2026-04-25T08:24:01.004Z</time></trkpt><trkpt lat="43.72295031566038" lon="11.138062753147675"><ele>328.0</ele><time>2026-04-25T08:24:02.004Z</time></trkpt><trkpt lat="43.72290364094768" lon="11.13793013237401"><ele>329.5</ele><time>2026-04-25T08:24:03.003Z</time></trkpt><trkpt lat="43.72282403793243" lon="11.137768055314323"><ele>331.0</ele><time>2026-04-25T08:24:04.002Z</time></trkpt><trkpt lat="43.72271716719898" lon="11.13760820558144"><ele>335.0</ele><time>2026-04-25T08:24:05.002Z</time></trkpt><trkpt lat="43.72261117272402" lon="11.137419379432002"><ele>339.0</ele><time>2026-04-25T08:24:06.001Z</time></trkpt><trkpt lat="43.72253209559475" lon="11.137269818328159"><ele>343.0</ele><time>2026-04-25T08:24:07.001Z</time></trkpt><trkpt lat="43.72244384500893" lon="11.137159937448029"><ele>347.0</ele><time>2026-04-25T08:24:08Z</time></trkpt><trkpt lat="43.72236184001484" lon="11.137066127350009"><ele>347.5</ele><time>2026-04-25T08:24:09Z</time></trkpt><trkpt lat="43.72226369452336" lon="11.137015200712407"><ele>348.0</ele><time>2026-04-25T08:24:09.999Z</time></trkpt><trkpt lat="43.722200294425235" lon="11.136968151979536"><ele>348.5</ele><time>2026-04-25T08:24:10.999Z</time></trkpt><trkpt lat="43.722119925243945" lon="11.136916404110169"><ele>349.0</ele><time>2026-04-25T08:24:15.997Z</time></trkpt><trkpt lat="43.7220582625161" lon="11.136845769084582"><ele>349.5</ele><time>2026-04-25T08:24:18.997Z</time></trkpt><trkpt lat="43.72199230939665" lon="11.136773936379322"><ele>350.0</ele><time>2026-04-25T08:24:20.996Z</time></trkpt><trkpt lat="43.72193160028496" lon="11.136698432411265"><ele>346.6</ele><time>2026-04-25T08:24:22.996Z</time></trkpt><trkpt lat="43.721887083869454" lon="11.136633156924626"><ele>343.2</ele><time>2026-04-25T08:24:24.996Z</time></trkpt><trkpt lat="43.721846633949596" lon="11.136536342224973"><ele>339.79999999999995</ele><time>2026-04-25T08:24:26.995Z</time></trkpt><trkpt lat="43.72180537618799" lon="11.13638845160181"><ele>336.4</ele><time>2026-04-25T08:24:28.995Z</time></trkpt><trkpt lat="43.72179062529202" lon="11.136219857507628"><ele>333.0</ele><time>2026-04-25T08:24:30.995Z</time></trkpt><trkpt lat="43.721770299563296" lon="11.136113631762079"><ele>332.79999999999995</ele><time>2026-04-25T08:24:33.994Z</time></trkpt><trkpt lat="43.72174761849117" lon="11.136012584796783"><ele>332.6</ele><time>2026-04-25T08:24:37.994Z</time></trkpt><trkpt lat="43.72172693779521" lon="11.135916244434377"><ele>332.4</ele><time>2026-04-25T08:24:44.994Z</time></trkpt><trkpt lat="43.72171869511513" lon="11.135797722636845"><ele>332.20000000000005</ele><time>2026-04-25T08:24:47.994Z</time></trkpt><trkpt lat="43.72169054861592" lon="11.135623908746068"><ele>332.0</ele><time>2026-04-25T08:24:49.994Z</time></trkpt><trkpt lat="43.721671776454706" lon="11.135505612799191"><ele>331.6</ele><time>2026-04-25T08:24:50.993Z</time></trkpt><trkpt lat="43.72167227441552" lon="11.135359774234589"><ele>331.20000000000005</ele><time>2026-04-25T08:24:51.993Z</time></trkpt><trkpt lat="43.7216617170276" lon="11.135216779102038"><ele>330.8</ele><time>2026-04-25T08:24:52.993Z</time></trkpt><trkpt lat="43.721647484708136" lon="11.135078371200317"><ele>330.4</ele><time>2026-04-25T08:24:53.993Z</time></trkpt><trkpt lat="43.72165557332329" lon="11.13493464974609"><ele>330.0</ele><time>2026-04-25T08:24:54.993Z</time></trkpt><trkpt lat="43.72167142310385" lon="11.134816814683752"><ele>330.0</ele><time>2026-04-25T08:24:55.993Z</time></trkpt><trkpt lat="43.72167738556712" lon="11.13472151854367"><ele>330.0</ele><time>2026-04-25T08:24:56.993Z</time></trkpt><trkpt lat="43.72167269100035" lon="11.13462409096178"><ele>330.0</ele><time>2026-04-25T08:24:58.993Z</time></trkpt><trkpt lat="43.72167114864557" lon="11.13472339011165"><ele>330.0</ele><time>2026-04-25T08:25:09.993Z</time></trkpt><trkpt lat="43.72165138949635" lon="11.134850041974719"><ele>330.0</ele><time>2026-04-25T08:25:11.993Z</time></trkpt><trkpt lat="43.721652680341236" lon="11.135084883112684"><ele>331.5</ele><time>2026-04-25T08:25:13.993Z</time></trkpt><trkpt lat="43.7216471378213" lon="11.135215069559464"><ele>333.0</ele><time>2026-04-25T08:25:14.993Z</time></trkpt><trkpt lat="43.72164015819734" lon="11.135355464426466"><ele>334.5</ele><time>2026-04-25T08:25:15.993Z</time></trkpt><trkpt lat="43.721653222245514" lon="11.13551878824436"><ele>336.0</ele><time>2026-04-25T08:25:16.993Z</time></trkpt><trkpt lat="43.72167880153999" lon="11.13570539300771"><ele>335.0</ele><time>2026-04-25T08:25:17.993Z</time></trkpt><trkpt lat="43.72170668479046" lon="11.135884738096848"><ele>334.0</ele><time>2026-04-25T08:25:18.993Z</time></trkpt><trkpt lat="43.721727186470225" lon="11.136070364207043"><ele>333.0</ele><time>2026-04-25T08:25:19.993Z</time></trkpt><trkpt lat="43.72174289068805" lon="11.136239608072303"><ele>332.0</ele><time>2026-04-25T08:25:20.993Z</time></trkpt><trkpt lat="43.72176268009867" lon="11.136389711110048"><ele>332.0</ele><time>2026-04-25T08:25:21.993Z</time></trkpt><trkpt lat="43.72178118154834" lon="11.136519005737398"><ele>332.0</ele><time>2026-04-25T08:25:22.993Z</time></trkpt><trkpt lat="43.721817533282795" lon="11.136648143172222"><ele>332.0</ele><time>2026-04-25T08:25:23.993Z</time></trkpt><trkpt lat="43.72188177018221" lon="11.136755589124911"><ele>332.0</ele><time>2026-04-25T08:25:24.993Z</time></trkpt><trkpt lat="43.721958564720325" lon="11.136811881052571"><ele>332.0</ele><time>2026-04-25T08:25:25.993Z</time></trkpt><trkpt lat="43.72202508244419" lon="11.136878313235345"><ele>335.0</ele><time>2026-04-25T08:25:26.993Z</time></trkpt><trkpt lat="43.722090161819416" lon="11.136946417992801"><ele>338.0</ele><time>2026-04-25T08:25:27.993Z</time></trkpt><trkpt lat="43.722182041397694" lon="11.137005083649269"><ele>341.0</ele><time>2026-04-25T08:25:29.993Z</time></trkpt><trkpt lat="43.7222399065438" lon="11.137060887748342"><ele>344.0</ele><time>2026-04-25T08:25:31.993Z</time></trkpt><trkpt lat="43.72218272308871" lon="11.13701840233146"><ele>347.0</ele><time>2026-04-25T08:25:53.993Z</time></trkpt><trkpt lat="43.72213026796246" lon="11.136932335534153"><ele>350.0</ele><time>2026-04-25T08:27:15.992Z</time></trkpt><trkpt lat="43.72212909017075" lon="11.137120577721872"><ele>350.0</ele><time>2026-04-25T08:27:16.992Z</time></trkpt><trkpt lat="43.722064414022874" lon="11.137128783060657"><ele>350.0</ele><time>2026-04-25T08:27:17.992Z</time></trkpt><trkpt lat="43.72195163900689" lon="11.137140273846219"><ele>350.0</ele><time>2026-04-25T08:27:18.992Z</time></trkpt><trkpt lat="43.721883504051554" lon="11.137141407499877"><ele>350.0</ele><time>2026-04-25T08:27:19.992Z</time></trkpt><trkpt lat="43.721771959872726" lon="11.13708689706529"><ele>350.0</ele><time>2026-04-25T08:27:21.992Z</time></trkpt><trkpt lat="43.72175582777486" lon="11.136331496468411"><ele>346.5</ele><time>2026-04-25T08:27:22.992Z</time></trkpt><trkpt lat="43.72171718595645" lon="11.136201452338067"><ele>343.0</ele><time>2026-04-25T08:27:23.992Z</time></trkpt><trkpt lat="43.72169107446153" lon="11.135998051691038"><ele>339.5</ele><time>2026-04-25T08:27:24.992Z</time></trkpt><trkpt lat="43.72167009828775" lon="11.135763876884331"><ele>336.0</ele><time>2026-04-25T08:27:25.992Z</time></trkpt><trkpt lat="43.721640859620955" lon="11.135522285370167"><ele>336.0</ele><time>2026-04-25T08:27:26.992Z</time></trkpt><trkpt lat="43.721628112324474" lon="11.135284482790492"><ele>336.0</ele><time>2026-04-25T08:27:27.992Z</time></trkpt><trkpt lat="43.72164307673631" lon="11.135072618076485"><ele>336.0</ele><time>2026-04-25T08:27:28.992Z</time></trkpt><trkpt lat="43.72165581362623" lon="11.134839864406652"><ele>334.0</ele><time>2026-04-25T08:27:29.992Z</time></trkpt><trkpt lat="43.72167912215747" lon="11.134591715177034"><ele>332.0</ele><time>2026-04-25T08:27:30.992Z</time></trkpt><trkpt lat="43.721711809292465" lon="11.134335353225191"><ele>330.0</ele><time>2026-04-25T08:27:31.992Z</time></trkpt><trkpt lat="43.721735571337824" lon="11.134094274251932"><ele>327.75</ele><time>2026-04-25T08:27:32.992Z</time></trkpt><trkpt lat="43.7217889342086" lon="11.133886734424236"><ele>325.5</ele><time>2026-04-25T08:27:33.992Z</time></trkpt><trkpt lat="43.72182680158286" lon="11.133698786341482"><ele>323.25</ele><time>2026-04-25T08:27:34.992Z</time></trkpt><trkpt lat="43.72183889977669" lon="11.133509693406538"><ele>321.0</ele><time>2026-04-25T08:27:35.992Z</time></trkpt><trkpt lat="43.72184757248266" lon="11.133306157941952"><ele>318.0</ele><time>2026-04-25T08:27:36.992Z</time></trkpt><trkpt lat="43.7218315883327" lon="11.133101304213255"><ele>315.0</ele><time>2026-04-25T08:27:37.992Z</time></trkpt><trkpt lat="43.72182209750304" lon="11.132927904389293"><ele>312.0</ele><time>2026-04-25T08:27:38.992Z</time></trkpt><trkpt lat="43.721852336698454" lon="11.132760036878592"><ele>309.0</ele><time>2026-04-25T08:27:39.992Z</time></trkpt><trkpt lat="43.721918382062526" lon="11.13260892519644"><ele>310.5</ele><time>2026-04-25T08:27:40.992Z</time></trkpt><trkpt lat="43.72198683488183" lon="11.132449549692238"><ele>312.0</ele><time>2026-04-25T08:27:41.992Z</time></trkpt><trkpt lat="43.72206237691483" lon="11.13231275992287"><ele>313.5</ele><time>2026-04-25T08:27:42.992Z</time></trkpt><trkpt lat="43.7221788520362" lon="11.132127586167567"><ele>315.0</ele><time>2026-04-25T08:27:43.992Z</time></trkpt><trkpt lat="43.7224064450119" lon="11.131813377270554"><ele>315.0</ele><time>2026-04-25T08:27:45.992Z</time></trkpt><trkpt lat="43.722516195279674" lon="11.131689196955348"><ele>315.0</ele><time>2026-04-25T08:27:46.992Z</time></trkpt><trkpt lat="43.72262438201544" lon="11.131575260555438"><ele>315.0</ele><time>2026-04-25T08:27:47.992Z</time></trkpt><trkpt lat="43.7226867318996" lon="11.13147745012154"><ele>315.0</ele><time>2026-04-25T08:27:48.992Z</time></trkpt><trkpt lat="43.722741746456116" lon="11.131428714533694"><ele>315.0</ele><time>2026-04-25T08:27:49.992Z</time></trkpt><trkpt lat="43.72276389054776" lon="11.131255141940624"><ele>312.2</ele><time>2026-04-25T08:27:51.992Z</time></trkpt><trkpt lat="43.722697647559706" lon="11.131179382931611"><ele>309.4</ele><time>2026-04-25T08:27:52.992Z</time></trkpt><trkpt lat="43.72261461050752" lon="11.131128628319917"><ele>306.6</ele><time>2026-04-25T08:27:53.992Z</time></trkpt><trkpt lat="43.72252644839531" lon="11.131158149069252"><ele>303.8</ele><time>2026-04-25T08:27:54.992Z</time></trkpt><trkpt lat="43.722417226559436" lon="11.131210590693232"><ele>301.0</ele><time>2026-04-25T08:27:55.992Z</time></trkpt><trkpt lat="43.72230703994205" lon="11.131261862175137"><ele>301.0</ele><time>2026-04-25T08:27:56.992Z</time></trkpt><trkpt lat="43.72218561522895" lon="11.13131849020996"><ele>301.0</ele><time>2026-04-25T08:27:57.992Z</time></trkpt><trkpt lat="43.72208605269174" lon="11.131340802392035"><ele>301.0</ele><time>2026-04-25T08:27:58.992Z</time></trkpt><trkpt lat="43.72198230078826" lon="11.131385873659855"><ele>301.0</ele><time>2026-04-25T08:27:59.992Z</time></trkpt><trkpt lat="43.72188414552981" lon="11.131437390845646"><ele>301.0</ele><time>2026-04-25T08:28:00.992Z</time></trkpt><trkpt lat="43.72178255113773" lon="11.131478923959495"><ele>301.0</ele><time>2026-04-25T08:28:01.992Z</time></trkpt><trkpt lat="43.7215911042337" lon="11.13156327907817"><ele>301.0</ele><time>2026-04-25T08:28:03.991Z</time></trkpt><trkpt lat="43.721500260223266" lon="11.13164132815743"><ele>301.0</ele><time>2026-04-25T08:28:04.991Z</time></trkpt><trkpt lat="43.72142046121124" lon="11.131734479606925"><ele>301.0</ele><time>2026-04-25T08:28:05.991Z</time></trkpt><trkpt lat="43.72134731817635" lon="11.131828214040754"><ele>301.0</ele><time>2026-04-25T08:28:06.991Z</time></trkpt><trkpt lat="43.72128224380081" lon="11.131921065550324"><ele>301.0</ele><time>2026-04-25T08:28:07.991Z</time></trkpt><trkpt lat="43.72114541673323" lon="11.13205221236013"><ele>301.0</ele><time>2026-04-25T08:28:09.991Z</time></trkpt><trkpt lat="43.721068205940966" lon="11.132129628547238"><ele>301.0</ele><time>2026-04-25T08:28:11.991Z</time></trkpt><trkpt lat="43.72100568410707" lon="11.132237705573852"><ele>302.6</ele><time>2026-04-25T08:28:18.991Z</time></trkpt><trkpt lat="43.72104265552309" lon="11.132440507199519"><ele>304.20000000000005</ele><time>2026-04-25T08:28:19.991Z</time></trkpt><trkpt lat="43.721057198876295" lon="11.132526135893603"><ele>305.79999999999995</ele><time>2026-04-25T08:28:20.991Z</time></trkpt><trkpt lat="43.72107879077039" lon="11.1326255204081"><ele>307.4</ele><time>2026-04-25T08:28:21.991Z</time></trkpt><trkpt lat="43.72109748951604" lon="11.132732883391272"><ele>309.0</ele><time>2026-04-25T08:28:22.991Z</time></trkpt><trkpt lat="43.72111506303527" lon="11.132843981008776"><ele>309.0</ele><time>2026-04-25T08:28:23.991Z</time></trkpt><trkpt lat="43.72112864697558" lon="11.132953206553013"><ele>309.0</ele><time>2026-04-25T08:28:24.991Z</time></trkpt><trkpt lat="43.72113781536206" lon="11.133061600682929"><ele>309.0</ele><time>2026-04-25T08:28:25.991Z</time></trkpt><trkpt lat="43.72114528438921" lon="11.133180151970315"><ele>309.0</ele><time>2026-04-25T08:28:26.991Z</time></trkpt><trkpt lat="43.721151901103646" lon="11.13331610965819"><ele>309.0</ele><time>2026-04-25T08:28:27.991Z</time></trkpt><trkpt lat="43.72115571703848" lon="11.133434678952106"><ele>309.0</ele><time>2026-04-25T08:28:28.991Z</time></trkpt><trkpt lat="43.72115769971976" lon="11.133530839045964"><ele>311.4</ele><time>2026-04-25T08:28:29.991Z</time></trkpt><trkpt lat="43.721158216485556" lon="11.13362294655409"><ele>313.79999999999995</ele><time>2026-04-25T08:28:30.991Z</time></trkpt><trkpt lat="43.72113066788358" lon="11.133783284096154"><ele>316.20000000000005</ele><time>2026-04-25T08:28:32.991Z</time></trkpt><trkpt lat="43.721110463684575" lon="11.133915210163122"><ele>318.6</ele><time>2026-04-25T08:28:34.991Z</time></trkpt><trkpt lat="43.72113002965267" lon="11.133826347276372"><ele>321.0</ele><time>2026-04-25T08:28:53.991Z</time></trkpt><trkpt lat="43.72112956867764" lon="11.133663724661835"><ele>321.0</ele><time>2026-04-25T08:28:55.991Z</time></trkpt><trkpt lat="43.72113754080552" lon="11.133549485883552"><ele>321.0</ele><time>2026-04-25T08:28:56.991Z</time></trkpt><trkpt lat="43.721146406699724" lon="11.133432415389914"><ele>321.0</ele><time>2026-04-25T08:28:57.991Z</time></trkpt><trkpt lat="43.72114796171724" lon="11.133330003705947"><ele>321.0</ele><time>2026-04-25T08:28:58.991Z</time></trkpt><trkpt lat="43.72115154367405" lon="11.13322578431959"><ele>321.0</ele><time>2026-04-25T08:28:59.991Z</time></trkpt><trkpt lat="43.72113930358728" lon="11.133118940248439"><ele>321.0</ele><time>2026-04-25T08:29:00.991Z</time></trkpt><trkpt lat="43.72112802321686" lon="11.132997128895072"><ele>319.0</ele><time>2026-04-25T08:29:01.991Z</time></trkpt><trkpt lat="43.721129721401994" lon="11.13289334037626"><ele>317.0</ele><time>2026-04-25T08:29:02.991Z</time></trkpt><trkpt lat="43.7211177297249" lon="11.132799429912177"><ele>315.0</ele><time>2026-04-25T08:29:03.991Z</time></trkpt><trkpt lat="43.721097547837836" lon="11.132697717913263"><ele>313.0</ele><time>2026-04-25T08:29:04.991Z</time></trkpt><trkpt lat="43.72107629597613" lon="11.132591845653751"><ele>311.0</ele><time>2026-04-25T08:29:05.991Z</time></trkpt><trkpt lat="43.72106113733858" lon="11.132494205216164"><ele>309.0</ele><time>2026-04-25T08:29:06.991Z</time></trkpt><trkpt lat="43.72103978026958" lon="11.132374616446025"><ele>307.4</ele><time>2026-04-25T08:29:08.991Z</time></trkpt><trkpt lat="43.72102045222586" lon="11.132285111089965"><ele>305.79999999999995</ele><time>2026-04-25T08:29:11.991Z</time></trkpt><trkpt lat="43.72104435330226" lon="11.132114019960046"><ele>304.20000000000005</ele><time>2026-04-25T08:29:13.991Z</time></trkpt><trkpt lat="43.721071066748976" lon="11.131993440649161"><ele>302.6</ele><time>2026-04-25T08:29:14.991Z</time></trkpt><trkpt lat="43.72109981080367" lon="11.131863697277034"><ele>301.0</ele><time>2026-04-25T08:29:15.991Z</time></trkpt><trkpt lat="43.721140367222134" lon="11.131740666986097"><ele>301.0</ele><time>2026-04-25T08:29:16.991Z</time></trkpt><trkpt lat="43.72132388655729" lon="11.131865657844482"><ele>301.0</ele><time>2026-04-25T08:29:17.991Z</time></trkpt><trkpt lat="43.721178043216774" lon="11.13145236865333"><ele>299.25</ele><time>2026-04-25T08:29:18.991Z</time></trkpt><trkpt lat="43.72119255233958" lon="11.131292739768842"><ele>297.5</ele><time>2026-04-25T08:29:19.991Z</time></trkpt><trkpt lat="43.72120095416615" lon="11.131139828542107"><ele>295.75</ele><time>2026-04-25T08:29:20.991Z</time></trkpt><trkpt lat="43.721206228978026" lon="11.130977880204986"><ele>294.0</ele><time>2026-04-25T08:29:21.991Z</time></trkpt><trkpt lat="43.72122407242851" lon="11.130820225675008"><ele>292.4</ele><time>2026-04-25T08:29:22.991Z</time></trkpt><trkpt lat="43.72124090946537" lon="11.130671503760198"><ele>290.79999999999995</ele><time>2026-04-25T08:29:23.991Z</time></trkpt><trkpt lat="43.72127972926875" lon="11.130550282429631"><ele>289.20000000000005</ele><time>2026-04-25T08:29:24.991Z</time></trkpt><trkpt lat="43.721345521582435" lon="11.130434774649117"><ele>287.6</ele><time>2026-04-25T08:29:25.991Z</time></trkpt><trkpt lat="43.7214293749274" lon="11.130340318812204"><ele>286.0</ele><time>2026-04-25T08:29:26.991Z</time></trkpt><trkpt lat="43.721524847144494" lon="11.130227953541672"><ele>286.0</ele><time>2026-04-25T08:29:27.991Z</time></trkpt><trkpt lat="43.72162563631783" lon="11.130108184766556"><ele>286.0</ele><time>2026-04-25T08:29:28.991Z</time></trkpt><trkpt lat="43.72171484508301" lon="11.129995882519024"><ele>286.0</ele><time>2026-04-25T08:29:29.991Z</time></trkpt><trkpt lat="43.721776881545566" lon="11.129839516978098"><ele>286.0</ele><time>2026-04-25T08:29:30.991Z</time></trkpt><trkpt lat="43.72183889591778" lon="11.129680813964827"><ele>284.5</ele><time>2026-04-25T08:29:31.991Z</time></trkpt><trkpt lat="43.72186058063238" lon="11.12954040078218"><ele>283.0</ele><time>2026-04-25T08:29:32.991Z</time></trkpt><trkpt lat="43.7218794124934" lon="11.129374704816204"><ele>281.5</ele><time>2026-04-25T08:29:33.991Z</time></trkpt><trkpt lat="43.72185152952606" lon="11.129196288444069"><ele>280.0</ele><time>2026-04-25T08:29:34.991Z</time></trkpt><trkpt lat="43.72177873252667" lon="11.12903630370714"><ele>279.0</ele><time>2026-04-25T08:29:35.991Z</time></trkpt><trkpt lat="43.72171765838638" lon="11.12886105699455"><ele>278.0</ele><time>2026-04-25T08:29:36.991Z</time></trkpt><trkpt lat="43.72164253331238" lon="11.128689178563103"><ele>277.0</ele><time>2026-04-25T08:29:37.991Z</time></trkpt><trkpt lat="43.72156874586755" lon="11.128501589296311"><ele>276.0</ele><time>2026-04-25T08:29:38.991Z</time></trkpt><trkpt lat="43.72149584536995" lon="11.128319621873738"><ele>273.0</ele><time>2026-04-25T08:29:39.991Z</time></trkpt><trkpt lat="43.721423211631006" lon="11.128162638540202"><ele>270.0</ele><time>2026-04-25T08:29:40.991Z</time></trkpt><trkpt lat="43.721326866017485" lon="11.12802012663724"><ele>267.0</ele><time>2026-04-25T08:29:41.991Z</time></trkpt><trkpt lat="43.721201072419824" lon="11.127911945809432"><ele>264.0</ele><time>2026-04-25T08:29:42.991Z</time></trkpt><trkpt lat="43.721084825581855" lon="11.127791121524044"><ele>264.5</ele><time>2026-04-25T08:29:43.991Z</time></trkpt><trkpt lat="43.72096167701852" lon="11.127669526728845"><ele>265.0</ele><time>2026-04-25T08:29:44.991Z</time></trkpt><trkpt lat="43.72084899885365" lon="11.127526796064052"><ele>265.5</ele><time>2026-04-25T08:29:45.991Z</time></trkpt><trkpt lat="43.720732279158305" lon="11.127409786059873"><ele>266.0</ele><time>2026-04-25T08:29:46.991Z</time></trkpt><trkpt lat="43.72061838271034" lon="11.127298649851085"><ele>264.5</ele><time>2026-04-25T08:29:47.991Z</time></trkpt><trkpt lat="43.72051254476089" lon="11.127177499768464"><ele>263.0</ele><time>2026-04-25T08:29:48.991Z</time></trkpt><trkpt lat="43.72041132064324" lon="11.127038908372938"><ele>261.5</ele><time>2026-04-25T08:29:49.991Z</time></trkpt><trkpt lat="43.72031740045964" lon="11.126879390912954"><ele>260.0</ele><time>2026-04-25T08:29:50.991Z</time></trkpt><trkpt lat="43.72022586946495" lon="11.126707434490667"><ele>258.25</ele><time>2026-04-25T08:29:51.991Z</time></trkpt><trkpt lat="43.72014066763034" lon="11.126537422844429"><ele>256.5</ele><time>2026-04-25T08:29:52.991Z</time></trkpt><trkpt lat="43.720056816455134" lon="11.126363585730209"><ele>254.75</ele><time>2026-04-25T08:29:53.991Z</time></trkpt><trkpt lat="43.719972949295446" lon="11.126195581660054"><ele>253.0</ele><time>2026-04-25T08:29:54.991Z</time></trkpt><trkpt lat="43.71989705585732" lon="11.126027584056649"><ele>253.0</ele><time>2026-04-25T08:29:55.991Z</time></trkpt><trkpt lat="43.71981834368574" lon="11.125855767779868"><ele>253.0</ele><time>2026-04-25T08:29:56.991Z</time></trkpt><trkpt lat="43.7197485108611" lon="11.125670663495187"><ele>253.0</ele><time>2026-04-25T08:29:57.991Z</time></trkpt><trkpt lat="43.71969446991043" lon="11.12549393976654"><ele>253.0</ele><time>2026-04-25T08:29:58.991Z</time></trkpt><trkpt lat="43.71964788431238" lon="11.125347776117987"><ele>252.83333333333331</ele><time>2026-04-25T08:29:59.991Z</time></trkpt><trkpt lat="43.71960637697639" lon="11.125232989411424"><ele>252.66666666666666</ele><time>2026-04-25T08:30:00.991Z</time></trkpt><trkpt lat="43.71956681420709" lon="11.12513443632537"><ele>252.5</ele><time>2026-04-25T08:30:01.991Z</time></trkpt><trkpt lat="43.71951668908426" lon="11.125061876108735"><ele>252.33333333333331</ele><time>2026-04-25T08:30:02.991Z</time></trkpt><trkpt lat="43.719454791833904" lon="11.124978878976213"><ele>252.16666666666666</ele><time>2026-04-25T08:30:03.991Z</time></trkpt><trkpt lat="43.719352153773656" lon="11.124928240094114"><ele>252.0</ele><time>2026-04-25T08:30:04.991Z</time></trkpt><trkpt lat="43.7192321567393" lon="11.124877378526374"><ele>248.6</ele><time>2026-04-25T08:30:05.99Z</time></trkpt><trkpt lat="43.719141465541426" lon="11.124829087045036"><ele>245.2</ele><time>2026-04-25T08:30:06.99Z</time></trkpt><trkpt lat="43.71905477708121" lon="11.124769148362574"><ele>241.8</ele><time>2026-04-25T08:30:07.99Z</time></trkpt><trkpt lat="43.718958276087065" lon="11.124671595951712"><ele>238.4</ele><time>2026-04-25T08:30:08.99Z</time></trkpt><trkpt lat="43.71885508933099" lon="11.124550783907225"><ele>235.0</ele><time>2026-04-25T08:30:09.99Z</time></trkpt><trkpt lat="43.71872531029519" lon="11.124393431421357"><ele>235.0</ele><time>2026-04-25T08:30:10.99Z</time></trkpt><trkpt lat="43.71860218772087" lon="11.124244755368455"><ele>235.0</ele><time>2026-04-25T08:30:11.99Z</time></trkpt><trkpt lat="43.718477484792054" lon="11.124117290604143"><ele>235.0</ele><time>2026-04-25T08:30:12.99Z</time></trkpt><trkpt lat="43.71834794999455" lon="11.124016294638395"><ele>229.75</ele><time>2026-04-25T08:30:13.99Z</time></trkpt><trkpt lat="43.718218186168016" lon="11.12393303689456"><ele>224.5</ele><time>2026-04-25T08:30:14.99Z</time></trkpt><trkpt lat="43.71809857313728" lon="11.123862901501003"><ele>219.25</ele><time>2026-04-25T08:30:15.99Z</time></trkpt><trkpt lat="43.71800686481691" lon="11.12378871639147"><ele>214.0</ele><time>2026-04-25T08:30:16.99Z</time></trkpt><trkpt lat="43.717935612705126" lon="11.12370213146555"><ele>213.99999999999997</ele><time>2026-04-25T08:30:17.99Z</time></trkpt><trkpt lat="43.71789930449178" lon="11.123612965257271"><ele>214.0</ele><time>2026-04-25T08:30:18.99Z</time></trkpt><trkpt lat="43.717932119075996" lon="11.123507197142851"><ele>214.0</ele><time>2026-04-25T08:30:19.99Z</time></trkpt><trkpt lat="43.71794298522488" lon="11.12338876937144"><ele>214.0</ele><time>2026-04-25T08:30:20.99Z</time></trkpt><trkpt lat="43.71795025912361" lon="11.123263537717081"><ele>213.99999999999997</ele><time>2026-04-25T08:30:21.99Z</time></trkpt><trkpt lat="43.717936583460414" lon="11.123165354038232"><ele>214.0</ele><time>2026-04-25T08:30:22.99Z</time></trkpt><trkpt lat="43.717901298660834" lon="11.123081050214758"><ele>212.25</ele><time>2026-04-25T08:30:23.99Z</time></trkpt><trkpt lat="43.71780517802744" lon="11.123029643374638"><ele>210.5</ele><time>2026-04-25T08:30:24.99Z</time></trkpt><trkpt lat="43.717637353613746" lon="11.123125189804659"><ele>208.75</ele><time>2026-04-25T08:30:25.99Z</time></trkpt><trkpt lat="43.71752061595762" lon="11.12320526265396"><ele>207.0</ele><time>2026-04-25T08:30:26.99Z</time></trkpt><trkpt lat="43.717414124662966" lon="11.123229382426434"><ele>205.2</ele><time>2026-04-25T08:30:27.99Z</time></trkpt><trkpt lat="43.71733089942709" lon="11.123209455117665"><ele>203.39999999999998</ele><time>2026-04-25T08:30:28.99Z</time></trkpt><trkpt lat="43.71725045349461" lon="11.123139797584749"><ele>201.60000000000002</ele><time>2026-04-25T08:30:29.99Z</time></trkpt><trkpt lat="43.717161575549866" lon="11.123033135243201"><ele>199.8</ele><time>2026-04-25T08:30:30.99Z</time></trkpt><trkpt lat="43.717041823535986" lon="11.122907865534158"><ele>198.0</ele><time>2026-04-25T08:30:31.99Z</time></trkpt><trkpt lat="43.71689839876865" lon="11.122761224826048"><ele>196.0</ele><time>2026-04-25T08:30:32.99Z</time></trkpt><trkpt lat="43.716767535302814" lon="11.122625713285988"><ele>194.0</ele><time>2026-04-25T08:30:33.99Z</time></trkpt><trkpt lat="43.71664820948975" lon="11.122501675195172"><ele>192.0</ele><time>2026-04-25T08:30:34.99Z</time></trkpt><trkpt lat="43.71653162509288" lon="11.12238965133694"><ele>190.0</ele><time>2026-04-25T08:30:35.99Z</time></trkpt><trkpt lat="43.716430923090556" lon="11.122277443349414"><ele>188.0</ele><time>2026-04-25T08:30:36.99Z</time></trkpt><trkpt lat="43.71630764515039" lon="11.1222085359994"><ele>186.0</ele><time>2026-04-25T08:30:37.99Z</time></trkpt><trkpt lat="43.71622024736748" lon="11.122087268644089"><ele>184.0</ele><time>2026-04-25T08:30:38.99Z</time></trkpt><trkpt lat="43.716141033678916" lon="11.12193554804835"><ele>184.33333333333334</ele><time>2026-04-25T08:30:39.99Z</time></trkpt><trkpt lat="43.7160548634048" lon="11.121725094482349"><ele>184.66666666666666</ele><time>2026-04-25T08:30:40.99Z</time></trkpt><trkpt lat="43.71598747521044" lon="11.121492096708575"><ele>185.0</ele><time>2026-04-25T08:30:41.99Z</time></trkpt><trkpt lat="43.715872850125315" lon="11.121310816802879"><ele>183.66666666666666</ele><time>2026-04-25T08:30:42.99Z</time></trkpt><trkpt lat="43.71576216097668" lon="11.121122663953633"><ele>182.33333333333334</ele><time>2026-04-25T08:30:43.99Z</time></trkpt><trkpt lat="43.71565760480843" lon="11.120928678449188"><ele>181.0</ele><time>2026-04-25T08:30:44.99Z</time></trkpt><trkpt lat="43.715566029093225" lon="11.120736236577832"><ele>178.0</ele><time>2026-04-25T08:30:45.99Z</time></trkpt><trkpt lat="43.715481157463884" lon="11.120536517333269"><ele>175.0</ele><time>2026-04-25T08:30:46.99Z</time></trkpt><trkpt lat="43.71540689318126" lon="11.120351601063405"><ele>172.0</ele><time>2026-04-25T08:30:47.99Z</time></trkpt><trkpt lat="43.71534170377703" lon="11.120162860623388"><ele>172.0</ele><time>2026-04-25T08:30:48.99Z</time></trkpt><trkpt lat="43.71528267567646" lon="11.119966921577214"><ele>172.0</ele><time>2026-04-25T08:30:49.99Z</time></trkpt><trkpt lat="43.71525013236975" lon="11.119793277074928"><ele>172.0</ele><time>2026-04-25T08:30:50.99Z</time></trkpt><trkpt lat="43.715218072809115" lon="11.119599439056651"><ele>172.0</ele><time>2026-04-25T08:30:51.99Z</time></trkpt><trkpt lat="43.71517424368717" lon="11.119443776951876"><ele>171.5</ele><time>2026-04-25T08:30:52.99Z</time></trkpt><trkpt lat="43.715112048353234" lon="11.11930121126454"><ele>171.0</ele><time>2026-04-25T08:30:53.99Z</time></trkpt><trkpt lat="43.71503688821297" lon="11.11917631567421"><ele>170.5</ele><time>2026-04-25T08:30:54.99Z</time></trkpt><trkpt lat="43.71495023902827" lon="11.119057279183972"><ele>170.0</ele><time>2026-04-25T08:30:55.99Z</time></trkpt><trkpt lat="43.714840714527234" lon="11.118944767671813"><ele>165.66666666666666</ele><time>2026-04-25T08:30:56.99Z</time></trkpt><trkpt lat="43.714698670121436" lon="11.118860415861636"><ele>161.33333333333334</ele><time>2026-04-25T08:30:57.99Z</time></trkpt><trkpt lat="43.71455562318559" lon="11.118768186360535"><ele>157.0</ele><time>2026-04-25T08:30:58.99Z</time></trkpt><trkpt lat="43.714435061595346" lon="11.118655986770518"><ele>156.5</ele><time>2026-04-25T08:30:59.99Z</time></trkpt><trkpt lat="43.71435233678427" lon="11.118504227129943"><ele>156.0</ele><time>2026-04-25T08:31:00.99Z</time></trkpt><trkpt lat="43.71427602448051" lon="11.11836520150647"><ele>155.5</ele><time>2026-04-25T08:31:01.99Z</time></trkpt><trkpt lat="43.71421394348319" lon="11.118216238991291"><ele>155.0</ele><time>2026-04-25T08:31:02.99Z</time></trkpt><trkpt lat="43.714167839407565" lon="11.118053155156998"><ele>155.0</ele><time>2026-04-25T08:31:03.99Z</time></trkpt><trkpt lat="43.714130149446056" lon="11.117884511052626"><ele>155.0</ele><time>2026-04-25T08:31:04.99Z</time></trkpt><trkpt lat="43.71408683370675" lon="11.117706919953166"><ele>155.0</ele><time>2026-04-25T08:31:05.99Z</time></trkpt><trkpt lat="43.714024723463076" lon="11.11751916810944"><ele>155.0</ele><time>2026-04-25T08:31:06.99Z</time></trkpt><trkpt lat="43.71399393240258" lon="11.117321337742824"><ele>153.0</ele><time>2026-04-25T08:31:07.99Z</time></trkpt><trkpt lat="43.7139501495714" lon="11.117124927542921"><ele>151.0</ele><time>2026-04-25T08:31:08.99Z</time></trkpt><trkpt lat="43.71391820522863" lon="11.11693007761209"><ele>149.0</ele><time>2026-04-25T08:31:09.99Z</time></trkpt><trkpt lat="43.7138973629545" lon="11.116726502991993"><ele>147.0</ele><time>2026-04-25T08:31:10.99Z</time></trkpt><trkpt lat="43.713882450141256" lon="11.116517365635527"><ele>146.25</ele><time>2026-04-25T08:31:11.99Z</time></trkpt><trkpt lat="43.71387230509844" lon="11.116319986991126"><ele>145.5</ele><time>2026-04-25T08:31:12.99Z</time></trkpt><trkpt lat="43.71387012850536" lon="11.116135742634558"><ele>144.75</ele><time>2026-04-25T08:31:13.99Z</time></trkpt><trkpt lat="43.71388768386005" lon="11.115958256888693"><ele>144.0</ele><time>2026-04-25T08:31:14.99Z</time></trkpt><trkpt lat="43.713921679066026" lon="11.115772352588543"><ele>143.75</ele><time>2026-04-25T08:31:15.99Z</time></trkpt><trkpt lat="43.713973717608056" lon="11.115579981486718"><ele>143.5</ele><time>2026-04-25T08:31:16.99Z</time></trkpt><trkpt lat="43.7140400459929" lon="11.115384621037318"><ele>143.25</ele><time>2026-04-25T08:31:17.99Z</time></trkpt><trkpt lat="43.71411874451019" lon="11.115223273965364"><ele>143.0</ele><time>2026-04-25T08:31:18.99Z</time></trkpt><trkpt lat="43.71415718500236" lon="11.11505140654833"><ele>143.0</ele><time>2026-04-25T08:31:19.99Z</time></trkpt><trkpt lat="43.714153889994535" lon="11.114913328537101"><ele>143.0</ele><time>2026-04-25T08:31:20.99Z</time></trkpt><trkpt lat="43.71415160604651" lon="11.114783395175966"><ele>143.0</ele><time>2026-04-25T08:31:21.99Z</time></trkpt><trkpt lat="43.71414093061665" lon="11.114686294141572"><ele>143.0</ele><time>2026-04-25T08:31:22.99Z</time></trkpt><trkpt lat="43.71411949450751" lon="11.114602757117826"><ele>143.0</ele><time>2026-04-25T08:31:23.99Z</time></trkpt><trkpt lat="43.71407651204386" lon="11.114504776168678"><ele>143.0</ele><time>2026-04-25T08:31:28.99Z</time></trkpt><trkpt lat="43.71418962853036" lon="11.114367059770618"><ele>141.83333333333331</ele><time>2026-04-25T08:31:29.99Z</time></trkpt><trkpt lat="43.71423618640214" lon="11.114226840336332"><ele>140.66666666666666</ele><time>2026-04-25T08:31:31.99Z</time></trkpt><trkpt lat="43.714261985625846" lon="11.114079533451555"><ele>139.5</ele><time>2026-04-25T08:31:33.99Z</time></trkpt><trkpt lat="43.714277103556185" lon="11.113994388938197"><ele>138.33333333333334</ele><time>2026-04-25T08:31:35.99Z</time></trkpt><trkpt lat="43.71433282270356" lon="11.11394468520642"><ele>137.16666666666669</ele><time>2026-04-25T08:31:37.99Z</time></trkpt><trkpt lat="43.71437832543332" lon="11.11388149436745"><ele>136.0</ele><time>2026-04-25T08:31:39.99Z</time></trkpt><trkpt lat="43.71446007318596" lon="11.113834866368949"><ele>132.0</ele><time>2026-04-25T08:31:41.99Z</time></trkpt><trkpt lat="43.71455485637011" lon="11.113857531681159"><ele>128.0</ele><time>2026-04-25T08:31:43.99Z</time></trkpt><trkpt lat="43.71461978206562" lon="11.113864596772911"><ele>124.0</ele><time>2026-04-25T08:31:44.99Z</time></trkpt><trkpt lat="43.71470613261892" lon="11.11386893379058"><ele>120.0</ele><time>2026-04-25T08:31:46.99Z</time></trkpt><trkpt lat="43.71481699430958" lon="11.113830941543073"><ele>116.0</ele><time>2026-04-25T08:31:49.99Z</time></trkpt><trkpt lat="43.714791476606884" lon="11.11365112193318"><ele>115.99999999999999</ele><time>2026-04-25T08:31:50.99Z</time></trkpt><trkpt lat="43.714773200867675" lon="11.113555961801751"><ele>116.0</ele><time>2026-04-25T08:31:53.99Z</time></trkpt><trkpt lat="43.71475748934244" lon="11.113419269099301"><ele>116.0</ele><time>2026-04-25T08:31:55.99Z</time></trkpt><trkpt lat="43.714788764251956" lon="11.113288545921607"><ele>116.0</ele><time>2026-04-25T08:31:58.99Z</time></trkpt><trkpt lat="43.71484992998704" lon="11.113244833495102"><ele>115.99999999999999</ele><time>2026-04-25T08:32:00.99Z</time></trkpt><trkpt lat="43.71492486354097" lon="11.113179453942506"><ele>116.0</ele><time>2026-04-25T08:32:02.99Z</time></trkpt><trkpt lat="43.7149868890681" lon="11.113105689606234"><ele>116.16666666666666</ele><time>2026-04-25T08:32:04.99Z</time></trkpt><trkpt lat="43.715060997108324" lon="11.113017029629722"><ele>116.33333333333333</ele><time>2026-04-25T08:32:06.99Z</time></trkpt><trkpt lat="43.71513303072274" lon="11.112912271754919"><ele>116.5</ele><time>2026-04-25T08:32:08.989Z</time></trkpt><trkpt lat="43.71518550181021" lon="11.112846190075569"><ele>116.66666666666666</ele><time>2026-04-25T08:32:09.989Z</time></trkpt><trkpt lat="43.7152482741633" lon="11.112769140208016"><ele>116.83333333333333</ele><time>2026-04-25T08:32:10.989Z</time></trkpt><trkpt lat="43.71531432195674" lon="11.112712223633578"><ele>117.0</ele><time>2026-04-25T08:32:11.989Z</time></trkpt><trkpt lat="43.71535124163517" lon="11.112637803750639"><ele>117.0</ele><time>2026-04-25T08:32:12.989Z</time></trkpt><trkpt lat="43.71544516914713" lon="11.112528369058248"><ele>116.99999999999999</ele><time>2026-04-25T08:32:14.989Z</time></trkpt><trkpt lat="43.715514229439776" lon="11.112470674558024"><ele>116.99999999999999</ele><time>2026-04-25T08:32:15.989Z</time></trkpt><trkpt lat="43.71556530768945" lon="11.112408931535313"><ele>117.0</ele><time>2026-04-25T08:32:16.989Z</time></trkpt><trkpt lat="43.7156641687668" lon="11.112310309524727"><ele>117.0</ele><time>2026-04-25T08:32:18.989Z</time></trkpt><trkpt lat="43.715727930024045" lon="11.112254754063441"><ele>119.39999999999999</ele><time>2026-04-25T08:32:19.989Z</time></trkpt><trkpt lat="43.71581380587145" lon="11.112192942875557"><ele>121.79999999999998</ele><time>2026-04-25T08:32:21.989Z</time></trkpt><trkpt lat="43.71591306500699" lon="11.112119693939906"><ele>124.2</ele><time>2026-04-25T08:32:23.989Z</time></trkpt><trkpt lat="43.71597553788937" lon="11.112081744150668"><ele>126.6</ele><time>2026-04-25T08:32:24.989Z</time></trkpt><trkpt lat="43.7160408134811" lon="11.11206051292448"><ele>129.0</ele><time>2026-04-25T08:32:25.989Z</time></trkpt><trkpt lat="43.716152502124274" lon="11.111989364081241"><ele>130.16666666666666</ele><time>2026-04-25T08:32:27.989Z</time></trkpt><trkpt lat="43.71621649386334" lon="11.111948852684298"><ele>131.33333333333334</ele><time>2026-04-25T08:32:28.989Z</time></trkpt><trkpt lat="43.716277819819894" lon="11.111894539903517"><ele>132.5</ele><time>2026-04-25T08:32:29.989Z</time></trkpt><trkpt lat="43.71634644119428" lon="11.111850294886336"><ele>133.66666666666669</ele><time>2026-04-25T08:32:30.989Z</time></trkpt><trkpt lat="43.71641962991384" lon="11.11180317893312"><ele>134.83333333333334</ele><time>2026-04-25T08:32:31.989Z</time></trkpt><trkpt lat="43.71650381782839" lon="11.111748389646772"><ele>136.0</ele><time>2026-04-25T08:32:32.989Z</time></trkpt><trkpt lat="43.71656861090208" lon="11.11172376717792"><ele>136.0</ele><time>2026-04-25T08:32:33.989Z</time></trkpt><trkpt lat="43.71664245769165" lon="11.111666248312819"><ele>136.0</ele><time>2026-04-25T08:32:35.989Z</time></trkpt><trkpt lat="43.71670181532373" lon="11.111599597717767"><ele>136.0</ele><time>2026-04-25T08:32:37.989Z</time></trkpt><trkpt lat="43.71676911066761" lon="11.111564230536569"><ele>136.0</ele><time>2026-04-25T08:32:39.989Z</time></trkpt><trkpt lat="43.716838223461664" lon="11.111493971003263"><ele>136.0</ele><time>2026-04-25T08:32:41.989Z</time></trkpt><trkpt lat="43.71690100008011" lon="11.111388648596304"><ele>136.0</ele><time>2026-04-25T08:32:43.989Z</time></trkpt><trkpt lat="43.716940468254315" lon="11.111215514151821"><ele>137.16666666666669</ele><time>2026-04-25T08:32:45.989Z</time></trkpt><trkpt lat="43.71695506614122" lon="11.111115612081251"><ele>138.33333333333334</ele><time>2026-04-25T08:32:46.989Z</time></trkpt><trkpt lat="43.7169728611134" lon="11.111023017285294"><ele>139.5</ele><time>2026-04-25T08:32:47.989Z</time></trkpt><trkpt lat="43.71702316024984" lon="11.110909043648636"><ele>140.66666666666666</ele><time>2026-04-25T08:32:49.989Z</time></trkpt><trkpt lat="43.71709094573202" lon="11.110807324067247"><ele>141.83333333333331</ele><time>2026-04-25T08:32:51.989Z</time></trkpt><trkpt lat="43.71714520160103" lon="11.110704276836861"><ele>143.0</ele><time>2026-04-25T08:32:53.989Z</time></trkpt><trkpt lat="43.71718889813135" lon="11.110638465157193"><ele>142.99999999999997</ele><time>2026-04-25T08:32:54.989Z</time></trkpt><trkpt lat="43.717228220251094" lon="11.110552480338981"><ele>143.0</ele><time>2026-04-25T08:32:55.989Z</time></trkpt><trkpt lat="43.71726326901058" lon="11.110455351753792"><ele>143.0</ele><time>2026-04-25T08:32:56.989Z</time></trkpt><trkpt lat="43.717309646436576" lon="11.110356161246404"><ele>143.0</ele><time>2026-04-25T08:32:57.989Z</time></trkpt><trkpt lat="43.71733666887434" lon="11.110262176711364"><ele>143.0</ele><time>2026-04-25T08:32:58.989Z</time></trkpt><trkpt lat="43.717358991999" lon="11.11017053880774"><ele>142.99999999999997</ele><time>2026-04-25T08:32:59.989Z</time></trkpt><trkpt lat="43.71737930843317" lon="11.110084540819209"><ele>143.0</ele><time>2026-04-25T08:33:00.989Z</time></trkpt><trkpt lat="43.71739811117189" lon="11.109990310657096"><ele>142.0</ele><time>2026-04-25T08:33:01.989Z</time></trkpt><trkpt lat="43.71741402091012" lon="11.109901024393771"><ele>141.0</ele><time>2026-04-25T08:33:02.989Z</time></trkpt><trkpt lat="43.71742817819165" lon="11.109774968860368"><ele>140.0</ele><time>2026-04-25T08:33:04.989Z</time></trkpt><trkpt lat="43.71744442063824" lon="11.109680534033"><ele>139.0</ele><time>2026-04-25T08:33:08.988Z</time></trkpt><trkpt lat="43.71753134211237" lon="11.109718500015099"><ele>138.0</ele><time>2026-04-25T08:33:09.988Z</time></trkpt><trkpt lat="43.717619969182415" lon="11.109751244641007"><ele>137.0</ele><time>2026-04-25T08:33:13.988Z</time></trkpt><trkpt lat="43.717703993904486" lon="11.10978476392936"><ele>137.00000000000003</ele><time>2026-04-25T08:33:16.988Z</time></trkpt><trkpt lat="43.71778921718543" lon="11.109816231182842"><ele>137.0</ele><time>2026-04-25T08:33:18.948Z</time></trkpt><trkpt lat="43.71785039817422" lon="11.109838606390557"><ele>137.0</ele><time>2026-04-25T08:33:20.948Z</time></trkpt><trkpt lat="43.71791603074749" lon="11.109864119245596"><ele>137.0</ele><time>2026-04-25T08:33:25.948Z</time></trkpt><trkpt lat="43.717835701139904" lon="11.109833231380772"><ele>137.0</ele><time>2026-04-25T08:36:17.942Z</time></trkpt><trkpt lat="43.71776321921162" lon="11.109806723205672"><ele>137.00000000000003</ele><time>2026-04-25T08:36:19.941Z</time></trkpt><trkpt lat="43.71769967674444" lon="11.109783048539956"><ele>137.0</ele><time>2026-04-25T08:36:21.942Z</time></trkpt><trkpt lat="43.71762149319021" lon="11.109751982758237"><ele>137.0</ele><time>2026-04-25T08:36:23.941Z</time></trkpt><trkpt lat="43.71755649006524" lon="11.109712518914076"><ele>137.0</ele><time>2026-04-25T08:36:25.941Z</time></trkpt><trkpt lat="43.71748964938639" lon="11.109703918870206"><ele>137.0</ele><time>2026-04-25T08:36:28.941Z</time></trkpt><trkpt lat="43.717301629395294" lon="11.110372763107478"><ele>138.2</ele><time>2026-04-25T08:36:48.941Z</time></trkpt><trkpt lat="43.71726580231412" lon="11.110475905701524"><ele>139.39999999999998</ele><time>2026-04-25T08:36:50.941Z</time></trkpt><trkpt lat="43.71722429579432" lon="11.110572906831184"><ele>140.60000000000002</ele><time>2026-04-25T08:36:52.941Z</time></trkpt><trkpt lat="43.71715441954659" lon="11.11066289141278"><ele>141.8</ele><time>2026-04-25T08:36:54.941Z</time></trkpt><trkpt lat="43.717064238185614" lon="11.110766642998039"><ele>143.0</ele><time>2026-04-25T08:36:56.941Z</time></trkpt><trkpt lat="43.716995523093225" lon="11.110874023588526"><ele>143.20000000000002</ele><time>2026-04-25T08:36:58.941Z</time></trkpt><trkpt lat="43.71694505606262" lon="11.11099390004825"><ele>143.4</ele><time>2026-04-25T08:37:00.941Z</time></trkpt><trkpt lat="43.71691099757171" lon="11.111153552335582"><ele>143.60000000000002</ele><time>2026-04-25T08:37:02.941Z</time></trkpt><trkpt lat="43.7168666115446" lon="11.111304706258778"><ele>143.8</ele><time>2026-04-25T08:37:04.941Z</time></trkpt><trkpt lat="43.71684295440654" lon="11.111389668522223"><ele>144.0</ele><time>2026-04-25T08:37:05.941Z</time></trkpt><trkpt lat="43.71679349774288" lon="11.111510976833204"><ele>142.4</ele><time>2026-04-25T08:37:07.941Z</time></trkpt><trkpt lat="43.71674316090354" lon="11.111567452798436"><ele>140.8</ele><time>2026-04-25T08:37:09.941Z</time></trkpt><trkpt lat="43.71666405821258" lon="11.111598307354638"><ele>139.2</ele><time>2026-04-25T08:37:11.941Z</time></trkpt><trkpt lat="43.71658520771531" lon="11.11167259527444"><ele>137.6</ele><time>2026-04-25T08:37:13.941Z</time></trkpt><trkpt lat="43.71647948523943" lon="11.111734400437646"><ele>136.0</ele><time>2026-04-25T08:37:15.941Z</time></trkpt><trkpt lat="43.71637973546963" lon="11.111820601832564"><ele>136.0</ele><time>2026-04-25T08:37:17.941Z</time></trkpt><trkpt lat="43.71631687910279" lon="11.111847542486618"><ele>136.0</ele><time>2026-04-25T08:37:18.941Z</time></trkpt><trkpt lat="43.71625805820503" lon="11.111888674663279"><ele>136.0</ele><time>2026-04-25T08:37:19.941Z</time></trkpt><trkpt lat="43.716167358528125" lon="11.11194652722469"><ele>136.0</ele><time>2026-04-25T08:37:21.941Z</time></trkpt><trkpt lat="43.71608101712038" lon="11.11198432771243"><ele>136.0</ele><time>2026-04-25T08:37:23.941Z</time></trkpt><trkpt lat="43.7160110276472" lon="11.112028912992718"><ele>136.0</ele><time>2026-04-25T08:37:25.941Z</time></trkpt><trkpt lat="43.715945862785766" lon="11.11208664938795"><ele>134.6</ele><time>2026-04-25T08:37:27.941Z</time></trkpt><trkpt lat="43.71586806956754" lon="11.1121350799048"><ele>133.2</ele><time>2026-04-25T08:37:30.941Z</time></trkpt><trkpt lat="43.71576906497931" lon="11.112176977835539"><ele>131.8</ele><time>2026-04-25T08:37:33.941Z</time></trkpt><trkpt lat="43.71566944866563" lon="11.112252061332658"><ele>130.4</ele><time>2026-04-25T08:37:35.941Z</time></trkpt><trkpt lat="43.71561683226029" lon="11.112301201804204"><ele>129.0</ele><time>2026-04-25T08:37:36.941Z</time></trkpt><trkpt lat="43.71552182559436" lon="11.112418323258987"><ele>126.6</ele><time>2026-04-25T08:37:38.941Z</time></trkpt><trkpt lat="43.715427909218086" lon="11.11253647856922"><ele>124.2</ele><time>2026-04-25T08:37:40.941Z</time></trkpt><trkpt lat="43.71531785700262" lon="11.112646973362148"><ele>121.79999999999998</ele><time>2026-04-25T08:37:42.941Z</time></trkpt><trkpt lat="43.71526214699495" lon="11.112714137494484"><ele>119.39999999999999</ele><time>2026-04-25T08:37:43.941Z</time></trkpt><trkpt lat="43.715214323568276" lon="11.112771793330124"><ele>117.0</ele><time>2026-04-25T08:37:44.941Z</time></trkpt><trkpt lat="43.71516573266432" lon="11.112849539328161"><ele>116.83333333333333</ele><time>2026-04-25T08:37:45.941Z</time></trkpt><trkpt lat="43.71510887828251" lon="11.112916598146409"><ele>116.66666666666666</ele><time>2026-04-25T08:37:46.942Z</time></trkpt><trkpt lat="43.71504918288731" lon="11.112991632027809"><ele>116.5</ele><time>2026-04-25T08:37:47.942Z</time></trkpt><trkpt lat="43.714988230664005" lon="11.113066928815027"><ele>116.33333333333333</ele><time>2026-04-25T08:37:48.942Z</time></trkpt><trkpt lat="43.714915756482405" lon="11.11312965319762"><ele>116.16666666666666</ele><time>2026-04-25T08:37:49.943Z</time></trkpt><trkpt lat="43.714856911852316" lon="11.113199633298343"><ele>116.0</ele><time>2026-04-25T08:37:50.943Z</time></trkpt><trkpt lat="43.71478852377875" lon="11.113253212011754"><ele>116.0</ele><time>2026-04-25T08:37:51.943Z</time></trkpt><trkpt lat="43.714718377854425" lon="11.113427788113306"><ele>116.0</ele><time>2026-04-25T08:37:53.944Z</time></trkpt><trkpt lat="43.7147422385102" lon="11.113578965632698"><ele>116.0</ele><time>2026-04-25T08:37:54.944Z</time></trkpt><trkpt lat="43.71476482862519" lon="11.113681676720239"><ele>116.0</ele><time>2026-04-25T08:37:55.944Z</time></trkpt><trkpt lat="43.714787006618934" lon="11.11376827959044"><ele>116.0</ele><time>2026-04-25T08:37:57.945Z</time></trkpt><trkpt lat="43.714715664826926" lon="11.113828332325017"><ele>115.99999999999999</ele><time>2026-04-25T08:38:00.945Z</time></trkpt><trkpt lat="43.714639414107104" lon="11.113819386939475"><ele>116.0</ele><time>2026-04-25T08:38:01.945Z</time></trkpt><trkpt lat="43.71457056850177" lon="11.113810285568606"><ele>116.0</ele><time>2026-04-25T08:38:02.945Z</time></trkpt><trkpt lat="43.71450566095803" lon="11.11379304834851"><ele>116.0</ele><time>2026-04-25T08:38:03.946Z</time></trkpt><trkpt lat="43.714410803909075" lon="11.113809067937101"><ele>115.99999999999999</ele><time>2026-04-25T08:38:05.946Z</time></trkpt><trkpt lat="43.71431388178787" lon="11.113916293943186"><ele>116.0</ele><time>2026-04-25T08:38:07.946Z</time></trkpt><trkpt lat="43.71426850715649" lon="11.113982431408855"><ele>119.33333333333333</ele><time>2026-04-25T08:38:08.946Z</time></trkpt><trkpt lat="43.71421693074382" lon="11.114150508350583"><ele>122.66666666666666</ele><time>2026-04-25T08:38:10.946Z</time></trkpt><trkpt lat="43.714191363316665" lon="11.114257687165157"><ele>126.0</ele><time>2026-04-25T08:38:11.946Z</time></trkpt><trkpt lat="43.71417861841599" lon="11.114360441951465"><ele>129.33333333333334</ele><time>2026-04-25T08:38:12.946Z</time></trkpt><trkpt lat="43.71413851225657" lon="11.114432758362371"><ele>132.66666666666669</ele><time>2026-04-25T08:38:13.946Z</time></trkpt><trkpt lat="43.71410830168194" lon="11.114520066483383"><ele>136.0</ele><time>2026-04-25T08:38:15.943Z</time></trkpt><trkpt lat="43.71400269008359" lon="11.11445532414699"><ele>136.0</ele><time>2026-04-25T08:38:19.944Z</time></trkpt><trkpt lat="43.713913495929646" lon="11.114367035416649"><ele>136.0</ele><time>2026-04-25T08:38:20.944Z</time></trkpt><trkpt lat="43.71381248764676" lon="11.114295590078147"><ele>136.0</ele><time>2026-04-25T08:38:21.944Z</time></trkpt><trkpt lat="43.7136830628989" lon="11.114188317790859"><ele>136.0</ele><time>2026-04-25T08:38:22.944Z</time></trkpt><trkpt lat="43.71354000914811" lon="11.114064311568804"><ele>134.25</ele><time>2026-04-25T08:38:23.944Z</time></trkpt><trkpt lat="43.7134242934558" lon="11.1139316107291"><ele>132.5</ele><time>2026-04-25T08:38:24.944Z</time></trkpt><trkpt lat="43.71335331789788" lon="11.11376826255384"><ele>130.75</ele><time>2026-04-25T08:38:25.944Z</time></trkpt><trkpt lat="43.7133134464806" lon="11.113597403039124"><ele>129.0</ele><time>2026-04-25T08:38:26.944Z</time></trkpt><trkpt lat="43.71326751976998" lon="11.113414581893418"><ele>128.0</ele><time>2026-04-25T08:38:27.944Z</time></trkpt><trkpt lat="43.71322706634806" lon="11.113210555759748"><ele>127.0</ele><time>2026-04-25T08:38:28.944Z</time></trkpt><trkpt lat="43.71320337879112" lon="11.112998846600755"><ele>126.0</ele><time>2026-04-25T08:38:29.944Z</time></trkpt><trkpt lat="43.713192515954134" lon="11.112805362726442"><ele>125.0</ele><time>2026-04-25T08:38:30.944Z</time></trkpt><trkpt lat="43.71317708605679" lon="11.112621101292415"><ele>125.0</ele><time>2026-04-25T08:38:31.944Z</time></trkpt><trkpt lat="43.713151420535596" lon="11.11243811325433"><ele>125.0</ele><time>2026-04-25T08:38:32.944Z</time></trkpt><trkpt lat="43.71310771517718" lon="11.112282053073837"><ele>125.0</ele><time>2026-04-25T08:38:33.944Z</time></trkpt><trkpt lat="43.71307627947041" lon="11.11212550104996"><ele>125.0</ele><time>2026-04-25T08:38:34.944Z</time></trkpt><trkpt lat="43.7130252456499" lon="11.111977719023747"><ele>124.4</ele><time>2026-04-25T08:38:35.944Z</time></trkpt><trkpt lat="43.71295391094657" lon="11.111852440260845"><ele>123.8</ele><time>2026-04-25T08:38:36.944Z</time></trkpt><trkpt lat="43.71286670598443" lon="11.111731689406815"><ele>123.19999999999999</ele><time>2026-04-25T08:38:37.944Z</time></trkpt><trkpt lat="43.71278256790607" lon="11.111639887860381"><ele>122.6</ele><time>2026-04-25T08:38:38.944Z</time></trkpt><trkpt lat="43.71272459382445" lon="11.111580281332097"><ele>122.0</ele><time>2026-04-25T08:38:39.944Z</time></trkpt><trkpt lat="43.71264992152285" lon="11.111447007816736"><ele>125.5</ele><time>2026-04-25T08:38:43.944Z</time></trkpt><trkpt lat="43.71257518873258" lon="11.111337482730914"><ele>129.0</ele><time>2026-04-25T08:38:44.944Z</time></trkpt><trkpt lat="43.71246933702178" lon="11.11121356493658"><ele>132.5</ele><time>2026-04-25T08:38:45.944Z</time></trkpt><trkpt lat="43.71238304314318" lon="11.111027598126348"><ele>136.0</ele><time>2026-04-25T08:38:46.944Z</time></trkpt><trkpt lat="43.71226379728885" lon="11.110859653528975"><ele>135.75</ele><time>2026-04-25T08:38:47.944Z</time></trkpt><trkpt lat="43.71215139435047" lon="11.110709784282212"><ele>135.5</ele><time>2026-04-25T08:38:48.944Z</time></trkpt><trkpt lat="43.71207174839351" lon="11.110592794496462"><ele>135.25</ele><time>2026-04-25T08:38:49.944Z</time></trkpt><trkpt lat="43.71199497290467" lon="11.110509031183598"><ele>135.0</ele><time>2026-04-25T08:38:50.944Z</time></trkpt><trkpt lat="43.71199468735103" lon="11.110311353090859"><ele>135.0</ele><time>2026-04-25T08:38:51.944Z</time></trkpt><trkpt lat="43.71195067007972" lon="11.110102140631648"><ele>135.0</ele><time>2026-04-25T08:38:52.944Z</time></trkpt><trkpt lat="43.71188408607525" lon="11.109875449453423"><ele>135.0</ele><time>2026-04-25T08:38:53.944Z</time></trkpt><trkpt lat="43.71181295126133" lon="11.10966010024098"><ele>135.5</ele><time>2026-04-25T08:38:54.944Z</time></trkpt><trkpt lat="43.71175102081696" lon="11.109482737039489"><ele>136.0</ele><time>2026-04-25T08:38:55.944Z</time></trkpt><trkpt lat="43.71170301486489" lon="11.109339443185855"><ele>136.5</ele><time>2026-04-25T08:38:56.944Z</time></trkpt><trkpt lat="43.71167028985322" lon="11.109207476034088"><ele>137.0</ele><time>2026-04-25T08:38:57.944Z</time></trkpt><trkpt lat="43.71166521355097" lon="11.109073299812453"><ele>137.0</ele><time>2026-04-25T08:38:58.944Z</time></trkpt><trkpt lat="43.711712257998315" lon="11.10894900374301"><ele>137.0</ele><time>2026-04-25T08:38:59.944Z</time></trkpt><trkpt lat="43.711756136925246" lon="11.10882404562205"><ele>137.0</ele><time>2026-04-25T08:39:00.944Z</time></trkpt><trkpt lat="43.71179899667899" lon="11.108693502518573"><ele>137.0</ele><time>2026-04-25T08:39:01.944Z</time></trkpt><trkpt lat="43.71183214550652" lon="11.108545274533796"><ele>137.0</ele><time>2026-04-25T08:39:02.944Z</time></trkpt><trkpt lat="43.711835271978266" lon="11.10839526070378"><ele>136.75</ele><time>2026-04-25T08:39:03.944Z</time></trkpt><trkpt lat="43.7118484038505" lon="11.108229251012586"><ele>136.5</ele><time>2026-04-25T08:39:04.944Z</time></trkpt><trkpt lat="43.71185661299257" lon="11.108051058966902"><ele>136.25</ele><time>2026-04-25T08:39:05.944Z</time></trkpt><trkpt lat="43.71186849833214" lon="11.107881707751783"><ele>136.0</ele><time>2026-04-25T08:39:06.944Z</time></trkpt><trkpt lat="43.7118752439599" lon="11.107720656558236"><ele>136.0</ele><time>2026-04-25T08:39:07.944Z</time></trkpt><trkpt lat="43.71188133704584" lon="11.10756818992943"><ele>136.0</ele><time>2026-04-25T08:39:08.944Z</time></trkpt><trkpt lat="43.711888491745015" lon="11.107415826824397"><ele>136.0</ele><time>2026-04-25T08:39:09.944Z</time></trkpt><trkpt lat="43.71188894539929" lon="11.107256287376313"><ele>136.0</ele><time>2026-04-25T08:39:10.944Z</time></trkpt><trkpt lat="43.71187832977634" lon="11.107072672297983"><ele>135.75</ele><time>2026-04-25T08:39:11.944Z</time></trkpt><trkpt lat="43.71189011146299" lon="11.106871259235998"><ele>135.5</ele><time>2026-04-25T08:39:12.944Z</time></trkpt><trkpt lat="43.71187919640335" lon="11.106667531375983"><ele>135.25</ele><time>2026-04-25T08:39:13.944Z</time></trkpt><trkpt lat="43.711860537536374" lon="11.1064776485162"><ele>135.0</ele><time>2026-04-25T08:39:14.944Z</time></trkpt><trkpt lat="43.711831648038356" lon="11.106291709529337"><ele>135.5</ele><time>2026-04-25T08:39:15.944Z</time></trkpt><trkpt lat="43.71178961475374" lon="11.106088484366898"><ele>136.0</ele><time>2026-04-25T08:39:16.944Z</time></trkpt><trkpt lat="43.71174967474566" lon="11.105887162208676"><ele>136.5</ele><time>2026-04-25T08:39:17.944Z</time></trkpt><trkpt lat="43.71170664747269" lon="11.105726179599007"><ele>137.0</ele><time>2026-04-25T08:39:18.944Z</time></trkpt><trkpt lat="43.71166626784727" lon="11.105613116261157"><ele>137.25</ele><time>2026-04-25T08:39:19.944Z</time></trkpt><trkpt lat="43.71161432814142" lon="11.105494818615933"><ele>137.5</ele><time>2026-04-25T08:39:20.944Z</time></trkpt><trkpt lat="43.711540314007934" lon="11.105365416960911"><ele>137.75</ele><time>2026-04-25T08:39:21.944Z</time></trkpt><trkpt lat="43.71145710164158" lon="11.10521916571751"><ele>138.0</ele><time>2026-04-25T08:39:22.944Z</time></trkpt><trkpt lat="43.71136601552093" lon="11.105058113561908"><ele>136.0</ele><time>2026-04-25T08:39:23.944Z</time></trkpt><trkpt lat="43.71127453781816" lon="11.104911036867032"><ele>134.0</ele><time>2026-04-25T08:39:24.944Z</time></trkpt><trkpt lat="43.71119258644481" lon="11.104772879219443"><ele>132.0</ele><time>2026-04-25T08:39:25.944Z</time></trkpt><trkpt lat="43.711112861120334" lon="11.104651831635111"><ele>130.0</ele><time>2026-04-25T08:39:26.944Z</time></trkpt><trkpt lat="43.71102489108842" lon="11.104563301797032"><ele>130.0</ele><time>2026-04-25T08:39:27.944Z</time></trkpt><trkpt lat="43.710927131180135" lon="11.104494585586277"><ele>130.0</ele><time>2026-04-25T08:39:28.944Z</time></trkpt><trkpt lat="43.710831525756106" lon="11.104434585378776"><ele>130.0</ele><time>2026-04-25T08:39:29.944Z</time></trkpt><trkpt lat="43.71073398798363" lon="11.104382282870018"><ele>130.0</ele><time>2026-04-25T08:39:30.944Z</time></trkpt><trkpt lat="43.71064161143427" lon="11.104322177635181"><ele>130.0</ele><time>2026-04-25T08:39:31.944Z</time></trkpt><trkpt lat="43.71054950899704" lon="11.104267824136146"><ele>130.0</ele><time>2026-04-25T08:39:32.944Z</time></trkpt><trkpt lat="43.71045519071994" lon="11.104207475375667"><ele>130.0</ele><time>2026-04-25T08:39:33.944Z</time></trkpt><trkpt lat="43.71036636385251" lon="11.104141185738314"><ele>130.0</ele><time>2026-04-25T08:39:34.944Z</time></trkpt><trkpt lat="43.710288525398994" lon="11.104074463198454"><ele>130.0</ele><time>2026-04-25T08:39:35.944Z</time></trkpt><trkpt lat="43.710219803835315" lon="11.10401088585875"><ele>130.0</ele><time>2026-04-25T08:39:36.944Z</time></trkpt><trkpt lat="43.71014371517216" lon="11.103955069388114"><ele>128.8</ele><time>2026-04-25T08:39:37.944Z</time></trkpt><trkpt lat="43.71004712273477" lon="11.103896207453673"><ele>127.6</ele><time>2026-04-25T08:39:38.944Z</time></trkpt><trkpt lat="43.709942301558385" lon="11.10381829861888"><ele>126.4</ele><time>2026-04-25T08:39:39.944Z</time></trkpt><trkpt lat="43.70985843088669" lon="11.103750373199983"><ele>125.2</ele><time>2026-04-25T08:39:40.944Z</time></trkpt><trkpt lat="43.70980058633747" lon="11.103702818590468"><ele>124.0</ele><time>2026-04-25T08:39:41.944Z</time></trkpt><trkpt lat="43.70974398518374" lon="11.103638268053048"><ele>124.0</ele><time>2026-04-25T08:39:44.944Z</time></trkpt><trkpt lat="43.70967776267149" lon="11.103628325629161"><ele>124.0</ele><time>2026-04-25T08:40:17.943Z</time></trkpt><trkpt lat="43.70957803394234" lon="11.103534863347965"><ele>124.0</ele><time>2026-04-25T08:40:19.943Z</time></trkpt><trkpt lat="43.70950062885299" lon="11.103487322272537"><ele>124.0</ele><time>2026-04-25T08:40:20.943Z</time></trkpt><trkpt lat="43.709412077324316" lon="11.103432936982317"><ele>124.0</ele><time>2026-04-25T08:40:21.942Z</time></trkpt><trkpt lat="43.70931485943414" lon="11.103361994469598"><ele>123.5</ele><time>2026-04-25T08:40:22.941Z</time></trkpt><trkpt lat="43.70922396749789" lon="11.103261006465779"><ele>123.0</ele><time>2026-04-25T08:40:23.941Z</time></trkpt><trkpt lat="43.70913412007207" lon="11.103132653564034"><ele>122.5</ele><time>2026-04-25T08:40:24.942Z</time></trkpt><trkpt lat="43.70904592533029" lon="11.102991867218078"><ele>122.0</ele><time>2026-04-25T08:40:25.942Z</time></trkpt><trkpt lat="43.708949620428065" lon="11.102838168969248"><ele>120.33333333333333</ele><time>2026-04-25T08:40:26.942Z</time></trkpt><trkpt lat="43.7088494684024" lon="11.10267742986731"><ele>118.66666666666666</ele><time>2026-04-25T08:40:27.941Z</time></trkpt><trkpt lat="43.70874588539696" lon="11.10251077096776"><ele>117.0</ele><time>2026-04-25T08:40:28.941Z</time></trkpt><trkpt lat="43.70863318886677" lon="11.102358503223634"><ele>118.0</ele><time>2026-04-25T08:40:29.941Z</time></trkpt><trkpt lat="43.70853777774435" lon="11.102187898083361"><ele>119.0</ele><time>2026-04-25T08:40:30.942Z</time></trkpt><trkpt lat="43.708443890961206" lon="11.102016490686255"><ele>120.0</ele><time>2026-04-25T08:40:31.941Z</time></trkpt><trkpt lat="43.70835277396081" lon="11.101841136482033"><ele>120.0</ele><time>2026-04-25T08:40:32.941Z</time></trkpt><trkpt lat="43.708263013431335" lon="11.10166572822655"><ele>120.0</ele><time>2026-04-25T08:40:33.941Z</time></trkpt><trkpt lat="43.70819028616585" lon="11.101475285289832"><ele>120.0</ele><time>2026-04-25T08:40:34.941Z</time></trkpt><trkpt lat="43.70811045093426" lon="11.101303655319613"><ele>119.0</ele><time>2026-04-25T08:40:35.941Z</time></trkpt><trkpt lat="43.70802731164417" lon="11.101157961937336"><ele>118.0</ele><time>2026-04-25T08:40:36.941Z</time></trkpt><trkpt lat="43.70796789908027" lon="11.100990142555917"><ele>117.0</ele><time>2026-04-25T08:40:37.941Z</time></trkpt><trkpt lat="43.707873989611926" lon="11.100837546976685"><ele>116.0</ele><time>2026-04-25T08:40:38.941Z</time></trkpt><trkpt lat="43.707782220994915" lon="11.100682439761108"><ele>115.33333333333333</ele><time>2026-04-25T08:40:39.941Z</time></trkpt><trkpt lat="43.707673445127774" lon="11.100534536905965"><ele>114.66666666666666</ele><time>2026-04-25T08:40:40.941Z</time></trkpt><trkpt lat="43.70755339948823" lon="11.100386558125148"><ele>114.0</ele><time>2026-04-25T08:40:41.941Z</time></trkpt><trkpt lat="43.70744189261216" lon="11.100227653202667"><ele>114.0</ele><time>2026-04-25T08:40:42.941Z</time></trkpt><trkpt lat="43.70733923242101" lon="11.100084941941683"><ele>114.0</ele><time>2026-04-25T08:40:43.941Z</time></trkpt><trkpt lat="43.707236731080364" lon="11.099951500303932"><ele>114.0</ele><time>2026-04-25T08:40:44.941Z</time></trkpt><trkpt lat="43.70714942416054" lon="11.099845648859702"><ele>114.0</ele><time>2026-04-25T08:40:45.941Z</time></trkpt><trkpt lat="43.707067111368445" lon="11.099736833064496"><ele>114.6</ele><time>2026-04-25T08:40:46.941Z</time></trkpt><trkpt lat="43.70698462784172" lon="11.099638028854296"><ele>115.2</ele><time>2026-04-25T08:40:47.941Z</time></trkpt><trkpt lat="43.70689703272585" lon="11.099543392636074"><ele>115.79999999999998</ele><time>2026-04-25T08:40:48.941Z</time></trkpt><trkpt lat="43.7068141084763" lon="11.099456109184493"><ele>116.39999999999999</ele><time>2026-04-25T08:40:49.941Z</time></trkpt><trkpt lat="43.706744909579236" lon="11.09935994756031"><ele>117.0</ele><time>2026-04-25T08:40:50.941Z</time></trkpt><trkpt lat="43.70667319820055" lon="11.09925554874831"><ele>117.0</ele><time>2026-04-25T08:40:51.941Z</time></trkpt><trkpt lat="43.70660375873218" lon="11.099168420626725"><ele>116.99999999999999</ele><time>2026-04-25T08:40:52.941Z</time></trkpt><trkpt lat="43.706524055013176" lon="11.099076104781643"><ele>116.99999999999999</ele><time>2026-04-25T08:40:53.941Z</time></trkpt><trkpt lat="43.706445499132464" lon="11.098985119528116"><ele>117.0</ele><time>2026-04-25T08:40:54.941Z</time></trkpt><trkpt lat="43.70636327493604" lon="11.098896496094515"><ele>117.0</ele><time>2026-04-25T08:40:55.941Z</time></trkpt><trkpt lat="43.70627070484887" lon="11.098821951381604"><ele>116.19999999999999</ele><time>2026-04-25T08:40:56.941Z</time></trkpt><trkpt lat="43.70618035029369" lon="11.098751483015318"><ele>115.39999999999999</ele><time>2026-04-25T08:40:57.941Z</time></trkpt><trkpt lat="43.70609154859149" lon="11.0986787159553"><ele>114.60000000000001</ele><time>2026-04-25T08:40:58.941Z</time></trkpt><trkpt lat="43.706004311752" lon="11.098618545395562"><ele>113.80000000000001</ele><time>2026-04-25T08:40:59.941Z</time></trkpt><trkpt lat="43.7059211808153" lon="11.098556464177719"><ele>113.0</ele><time>2026-04-25T08:41:00.941Z</time></trkpt><trkpt lat="43.70583457211007" lon="11.098501601514354"><ele>112.49999999999999</ele><time>2026-04-25T08:41:01.941Z</time></trkpt><trkpt lat="43.705751153754036" lon="11.098451217730187"><ele>112.0</ele><time>2026-04-25T08:41:02.941Z</time></trkpt><trkpt lat="43.705675246947045" lon="11.098399624799477"><ele>111.5</ele><time>2026-04-25T08:41:03.941Z</time></trkpt><trkpt lat="43.705607821431926" lon="11.098344526296641"><ele>111.0</ele><time>2026-04-25T08:41:04.941Z</time></trkpt><trkpt lat="43.7055413661859" lon="11.098289863442542"><ele>110.49999999999999</ele><time>2026-04-25T08:41:05.941Z</time></trkpt><trkpt lat="43.705479411774604" lon="11.098241265560747"><ele>110.0</ele><time>2026-04-25T08:41:06.941Z</time></trkpt><trkpt lat="43.70542303756195" lon="11.098200630346733"><ele>109.4</ele><time>2026-04-25T08:41:07.941Z</time></trkpt><trkpt lat="43.70533752578017" lon="11.098094147576122"><ele>108.8</ele><time>2026-04-25T08:41:09.941Z</time></trkpt><trkpt lat="43.70524442422654" lon="11.098016482057316"><ele>108.19999999999999</ele><time>2026-04-25T08:41:11.941Z</time></trkpt><trkpt lat="43.7051880590846" lon="11.09796380391696"><ele>107.6</ele><time>2026-04-25T08:41:12.941Z</time></trkpt><trkpt lat="43.705075625435036" lon="11.097882951782287"><ele>107.0</ele><time>2026-04-25T08:41:14.941Z</time></trkpt><trkpt lat="43.70501749558362" lon="11.097837431024308"><ele>107.0</ele><time>2026-04-25T08:41:15.941Z</time></trkpt><trkpt lat="43.70496752829661" lon="11.097783798243027"><ele>106.99999999999999</ele><time>2026-04-25T08:41:16.941Z</time></trkpt><trkpt lat="43.7048681890294" lon="11.097679090085071"><ele>106.99999999999999</ele><time>2026-04-25T08:41:18.941Z</time></trkpt><trkpt lat="43.7047632583899" lon="11.097572991485933"><ele>107.0</ele><time>2026-04-25T08:41:20.941Z</time></trkpt><trkpt lat="43.70470348488745" lon="11.097510888768282"><ele>107.0</ele><time>2026-04-25T08:41:21.941Z</time></trkpt><trkpt lat="43.70464197199482" lon="11.097439435746361"><ele>106.6</ele><time>2026-04-25T08:41:22.941Z</time></trkpt><trkpt lat="43.704577166020975" lon="11.0973621731814"><ele>106.19999999999999</ele><time>2026-04-25T08:41:23.941Z</time></trkpt><trkpt lat="43.704500588422285" lon="11.097276721575406"><ele>105.8</ele><time>2026-04-25T08:41:24.941Z</time></trkpt><trkpt lat="43.70441551714905" lon="11.097187307871753"><ele>105.4</ele><time>2026-04-25T08:41:25.941Z</time></trkpt><trkpt lat="43.70433346988961" lon="11.09708809071378"><ele>105.0</ele><time>2026-04-25T08:41:26.941Z</time></trkpt><trkpt lat="43.70425675620783" lon="11.096988767720614"><ele>105.0</ele><time>2026-04-25T08:41:27.941Z</time></trkpt><trkpt lat="43.70418926652025" lon="11.096900051142299"><ele>105.0</ele><time>2026-04-25T08:41:28.941Z</time></trkpt><trkpt lat="43.704116015186194" lon="11.096802266339484"><ele>105.0</ele><time>2026-04-25T08:41:29.941Z</time></trkpt><trkpt lat="43.70404538555415" lon="11.096715309381066"><ele>105.0</ele><time>2026-04-25T08:41:30.941Z</time></trkpt><trkpt lat="43.70399005279181" lon="11.096623732561605"><ele>105.0</ele><time>2026-04-25T08:41:31.941Z</time></trkpt><trkpt lat="43.703895622232515" lon="11.096562554434684"><ele>103.0</ele><time>2026-04-25T08:41:32.941Z</time></trkpt><trkpt lat="43.70379317667104" lon="11.096481281902792"><ele>101.0</ele><time>2026-04-25T08:41:33.941Z</time></trkpt><trkpt lat="43.70366422086864" lon="11.0963976477974"><ele>99.0</ele><time>2026-04-25T08:41:34.941Z</time></trkpt><trkpt lat="43.70351315545155" lon="11.096292946772634"><ele>97.0</ele><time>2026-04-25T08:41:35.941Z</time></trkpt><trkpt lat="43.70337965679372" lon="11.096197496619189"><ele>97.0</ele><time>2026-04-25T08:41:36.941Z</time></trkpt><trkpt lat="43.70325871390373" lon="11.096115064531903"><ele>97.0</ele><time>2026-04-25T08:41:37.941Z</time></trkpt><trkpt lat="43.703008666232215" lon="11.095950191258948"><ele>97.0</ele><time>2026-04-25T08:41:40.941Z</time></trkpt><trkpt lat="43.70294610725123" lon="11.095898211592727"><ele>97.0</ele><time>2026-04-25T08:41:41.941Z</time></trkpt><trkpt lat="43.702866235830484" lon="11.095838095934244"><ele>97.0</ele><time>2026-04-25T08:41:43.941Z</time></trkpt><trkpt lat="43.702748595579145" lon="11.095767123909733"><ele>97.0</ele><time>2026-04-25T08:42:01.941Z</time></trkpt><trkpt lat="43.70265201181303" lon="11.09568559294157"><ele>97.0</ele><time>2026-04-25T08:42:02.941Z</time></trkpt><trkpt lat="43.702533114229404" lon="11.095598725318016"><ele>93.33333333333334</ele><time>2026-04-25T08:42:03.941Z</time></trkpt><trkpt lat="43.70239631786835" lon="11.095490136383752"><ele>89.66666666666667</ele><time>2026-04-25T08:42:04.941Z</time></trkpt><trkpt lat="43.702252961044785" lon="11.095370260594295"><ele>86.0</ele><time>2026-04-25T08:42:05.941Z</time></trkpt><trkpt lat="43.702126622398175" lon="11.095263412388727"><ele>86.0</ele><time>2026-04-25T08:42:06.941Z</time></trkpt><trkpt lat="43.70202684125932" lon="11.095134640673539"><ele>86.0</ele><time>2026-04-25T08:42:07.941Z</time></trkpt><trkpt lat="43.70191088306622" lon="11.095040231285076"><ele>86.0</ele><time>2026-04-25T08:42:08.941Z</time></trkpt><trkpt lat="43.70179953483897" lon="11.094965462777937"><ele>86.0</ele><time>2026-04-25T08:42:09.941Z</time></trkpt><trkpt lat="43.701690486725255" lon="11.094907672028217"><ele>82.66666666666667</ele><time>2026-04-25T08:42:10.941Z</time></trkpt><trkpt lat="43.70160458969724" lon="11.094820282711737"><ele>79.33333333333334</ele><time>2026-04-25T08:42:11.941Z</time></trkpt><trkpt lat="43.70152983581907" lon="11.09475923556773"><ele>76.0</ele><time>2026-04-25T08:42:12.941Z</time></trkpt><trkpt lat="43.70146185557952" lon="11.094703459795369"><ele>72.66666666666667</ele><time>2026-04-25T08:42:13.941Z</time></trkpt><trkpt lat="43.70139168698389" lon="11.094660603972867"><ele>69.33333333333333</ele><time>2026-04-25T08:42:14.941Z</time></trkpt><trkpt lat="43.70132098556261" lon="11.094645212703591"><ele>66.0</ele><time>2026-04-25T08:42:15.941Z</time></trkpt><trkpt lat="43.701227963113396" lon="11.094665095216438"><ele>66.0</ele><time>2026-04-25T08:42:16.941Z</time></trkpt><trkpt lat="43.70113898649646" lon="11.094686243197122"><ele>66.0</ele><time>2026-04-25T08:42:17.941Z</time></trkpt><trkpt lat="43.70106449792699" lon="11.09469489343505"><ele>66.0</ele><time>2026-04-25T08:42:18.941Z</time></trkpt><trkpt lat="43.70098240646329" lon="11.094750981830044"><ele>66.0</ele><time>2026-04-25T08:42:20.941Z</time></trkpt><trkpt lat="43.700927982794184" lon="11.094811941421707"><ele>66.0</ele><time>2026-04-25T08:42:26.941Z</time></trkpt><trkpt lat="43.70095533445046" lon="11.094729847827963"><ele>66.0</ele><time>2026-04-25T08:42:32.938Z</time></trkpt><trkpt lat="43.70107122955352" lon="11.094572816011361"><ele>66.0</ele><time>2026-04-25T08:42:33.938Z</time></trkpt><trkpt lat="43.701193421645776" lon="11.094410585073923"><ele>66.0</ele><time>2026-04-25T08:42:34.938Z</time></trkpt><trkpt lat="43.701330240890925" lon="11.094210931502335"><ele>66.0</ele><time>2026-04-25T08:42:35.938Z</time></trkpt><trkpt lat="43.70147440998983" lon="11.093995610154524"><ele>63.66666666666667</ele><time>2026-04-25T08:42:36.937Z</time></trkpt><trkpt lat="43.70161251773172" lon="11.09379358925588"><ele>61.333333333333336</ele><time>2026-04-25T08:42:37.937Z</time></trkpt><trkpt lat="43.70174405122729" lon="11.093603568653494"><ele>59.0</ele><time>2026-04-25T08:42:38.937Z</time></trkpt><trkpt lat="43.70186579271085" lon="11.093436081158655"><ele>59.66666666666667</ele><time>2026-04-25T08:42:39.937Z</time></trkpt><trkpt lat="43.70197595703751" lon="11.093261483145508"><ele>60.33333333333333</ele><time>2026-04-25T08:42:40.937Z</time></trkpt><trkpt lat="43.702076951000606" lon="11.093101915862032"><ele>61.0</ele><time>2026-04-25T08:42:41.937Z</time></trkpt><trkpt lat="43.70218430549541" lon="11.09294400896611"><ele>61.0</ele><time>2026-04-25T08:42:42.937Z</time></trkpt><trkpt lat="43.70229587326674" lon="11.09278848736654"><ele>61.0</ele><time>2026-04-25T08:42:43.937Z</time></trkpt><trkpt lat="43.70239000663638" lon="11.092604946068548"><ele>61.0</ele><time>2026-04-25T08:42:44.937Z</time></trkpt><trkpt lat="43.70247776395954" lon="11.09239732897746"><ele>60.33333333333333</ele><time>2026-04-25T08:42:45.937Z</time></trkpt><trkpt lat="43.70254827377912" lon="11.092146232274633"><ele>59.66666666666667</ele><time>2026-04-25T08:42:46.937Z</time></trkpt><trkpt lat="43.7026352707673" lon="11.091912903548101"><ele>59.0</ele><time>2026-04-25T08:42:47.937Z</time></trkpt><trkpt lat="43.702711575636634" lon="11.091681951580997"><ele>63.0</ele><time>2026-04-25T08:42:48.937Z</time></trkpt><trkpt lat="43.70278128282499" lon="11.091467850900965"><ele>67.0</ele><time>2026-04-25T08:42:49.937Z</time></trkpt><trkpt lat="43.70285051843885" lon="11.091259075219135"><ele>71.0</ele><time>2026-04-25T08:42:50.937Z</time></trkpt><trkpt lat="43.70291560949954" lon="11.091033794563362"><ele>71.0</ele><time>2026-04-25T08:42:51.937Z</time></trkpt><trkpt lat="43.70301915417398" lon="11.09082452027519"><ele>71.0</ele><time>2026-04-25T08:42:52.937Z</time></trkpt><trkpt lat="43.70312697318785" lon="11.090608065070636"><ele>71.0</ele><time>2026-04-25T08:42:53.937Z</time></trkpt><trkpt lat="43.70325136357487" lon="11.090404339725787"><ele>69.66666666666667</ele><time>2026-04-25T08:42:54.937Z</time></trkpt><trkpt lat="43.70337673887829" lon="11.090216325629058"><ele>68.33333333333333</ele><time>2026-04-25T08:42:55.937Z</time></trkpt><trkpt lat="43.703499033115364" lon="11.09002489040746"><ele>67.0</ele><time>2026-04-25T08:42:56.937Z</time></trkpt><trkpt lat="43.70363475150614" lon="11.08982894001975"><ele>67.0</ele><time>2026-04-25T08:42:57.937Z</time></trkpt><trkpt lat="43.70378031819136" lon="11.089653679278635"><ele>67.0</ele><time>2026-04-25T08:42:58.937Z</time></trkpt><trkpt lat="43.703925991561476" lon="11.089489254758961"><ele>67.0</ele><time>2026-04-25T08:42:59.937Z</time></trkpt><trkpt lat="43.70405455936557" lon="11.089330637562592"><ele>67.0</ele><time>2026-04-25T08:43:00.937Z</time></trkpt><trkpt lat="43.704175638193334" lon="11.08915830984079"><ele>67.0</ele><time>2026-04-25T08:43:01.937Z</time></trkpt><trkpt lat="43.70431013067158" lon="11.088988033807714"><ele>67.0</ele><time>2026-04-25T08:43:02.937Z</time></trkpt><trkpt lat="43.70443123915085" lon="11.08883549314328"><ele>71.33333333333333</ele><time>2026-04-25T08:43:03.937Z</time></trkpt><trkpt lat="43.70453042338292" lon="11.088672507476403"><ele>75.66666666666667</ele><time>2026-04-25T08:43:04.937Z</time></trkpt><trkpt lat="43.704606229591256" lon="11.08849707862789"><ele>80.0</ele><time>2026-04-25T08:43:05.937Z</time></trkpt><trkpt lat="43.704664618519985" lon="11.088270276697964"><ele>76.0</ele><time>2026-04-25T08:43:06.937Z</time></trkpt><trkpt lat="43.70470159770985" lon="11.088067417435377"><ele>72.0</ele><time>2026-04-25T08:43:07.937Z</time></trkpt><trkpt lat="43.70473992023782" lon="11.08789035111322"><ele>68.0</ele><time>2026-04-25T08:43:08.937Z</time></trkpt><trkpt lat="43.70480149388068" lon="11.087727422368271"><ele>64.0</ele><time>2026-04-25T08:43:09.937Z</time></trkpt><trkpt lat="43.70488821857548" lon="11.08758228441208"><ele>64.0</ele><time>2026-04-25T08:43:10.937Z</time></trkpt><trkpt lat="43.70496174114033" lon="11.08744146091099"><ele>64.0</ele><time>2026-04-25T08:43:11.937Z</time></trkpt><trkpt lat="43.70512965065236" lon="11.087430235839566"><ele>64.0</ele><time>2026-04-25T08:43:12.937Z</time></trkpt><trkpt lat="43.70525772778635" lon="11.087353702248482"><ele>64.0</ele><time>2026-04-25T08:43:13.937Z</time></trkpt><trkpt lat="43.705385446535985" lon="11.087237424362328"><ele>61.666666666666664</ele><time>2026-04-25T08:43:14.937Z</time></trkpt><trkpt lat="43.70552711963122" lon="11.08709237763217"><ele>59.33333333333333</ele><time>2026-04-25T08:43:15.937Z</time></trkpt><trkpt lat="43.70565950443942" lon="11.08690524448088"><ele>57.0</ele><time>2026-04-25T08:43:16.937Z</time></trkpt><trkpt lat="43.705760454272465" lon="11.086708254609691"><ele>56.5</ele><time>2026-04-25T08:43:17.937Z</time></trkpt><trkpt lat="43.70580397557302" lon="11.086517550775726"><ele>56.0</ele><time>2026-04-25T08:43:18.937Z</time></trkpt><trkpt lat="43.70582983894394" lon="11.086408763677731"><ele>55.5</ele><time>2026-04-25T08:43:19.937Z</time></trkpt><trkpt lat="43.70587831762676" lon="11.08629604831713"><ele>55.0</ele><time>2026-04-25T08:43:21.937Z</time></trkpt><trkpt lat="43.706027030770194" lon="11.086413575976469"><ele>55.6</ele><time>2026-04-25T08:43:24.937Z</time></trkpt><trkpt lat="43.706096090557885" lon="11.086487073070275"><ele>56.2</ele><time>2026-04-25T08:43:25.937Z</time></trkpt><trkpt lat="43.70618616646026" lon="11.086575037495566"><ele>56.8</ele><time>2026-04-25T08:43:26.937Z</time></trkpt><trkpt lat="43.706281774882385" lon="11.08666840468507"><ele>57.4</ele><time>2026-04-25T08:43:27.937Z</time></trkpt><trkpt lat="43.70637881046603" lon="11.086763165668842"><ele>58.0</ele><time>2026-04-25T08:43:28.937Z</time></trkpt><trkpt lat="43.70647082423005" lon="11.086854255798185"><ele>58.2</ele><time>2026-04-25T08:43:29.937Z</time></trkpt><trkpt lat="43.706570502761394" lon="11.086926963095586"><ele>58.4</ele><time>2026-04-25T08:43:30.937Z</time></trkpt><trkpt lat="43.70665898310838" lon="11.087025812687916"><ele>58.60000000000001</ele><time>2026-04-25T08:43:31.937Z</time></trkpt><trkpt lat="43.70674801889177" lon="11.08711482346619"><ele>58.800000000000004</ele><time>2026-04-25T08:43:32.937Z</time></trkpt><trkpt lat="43.70683801525199" lon="11.087204744438742"><ele>59.0</ele><time>2026-04-25T08:43:33.937Z</time></trkpt><trkpt lat="43.70693376541695" lon="11.087293146796082"><ele>58.6</ele><time>2026-04-25T08:43:34.937Z</time></trkpt><trkpt lat="43.70701821638999" lon="11.087394824733634"><ele>58.2</ele><time>2026-04-25T08:43:35.937Z</time></trkpt><trkpt lat="43.707106411248745" lon="11.087479355574553"><ele>57.800000000000004</ele><time>2026-04-25T08:43:36.937Z</time></trkpt><trkpt lat="43.707193684991516" lon="11.087563800335898"><ele>57.400000000000006</ele><time>2026-04-25T08:43:37.937Z</time></trkpt><trkpt lat="43.707281803660095" lon="11.087651382636771"><ele>57.0</ele><time>2026-04-25T08:43:38.937Z</time></trkpt><trkpt lat="43.70737174241114" lon="11.087747907789613"><ele>57.0</ele><time>2026-04-25T08:43:39.937Z</time></trkpt><trkpt lat="43.70746997083493" lon="11.087825272341814"><ele>57.0</ele><time>2026-04-25T08:43:40.937Z</time></trkpt><trkpt lat="43.70756468926844" lon="11.087918134317889"><ele>57.0</ele><time>2026-04-25T08:43:41.937Z</time></trkpt><trkpt lat="43.70766905066113" lon="11.088026880866272"><ele>57.0</ele><time>2026-04-25T08:43:42.937Z</time></trkpt><trkpt lat="43.70776916351129" lon="11.08813498982184"><ele>57.75</ele><time>2026-04-25T08:43:43.937Z</time></trkpt><trkpt lat="43.707877603720604" lon="11.088189806290352"><ele>58.5</ele><time>2026-04-25T08:43:44.937Z</time></trkpt><trkpt lat="43.70798193471242" lon="11.088288794824107"><ele>59.25</ele><time>2026-04-25T08:43:45.937Z</time></trkpt><trkpt lat="43.70808554624218" lon="11.08838094629253"><ele>60.0</ele><time>2026-04-25T08:43:46.937Z</time></trkpt><trkpt lat="43.70815614262567" lon="11.088477118569108"><ele>60.0</ele><time>2026-04-25T08:43:47.937Z</time></trkpt><trkpt lat="43.70821250344937" lon="11.088570517658429"><ele>60.0</ele><time>2026-04-25T08:43:48.937Z</time></trkpt><trkpt lat="43.70826588388133" lon="11.088687860023496"><ele>60.0</ele><time>2026-04-25T08:43:49.937Z</time></trkpt><trkpt lat="43.70831797795156" lon="11.088858397107606"><ele>60.0</ele><time>2026-04-25T08:43:50.937Z</time></trkpt><trkpt lat="43.708389499519676" lon="11.089033129156514"><ele>60.33333333333333</ele><time>2026-04-25T08:43:51.937Z</time></trkpt><trkpt lat="43.7084596410584" lon="11.089252346583544"><ele>60.666666666666664</ele><time>2026-04-25T08:43:52.937Z</time></trkpt><trkpt lat="43.70854496339743" lon="11.089481486221654"><ele>61.0</ele><time>2026-04-25T08:43:53.937Z</time></trkpt><trkpt lat="43.70862340831194" lon="11.089714578491627"><ele>61.0</ele><time>2026-04-25T08:43:54.937Z</time></trkpt><trkpt lat="43.70869021079903" lon="11.08991619373852"><ele>61.0</ele><time>2026-04-25T08:43:55.937Z</time></trkpt><trkpt lat="43.7087654877675" lon="11.090081915782015"><ele>61.0</ele><time>2026-04-25T08:43:56.937Z</time></trkpt><trkpt lat="43.70881105355322" lon="11.090243301567218"><ele>61.0</ele><time>2026-04-25T08:43:57.937Z</time></trkpt><trkpt lat="43.70887096264966" lon="11.090382304366566"><ele>63.75</ele><time>2026-04-25T08:43:58.937Z</time></trkpt><trkpt lat="43.70893942929144" lon="11.090519842535207"><ele>66.5</ele><time>2026-04-25T08:43:59.937Z</time></trkpt><trkpt lat="43.70903140665801" lon="11.09063743850289"><ele>69.25</ele><time>2026-04-25T08:44:00.937Z</time></trkpt><trkpt lat="43.70912010782729" lon="11.090790923623436"><ele>72.0</ele><time>2026-04-25T08:44:01.937Z</time></trkpt><trkpt lat="43.70921075453933" lon="11.090948254556402"><ele>73.8</ele><time>2026-04-25T08:44:02.937Z</time></trkpt><trkpt lat="43.709301124376175" lon="11.09106867461094"><ele>75.6</ele><time>2026-04-25T08:44:03.937Z</time></trkpt><trkpt lat="43.70936169794424" lon="11.091175094423853"><ele>77.39999999999999</ele><time>2026-04-25T08:44:04.937Z</time></trkpt><trkpt lat="43.70942476167958" lon="11.091273937506243"><ele>79.2</ele><time>2026-04-25T08:44:05.937Z</time></trkpt><trkpt lat="43.70948317865053" lon="11.091367948540702"><ele>81.0</ele><time>2026-04-25T08:44:06.937Z</time></trkpt><trkpt lat="43.70954009275193" lon="11.091453378022111"><ele>81.0</ele><time>2026-04-25T08:44:07.937Z</time></trkpt><trkpt lat="43.7095894233893" lon="11.091567138221082"><ele>81.0</ele><time>2026-04-25T08:44:08.937Z</time></trkpt><trkpt lat="43.70967501822603" lon="11.09166775787277"><ele>81.0</ele><time>2026-04-25T08:44:09.937Z</time></trkpt><trkpt lat="43.709747084212076" lon="11.091774404615851"><ele>81.0</ele><time>2026-04-25T08:44:10.937Z</time></trkpt><trkpt lat="43.709817275026474" lon="11.091880885600474"><ele>81.0</ele><time>2026-04-25T08:44:11.937Z</time></trkpt><trkpt lat="43.70989648639066" lon="11.091992924612958"><ele>84.0</ele><time>2026-04-25T08:44:12.937Z</time></trkpt><trkpt lat="43.709971047051795" lon="11.092103564494568"><ele>87.0</ele><time>2026-04-25T08:44:13.937Z</time></trkpt><trkpt lat="43.7100428144085" lon="11.092217316407053"><ele>90.0</ele><time>2026-04-25T08:44:14.937Z</time></trkpt><trkpt lat="43.71011571051815" lon="11.092336349867598"><ele>93.0</ele><time>2026-04-25T08:44:15.937Z</time></trkpt><trkpt lat="43.710180415438884" lon="11.092461566998916"><ele>96.0</ele><time>2026-04-25T08:44:16.937Z</time></trkpt><trkpt lat="43.71026142159708" lon="11.09255634326037"><ele>96.0</ele><time>2026-04-25T08:44:17.937Z</time></trkpt><trkpt lat="43.71032916299339" lon="11.092655752977294"><ele>96.0</ele><time>2026-04-25T08:44:18.937Z</time></trkpt><trkpt lat="43.71039993970763" lon="11.092759745828866"><ele>96.0</ele><time>2026-04-25T08:44:19.937Z</time></trkpt><trkpt lat="43.71046886481657" lon="11.09287244783206"><ele>96.0</ele><time>2026-04-25T08:44:20.937Z</time></trkpt><trkpt lat="43.71053763015107" lon="11.092981417675029"><ele>96.0</ele><time>2026-04-25T08:44:21.937Z</time></trkpt><trkpt lat="43.71060412102443" lon="11.093090024907942"><ele>96.0</ele><time>2026-04-25T08:44:22.937Z</time></trkpt><trkpt lat="43.71068183937517" lon="11.09318210654291"><ele>96.0</ele><time>2026-04-25T08:44:23.937Z</time></trkpt><trkpt lat="43.71074336404973" lon="11.09329408300358"><ele>96.0</ele><time>2026-04-25T08:44:24.937Z</time></trkpt><trkpt lat="43.710808089939846" lon="11.093389305340207"><ele>96.0</ele><time>2026-04-25T08:44:25.937Z</time></trkpt><trkpt lat="43.71087033076372" lon="11.093483863742259"><ele>96.0</ele><time>2026-04-25T08:44:26.937Z</time></trkpt><trkpt lat="43.71093758365674" lon="11.093586902378739"><ele>96.19999999999999</ele><time>2026-04-25T08:44:27.937Z</time></trkpt><trkpt lat="43.711006813152274" lon="11.093686947201098"><ele>96.39999999999999</ele><time>2026-04-25T08:44:28.937Z</time></trkpt><trkpt lat="43.711069848097424" lon="11.093779105692542"><ele>96.6</ele><time>2026-04-25T08:44:29.937Z</time></trkpt><trkpt lat="43.71114084754677" lon="11.09387243750995"><ele>96.8</ele><time>2026-04-25T08:44:30.937Z</time></trkpt><trkpt lat="43.711211313729144" lon="11.093964049380096"><ele>97.0</ele><time>2026-04-25T08:44:31.937Z</time></trkpt><trkpt lat="43.711279975236515" lon="11.094037266069446"><ele>98.83333333333334</ele><time>2026-04-25T08:44:32.937Z</time></trkpt><trkpt lat="43.711346665619935" lon="11.094090838369082"><ele>100.66666666666667</ele><time>2026-04-25T08:44:33.934Z</time></trkpt><trkpt lat="43.71140084492132" lon="11.094146792079698"><ele>102.5</ele><time>2026-04-25T08:44:34.934Z</time></trkpt><trkpt lat="43.71146388833743" lon="11.094201872536136"><ele>104.33333333333334</ele><time>2026-04-25T08:44:35.934Z</time></trkpt><trkpt lat="43.71152918816027" lon="11.094280060754466"><ele>106.16666666666667</ele><time>2026-04-25T08:44:36.934Z</time></trkpt><trkpt lat="43.711587903489374" lon="11.094377631422466"><ele>108.0</ele><time>2026-04-25T08:44:37.934Z</time></trkpt><trkpt lat="43.71163650940716" lon="11.094490162812344"><ele>108.0</ele><time>2026-04-25T08:44:38.934Z</time></trkpt><trkpt lat="43.71167557354981" lon="11.094603341506913"><ele>108.0</ele><time>2026-04-25T08:44:39.934Z</time></trkpt><trkpt lat="43.71170992060015" lon="11.094706636820229"><ele>108.0</ele><time>2026-04-25T08:44:40.934Z</time></trkpt><trkpt lat="43.71172196273356" lon="11.094812460086679"><ele>108.0</ele><time>2026-04-25T08:44:41.934Z</time></trkpt><trkpt lat="43.71175173577465" lon="11.094889205673304"><ele>108.0</ele><time>2026-04-25T08:44:42.934Z</time></trkpt><trkpt lat="43.71184137402599" lon="11.094961075992918"><ele>108.0</ele><time>2026-04-25T08:44:45.934Z</time></trkpt><trkpt lat="43.7117751934868" lon="11.094895487984118"><ele>108.0</ele><time>2026-04-25T08:45:47.934Z</time></trkpt><trkpt lat="43.711703843201626" lon="11.094820175765422"><ele>108.0</ele><time>2026-04-25T08:45:49.934Z</time></trkpt><trkpt lat="43.71159392600074" lon="11.09482636015042"><ele>108.0</ele><time>2026-04-25T08:45:51.934Z</time></trkpt><trkpt lat="43.71147605847975" lon="11.094785328965973"><ele>108.0</ele><time>2026-04-25T08:45:53.934Z</time></trkpt><trkpt lat="43.71147422742834" lon="11.094247938791254"><ele>108.0</ele><time>2026-04-25T08:45:54.934Z</time></trkpt><trkpt lat="43.711416664830125" lon="11.094149289860821"><ele>108.0</ele><time>2026-04-25T08:45:55.934Z</time></trkpt><trkpt lat="43.71134276257757" lon="11.094093451211645"><ele>108.0</ele><time>2026-04-25T08:45:56.934Z</time></trkpt><trkpt lat="43.71126965125018" lon="11.094042586944399"><ele>108.0</ele><time>2026-04-25T08:45:57.934Z</time></trkpt><trkpt lat="43.71120151837743" lon="11.093965988006156"><ele>108.0</ele><time>2026-04-25T08:45:58.934Z</time></trkpt><trkpt lat="43.7111219545873" lon="11.093876813452821"><ele>108.0</ele><time>2026-04-25T08:45:59.934Z</time></trkpt><trkpt lat="43.711045282887135" lon="11.093793157954646"><ele>108.0</ele><time>2026-04-25T08:46:00.934Z</time></trkpt><trkpt lat="43.7109701816636" lon="11.093694021246488"><ele>108.00000000000001</ele><time>2026-04-25T08:46:01.934Z</time></trkpt><trkpt lat="43.7108983056961" lon="11.093593360210729"><ele>108.00000000000001</ele><time>2026-04-25T08:46:02.934Z</time></trkpt><trkpt lat="43.710832532631386" lon="11.093480281255173"><ele>108.0</ele><time>2026-04-25T08:46:03.934Z</time></trkpt><trkpt lat="43.71077107195324" lon="11.093373485663706"><ele>108.0</ele><time>2026-04-25T08:46:04.934Z</time></trkpt><trkpt lat="43.710713005738235" lon="11.093265507206512"><ele>106.0</ele><time>2026-04-25T08:46:05.934Z</time></trkpt><trkpt lat="43.71064972485794" lon="11.09316244036973"><ele>104.0</ele><time>2026-04-25T08:46:06.934Z</time></trkpt><trkpt lat="43.71058774788936" lon="11.09306652674493"><ele>102.0</ele><time>2026-04-25T08:46:07.934Z</time></trkpt><trkpt lat="43.71054062015667" lon="11.092991414508885"><ele>100.0</ele><time>2026-04-25T08:46:08.934Z</time></trkpt><trkpt lat="43.710491703064086" lon="11.092912820686989"><ele>98.0</ele><time>2026-04-25T08:46:09.934Z</time></trkpt><trkpt lat="43.7104342629013" lon="11.092835337979658"><ele>96.0</ele><time>2026-04-25T08:46:10.934Z</time></trkpt><trkpt lat="43.71037184472653" lon="11.092750372859896"><ele>96.0</ele><time>2026-04-25T08:46:11.934Z</time></trkpt><trkpt lat="43.71033144932784" lon="11.092618842251854"><ele>96.0</ele><time>2026-04-25T08:46:12.934Z</time></trkpt><trkpt lat="43.710259692146145" lon="11.092513293184401"><ele>96.0</ele><time>2026-04-25T08:46:13.934Z</time></trkpt><trkpt lat="43.71019219087096" lon="11.09241123539915"><ele>96.0</ele><time>2026-04-25T08:46:14.934Z</time></trkpt><trkpt lat="43.71012735570555" lon="11.09231048902766"><ele>96.0</ele><time>2026-04-25T08:46:15.934Z</time></trkpt><trkpt lat="43.71004933972271" lon="11.092221535857668"><ele>96.0</ele><time>2026-04-25T08:46:16.934Z</time></trkpt><trkpt lat="43.709990666818776" lon="11.092115576708775"><ele>96.0</ele><time>2026-04-25T08:46:17.934Z</time></trkpt><trkpt lat="43.70992653991858" lon="11.092019460904291"><ele>96.0</ele><time>2026-04-25T08:46:18.934Z</time></trkpt><trkpt lat="43.709863269371354" lon="11.09192639311731"><ele>96.0</ele><time>2026-04-25T08:46:19.934Z</time></trkpt><trkpt lat="43.7097978790133" lon="11.091838109900158"><ele>96.0</ele><time>2026-04-25T08:46:20.934Z</time></trkpt><trkpt lat="43.70974312584939" lon="11.0917541480886"><ele>96.0</ele><time>2026-04-25T08:46:21.934Z</time></trkpt><trkpt lat="43.709681569944095" lon="11.091657799814119"><ele>96.0</ele><time>2026-04-25T08:46:22.934Z</time></trkpt><trkpt lat="43.70962162437621" lon="11.09154812478205"><ele>96.0</ele><time>2026-04-25T08:46:23.934Z</time></trkpt><trkpt lat="43.70956761347963" lon="11.091459739441708"><ele>96.0</ele><time>2026-04-25T08:46:24.934Z</time></trkpt><trkpt lat="43.709516773141786" lon="11.09137676372544"><ele>96.0</ele><time>2026-04-25T08:46:25.934Z</time></trkpt><trkpt lat="43.70946977440955" lon="11.0913005235699"><ele>96.0</ele><time>2026-04-25T08:46:26.934Z</time></trkpt><trkpt lat="43.70939532928362" lon="11.091206615300484"><ele>94.83333333333333</ele><time>2026-04-25T08:46:28.934Z</time></trkpt><trkpt lat="43.709310686859254" lon="11.09107136336441"><ele>93.66666666666667</ele><time>2026-04-25T08:46:30.934Z</time></trkpt><trkpt lat="43.709262313243684" lon="11.090993115760849"><ele>92.5</ele><time>2026-04-25T08:46:31.934Z</time></trkpt><trkpt lat="43.70922754211351" lon="11.09090424104347"><ele>91.33333333333334</ele><time>2026-04-25T08:46:32.934Z</time></trkpt><trkpt lat="43.70917880066508" lon="11.090819174762917"><ele>90.16666666666667</ele><time>2026-04-25T08:46:33.934Z</time></trkpt><trkpt lat="43.70911147949861" lon="11.090735936758072"><ele>89.0</ele><time>2026-04-25T08:46:34.934Z</time></trkpt><trkpt lat="43.70905824225093" lon="11.090642133962318"><ele>86.16666666666667</ele><time>2026-04-25T08:46:35.934Z</time></trkpt><trkpt lat="43.70900930933433" lon="11.090561781320268"><ele>83.33333333333334</ele><time>2026-04-25T08:46:36.934Z</time></trkpt><trkpt lat="43.708956332552056" lon="11.090487510494237"><ele>80.5</ele><time>2026-04-25T08:46:37.934Z</time></trkpt><trkpt lat="43.7089284516386" lon="11.090401585873016"><ele>77.66666666666667</ele><time>2026-04-25T08:46:38.934Z</time></trkpt><trkpt lat="43.70889206886211" lon="11.090321819228256"><ele>74.83333333333333</ele><time>2026-04-25T08:46:39.93Z</time></trkpt><trkpt lat="43.708859490107926" lon="11.090242120682861"><ele>72.0</ele><time>2026-04-25T08:46:40.93Z</time></trkpt><trkpt lat="43.70879587876048" lon="11.090108997697786"><ele>72.0</ele><time>2026-04-25T08:46:41.93Z</time></trkpt><trkpt lat="43.70875391748295" lon="11.089961535627033"><ele>72.0</ele><time>2026-04-25T08:46:42.93Z</time></trkpt><trkpt lat="43.70870732035163" lon="11.089811854400043"><ele>72.0</ele><time>2026-04-25T08:46:43.93Z</time></trkpt><trkpt lat="43.70863957763342" lon="11.089662561604477"><ele>72.0</ele><time>2026-04-25T08:46:44.93Z</time></trkpt><trkpt lat="43.70858500908318" lon="11.089496396626052"><ele>69.25</ele><time>2026-04-25T08:46:45.93Z</time></trkpt><trkpt lat="43.70851159574901" lon="11.089349021425651"><ele>66.5</ele><time>2026-04-25T08:46:46.93Z</time></trkpt><trkpt lat="43.70845965585068" lon="11.089187712948236"><ele>63.75</ele><time>2026-04-25T08:46:47.93Z</time></trkpt><trkpt lat="43.70841146029396" lon="11.089028300685252"><ele>61.0</ele><time>2026-04-25T08:46:48.93Z</time></trkpt><trkpt lat="43.7083650019712" lon="11.088889365234438"><ele>60.83333333333333</ele><time>2026-04-25T08:46:49.93Z</time></trkpt><trkpt lat="43.708317252484505" lon="11.088785185561795"><ele>60.666666666666664</ele><time>2026-04-25T08:46:50.93Z</time></trkpt><trkpt lat="43.70828269724292" lon="11.08868272055621"><ele>60.5</ele><time>2026-04-25T08:46:51.93Z</time></trkpt><trkpt lat="43.7082441343062" lon="11.088587145591664"><ele>60.33333333333333</ele><time>2026-04-25T08:46:52.93Z</time></trkpt><trkpt lat="43.708191740544024" lon="11.088498770797482"><ele>60.166666666666664</ele><time>2026-04-25T08:46:53.93Z</time></trkpt><trkpt lat="43.708149962148795" lon="11.088399523323513"><ele>60.0</ele><time>2026-04-25T08:46:54.93Z</time></trkpt><trkpt lat="43.70809125359293" lon="11.088330620213851"><ele>60.0</ele><time>2026-04-25T08:46:55.93Z</time></trkpt><trkpt lat="43.70802736786279" lon="11.088273315113161"><ele>60.0</ele><time>2026-04-25T08:46:56.93Z</time></trkpt><trkpt lat="43.707961519742526" lon="11.08821890809418"><ele>60.0</ele><time>2026-04-25T08:46:57.93Z</time></trkpt><trkpt lat="43.70790018510202" lon="11.088171214255851"><ele>60.0</ele><time>2026-04-25T08:46:58.93Z</time></trkpt><trkpt lat="43.70784290600074" lon="11.088125697503457"><ele>60.0</ele><time>2026-04-25T08:46:59.93Z</time></trkpt><trkpt lat="43.70778615470615" lon="11.088074487654103"><ele>60.0</ele><time>2026-04-25T08:47:00.93Z</time></trkpt><trkpt lat="43.70773402419425" lon="11.08801887290254"><ele>60.0</ele><time>2026-04-25T08:47:01.93Z</time></trkpt><trkpt lat="43.707654577256264" lon="11.08795652729881"><ele>59.5</ele><time>2026-04-25T08:47:02.93Z</time></trkpt><trkpt lat="43.70759059141006" lon="11.087891831535975"><ele>59.0</ele><time>2026-04-25T08:47:03.93Z</time></trkpt><trkpt lat="43.70752613401297" lon="11.087831625868658"><ele>58.5</ele><time>2026-04-25T08:47:04.93Z</time></trkpt><trkpt lat="43.707457358605545" lon="11.087764657406922"><ele>58.0</ele><time>2026-04-25T08:47:05.93Z</time></trkpt><trkpt lat="43.70739356465988" lon="11.087698961702664"><ele>57.5</ele><time>2026-04-25T08:47:06.93Z</time></trkpt><trkpt lat="43.707329718606005" lon="11.087628256045651"><ele>57.0</ele><time>2026-04-25T08:47:07.93Z</time></trkpt><trkpt lat="43.707272479240544" lon="11.087562993335748"><ele>57.0</ele><time>2026-04-25T08:47:08.93Z</time></trkpt><trkpt lat="43.70720414813524" lon="11.087517776955616"><ele>57.0</ele><time>2026-04-25T08:47:09.93Z</time></trkpt><trkpt lat="43.70713762950079" lon="11.08747487513409"><ele>57.0</ele><time>2026-04-25T08:47:10.93Z</time></trkpt><trkpt lat="43.70706990776556" lon="11.087407963506573"><ele>57.0</ele><time>2026-04-25T08:47:11.93Z</time></trkpt><trkpt lat="43.70699641592475" lon="11.087337905325475"><ele>57.0</ele><time>2026-04-25T08:47:12.93Z</time></trkpt><trkpt lat="43.70693621416229" lon="11.087281403427069"><ele>57.0</ele><time>2026-04-25T08:47:13.93Z</time></trkpt><trkpt lat="43.70687100965656" lon="11.087215358771186"><ele>57.333333333333336</ele><time>2026-04-25T08:47:16.93Z</time></trkpt><trkpt lat="43.70680144625832" lon="11.087151613682284"><ele>57.66666666666667</ele><time>2026-04-25T08:47:18.93Z</time></trkpt><trkpt lat="43.70674577842993" lon="11.087074221454541"><ele>58.0</ele><time>2026-04-25T08:47:19.93Z</time></trkpt><trkpt lat="43.7066681207382" lon="11.086996039622255"><ele>58.333333333333336</ele><time>2026-04-25T08:47:20.93Z</time></trkpt><trkpt lat="43.70660384054194" lon="11.086931325582688"><ele>58.66666666666667</ele><time>2026-04-25T08:47:21.93Z</time></trkpt><trkpt lat="43.706541731756076" lon="11.086896659014686"><ele>59.0</ele><time>2026-04-25T08:47:23.93Z</time></trkpt><trkpt lat="43.70646611073204" lon="11.086810738730927"><ele>59.00000000000001</ele><time>2026-04-25T08:47:25.93Z</time></trkpt><trkpt lat="43.706396145224936" lon="11.08674228236585"><ele>59.0</ele><time>2026-04-25T08:47:26.93Z</time></trkpt><trkpt lat="43.706338999861565" lon="11.086688520484692"><ele>59.0</ele><time>2026-04-25T08:47:27.93Z</time></trkpt><trkpt lat="43.70625736721434" lon="11.086588312088256"><ele>59.0</ele><time>2026-04-25T08:47:29.93Z</time></trkpt><trkpt lat="43.70619492773541" lon="11.086527336293196"><ele>59.00000000000001</ele><time>2026-04-25T08:47:30.93Z</time></trkpt><trkpt lat="43.706124218380914" lon="11.086480492781906"><ele>59.0</ele><time>2026-04-25T08:47:31.93Z</time></trkpt><trkpt lat="43.706061465211114" lon="11.086410256748433"><ele>58.2</ele><time>2026-04-25T08:47:32.93Z</time></trkpt><trkpt lat="43.70598123863833" lon="11.086340880687203"><ele>57.400000000000006</ele><time>2026-04-25T08:47:33.93Z</time></trkpt><trkpt lat="43.70591583714839" lon="11.086288777866283"><ele>56.6</ele><time>2026-04-25T08:47:34.93Z</time></trkpt><trkpt lat="43.705850341162325" lon="11.086264822420484"><ele>55.8</ele><time>2026-04-25T08:47:37.93Z</time></trkpt><trkpt lat="43.70589488091683" lon="11.086018041423788"><ele>55.0</ele><time>2026-04-25T08:47:39.93Z</time></trkpt><trkpt lat="43.70591262431511" lon="11.08590187794742"><ele>55.0</ele><time>2026-04-25T08:47:40.93Z</time></trkpt><trkpt lat="43.70593093348543" lon="11.08578493062782"><ele>55.0</ele><time>2026-04-25T08:47:41.93Z</time></trkpt><trkpt lat="43.70595125677975" lon="11.085659149066549"><ele>55.0</ele><time>2026-04-25T08:47:42.93Z</time></trkpt><trkpt lat="43.705966527183904" lon="11.0855316539874"><ele>55.0</ele><time>2026-04-25T08:47:43.93Z</time></trkpt><trkpt lat="43.70598519369804" lon="11.08538560949477"><ele>55.0</ele><time>2026-04-25T08:47:44.93Z</time></trkpt><trkpt lat="43.70600587420824" lon="11.085241922725297"><ele>55.0</ele><time>2026-04-25T08:47:45.93Z</time></trkpt><trkpt lat="43.706027701618666" lon="11.085086808799375"><ele>55.0</ele><time>2026-04-25T08:47:46.93Z</time></trkpt><trkpt lat="43.70605223589758" lon="11.084916542509896"><ele>55.0</ele><time>2026-04-25T08:47:47.93Z</time></trkpt><trkpt lat="43.70607786766706" lon="11.084738562910921"><ele>55.0</ele><time>2026-04-25T08:47:48.93Z</time></trkpt><trkpt lat="43.706102608268246" lon="11.084553661968565"><ele>57.25</ele><time>2026-04-25T08:47:49.93Z</time></trkpt><trkpt lat="43.70612729194165" lon="11.08436284625187"><ele>59.5</ele><time>2026-04-25T08:47:50.93Z</time></trkpt><trkpt lat="43.706151367522764" lon="11.084163029179658"><ele>61.75</ele><time>2026-04-25T08:47:51.93Z</time></trkpt><trkpt lat="43.706168436688415" lon="11.083946285882524"><ele>64.0</ele><time>2026-04-25T08:47:52.93Z</time></trkpt><trkpt lat="43.706178054476474" lon="11.083721300026253"><ele>64.33333333333333</ele><time>2026-04-25T08:47:53.93Z</time></trkpt><trkpt lat="43.706165922047795" lon="11.0834943789767"><ele>64.66666666666667</ele><time>2026-04-25T08:47:54.93Z</time></trkpt><trkpt lat="43.70614668075887" lon="11.083275244744529"><ele>65.0</ele><time>2026-04-25T08:47:55.93Z</time></trkpt><trkpt lat="43.706113095280166" lon="11.083053280140648"><ele>65.0</ele><time>2026-04-25T08:47:56.93Z</time></trkpt><trkpt lat="43.706095665358085" lon="11.08283631973722"><ele>65.0</ele><time>2026-04-25T08:47:57.93Z</time></trkpt><trkpt lat="43.706116062873015" lon="11.08263086026798"><ele>65.0</ele><time>2026-04-25T08:47:58.93Z</time></trkpt><trkpt lat="43.70614741035417" lon="11.082418147522173"><ele>65.0</ele><time>2026-04-25T08:47:59.93Z</time></trkpt><trkpt lat="43.706190542641956" lon="11.08220584113054"><ele>65.0</ele><time>2026-04-25T08:48:00.93Z</time></trkpt><trkpt lat="43.706230505656066" lon="11.081988493325541"><ele>65.0</ele><time>2026-04-25T08:48:01.93Z</time></trkpt><trkpt lat="43.70627377144706" lon="11.08176255757497"><ele>64.0</ele><time>2026-04-25T08:48:02.93Z</time></trkpt><trkpt lat="43.706312177893736" lon="11.08154085822757"><ele>63.0</ele><time>2026-04-25T08:48:03.93Z</time></trkpt><trkpt lat="43.70634514643559" lon="11.081319800738035"><ele>62.0</ele><time>2026-04-25T08:48:04.93Z</time></trkpt><trkpt lat="43.7063760871833" lon="11.081124660545242"><ele>62.0</ele><time>2026-04-25T08:48:05.93Z</time></trkpt><trkpt lat="43.706406264540746" lon="11.080941019020173"><ele>62.0</ele><time>2026-04-25T08:48:06.93Z</time></trkpt><trkpt lat="43.70643757944006" lon="11.08077160107967"><ele>62.0</ele><time>2026-04-25T08:48:07.93Z</time></trkpt><trkpt lat="43.70646550354863" lon="11.080604418376701"><ele>62.0</ele><time>2026-04-25T08:48:08.93Z</time></trkpt><trkpt lat="43.706493454562306" lon="11.080444291367842"><ele>61.0</ele><time>2026-04-25T08:48:09.93Z</time></trkpt><trkpt lat="43.70652279126411" lon="11.080296289863464"><ele>60.0</ele><time>2026-04-25T08:48:10.93Z</time></trkpt><trkpt lat="43.70655842644982" lon="11.08015409525959"><ele>59.0</ele><time>2026-04-25T08:48:11.93Z</time></trkpt><trkpt lat="43.70660559110367" lon="11.080028716584305"><ele>58.0</ele><time>2026-04-25T08:48:12.93Z</time></trkpt><trkpt lat="43.70667948899017" lon="11.079905416172306"><ele>57.0</ele><time>2026-04-25T08:48:13.93Z</time></trkpt><trkpt lat="43.706764422589174" lon="11.079784331082875"><ele>56.8</ele><time>2026-04-25T08:48:14.93Z</time></trkpt><trkpt lat="43.70685960902937" lon="11.079707525776307"><ele>56.6</ele><time>2026-04-25T08:48:15.93Z</time></trkpt><trkpt lat="43.70694830841982" lon="11.07961661663267"><ele>56.39999999999999</ele><time>2026-04-25T08:48:16.93Z</time></trkpt><trkpt lat="43.70700725741219" lon="11.079502446431146"><ele>56.199999999999996</ele><time>2026-04-25T08:48:17.93Z</time></trkpt><trkpt lat="43.7070671078783" lon="11.07938324523511"><ele>56.0</ele><time>2026-04-25T08:48:18.93Z</time></trkpt><trkpt lat="43.707122248804" lon="11.079227891722033"><ele>57.333333333333336</ele><time>2026-04-25T08:48:19.93Z</time></trkpt><trkpt lat="43.70716456928669" lon="11.079043604430073"><ele>58.66666666666667</ele><time>2026-04-25T08:48:20.93Z</time></trkpt><trkpt lat="43.707199441560064" lon="11.078833804866953"><ele>60.0</ele><time>2026-04-25T08:48:21.93Z</time></trkpt><trkpt lat="43.70723124341224" lon="11.078601154568418"><ele>60.0</ele><time>2026-04-25T08:48:22.93Z</time></trkpt><trkpt lat="43.70728175271319" lon="11.078379391958528"><ele>60.0</ele><time>2026-04-25T08:48:23.93Z</time></trkpt><trkpt lat="43.707338884940235" lon="11.078162638684514"><ele>60.0</ele><time>2026-04-25T08:48:24.93Z</time></trkpt><trkpt lat="43.7074294546012" lon="11.077948191205966"><ele>59.0</ele><time>2026-04-25T08:48:25.93Z</time></trkpt><trkpt lat="43.70749036055" lon="11.077742924219882"><ele>58.0</ele><time>2026-04-25T08:48:26.93Z</time></trkpt><trkpt lat="43.70754953107806" lon="11.077542073714898"><ele>57.0</ele><time>2026-04-25T08:48:27.93Z</time></trkpt><trkpt lat="43.707605664981976" lon="11.077364190540251"><ele>56.5</ele><time>2026-04-25T08:48:28.93Z</time></trkpt><trkpt lat="43.707669495163834" lon="11.077187234572882"><ele>56.0</ele><time>2026-04-25T08:48:29.93Z</time></trkpt><trkpt lat="43.70772732487961" lon="11.07702453700075"><ele>55.5</ele><time>2026-04-25T08:48:30.93Z</time></trkpt><trkpt lat="43.70778233548624" lon="11.076880055096952"><ele>55.0</ele><time>2026-04-25T08:48:31.93Z</time></trkpt><trkpt lat="43.70783609779428" lon="11.076748139539596"><ele>56.4</ele><time>2026-04-25T08:48:32.93Z</time></trkpt><trkpt lat="43.7078821396199" lon="11.076617282311515"><ele>57.8</ele><time>2026-04-25T08:48:33.93Z</time></trkpt><trkpt lat="43.70792420344029" lon="11.076489754749504"><ele>59.2</ele><time>2026-04-25T08:48:34.93Z</time></trkpt><trkpt lat="43.70795802350405" lon="11.076367628422625"><ele>60.6</ele><time>2026-04-25T08:48:35.93Z</time></trkpt><trkpt lat="43.707990303636684" lon="11.076238631643951"><ele>62.0</ele><time>2026-04-25T08:48:36.93Z</time></trkpt><trkpt lat="43.70802872388748" lon="11.07608534459685"><ele>62.0</ele><time>2026-04-25T08:48:37.93Z</time></trkpt><trkpt lat="43.70807683472139" lon="11.075926034792037"><ele>62.0</ele><time>2026-04-25T08:48:38.93Z</time></trkpt><trkpt lat="43.70810197561359" lon="11.075738150403435"><ele>62.0</ele><time>2026-04-25T08:48:39.93Z</time></trkpt><trkpt lat="43.70812408645121" lon="11.075553324034672"><ele>62.0</ele><time>2026-04-25T08:48:40.93Z</time></trkpt><trkpt lat="43.70815313200566" lon="11.075383678589057"><ele>61.25</ele><time>2026-04-25T08:48:41.93Z</time></trkpt><trkpt lat="43.70817860847206" lon="11.075219519424333"><ele>60.5</ele><time>2026-04-25T08:48:42.93Z</time></trkpt><trkpt lat="43.70820540423849" lon="11.075060135684952"><ele>59.75</ele><time>2026-04-25T08:48:43.93Z</time></trkpt><trkpt lat="43.70822448852829" lon="11.07489955879887"><ele>59.0</ele><time>2026-04-25T08:48:44.93Z</time></trkpt><trkpt lat="43.708244178907606" lon="11.074742158361632"><ele>58.6</ele><time>2026-04-25T08:48:45.926Z</time></trkpt><trkpt lat="43.70826621139808" lon="11.074591650454021"><ele>58.2</ele><time>2026-04-25T08:48:46.927Z</time></trkpt><trkpt lat="43.708294218895055" lon="11.074469836210126"><ele>57.800000000000004</ele><time>2026-04-25T08:48:47.926Z</time></trkpt><trkpt lat="43.70831801630778" lon="11.074358277120297"><ele>57.400000000000006</ele><time>2026-04-25T08:48:48.926Z</time></trkpt><trkpt lat="43.70834044227154" lon="11.074243813026444"><ele>57.0</ele><time>2026-04-25T08:48:49.926Z</time></trkpt><trkpt lat="43.70838008600363" lon="11.074113119526206"><ele>56.0</ele><time>2026-04-25T08:48:50.926Z</time></trkpt><trkpt lat="43.70842554346765" lon="11.07396758508806"><ele>55.0</ele><time>2026-04-25T08:48:51.926Z</time></trkpt><trkpt lat="43.70847598952268" lon="11.073803828102802"><ele>54.0</ele><time>2026-04-25T08:48:52.926Z</time></trkpt><trkpt lat="43.70852980804052" lon="11.073623243324008"><ele>53.0</ele><time>2026-04-25T08:48:53.926Z</time></trkpt><trkpt lat="43.70857971305595" lon="11.073441651362293"><ele>54.75</ele><time>2026-04-25T08:48:54.926Z</time></trkpt><trkpt lat="43.70863226030263" lon="11.073263834538876"><ele>56.5</ele><time>2026-04-25T08:48:55.926Z</time></trkpt><trkpt lat="43.70868282075439" lon="11.073085817758413"><ele>58.25</ele><time>2026-04-25T08:48:56.926Z</time></trkpt><trkpt lat="43.70873855739995" lon="11.072921172144268"><ele>60.0</ele><time>2026-04-25T08:48:57.926Z</time></trkpt><trkpt lat="43.70879784527529" lon="11.07277050015135"><ele>60.0</ele><time>2026-04-25T08:48:58.926Z</time></trkpt><trkpt lat="43.708840873598945" lon="11.072637670883557"><ele>60.0</ele><time>2026-04-25T08:48:59.926Z</time></trkpt><trkpt lat="43.70887776218185" lon="11.072516082097328"><ele>60.0</ele><time>2026-04-25T08:49:00.926Z</time></trkpt><trkpt lat="43.708916816154876" lon="11.072386482637206"><ele>60.0</ele><time>2026-04-25T08:49:01.926Z</time></trkpt><trkpt lat="43.7089674476428" lon="11.072261374079769"><ele>60.0</ele><time>2026-04-25T08:49:02.926Z</time></trkpt><trkpt lat="43.709021531902486" lon="11.07213360229667"><ele>59.0</ele><time>2026-04-25T08:49:03.926Z</time></trkpt><trkpt lat="43.70908065669" lon="11.072013600489106"><ele>58.0</ele><time>2026-04-25T08:49:04.926Z</time></trkpt><trkpt lat="43.70914968271863" lon="11.071906932711906"><ele>57.0</ele><time>2026-04-25T08:49:05.926Z</time></trkpt><trkpt lat="43.70920679804134" lon="11.071812588934144"><ele>56.0</ele><time>2026-04-25T08:49:06.926Z</time></trkpt><trkpt lat="43.70925156691096" lon="11.071714615809698"><ele>55.0</ele><time>2026-04-25T08:49:07.926Z</time></trkpt><trkpt lat="43.709255644589895" lon="11.07160563075967"><ele>54.666666666666664</ele><time>2026-04-25T08:49:08.926Z</time></trkpt><trkpt lat="43.70929343844053" lon="11.071497012492642"><ele>54.33333333333333</ele><time>2026-04-25T08:49:09.926Z</time></trkpt><trkpt lat="43.709316888617444" lon="11.071398657692612"><ele>54.0</ele><time>2026-04-25T08:49:10.926Z</time></trkpt><trkpt lat="43.709340227577535" lon="11.07129545116095"><ele>53.66666666666667</ele><time>2026-04-25T08:49:11.926Z</time></trkpt><trkpt lat="43.70935900379093" lon="11.07120834276613"><ele>53.333333333333336</ele><time>2026-04-25T08:49:12.926Z</time></trkpt><trkpt lat="43.70938510586486" lon="11.071106691494453"><ele>53.0</ele><time>2026-04-25T08:49:13.926Z</time></trkpt><trkpt lat="43.70940667095375" lon="11.071010881552269"><ele>54.333333333333336</ele><time>2026-04-25T08:49:14.926Z</time></trkpt><trkpt lat="43.7094341147477" lon="11.070923903751435"><ele>55.66666666666667</ele><time>2026-04-25T08:49:15.926Z</time></trkpt><trkpt lat="43.709448896838765" lon="11.070828973588222"><ele>57.0</ele><time>2026-04-25T08:49:16.926Z</time></trkpt><trkpt lat="43.70946353378928" lon="11.070730331259133"><ele>58.33333333333333</ele><time>2026-04-25T08:49:17.926Z</time></trkpt><trkpt lat="43.70947430089135" lon="11.070608042237394"><ele>59.666666666666664</ele><time>2026-04-25T08:49:18.926Z</time></trkpt><trkpt lat="43.70948884595357" lon="11.07048293218"><ele>61.0</ele><time>2026-04-25T08:49:19.926Z</time></trkpt><trkpt lat="43.709512437727106" lon="11.070335802622882"><ele>61.0</ele><time>2026-04-25T08:49:20.926Z</time></trkpt><trkpt lat="43.70954016854789" lon="11.070176788120834"><ele>61.0</ele><time>2026-04-25T08:49:21.926Z</time></trkpt><trkpt lat="43.709563526425924" lon="11.070010397403776"><ele>61.0</ele><time>2026-04-25T08:49:22.926Z</time></trkpt><trkpt lat="43.70958503182668" lon="11.069842361843017"><ele>61.0</ele><time>2026-04-25T08:49:23.926Z</time></trkpt><trkpt lat="43.709609237869046" lon="11.069673327166099"><ele>59.25</ele><time>2026-04-25T08:49:24.926Z</time></trkpt><trkpt lat="43.709647434065346" lon="11.069500794789246"><ele>57.5</ele><time>2026-04-25T08:49:25.926Z</time></trkpt><trkpt lat="43.70969102976999" lon="11.069341450457012"><ele>55.75</ele><time>2026-04-25T08:49:26.926Z</time></trkpt><trkpt lat="43.70977724185047" lon="11.069198020323412"><ele>54.0</ele><time>2026-04-25T08:49:27.926Z</time></trkpt><trkpt lat="43.70984863408952" lon="11.069045995830784"><ele>53.0</ele><time>2026-04-25T08:49:28.926Z</time></trkpt><trkpt lat="43.709915975861975" lon="11.068902597188936"><ele>52.00000000000001</ele><time>2026-04-25T08:49:29.926Z</time></trkpt><trkpt lat="43.70998181156547" lon="11.06876588027431"><ele>51.0</ele><time>2026-04-25T08:49:30.926Z</time></trkpt><trkpt lat="43.71004120772611" lon="11.068646037196903"><ele>50.0</ele><time>2026-04-25T08:49:31.926Z</time></trkpt><trkpt lat="43.71010225523131" lon="11.068536017669219"><ele>49.0</ele><time>2026-04-25T08:49:32.926Z</time></trkpt><trkpt lat="43.71016367529818" lon="11.068434067446558"><ele>49.0</ele><time>2026-04-25T08:49:33.926Z</time></trkpt><trkpt lat="43.710225333076096" lon="11.068346134790353"><ele>49.0</ele><time>2026-04-25T08:49:34.926Z</time></trkpt><trkpt lat="43.71029523030359" lon="11.068247424616587"><ele>49.0</ele><time>2026-04-25T08:49:35.926Z</time></trkpt><trkpt lat="43.71036109566779" lon="11.068153011368196"><ele>49.0</ele><time>2026-04-25T08:49:36.926Z</time></trkpt><trkpt lat="43.710422345745734" lon="11.068049818101619"><ele>49.0</ele><time>2026-04-25T08:49:37.926Z</time></trkpt><trkpt lat="43.710482025648666" lon="11.067929038809424"><ele>49.5</ele><time>2026-04-25T08:49:38.926Z</time></trkpt><trkpt lat="43.710539909538944" lon="11.067792074135571"><ele>50.0</ele><time>2026-04-25T08:49:39.926Z</time></trkpt><trkpt lat="43.71059009943469" lon="11.067636019062494"><ele>50.5</ele><time>2026-04-25T08:49:40.926Z</time></trkpt><trkpt lat="43.710640546485784" lon="11.0674828637125"><ele>51.0</ele><time>2026-04-25T08:49:41.926Z</time></trkpt><trkpt lat="43.71068793724126" lon="11.067298080627385"><ele>51.0</ele><time>2026-04-25T08:49:42.926Z</time></trkpt><trkpt lat="43.710732370846316" lon="11.06707816469934"><ele>51.0</ele><time>2026-04-25T08:49:43.926Z</time></trkpt><trkpt lat="43.710758820209115" lon="11.066857545678195"><ele>51.0</ele><time>2026-04-25T08:49:44.926Z</time></trkpt><trkpt lat="43.71079482882888" lon="11.066646020722771"><ele>51.0</ele><time>2026-04-25T08:49:45.926Z</time></trkpt><trkpt lat="43.71083755657791" lon="11.066438723200385"><ele>51.0</ele><time>2026-04-25T08:49:46.926Z</time></trkpt><trkpt lat="43.71088113516556" lon="11.066239205103415"><ele>51.0</ele><time>2026-04-25T08:49:47.926Z</time></trkpt><trkpt lat="43.71092746764074" lon="11.066040176539845"><ele>51.0</ele><time>2026-04-25T08:49:48.926Z</time></trkpt><trkpt lat="43.710977006509786" lon="11.06583569808265"><ele>51.0</ele><time>2026-04-25T08:49:49.926Z</time></trkpt><trkpt lat="43.71103368804432" lon="11.065635564282822"><ele>51.0</ele><time>2026-04-25T08:49:50.926Z</time></trkpt><trkpt lat="43.711090008420655" lon="11.065444540793067"><ele>52.25</ele><time>2026-04-25T08:49:51.926Z</time></trkpt><trkpt lat="43.71113933592946" lon="11.065252832747476"><ele>53.5</ele><time>2026-04-25T08:49:52.926Z</time></trkpt><trkpt lat="43.71117708046364" lon="11.065057859147378"><ele>54.75</ele><time>2026-04-25T08:49:53.926Z</time></trkpt><trkpt lat="43.71122930298162" lon="11.064862781444273"><ele>56.0</ele><time>2026-04-25T08:49:54.926Z</time></trkpt><trkpt lat="43.71124291989428" lon="11.064657416309082"><ele>56.0</ele><time>2026-04-25T08:49:55.926Z</time></trkpt><trkpt lat="43.71126119834874" lon="11.064441587698992"><ele>56.0</ele><time>2026-04-25T08:49:56.926Z</time></trkpt><trkpt lat="43.711315517672645" lon="11.064225065386935"><ele>56.0</ele><time>2026-04-25T08:49:57.926Z</time></trkpt><trkpt lat="43.71132853814059" lon="11.064012058339786"><ele>54.66666666666667</ele><time>2026-04-25T08:49:58.926Z</time></trkpt><trkpt lat="43.711322502107755" lon="11.06380317761037"><ele>53.33333333333333</ele><time>2026-04-25T08:49:59.926Z</time></trkpt><trkpt lat="43.71129685500834" lon="11.063593481997316"><ele>52.0</ele><time>2026-04-25T08:50:00.926Z</time></trkpt><trkpt lat="43.71125025535132" lon="11.06337382450049"><ele>51.25</ele><time>2026-04-25T08:50:01.926Z</time></trkpt><trkpt lat="43.71118685055738" lon="11.06315424507464"><ele>50.5</ele><time>2026-04-25T08:50:02.926Z</time></trkpt><trkpt lat="43.71115854790027" lon="11.062969854179158"><ele>49.75</ele><time>2026-04-25T08:50:03.926Z</time></trkpt><trkpt lat="43.711166588762545" lon="11.062840286293117"><ele>49.0</ele><time>2026-04-25T08:50:04.926Z</time></trkpt><trkpt lat="43.711157900304045" lon="11.062738955666957"><ele>49.0</ele><time>2026-04-25T08:50:05.926Z</time></trkpt><trkpt lat="43.711255569145386" lon="11.062618372247918"><ele>49.0</ele><time>2026-04-25T08:50:06.926Z</time></trkpt><trkpt lat="43.711321402465735" lon="11.062515601265082"><ele>49.0</ele><time>2026-04-25T08:50:07.926Z</time></trkpt><trkpt lat="43.71137419586404" lon="11.062398729433506"><ele>49.0</ele><time>2026-04-25T08:50:08.926Z</time></trkpt><trkpt lat="43.71139283452579" lon="11.062242656349609"><ele>49.0</ele><time>2026-04-25T08:50:09.926Z</time></trkpt><trkpt lat="43.711434890248626" lon="11.06210049008589"><ele>48.75</ele><time>2026-04-25T08:50:10.926Z</time></trkpt><trkpt lat="43.71151873328495" lon="11.061977806132331"><ele>48.5</ele><time>2026-04-25T08:50:11.926Z</time></trkpt><trkpt lat="43.711644987443954" lon="11.061857327360464"><ele>48.25</ele><time>2026-04-25T08:50:12.926Z</time></trkpt><trkpt lat="43.71176947537369" lon="11.061712242283129"><ele>48.0</ele><time>2026-04-25T08:50:13.926Z</time></trkpt><trkpt lat="43.71189701659414" lon="11.061532966720323"><ele>49.0</ele><time>2026-04-25T08:50:14.926Z</time></trkpt><trkpt lat="43.712021348812264" lon="11.061336034515147"><ele>50.0</ele><time>2026-04-25T08:50:15.926Z</time></trkpt><trkpt lat="43.7121503659832" lon="11.061131706531821"><ele>51.0</ele><time>2026-04-25T08:50:16.926Z</time></trkpt><trkpt lat="43.71227496687977" lon="11.060920592195504"><ele>50.66666666666667</ele><time>2026-04-25T08:50:17.926Z</time></trkpt><trkpt lat="43.712389588570126" lon="11.06071362273402"><ele>50.333333333333336</ele><time>2026-04-25T08:50:18.926Z</time></trkpt><trkpt lat="43.712488407766706" lon="11.060511274521264"><ele>50.0</ele><time>2026-04-25T08:50:19.926Z</time></trkpt><trkpt lat="43.712587900982726" lon="11.060323820375176"><ele>50.0</ele><time>2026-04-25T08:50:20.926Z</time></trkpt><trkpt lat="43.712672365882455" lon="11.060113415124547"><ele>50.0</ele><time>2026-04-25T08:50:21.926Z</time></trkpt><trkpt lat="43.71275653399379" lon="11.059883082168108"><ele>50.0</ele><time>2026-04-25T08:50:22.926Z</time></trkpt><trkpt lat="43.71283148935528" lon="11.059637722561286"><ele>53.333333333333336</ele><time>2026-04-25T08:50:23.926Z</time></trkpt><trkpt lat="43.71290276457191" lon="11.05940390258414"><ele>56.66666666666667</ele><time>2026-04-25T08:50:24.926Z</time></trkpt><trkpt lat="43.71297171252272" lon="11.059171044457498"><ele>60.0</ele><time>2026-04-25T08:50:25.926Z</time></trkpt><trkpt lat="43.71303975105947" lon="11.058931802507272"><ele>60.0</ele><time>2026-04-25T08:50:26.926Z</time></trkpt><trkpt lat="43.71310461126801" lon="11.058684005222108"><ele>60.0</ele><time>2026-04-25T08:50:27.926Z</time></trkpt><trkpt lat="43.71316327242754" lon="11.05841675954004"><ele>60.0</ele><time>2026-04-25T08:50:28.926Z</time></trkpt><trkpt lat="43.71318144546172" lon="11.058166953532698"><ele>58.0</ele><time>2026-04-25T08:50:29.926Z</time></trkpt><trkpt lat="43.71323280257496" lon="11.05794984560126"><ele>56.0</ele><time>2026-04-25T08:50:30.926Z</time></trkpt><trkpt lat="43.71327237161194" lon="11.057723691459225"><ele>54.0</ele><time>2026-04-25T08:50:31.926Z</time></trkpt><trkpt lat="43.7133468525783" lon="11.057492731801812"><ele>52.33333333333333</ele><time>2026-04-25T08:50:32.926Z</time></trkpt><trkpt lat="43.71343384312843" lon="11.057258856443415"><ele>50.666666666666664</ele><time>2026-04-25T08:50:33.926Z</time></trkpt><trkpt lat="43.71353637009745" lon="11.057008001240153"><ele>49.0</ele><time>2026-04-25T08:50:34.926Z</time></trkpt><trkpt lat="43.71363089421709" lon="11.056727072749025"><ele>54.5</ele><time>2026-04-25T08:50:35.926Z</time></trkpt><trkpt lat="43.71377755385811" lon="11.056458629422481"><ele>60.0</ele><time>2026-04-25T08:50:36.926Z</time></trkpt><trkpt lat="43.7139043488359" lon="11.05614902135173"><ele>60.0</ele><time>2026-04-25T08:50:37.926Z</time></trkpt><trkpt lat="43.714033610137115" lon="11.055834606063414"><ele>60.0</ele><time>2026-04-25T08:50:38.926Z</time></trkpt><trkpt lat="43.71415788688018" lon="11.05553802496043"><ele>59.5</ele><time>2026-04-25T08:50:39.926Z</time></trkpt><trkpt lat="43.71428114134471" lon="11.055255276709667"><ele>59.0</ele><time>2026-04-25T08:50:40.926Z</time></trkpt><trkpt lat="43.71439491761728" lon="11.05499282099428"><ele>60.66666666666667</ele><time>2026-04-25T08:50:41.926Z</time></trkpt><trkpt lat="43.71450570865665" lon="11.054731966764248"><ele>62.33333333333333</ele><time>2026-04-25T08:50:42.926Z</time></trkpt><trkpt lat="43.71460838986289" lon="11.054472852927136"><ele>64.0</ele><time>2026-04-25T08:50:43.926Z</time></trkpt><trkpt lat="43.714710034866016" lon="11.054219793548173"><ele>61.33333333333333</ele><time>2026-04-25T08:50:44.926Z</time></trkpt><trkpt lat="43.71481214216771" lon="11.053974997380847"><ele>58.66666666666667</ele><time>2026-04-25T08:50:45.926Z</time></trkpt><trkpt lat="43.71489306250569" lon="11.053752820638996"><ele>56.0</ele><time>2026-04-25T08:50:46.926Z</time></trkpt><trkpt lat="43.714983531469535" lon="11.05351124478418"><ele>54.0</ele><time>2026-04-25T08:50:47.926Z</time></trkpt><trkpt lat="43.715059486802794" lon="11.053283803720761"><ele>52.0</ele><time>2026-04-25T08:50:48.926Z</time></trkpt><trkpt lat="43.71513833547014" lon="11.053064094010878"><ele>50.0</ele><time>2026-04-25T08:50:49.926Z</time></trkpt><trkpt lat="43.7152161036435" lon="11.052851578267957"><ele>51.66666666666667</ele><time>2026-04-25T08:50:50.926Z</time></trkpt><trkpt lat="43.71530100745163" lon="11.052652057123428"><ele>53.33333333333333</ele><time>2026-04-25T08:50:51.923Z</time></trkpt><trkpt lat="43.71536917112895" lon="11.052450594228182"><ele>55.0</ele><time>2026-04-25T08:50:52.923Z</time></trkpt><trkpt lat="43.715467540253755" lon="11.05224784734477"><ele>55.0</ele><time>2026-04-25T08:50:53.923Z</time></trkpt><trkpt lat="43.71554087906516" lon="11.05202489482923"><ele>55.0</ele><time>2026-04-25T08:50:54.922Z</time></trkpt><trkpt lat="43.7156219710431" lon="11.051792301706582"><ele>55.0</ele><time>2026-04-25T08:50:55.923Z</time></trkpt><trkpt lat="43.71570156945488" lon="11.051563822857409"><ele>52.666666666666664</ele><time>2026-04-25T08:50:56.923Z</time></trkpt><trkpt lat="43.71578369946866" lon="11.051326200959037"><ele>50.33333333333333</ele><time>2026-04-25T08:50:57.923Z</time></trkpt><trkpt lat="43.71586493413591" lon="11.051083402400574"><ele>48.0</ele><time>2026-04-25T08:50:58.922Z</time></trkpt><trkpt lat="43.71594191824128" lon="11.050848685103269"><ele>46.333333333333336</ele><time>2026-04-25T08:50:59.922Z</time></trkpt><trkpt lat="43.716022210849665" lon="11.050611767913121"><ele>44.66666666666667</ele><time>2026-04-25T08:51:00.922Z</time></trkpt><trkpt lat="43.716098916540204" lon="11.050374940372118"><ele>43.0</ele><time>2026-04-25T08:51:01.923Z</time></trkpt><trkpt lat="43.71618071726629" lon="11.050134999196837"><ele>45.0</ele><time>2026-04-25T08:51:02.923Z</time></trkpt><trkpt lat="43.71626330748617" lon="11.049876672186215"><ele>47.0</ele><time>2026-04-25T08:51:03.923Z</time></trkpt><trkpt lat="43.716345087474274" lon="11.049608043700005"><ele>49.0</ele><time>2026-04-25T08:51:04.922Z</time></trkpt><trkpt lat="43.716412941437746" lon="11.04934002938019"><ele>47.33333333333333</ele><time>2026-04-25T08:51:05.922Z</time></trkpt><trkpt lat="43.71649022969521" lon="11.049069889425754"><ele>45.666666666666664</ele><time>2026-04-25T08:51:06.922Z</time></trkpt><trkpt lat="43.71656526842246" lon="11.048787485767674"><ele>44.0</ele><time>2026-04-25T08:51:07.922Z</time></trkpt><trkpt lat="43.716680355799234" lon="11.048505435835024"><ele>43.5</ele><time>2026-04-25T08:51:08.922Z</time></trkpt><trkpt lat="43.716758733053815" lon="11.048209704422206"><ele>43.0</ele><time>2026-04-25T08:51:09.922Z</time></trkpt><trkpt lat="43.71684759357252" lon="11.047918238079474"><ele>48.5</ele><time>2026-04-25T08:51:10.922Z</time></trkpt><trkpt lat="43.716946526240434" lon="11.047627848551762"><ele>54.0</ele><time>2026-04-25T08:51:11.922Z</time></trkpt><trkpt lat="43.71705192083811" lon="11.047362813632127"><ele>54.0</ele><time>2026-04-25T08:51:12.922Z</time></trkpt><trkpt lat="43.717160556513754" lon="11.047110491875305"><ele>54.0</ele><time>2026-04-25T08:51:13.922Z</time></trkpt><trkpt lat="43.717274119001566" lon="11.046865062648955"><ele>54.0</ele><time>2026-04-25T08:51:14.922Z</time></trkpt><trkpt lat="43.71739255820368" lon="11.04662985687542"><ele>56.0</ele><time>2026-04-25T08:51:15.922Z</time></trkpt><trkpt lat="43.717509861002966" lon="11.04638189940874"><ele>58.0</ele><time>2026-04-25T08:51:16.922Z</time></trkpt><trkpt lat="43.71764630895319" lon="11.046161794243485"><ele>60.0</ele><time>2026-04-25T08:51:17.922Z</time></trkpt><trkpt lat="43.71776532997209" lon="11.045936710721529"><ele>55.0</ele><time>2026-04-25T08:51:18.922Z</time></trkpt><trkpt lat="43.717887302333416" lon="11.045739066167881"><ele>50.0</ele><time>2026-04-25T08:51:19.922Z</time></trkpt><trkpt lat="43.71801164632094" lon="11.045545506437582"><ele>45.0</ele><time>2026-04-25T08:51:20.922Z</time></trkpt><trkpt lat="43.718131126984424" lon="11.045365598831653"><ele>45.0</ele><time>2026-04-25T08:51:21.922Z</time></trkpt><trkpt lat="43.71825507151466" lon="11.045189768207058"><ele>45.0</ele><time>2026-04-25T08:51:22.922Z</time></trkpt><trkpt lat="43.71837428155206" lon="11.04501232865108"><ele>45.0</ele><time>2026-04-25T08:51:23.922Z</time></trkpt><trkpt lat="43.71849446147369" lon="11.044834772717735"><ele>46.66666666666667</ele><time>2026-04-25T08:51:24.922Z</time></trkpt><trkpt lat="43.718601669159135" lon="11.044648787468816"><ele>48.333333333333336</ele><time>2026-04-25T08:51:25.922Z</time></trkpt><trkpt lat="43.71869978508714" lon="11.044433910348019"><ele>50.0</ele><time>2026-04-25T08:51:26.922Z</time></trkpt><trkpt lat="43.71877622104758" lon="11.044198406348519"><ele>47.66666666666667</ele><time>2026-04-25T08:51:27.922Z</time></trkpt><trkpt lat="43.71884296115657" lon="11.043962151987415"><ele>45.333333333333336</ele><time>2026-04-25T08:51:28.922Z</time></trkpt><trkpt lat="43.71889990205675" lon="11.043717637148758"><ele>43.0</ele><time>2026-04-25T08:51:29.922Z</time></trkpt><trkpt lat="43.718953419028395" lon="11.04347275597656"><ele>42.333333333333336</ele><time>2026-04-25T08:51:30.922Z</time></trkpt><trkpt lat="43.71901797123957" lon="11.043241105766144"><ele>41.666666666666664</ele><time>2026-04-25T08:51:31.922Z</time></trkpt><trkpt lat="43.7190861426094" lon="11.043020481408014"><ele>41.0</ele><time>2026-04-25T08:51:32.922Z</time></trkpt><trkpt lat="43.71915295348224" lon="11.042800651789593"><ele>41.0</ele><time>2026-04-25T08:51:33.922Z</time></trkpt><trkpt lat="43.71921586804359" lon="11.042588568345515"><ele>41.0</ele><time>2026-04-25T08:51:34.922Z</time></trkpt><trkpt lat="43.71927059266451" lon="11.042386917824196"><ele>41.0</ele><time>2026-04-25T08:51:35.922Z</time></trkpt><trkpt lat="43.71931700334149" lon="11.042194739212162"><ele>41.25</ele><time>2026-04-25T08:51:36.922Z</time></trkpt><trkpt lat="43.719368067726585" lon="11.04200910002624"><ele>41.5</ele><time>2026-04-25T08:51:37.922Z</time></trkpt><trkpt lat="43.71942346635954" lon="11.041823944121276"><ele>41.75</ele><time>2026-04-25T08:51:38.922Z</time></trkpt><trkpt lat="43.7194759752443" lon="11.041629114682651"><ele>42.0</ele><time>2026-04-25T08:51:39.922Z</time></trkpt><trkpt lat="43.719532394410464" lon="11.041416913285259"><ele>42.333333333333336</ele><time>2026-04-25T08:51:40.922Z</time></trkpt><trkpt lat="43.71958889974198" lon="11.041188405164979"><ele>42.66666666666667</ele><time>2026-04-25T08:51:41.922Z</time></trkpt><trkpt lat="43.71965025217431" lon="11.040969483119358"><ele>43.0</ele><time>2026-04-25T08:51:42.922Z</time></trkpt><trkpt lat="43.71970646174444" lon="11.040757253332192"><ele>41.66666666666667</ele><time>2026-04-25T08:51:43.922Z</time></trkpt><trkpt lat="43.71976945581046" lon="11.040552522146116"><ele>40.333333333333336</ele><time>2026-04-25T08:51:44.922Z</time></trkpt><trkpt lat="43.71982057506851" lon="11.040346555596937"><ele>39.0</ele><time>2026-04-25T08:51:45.922Z</time></trkpt><trkpt lat="43.71989198795645" lon="11.04014746055919"><ele>38.333333333333336</ele><time>2026-04-25T08:51:46.922Z</time></trkpt><trkpt lat="43.71994937654792" lon="11.039943697225365"><ele>37.66666666666667</ele><time>2026-04-25T08:51:47.922Z</time></trkpt><trkpt lat="43.72001041398219" lon="11.039726978415318"><ele>37.0</ele><time>2026-04-25T08:51:48.922Z</time></trkpt><trkpt lat="43.720079801593954" lon="11.039526059781172"><ele>37.0</ele><time>2026-04-25T08:51:49.922Z</time></trkpt><trkpt lat="43.72015945643646" lon="11.039348005385392"><ele>37.0</ele><time>2026-04-25T08:51:50.922Z</time></trkpt><trkpt lat="43.72027054156125" lon="11.039195668458484"><ele>37.0</ele><time>2026-04-25T08:51:51.922Z</time></trkpt><trkpt lat="43.720420095459424" lon="11.039064358173635"><ele>37.0</ele><time>2026-04-25T08:51:52.922Z</time></trkpt><trkpt lat="43.72059806183532" lon="11.038878426040762"><ele>37.0</ele><time>2026-04-25T08:51:53.922Z</time></trkpt><trkpt lat="43.720811059779635" lon="11.038732100042678"><ele>37.0</ele><time>2026-04-25T08:51:54.922Z</time></trkpt><trkpt lat="43.72103589713439" lon="11.038589496250344"><ele>37.0</ele><time>2026-04-25T08:51:55.922Z</time></trkpt><trkpt lat="43.721290363350455" lon="11.038424413220776"><ele>36.5</ele><time>2026-04-25T08:51:56.922Z</time></trkpt><trkpt lat="43.72156043648971" lon="11.038340376613833"><ele>36.0</ele><time>2026-04-25T08:51:57.922Z</time></trkpt><trkpt lat="43.721773202008556" lon="11.03818188078121"><ele>41.5</ele><time>2026-04-25T08:51:58.922Z</time></trkpt><trkpt lat="43.72196475879631" lon="11.03799789049226"><ele>47.0</ele><time>2026-04-25T08:51:59.922Z</time></trkpt><trkpt lat="43.72215804101136" lon="11.037769929467451"><ele>47.0</ele><time>2026-04-25T08:52:00.922Z</time></trkpt><trkpt lat="43.72234418171475" lon="11.03749044581989"><ele>47.0</ele><time>2026-04-25T08:52:01.922Z</time></trkpt><trkpt lat="43.72252397217018" lon="11.03718782023849"><ele>46.5</ele><time>2026-04-25T08:52:02.922Z</time></trkpt><trkpt lat="43.72270553307794" lon="11.03687562452514"><ele>46.0</ele><time>2026-04-25T08:52:03.922Z</time></trkpt><trkpt lat="43.72287806809809" lon="11.03657464633318"><ele>46.0</ele><time>2026-04-25T08:52:04.922Z</time></trkpt><trkpt lat="43.72302116261431" lon="11.036275361032072"><ele>46.0</ele><time>2026-04-25T08:52:05.922Z</time></trkpt><trkpt lat="43.7231474895657" lon="11.035937110206053"><ele>44.0</ele><time>2026-04-25T08:52:06.922Z</time></trkpt><trkpt lat="43.72327650496264" lon="11.035579388583734"><ele>42.0</ele><time>2026-04-25T08:52:07.922Z</time></trkpt><trkpt lat="43.723413415703" lon="11.035201493907287"><ele>39.0</ele><time>2026-04-25T08:52:08.922Z</time></trkpt><trkpt lat="43.72355241466404" lon="11.034816431181124"><ele>36.0</ele><time>2026-04-25T08:52:09.922Z</time></trkpt><trkpt lat="43.72368560352656" lon="11.034446917198089"><ele>39.5</ele><time>2026-04-25T08:52:10.922Z</time></trkpt><trkpt lat="43.72380442394536" lon="11.03411726716751"><ele>43.0</ele><time>2026-04-25T08:52:11.922Z</time></trkpt><trkpt lat="43.72390558748769" lon="11.033843128430686"><ele>43.0</ele><time>2026-04-25T08:52:12.922Z</time></trkpt><trkpt lat="43.72401229209486" lon="11.033592928140646"><ele>43.0</ele><time>2026-04-25T08:52:13.922Z</time></trkpt><trkpt lat="43.72413434822921" lon="11.033345222156251"><ele>43.0</ele><time>2026-04-25T08:52:14.922Z</time></trkpt><trkpt lat="43.7242755512936" lon="11.033070959633195"><ele>53.5</ele><time>2026-04-25T08:52:15.922Z</time></trkpt><trkpt lat="43.724430544352394" lon="11.032769791062865"><ele>64.0</ele><time>2026-04-25T08:52:16.922Z</time></trkpt><trkpt lat="43.72457109868425" lon="11.032495489143626"><ele>56.33333333333333</ele><time>2026-04-25T08:52:17.922Z</time></trkpt><trkpt lat="43.72470432532763" lon="11.032251566823414"><ele>48.666666666666664</ele><time>2026-04-25T08:52:18.922Z</time></trkpt><trkpt lat="43.724841277361" lon="11.03204126684758"><ele>41.0</ele><time>2026-04-25T08:52:19.922Z</time></trkpt><trkpt lat="43.72499164016757" lon="11.031850353974246"><ele>41.0</ele><time>2026-04-25T08:52:20.922Z</time></trkpt><trkpt lat="43.72515983939365" lon="11.031643572615046"><ele>41.0</ele><time>2026-04-25T08:52:21.922Z</time></trkpt><trkpt lat="43.72533351684395" lon="11.031430051886897"><ele>41.0</ele><time>2026-04-25T08:52:22.922Z</time></trkpt><trkpt lat="43.725479305451195" lon="11.03122255781888"><ele>41.0</ele><time>2026-04-25T08:52:23.922Z</time></trkpt><trkpt lat="43.72564672758262" lon="11.031104182121119"><ele>41.0</ele><time>2026-04-25T08:52:24.922Z</time></trkpt><trkpt lat="43.72580139309549" lon="11.030977223031577"><ele>41.0</ele><time>2026-04-25T08:52:25.922Z</time></trkpt><trkpt lat="43.72592042777575" lon="11.030822631420541"><ele>41.0</ele><time>2026-04-25T08:52:26.922Z</time></trkpt><trkpt lat="43.726054571971744" lon="11.030708913829498"><ele>41.0</ele><time>2026-04-25T08:52:27.922Z</time></trkpt><trkpt lat="43.72618549500225" lon="11.030600180120071"><ele>41.0</ele><time>2026-04-25T08:52:28.922Z</time></trkpt><trkpt lat="43.72629720023349" lon="11.030435074207395"><ele>41.0</ele><time>2026-04-25T08:52:29.922Z</time></trkpt><trkpt lat="43.72637502204552" lon="11.030154326369912"><ele>41.0</ele><time>2026-04-25T08:52:30.922Z</time></trkpt><trkpt lat="43.726461550897675" lon="11.029865176517056"><ele>39.666666666666664</ele><time>2026-04-25T08:52:31.922Z</time></trkpt><trkpt lat="43.72656359820733" lon="11.029635019680537"><ele>38.333333333333336</ele><time>2026-04-25T08:52:32.922Z</time></trkpt><trkpt lat="43.726670729513266" lon="11.029425456749447"><ele>37.0</ele><time>2026-04-25T08:52:33.922Z</time></trkpt><trkpt lat="43.726782843226225" lon="11.029243903080197"><ele>37.0</ele><time>2026-04-25T08:52:34.922Z</time></trkpt><trkpt lat="43.72689767320538" lon="11.029072375276593"><ele>37.0</ele><time>2026-04-25T08:52:35.922Z</time></trkpt><trkpt lat="43.727013536058784" lon="11.028893584569914"><ele>37.0</ele><time>2026-04-25T08:52:36.922Z</time></trkpt><trkpt lat="43.7271397557327" lon="11.028724244168597"><ele>37.0</ele><time>2026-04-25T08:52:37.922Z</time></trkpt><trkpt lat="43.72727272056741" lon="11.028560972404254"><ele>37.0</ele><time>2026-04-25T08:52:38.922Z</time></trkpt><trkpt lat="43.72739165709923" lon="11.028408266121145"><ele>37.0</ele><time>2026-04-25T08:52:39.922Z</time></trkpt><trkpt lat="43.72750213169106" lon="11.028261805515115"><ele>36.75</ele><time>2026-04-25T08:52:40.922Z</time></trkpt><trkpt lat="43.7276010769507" lon="11.028120040094377"><ele>36.5</ele><time>2026-04-25T08:52:41.922Z</time></trkpt><trkpt lat="43.727684727600355" lon="11.027994218443023"><ele>36.25</ele><time>2026-04-25T08:52:42.922Z</time></trkpt><trkpt lat="43.72775514939681" lon="11.027883551588086"><ele>36.0</ele><time>2026-04-25T08:52:43.922Z</time></trkpt><trkpt lat="43.72781531915601" lon="11.027785174532376"><ele>35.85714285714286</ele><time>2026-04-25T08:52:44.922Z</time></trkpt><trkpt lat="43.727863925072896" lon="11.027705820157907"><ele>35.714285714285715</ele><time>2026-04-25T08:52:45.922Z</time></trkpt><trkpt lat="43.7279169373586" lon="11.027622948340893"><ele>35.57142857142857</ele><time>2026-04-25T08:52:46.922Z</time></trkpt><trkpt lat="43.72797870660331" lon="11.027558806087177"><ele>35.42857142857143</ele><time>2026-04-25T08:52:47.922Z</time></trkpt><trkpt lat="43.728025568163886" lon="11.027482673459021"><ele>35.285714285714285</ele><time>2026-04-25T08:52:48.922Z</time></trkpt><trkpt lat="43.728049261503635" lon="11.027399427823694"><ele>35.142857142857146</ele><time>2026-04-25T08:52:49.922Z</time></trkpt><trkpt lat="43.72804317880673" lon="11.02730727410564"><ele>35.0</ele><time>2026-04-25T08:52:50.922Z</time></trkpt><trkpt lat="43.72799122010542" lon="11.027220019039214"><ele>35.0</ele><time>2026-04-25T08:52:51.922Z</time></trkpt><trkpt lat="43.72793168514854" lon="11.027157979519114"><ele>35.0</ele><time>2026-04-25T08:52:52.922Z</time></trkpt><trkpt lat="43.727873389126984" lon="11.027099423656384"><ele>35.0</ele><time>2026-04-25T08:52:53.923Z</time></trkpt><trkpt lat="43.727815502942285" lon="11.027016442708636"><ele>35.0</ele><time>2026-04-25T08:52:54.926Z</time></trkpt><trkpt lat="43.72774929135747" lon="11.02691529423691"><ele>35.0</ele><time>2026-04-25T08:52:55.928Z</time></trkpt><trkpt lat="43.72767747690731" lon="11.026797548875999"><ele>35.0</ele><time>2026-04-25T08:52:56.93Z</time></trkpt><trkpt lat="43.727595535935265" lon="11.026680261301443"><ele>34.25</ele><time>2026-04-25T08:52:57.93Z</time></trkpt><trkpt lat="43.72751263998064" lon="11.026555647674751"><ele>33.5</ele><time>2026-04-25T08:52:58.932Z</time></trkpt><trkpt lat="43.72743650229166" lon="11.026412012387011"><ele>32.75</ele><time>2026-04-25T08:52:59.934Z</time></trkpt><trkpt lat="43.72737799811071" lon="11.026254433961778"><ele>32.0</ele><time>2026-04-25T08:53:00.936Z</time></trkpt><trkpt lat="43.72733902268648" lon="11.026083232114841"><ele>32.0</ele><time>2026-04-25T08:53:01.938Z</time></trkpt><trkpt lat="43.727308716828794" lon="11.025896984979951"><ele>32.0</ele><time>2026-04-25T08:53:02.939Z</time></trkpt><trkpt lat="43.72728741742974" lon="11.025704056520174"><ele>32.0</ele><time>2026-04-25T08:53:03.94Z</time></trkpt><trkpt lat="43.727262874179615" lon="11.025521963562591"><ele>32.0</ele><time>2026-04-25T08:53:04.942Z</time></trkpt><trkpt lat="43.72723920594336" lon="11.02534461805937"><ele>31.75</ele><time>2026-04-25T08:53:05.943Z</time></trkpt><trkpt lat="43.72721075502654" lon="11.025169041449498"><ele>31.5</ele><time>2026-04-25T08:53:06.943Z</time></trkpt><trkpt lat="43.72718411946619" lon="11.02499204538681"><ele>31.25</ele><time>2026-04-25T08:53:07.945Z</time></trkpt><trkpt lat="43.72715396051128" lon="11.024810035213855"><ele>31.0</ele><time>2026-04-25T08:53:08.946Z</time></trkpt><trkpt lat="43.72713145327307" lon="11.024624208789445"><ele>31.0</ele><time>2026-04-25T08:53:09.947Z</time></trkpt><trkpt lat="43.72711620233483" lon="11.02443531454023"><ele>31.0</ele><time>2026-04-25T08:53:10.948Z</time></trkpt><trkpt lat="43.727114768346944" lon="11.024244457971026"><ele>31.0</ele><time>2026-04-25T08:53:11.949Z</time></trkpt><trkpt lat="43.72713146479966" lon="11.024049613425898"><ele>31.0</ele><time>2026-04-25T08:53:12.949Z</time></trkpt><trkpt lat="43.727180727474206" lon="11.023853071078458"><ele>31.0</ele><time>2026-04-25T08:53:13.95Z</time></trkpt><trkpt lat="43.72725009256078" lon="11.02367201337532"><ele>31.0</ele><time>2026-04-25T08:53:14.951Z</time></trkpt><trkpt lat="43.72733634315452" lon="11.023514949459848"><ele>31.0</ele><time>2026-04-25T08:53:15.951Z</time></trkpt><trkpt lat="43.72742355229923" lon="11.023375902556282"><ele>31.0</ele><time>2026-04-25T08:53:16.952Z</time></trkpt><trkpt lat="43.72751501175178" lon="11.023258501293638"><ele>31.0</ele><time>2026-04-25T08:53:17.953Z</time></trkpt><trkpt lat="43.727605988204814" lon="11.023170243517777"><ele>31.0</ele><time>2026-04-25T08:53:18.953Z</time></trkpt><trkpt lat="43.72768935759993" lon="11.02307768393068"><ele>31.0</ele><time>2026-04-25T08:53:19.954Z</time></trkpt><trkpt lat="43.72776817782398" lon="11.02299393461864"><ele>31.0</ele><time>2026-04-25T08:53:20.954Z</time></trkpt><trkpt lat="43.727841724198605" lon="11.022910958354919"><ele>31.0</ele><time>2026-04-25T08:53:21.955Z</time></trkpt><trkpt lat="43.72791245028335" lon="11.022829905065668"><ele>31.0</ele><time>2026-04-25T08:53:22.955Z</time></trkpt><trkpt lat="43.72798228935927" lon="11.022748301344855"><ele>31.0</ele><time>2026-04-25T08:53:23.955Z</time></trkpt><trkpt lat="43.72804401876963" lon="11.0226735218442"><ele>31.0</ele><time>2026-04-25T08:53:24.956Z</time></trkpt><trkpt lat="43.728137110258565" lon="11.022527938094127"><ele>31.0</ele><time>2026-04-25T08:53:26.957Z</time></trkpt><trkpt lat="43.72821373650347" lon="11.02243144782813"><ele>31.0</ele><time>2026-04-25T08:53:27.957Z</time></trkpt><trkpt lat="43.72829790952038" lon="11.022366541458885"><ele>31.000000000000004</ele><time>2026-04-25T08:53:28.957Z</time></trkpt><trkpt lat="43.72837628477103" lon="11.022312142724894"><ele>31.0</ele><time>2026-04-25T08:53:29.957Z</time></trkpt><trkpt lat="43.72843683197666" lon="11.022280094815326"><ele>31.0</ele><time>2026-04-25T08:53:30.958Z</time></trkpt><trkpt lat="43.72851166810491" lon="11.02225728419077"><ele>31.0</ele><time>2026-04-25T08:53:31.958Z</time></trkpt><trkpt lat="43.7286004522522" lon="11.022253851378219"><ele>31.000000000000004</ele><time>2026-04-25T08:53:32.958Z</time></trkpt><trkpt lat="43.728675858198706" lon="11.022267168599274"><ele>31.0</ele><time>2026-04-25T08:53:33.958Z</time></trkpt><trkpt lat="43.72875031272221" lon="11.022252270733336"><ele>31.0</ele><time>2026-04-25T08:53:34.959Z</time></trkpt><trkpt lat="43.72881944031146" lon="11.022194356517302"><ele>31.0</ele><time>2026-04-25T08:53:35.959Z</time></trkpt><trkpt lat="43.72886296501507" lon="11.022112831714404"><ele>31.0</ele><time>2026-04-25T08:53:36.959Z</time></trkpt><trkpt lat="43.72886706408619" lon="11.021961891186539"><ele>31.0</ele><time>2026-04-25T08:53:38.959Z</time></trkpt><trkpt lat="43.728791345409476" lon="11.021852370711734"><ele>31.0</ele><time>2026-04-25T08:53:40.96Z</time></trkpt><trkpt lat="43.7286470473279" lon="11.02176624412049"><ele>31.0</ele><time>2026-04-25T08:53:42.96Z</time></trkpt><trkpt lat="43.728582868143214" lon="11.02173186801916"><ele>31.0</ele><time>2026-04-25T08:53:43.96Z</time></trkpt><trkpt lat="43.72851013314513" lon="11.02168942810004"><ele>31.0</ele><time>2026-04-25T08:53:45.96Z</time></trkpt><trkpt lat="43.72842246217051" lon="11.021606910678033"><ele>31.0</ele><time>2026-04-25T08:53:48.961Z</time></trkpt><trkpt lat="43.72836784515924" lon="11.0214885505372"><ele>31.0</ele><time>2026-04-25T08:53:49.961Z</time></trkpt><trkpt lat="43.728297432569484" lon="11.021334689451825"><ele>30.666666666666668</ele><time>2026-04-25T08:53:50.961Z</time></trkpt><trkpt lat="43.72822136795162" lon="11.021156933376563"><ele>30.333333333333336</ele><time>2026-04-25T08:53:51.961Z</time></trkpt><trkpt lat="43.7281411516146" lon="11.020967293737563"><ele>30.0</ele><time>2026-04-25T08:53:52.961Z</time></trkpt><trkpt lat="43.72806695457385" lon="11.020760358962164"><ele>30.0</ele><time>2026-04-25T08:53:53.961Z</time></trkpt><trkpt lat="43.72797764692811" lon="11.02057216974483"><ele>30.0</ele><time>2026-04-25T08:53:54.961Z</time></trkpt><trkpt lat="43.72789965759514" lon="11.020379891638605"><ele>30.0</ele><time>2026-04-25T08:53:55.961Z</time></trkpt><trkpt lat="43.72782088305402" lon="11.02018870021576"><ele>30.0</ele><time>2026-04-25T08:53:56.961Z</time></trkpt><trkpt lat="43.7277396615773" lon="11.020010215003936"><ele>30.0</ele><time>2026-04-25T08:53:57.961Z</time></trkpt><trkpt lat="43.72765844027384" lon="11.019834913300732"><ele>30.0</ele><time>2026-04-25T08:53:58.961Z</time></trkpt><trkpt lat="43.72757772544274" lon="11.019651020278948"><ele>30.5</ele><time>2026-04-25T08:53:59.961Z</time></trkpt><trkpt lat="43.72749606209726" lon="11.019469801801376"><ele>31.0</ele><time>2026-04-25T08:54:00.961Z</time></trkpt><trkpt lat="43.72742724162292" lon="11.019298651992091"><ele>31.5</ele><time>2026-04-25T08:54:01.961Z</time></trkpt><trkpt lat="43.72736868187629" lon="11.019150364279469"><ele>32.0</ele><time>2026-04-25T08:54:02.961Z</time></trkpt><trkpt lat="43.72730767827933" lon="11.019016140315072"><ele>33.0</ele><time>2026-04-25T08:54:03.961Z</time></trkpt><trkpt lat="43.72725790291558" lon="11.018912222778185"><ele>34.0</ele><time>2026-04-25T08:54:04.961Z</time></trkpt><trkpt lat="43.727227083237075" lon="11.018833651021035"><ele>35.0</ele><time>2026-04-25T08:54:05.962Z</time></trkpt><trkpt lat="43.72716983839488" lon="11.018699078640342"><ele>36.0</ele><time>2026-04-25T08:54:07.962Z</time></trkpt><trkpt lat="43.727165761665354" lon="11.018611027401592"><ele>37.0</ele><time>2026-04-25T08:54:08.962Z</time></trkpt><trkpt lat="43.72712139002271" lon="11.018462544765548"><ele>38.0</ele><time>2026-04-25T08:54:10.962Z</time></trkpt><trkpt lat="43.72710361451699" lon="11.0183728428249"><ele>38.666666666666664</ele><time>2026-04-25T08:54:11.962Z</time></trkpt><trkpt lat="43.72710446275235" lon="11.018266750407768"><ele>39.33333333333333</ele><time>2026-04-25T08:54:12.962Z</time></trkpt><trkpt lat="43.72711562818012" lon="11.018167967155778"><ele>40.0</ele><time>2026-04-25T08:54:13.962Z</time></trkpt><trkpt lat="43.7271083415841" lon="11.018066312083032"><ele>40.666666666666664</ele><time>2026-04-25T08:54:14.962Z</time></trkpt><trkpt lat="43.72708154194339" lon="11.017960326013371"><ele>41.333333333333336</ele><time>2026-04-25T08:54:15.962Z</time></trkpt><trkpt lat="43.72705352633613" lon="11.017858385745201"><ele>42.0</ele><time>2026-04-25T08:54:16.962Z</time></trkpt><trkpt lat="43.727047847976735" lon="11.017754624852587"><ele>42.0</ele><time>2026-04-25T08:54:17.962Z</time></trkpt><trkpt lat="43.72705035780844" lon="11.017659878742165"><ele>42.0</ele><time>2026-04-25T08:54:18.962Z</time></trkpt><trkpt lat="43.72705931040322" lon="11.017563554165116"><ele>42.0</ele><time>2026-04-25T08:54:19.962Z</time></trkpt><trkpt lat="43.72708735563987" lon="11.017470372982045"><ele>42.0</ele><time>2026-04-25T08:54:20.962Z</time></trkpt><trkpt lat="43.72713293767014" lon="11.017365905980217"><ele>42.0</ele><time>2026-04-25T08:54:21.962Z</time></trkpt><trkpt lat="43.72718765257348" lon="11.017263408310521"><ele>42.0</ele><time>2026-04-25T08:54:22.962Z</time></trkpt><trkpt lat="43.72724705079051" lon="11.017155960995238"><ele>42.75</ele><time>2026-04-25T08:54:23.962Z</time></trkpt><trkpt lat="43.72731012612513" lon="11.017024141581073"><ele>43.5</ele><time>2026-04-25T08:54:24.962Z</time></trkpt><trkpt lat="43.72737348462586" lon="11.016896180909178"><ele>44.25</ele><time>2026-04-25T08:54:25.962Z</time></trkpt><trkpt lat="43.72744087370581" lon="11.016759631984257"><ele>45.0</ele><time>2026-04-25T08:54:26.962Z</time></trkpt><trkpt lat="43.72751794455447" lon="11.016602226578035"><ele>45.0</ele><time>2026-04-25T08:54:27.962Z</time></trkpt><trkpt lat="43.727605669190275" lon="11.016420824965424"><ele>45.0</ele><time>2026-04-25T08:54:28.962Z</time></trkpt><trkpt lat="43.727692480118094" lon="11.016253618145425"><ele>45.0</ele><time>2026-04-25T08:54:29.962Z</time></trkpt><trkpt lat="43.72778048011905" lon="11.016088194772337"><ele>44.0</ele><time>2026-04-25T08:54:30.962Z</time></trkpt><trkpt lat="43.72787011091874" lon="11.015933395553445"><ele>43.0</ele><time>2026-04-25T08:54:31.962Z</time></trkpt><trkpt lat="43.72796155159358" lon="11.015796647021988"><ele>42.0</ele><time>2026-04-25T08:54:32.962Z</time></trkpt><trkpt lat="43.72804854104623" lon="11.01566809116614"><ele>41.0</ele><time>2026-04-25T08:54:33.962Z</time></trkpt><trkpt lat="43.728119020037795" lon="11.015548517683968"><ele>41.0</ele><time>2026-04-25T08:54:34.962Z</time></trkpt><trkpt lat="43.72817136237689" lon="11.01546041067639"><ele>41.0</ele><time>2026-04-25T08:54:35.962Z</time></trkpt><trkpt lat="43.72820972579347" lon="11.015322089281003"><ele>41.0</ele><time>2026-04-25T08:54:37.962Z</time></trkpt><trkpt lat="43.728220844791444" lon="11.015230345490071"><ele>41.0</ele><time>2026-04-25T08:54:38.962Z</time></trkpt><trkpt lat="43.728248627743135" lon="11.015124583661828"><ele>41.0</ele><time>2026-04-25T08:54:39.962Z</time></trkpt><trkpt lat="43.7282577288202" lon="11.015023170239887"><ele>41.0</ele><time>2026-04-25T08:54:41.962Z</time></trkpt><trkpt lat="43.72830470998235" lon="11.014951222774453"><ele>40.8</ele><time>2026-04-25T08:54:49.962Z</time></trkpt><trkpt lat="43.728326289376426" lon="11.014861066340528"><ele>40.599999999999994</ele><time>2026-04-25T08:54:50.962Z</time></trkpt><trkpt lat="43.72832809603046" lon="11.014743247712058"><ele>40.4</ele><time>2026-04-25T08:54:51.962Z</time></trkpt><trkpt lat="43.72833409813402" lon="11.014606448736329"><ele>40.2</ele><time>2026-04-25T08:54:52.963Z</time></trkpt><trkpt lat="43.72834591485107" lon="11.014460388792228"><ele>40.0</ele><time>2026-04-25T08:54:53.963Z</time></trkpt><trkpt lat="43.72835111905168" lon="11.014301397060892"><ele>40.2</ele><time>2026-04-25T08:54:54.963Z</time></trkpt><trkpt lat="43.72835620723073" lon="11.014144701689204"><ele>40.4</ele><time>2026-04-25T08:54:55.963Z</time></trkpt><trkpt lat="43.72836648295354" lon="11.013992536591395"><ele>40.599999999999994</ele><time>2026-04-25T08:54:56.963Z</time></trkpt><trkpt lat="43.72836740920445" lon="11.013853058984166"><ele>40.8</ele><time>2026-04-25T08:54:57.963Z</time></trkpt><trkpt lat="43.72837034307721" lon="11.013715641345428"><ele>41.0</ele><time>2026-04-25T08:54:58.963Z</time></trkpt><trkpt lat="43.728374759847405" lon="11.013585181776092"><ele>41.0</ele><time>2026-04-25T08:54:59.963Z</time></trkpt><trkpt lat="43.728377057084906" lon="11.013450739609281"><ele>41.0</ele><time>2026-04-25T08:55:00.963Z</time></trkpt><trkpt lat="43.72838210669793" lon="11.013323862052745"><ele>41.0</ele><time>2026-04-25T08:55:01.963Z</time></trkpt><trkpt lat="43.72840140481773" lon="11.013205546824581"><ele>41.0</ele><time>2026-04-25T08:55:02.963Z</time></trkpt><trkpt lat="43.72842204027298" lon="11.01305968212494"><ele>41.0</ele><time>2026-04-25T08:55:03.96Z</time></trkpt><trkpt lat="43.72842542343648" lon="11.01291698946589"><ele>41.0</ele><time>2026-04-25T08:55:04.96Z</time></trkpt><trkpt lat="43.728432388689505" lon="11.01277582935024"><ele>41.0</ele><time>2026-04-25T08:55:05.96Z</time></trkpt><trkpt lat="43.72843868474984" lon="11.012643171117512"><ele>41.0</ele><time>2026-04-25T08:55:06.96Z</time></trkpt><trkpt lat="43.72844593416056" lon="11.012520240070106"><ele>41.0</ele><time>2026-04-25T08:55:07.96Z</time></trkpt><trkpt lat="43.728452129214766" lon="11.012391453733636"><ele>41.0</ele><time>2026-04-25T08:55:08.96Z</time></trkpt><trkpt lat="43.72845739442463" lon="11.012255370325473"><ele>41.0</ele><time>2026-04-25T08:55:09.96Z</time></trkpt><trkpt lat="43.728462124311044" lon="11.01211786102077"><ele>41.0</ele><time>2026-04-25T08:55:10.96Z</time></trkpt><trkpt lat="43.72846714238582" lon="11.011975216149901"><ele>41.0</ele><time>2026-04-25T08:55:11.96Z</time></trkpt><trkpt lat="43.72847050055509" lon="11.011836093478967"><ele>41.0</ele><time>2026-04-25T08:55:12.96Z</time></trkpt><trkpt lat="43.728481930934564" lon="11.011707248814682"><ele>41.0</ele><time>2026-04-25T08:55:13.96Z</time></trkpt><trkpt lat="43.72849601554911" lon="11.011588280982128"><ele>41.0</ele><time>2026-04-25T08:55:14.96Z</time></trkpt><trkpt lat="43.728511080195275" lon="11.01147125114554"><ele>41.0</ele><time>2026-04-25T08:55:15.96Z</time></trkpt><trkpt lat="43.72851572146223" lon="11.011358373998926"><ele>41.0</ele><time>2026-04-25T08:55:16.959Z</time></trkpt><trkpt lat="43.72852773118678" lon="11.011211150026593"><ele>41.0</ele><time>2026-04-25T08:55:18.959Z</time></trkpt><trkpt lat="43.72854755953723" lon="11.011096065761533"><ele>41.0</ele><time>2026-04-25T08:55:21.959Z</time></trkpt><trkpt lat="43.728572875209146" lon="11.011014340108238"><ele>41.0</ele><time>2026-04-25T08:55:23.96Z</time></trkpt><trkpt lat="43.72858771377866" lon="11.010889566791077"><ele>40.666666666666664</ele><time>2026-04-25T08:55:26.96Z</time></trkpt><trkpt lat="43.72858145216744" lon="11.010800255000904"><ele>40.33333333333333</ele><time>2026-04-25T08:55:28.96Z</time></trkpt><trkpt lat="43.72858399181778" lon="11.010682880981287"><ele>40.0</ele><time>2026-04-25T08:55:30.96Z</time></trkpt><trkpt lat="43.72859709291341" lon="11.01058721315788"><ele>39.666666666666664</ele><time>2026-04-25T08:55:32.96Z</time></trkpt><trkpt lat="43.728608747835" lon="11.010480898770203"><ele>39.333333333333336</ele><time>2026-04-25T08:55:34.96Z</time></trkpt><trkpt lat="43.72862416708645" lon="11.010308037001803"><ele>39.0</ele><time>2026-04-25T08:55:36.96Z</time></trkpt><trkpt lat="43.72862380452886" lon="11.010188297869776"><ele>39.0</ele><time>2026-04-25T08:55:37.96Z</time></trkpt><trkpt lat="43.72863591562589" lon="11.010056725831255"><ele>39.0</ele><time>2026-04-25T08:55:38.96Z</time></trkpt><trkpt lat="43.728649684941004" lon="11.009935587459934"><ele>39.0</ele><time>2026-04-25T08:55:39.96Z</time></trkpt><trkpt lat="43.728660579975305" lon="11.009832746597441"><ele>39.0</ele><time>2026-04-25T08:55:40.96Z</time></trkpt><trkpt lat="43.72867921315808" lon="11.009724860995991"><ele>39.0</ele><time>2026-04-25T08:55:41.96Z</time></trkpt><trkpt lat="43.72869771677273" lon="11.009576009247057"><ele>39.0</ele><time>2026-04-25T08:55:42.96Z</time></trkpt><trkpt lat="43.728735658426295" lon="11.009394855204102"><ele>39.0</ele><time>2026-04-25T08:55:43.96Z</time></trkpt><trkpt lat="43.728777524202265" lon="11.009177624979296"><ele>39.0</ele><time>2026-04-25T08:55:44.96Z</time></trkpt><trkpt lat="43.72881940955275" lon="11.00893905655842"><ele>39.0</ele><time>2026-04-25T08:55:45.96Z</time></trkpt><trkpt lat="43.72885667883602" lon="11.008677328691334"><ele>39.0</ele><time>2026-04-25T08:55:46.96Z</time></trkpt><trkpt lat="43.72889711958202" lon="11.008436736927871"><ele>39.0</ele><time>2026-04-25T08:55:47.96Z</time></trkpt><trkpt lat="43.72893867334647" lon="11.008226413899033"><ele>39.0</ele><time>2026-04-25T08:55:48.96Z</time></trkpt><trkpt lat="43.728993607497344" lon="11.00803872013584"><ele>39.25</ele><time>2026-04-25T08:55:49.96Z</time></trkpt><trkpt lat="43.72904259971897" lon="11.007854446439449"><ele>39.5</ele><time>2026-04-25T08:55:50.96Z</time></trkpt><trkpt lat="43.72909679196781" lon="11.007657734928069"><ele>39.75</ele><time>2026-04-25T08:55:51.96Z</time></trkpt><trkpt lat="43.72916381671895" lon="11.00746393600253"><ele>40.0</ele><time>2026-04-25T08:55:52.96Z</time></trkpt><trkpt lat="43.72922869369274" lon="11.0072703482937"><ele>39.333333333333336</ele><time>2026-04-25T08:55:53.96Z</time></trkpt><trkpt lat="43.729297397542624" lon="11.007074096544692"><ele>38.666666666666664</ele><time>2026-04-25T08:55:54.96Z</time></trkpt><trkpt lat="43.729369139042824" lon="11.00687822116499"><ele>38.0</ele><time>2026-04-25T08:55:55.96Z</time></trkpt><trkpt lat="43.72943199839553" lon="11.006687552871512"><ele>38.25</ele><time>2026-04-25T08:55:56.96Z</time></trkpt><trkpt lat="43.72950205090896" lon="11.006496091562033"><ele>38.5</ele><time>2026-04-25T08:55:57.96Z</time></trkpt><trkpt lat="43.72956503611916" lon="11.006314679689071"><ele>38.75</ele><time>2026-04-25T08:55:58.96Z</time></trkpt><trkpt lat="43.729608761581744" lon="11.006133902213222"><ele>39.0</ele><time>2026-04-25T08:55:59.96Z</time></trkpt><trkpt lat="43.72963453059246" lon="11.005951533213889"><ele>39.0</ele><time>2026-04-25T08:56:00.96Z</time></trkpt><trkpt lat="43.72963576946435" lon="11.005726027599655"><ele>39.0</ele><time>2026-04-25T08:56:01.96Z</time></trkpt><trkpt lat="43.729614327791495" lon="11.005509652291794"><ele>39.0</ele><time>2026-04-25T08:56:02.96Z</time></trkpt><trkpt lat="43.72958107456822" lon="11.005327707002197"><ele>39.0</ele><time>2026-04-25T08:56:03.96Z</time></trkpt><trkpt lat="43.72954778423954" lon="11.005157263227684"><ele>39.0</ele><time>2026-04-25T08:56:04.96Z</time></trkpt><trkpt lat="43.72949982063978" lon="11.004998274894199"><ele>39.0</ele><time>2026-04-25T08:56:05.96Z</time></trkpt><trkpt lat="43.72943948056339" lon="11.004836853092842"><ele>39.0</ele><time>2026-04-25T08:56:06.96Z</time></trkpt><trkpt lat="43.72941212914176" lon="11.004646563004716"><ele>38.25</ele><time>2026-04-25T08:56:07.96Z</time></trkpt><trkpt lat="43.72938035447044" lon="11.004453205744978"><ele>37.5</ele><time>2026-04-25T08:56:08.96Z</time></trkpt><trkpt lat="43.729332171238454" lon="11.0042600327766"><ele>36.75</ele><time>2026-04-25T08:56:09.96Z</time></trkpt><trkpt lat="43.72930394016088" lon="11.004074827283397"><ele>36.0</ele><time>2026-04-25T08:56:10.96Z</time></trkpt><trkpt lat="43.729277870315876" lon="11.003875468768992"><ele>35.75</ele><time>2026-04-25T08:56:11.96Z</time></trkpt><trkpt lat="43.72925400086082" lon="11.003687275978207"><ele>35.5</ele><time>2026-04-25T08:56:12.96Z</time></trkpt><trkpt lat="43.729230500606945" lon="11.003496018875088"><ele>35.25</ele><time>2026-04-25T08:56:13.96Z</time></trkpt><trkpt lat="43.72919629648485" lon="11.003305357691922"><ele>35.0</ele><time>2026-04-25T08:56:14.96Z</time></trkpt><trkpt lat="43.729161446698335" lon="11.003120236726504"><ele>34.0</ele><time>2026-04-25T08:56:15.96Z</time></trkpt><trkpt lat="43.72912356318349" lon="11.002928115967057"><ele>33.0</ele><time>2026-04-25T08:56:16.96Z</time></trkpt><trkpt lat="43.72911036850572" lon="11.002723718738523"><ele>32.0</ele><time>2026-04-25T08:56:17.96Z</time></trkpt><trkpt lat="43.72906150737634" lon="11.002519908333003"><ele>31.0</ele><time>2026-04-25T08:56:18.96Z</time></trkpt><trkpt lat="43.729008134672746" lon="11.002302061333017"><ele>30.5</ele><time>2026-04-25T08:56:19.96Z</time></trkpt><trkpt lat="43.72895564469702" lon="11.002082039664115"><ele>30.0</ele><time>2026-04-25T08:56:20.96Z</time></trkpt><trkpt lat="43.72891609642442" lon="11.001884826451306"><ele>29.5</ele><time>2026-04-25T08:56:21.96Z</time></trkpt><trkpt lat="43.728881578972334" lon="11.00170835033045"><ele>29.0</ele><time>2026-04-25T08:56:22.96Z</time></trkpt><trkpt lat="43.72882838176967" lon="11.001565371476781"><ele>28.6</ele><time>2026-04-25T08:56:23.96Z</time></trkpt><trkpt lat="43.72884020226638" lon="11.001416941753927"><ele>28.2</ele><time>2026-04-25T08:56:24.96Z</time></trkpt><trkpt lat="43.72884641712482" lon="11.0012783075655"><ele>27.800000000000004</ele><time>2026-04-25T08:56:25.96Z</time></trkpt><trkpt lat="43.72889178781943" lon="11.001144398189412"><ele>27.400000000000002</ele><time>2026-04-25T08:56:26.96Z</time></trkpt><trkpt lat="43.728879207022935" lon="11.001001796330534"><ele>27.0</ele><time>2026-04-25T08:56:27.96Z</time></trkpt><trkpt lat="43.728822964041186" lon="11.000885696606016"><ele>27.0</ele><time>2026-04-25T08:56:28.96Z</time></trkpt><trkpt lat="43.7287380317187" lon="11.000796050151282"><ele>27.0</ele><time>2026-04-25T08:56:29.96Z</time></trkpt><trkpt lat="43.72866938158265" lon="11.00067157171158"><ele>27.0</ele><time>2026-04-25T08:56:30.96Z</time></trkpt><trkpt lat="43.72861745713996" lon="11.000507176990023"><ele>27.0</ele><time>2026-04-25T08:56:31.96Z</time></trkpt><trkpt lat="43.72857877502579" lon="11.000327411513517"><ele>27.25</ele><time>2026-04-25T08:56:32.96Z</time></trkpt><trkpt lat="43.728545472457185" lon="11.000135907650842"><ele>27.5</ele><time>2026-04-25T08:56:33.96Z</time></trkpt><trkpt lat="43.72851519885408" lon="10.999947079557511"><ele>27.75</ele><time>2026-04-25T08:56:34.96Z</time></trkpt><trkpt lat="43.72848507560832" lon="10.999747943254379"><ele>28.0</ele><time>2026-04-25T08:56:35.96Z</time></trkpt><trkpt lat="43.72845395463812" lon="10.999557044716246"><ele>28.0</ele><time>2026-04-25T08:56:36.96Z</time></trkpt><trkpt lat="43.72842163666817" lon="10.999370026830764"><ele>28.0</ele><time>2026-04-25T08:56:37.96Z</time></trkpt><trkpt lat="43.728391926021935" lon="10.999185421957712"><ele>28.0</ele><time>2026-04-25T08:56:38.961Z</time></trkpt><trkpt lat="43.72836108054601" lon="10.999003083329809"><ele>28.0</ele><time>2026-04-25T08:56:39.961Z</time></trkpt><trkpt lat="43.728331698899865" lon="10.998819545673836"><ele>28.0</ele><time>2026-04-25T08:56:40.961Z</time></trkpt><trkpt lat="43.72829986055515" lon="10.998633740824175"><ele>28.0</ele><time>2026-04-25T08:56:41.961Z</time></trkpt><trkpt lat="43.728267218352535" lon="10.998449333430564"><ele>28.0</ele><time>2026-04-25T08:56:42.961Z</time></trkpt><trkpt lat="43.72823382919566" lon="10.998266269700993"><ele>28.0</ele><time>2026-04-25T08:56:43.961Z</time></trkpt><trkpt lat="43.72820198164463" lon="10.998079898170095"><ele>28.0</ele><time>2026-04-25T08:56:44.961Z</time></trkpt><trkpt lat="43.728168503272734" lon="10.997889492881411"><ele>28.0</ele><time>2026-04-25T08:56:45.961Z</time></trkpt><trkpt lat="43.72813575318765" lon="10.997702543848726"><ele>28.0</ele><time>2026-04-25T08:56:46.961Z</time></trkpt><trkpt lat="43.7281017737243" lon="10.997512436773595"><ele>28.0</ele><time>2026-04-25T08:56:47.961Z</time></trkpt><trkpt lat="43.72806917960695" lon="10.997322381798536"><ele>28.0</ele><time>2026-04-25T08:56:48.961Z</time></trkpt><trkpt lat="43.728034549755016" lon="10.997134744669617"><ele>28.0</ele><time>2026-04-25T08:56:49.961Z</time></trkpt><trkpt lat="43.728001507509546" lon="10.996945980445318"><ele>28.0</ele><time>2026-04-25T08:56:50.961Z</time></trkpt><trkpt lat="43.727966547428025" lon="10.996756411284998"><ele>28.0</ele><time>2026-04-25T08:56:51.961Z</time></trkpt><trkpt lat="43.72794386681543" lon="10.996619166447918"><ele>28.0</ele><time>2026-04-25T08:56:52.961Z</time></trkpt><trkpt lat="43.72792523317898" lon="10.99650041646381"><ele>27.999999999999996</ele><time>2026-04-25T08:56:53.961Z</time></trkpt><trkpt lat="43.72789723897756" lon="10.996382764161432"><ele>27.999999999999996</ele><time>2026-04-25T08:56:54.961Z</time></trkpt><trkpt lat="43.727871089878356" lon="10.996250106873955"><ele>28.0</ele><time>2026-04-25T08:56:55.961Z</time></trkpt><trkpt lat="43.72786060595306" lon="10.996100068180752"><ele>28.0</ele><time>2026-04-25T08:56:56.961Z</time></trkpt><trkpt lat="43.72780908343199" lon="10.99595325962335"><ele>28.0</ele><time>2026-04-25T08:56:57.961Z</time></trkpt><trkpt lat="43.727776380867425" lon="10.995796519923823"><ele>28.0</ele><time>2026-04-25T08:56:58.961Z</time></trkpt><trkpt lat="43.727749628457744" lon="10.99563094265023"><ele>28.0</ele><time>2026-04-25T08:56:59.961Z</time></trkpt><trkpt lat="43.727719672642166" lon="10.995459003749877"><ele>28.0</ele><time>2026-04-25T08:57:00.961Z</time></trkpt><trkpt lat="43.72771865091321" lon="10.995268986011062"><ele>28.0</ele><time>2026-04-25T08:57:01.961Z</time></trkpt><trkpt lat="43.72767607363911" lon="10.99505930516651"><ele>28.0</ele><time>2026-04-25T08:57:02.961Z</time></trkpt><trkpt lat="43.72764163128497" lon="10.994857159821857"><ele>28.0</ele><time>2026-04-25T08:57:03.961Z</time></trkpt><trkpt lat="43.72760224589671" lon="10.994668795661827"><ele>28.0</ele><time>2026-04-25T08:57:04.961Z</time></trkpt><trkpt lat="43.72758536589885" lon="10.994486067491732"><ele>27.75</ele><time>2026-04-25T08:57:05.961Z</time></trkpt><trkpt lat="43.727555502035116" lon="10.994310844684422"><ele>27.5</ele><time>2026-04-25T08:57:06.961Z</time></trkpt><trkpt lat="43.72753271839667" lon="10.994177168802784"><ele>27.25</ele><time>2026-04-25T08:57:07.961Z</time></trkpt><trkpt lat="43.72750506760883" lon="10.99401493626832"><ele>27.0</ele><time>2026-04-25T08:57:08.961Z</time></trkpt><trkpt lat="43.72747523891364" lon="10.993843969341484"><ele>26.75</ele><time>2026-04-25T08:57:09.958Z</time></trkpt><trkpt lat="43.72742785984086" lon="10.993663931202617"><ele>26.5</ele><time>2026-04-25T08:57:10.958Z</time></trkpt><trkpt lat="43.72739577802914" lon="10.993470938047706"><ele>26.25</ele><time>2026-04-25T08:57:11.958Z</time></trkpt><trkpt lat="43.72736169995909" lon="10.993275695014862"><ele>26.0</ele><time>2026-04-25T08:57:12.958Z</time></trkpt><trkpt lat="43.7273421479861" lon="10.993073923752153"><ele>25.666666666666664</ele><time>2026-04-25T08:57:13.958Z</time></trkpt><trkpt lat="43.72728699308395" lon="10.992878149640905"><ele>25.333333333333336</ele><time>2026-04-25T08:57:14.958Z</time></trkpt><trkpt lat="43.72725187838449" lon="10.992676776204656"><ele>25.0</ele><time>2026-04-25T08:57:15.958Z</time></trkpt><trkpt lat="43.72721559827479" lon="10.992470465344226"><ele>25.0</ele><time>2026-04-25T08:57:16.959Z</time></trkpt><trkpt lat="43.727178805981595" lon="10.99226415132846"><ele>25.0</ele><time>2026-04-25T08:57:17.959Z</time></trkpt><trkpt lat="43.72717069157444" lon="10.992054769432329"><ele>25.0</ele><time>2026-04-25T08:57:18.959Z</time></trkpt><trkpt lat="43.72713742961788" lon="10.991862503131143"><ele>25.0</ele><time>2026-04-25T08:57:19.958Z</time></trkpt><trkpt lat="43.7271004284448" lon="10.991648622572225"><ele>24.333333333333336</ele><time>2026-04-25T08:57:20.958Z</time></trkpt><trkpt lat="43.72706754603909" lon="10.991420204463333"><ele>23.666666666666668</ele><time>2026-04-25T08:57:21.958Z</time></trkpt><trkpt lat="43.727036784506254" lon="10.991198800465984"><ele>23.0</ele><time>2026-04-25T08:57:22.958Z</time></trkpt><trkpt lat="43.727042120741814" lon="10.991008759157543"><ele>23.25</ele><time>2026-04-25T08:57:23.958Z</time></trkpt><trkpt lat="43.72704808811167" lon="10.990810578317422"><ele>23.5</ele><time>2026-04-25T08:57:24.958Z</time></trkpt><trkpt lat="43.72704661356978" lon="10.990640770500068"><ele>23.75</ele><time>2026-04-25T08:57:25.958Z</time></trkpt><trkpt lat="43.727036206667954" lon="10.99047489114189"><ele>24.0</ele><time>2026-04-25T08:57:26.958Z</time></trkpt><trkpt lat="43.727010583390985" lon="10.990316769678394"><ele>24.0</ele><time>2026-04-25T08:57:27.958Z</time></trkpt><trkpt lat="43.72695688092123" lon="10.990169625774685"><ele>24.0</ele><time>2026-04-25T08:57:28.958Z</time></trkpt><trkpt lat="43.72688184501769" lon="10.990036233492548"><ele>24.0</ele><time>2026-04-25T08:57:29.958Z</time></trkpt><trkpt lat="43.726799946170935" lon="10.989912302744154"><ele>24.0</ele><time>2026-04-25T08:57:30.958Z</time></trkpt><trkpt lat="43.72671797379148" lon="10.989790436379025"><ele>24.5</ele><time>2026-04-25T08:57:31.958Z</time></trkpt><trkpt lat="43.72664226113888" lon="10.989680033797587"><ele>25.0</ele><time>2026-04-25T08:57:32.958Z</time></trkpt><trkpt lat="43.726557662222596" lon="10.989562739729621"><ele>25.5</ele><time>2026-04-25T08:57:33.958Z</time></trkpt><trkpt lat="43.72646761700361" lon="10.989444770633806"><ele>26.0</ele><time>2026-04-25T08:57:34.958Z</time></trkpt><trkpt lat="43.72637270932322" lon="10.989318823343996"><ele>26.0</ele><time>2026-04-25T08:57:35.958Z</time></trkpt><trkpt lat="43.72626573820888" lon="10.98915614501802"><ele>26.0</ele><time>2026-04-25T08:57:36.958Z</time></trkpt><trkpt lat="43.726144195475335" lon="10.988986397196989"><ele>26.0</ele><time>2026-04-25T08:57:37.958Z</time></trkpt><trkpt lat="43.72602513780223" lon="10.98882835367068"><ele>26.0</ele><time>2026-04-25T08:57:38.958Z</time></trkpt><trkpt lat="43.72590926576918" lon="10.988671242783296"><ele>26.0</ele><time>2026-04-25T08:57:39.958Z</time></trkpt><trkpt lat="43.72578196703746" lon="10.988515674537272"><ele>26.0</ele><time>2026-04-25T08:57:40.958Z</time></trkpt><trkpt lat="43.72562818922711" lon="10.98833831068604"><ele>26.0</ele><time>2026-04-25T08:57:41.958Z</time></trkpt><trkpt lat="43.72546527996531" lon="10.988130522791275"><ele>26.0</ele><time>2026-04-25T08:57:42.958Z</time></trkpt><trkpt lat="43.72529928033253" lon="10.98790549743328"><ele>26.5</ele><time>2026-04-25T08:57:43.958Z</time></trkpt><trkpt lat="43.72513076043582" lon="10.98768034708112"><ele>27.0</ele><time>2026-04-25T08:57:44.958Z</time></trkpt><trkpt lat="43.72496657844742" lon="10.9874723005749"><ele>27.333333333333336</ele><time>2026-04-25T08:57:45.958Z</time></trkpt><trkpt lat="43.724796904916744" lon="10.987281343001543"><ele>27.666666666666668</ele><time>2026-04-25T08:57:46.958Z</time></trkpt><trkpt lat="43.72462233926761" lon="10.98710429326026"><ele>28.0</ele><time>2026-04-25T08:57:47.958Z</time></trkpt><trkpt lat="43.7244482825125" lon="10.986949850255973"><ele>27.0</ele><time>2026-04-25T08:57:48.958Z</time></trkpt><trkpt lat="43.72429009338655" lon="10.986815141517999"><ele>26.0</ele><time>2026-04-25T08:57:49.959Z</time></trkpt><trkpt lat="43.724162377455464" lon="10.986698666264987"><ele>25.0</ele><time>2026-04-25T08:57:50.959Z</time></trkpt><trkpt lat="43.72405411733764" lon="10.98657652005094"><ele>24.75</ele><time>2026-04-25T08:57:51.959Z</time></trkpt><trkpt lat="43.72396023542659" lon="10.986434911860187"><ele>24.5</ele><time>2026-04-25T08:57:52.959Z</time></trkpt><trkpt lat="43.723885487928634" lon="10.98629826596174"><ele>24.25</ele><time>2026-04-25T08:57:53.959Z</time></trkpt><trkpt lat="43.723825485529815" lon="10.986148968092904"><ele>24.0</ele><time>2026-04-25T08:57:54.959Z</time></trkpt><trkpt lat="43.72377116396836" lon="10.98598448135989"><ele>24.25</ele><time>2026-04-25T08:57:55.959Z</time></trkpt><trkpt lat="43.72372869426622" lon="10.98581636556793"><ele>24.5</ele><time>2026-04-25T08:57:56.959Z</time></trkpt><trkpt lat="43.72369038438816" lon="10.985646232066673"><ele>24.75</ele><time>2026-04-25T08:57:57.959Z</time></trkpt><trkpt lat="43.72365495963083" lon="10.98546818096985"><ele>25.0</ele><time>2026-04-25T08:57:58.959Z</time></trkpt><trkpt lat="43.723602477397016" lon="10.985292830706106"><ele>25.25</ele><time>2026-04-25T08:57:59.959Z</time></trkpt><trkpt lat="43.72353960968496" lon="10.985129072667625"><ele>25.5</ele><time>2026-04-25T08:58:00.959Z</time></trkpt><trkpt lat="43.72346564219035" lon="10.984980737819896"><ele>25.75</ele><time>2026-04-25T08:58:01.959Z</time></trkpt><trkpt lat="43.72338065811618" lon="10.984851918002562"><ele>26.0</ele><time>2026-04-25T08:58:02.959Z</time></trkpt><trkpt lat="43.723280332944405" lon="10.98472404154395"><ele>26.0</ele><time>2026-04-25T08:58:03.959Z</time></trkpt><trkpt lat="43.72316215248078" lon="10.984544690002297"><ele>26.0</ele><time>2026-04-25T08:58:04.959Z</time></trkpt><trkpt lat="43.7230134700938" lon="10.984363925292408"><ele>26.0</ele><time>2026-04-25T08:58:05.959Z</time></trkpt><trkpt lat="43.72286252045517" lon="10.984143281626126"><ele>26.0</ele><time>2026-04-25T08:58:06.959Z</time></trkpt><trkpt lat="43.722692126430346" lon="10.98392585454816"><ele>26.0</ele><time>2026-04-25T08:58:07.959Z</time></trkpt><trkpt lat="43.72252136100861" lon="10.983712615124038"><ele>26.0</ele><time>2026-04-25T08:58:08.959Z</time></trkpt><trkpt lat="43.72235974003451" lon="10.983500974667038"><ele>26.0</ele><time>2026-04-25T08:58:09.959Z</time></trkpt><trkpt lat="43.722207972772644" lon="10.983309774840984"><ele>26.0</ele><time>2026-04-25T08:58:10.959Z</time></trkpt><trkpt lat="43.7220731212608" lon="10.983152883530238"><ele>26.0</ele><time>2026-04-25T08:58:11.959Z</time></trkpt><trkpt lat="43.72195763724353" lon="10.98303982513238"><ele>26.0</ele><time>2026-04-25T08:58:12.959Z</time></trkpt><trkpt lat="43.721850665299414" lon="10.982949525990415"><ele>26.0</ele><time>2026-04-25T08:58:13.959Z</time></trkpt><trkpt lat="43.721757357027435" lon="10.982851300190307"><ele>26.0</ele><time>2026-04-25T08:58:14.959Z</time></trkpt><trkpt lat="43.72167938787421" lon="10.982730860871435"><ele>26.0</ele><time>2026-04-25T08:58:15.959Z</time></trkpt><trkpt lat="43.72160779605581" lon="10.982585511740842"><ele>26.0</ele><time>2026-04-25T08:58:16.959Z</time></trkpt><trkpt lat="43.721517187074724" lon="10.982429487088336"><ele>26.0</ele><time>2026-04-25T08:58:17.959Z</time></trkpt><trkpt lat="43.72142064235589" lon="10.982274958457944"><ele>26.0</ele><time>2026-04-25T08:58:18.959Z</time></trkpt><trkpt lat="43.721336475306806" lon="10.982114972378687"><ele>26.0</ele><time>2026-04-25T08:58:19.959Z</time></trkpt><trkpt lat="43.7212696003498" lon="10.981938038796024"><ele>26.0</ele><time>2026-04-25T08:58:20.959Z</time></trkpt><trkpt lat="43.72120062855075" lon="10.981746295525896"><ele>26.0</ele><time>2026-04-25T08:58:21.959Z</time></trkpt><trkpt lat="43.721124053288" lon="10.981574318342702"><ele>26.0</ele><time>2026-04-25T08:58:22.959Z</time></trkpt><trkpt lat="43.72104697675742" lon="10.98142181485989"><ele>26.25</ele><time>2026-04-25T08:58:23.959Z</time></trkpt><trkpt lat="43.7209765285563" lon="10.981275740379806"><ele>26.5</ele><time>2026-04-25T08:58:24.959Z</time></trkpt><trkpt lat="43.720912396319996" lon="10.981136250549495"><ele>26.75</ele><time>2026-04-25T08:58:25.959Z</time></trkpt><trkpt lat="43.72085725224444" lon="10.980999075363485"><ele>27.0</ele><time>2026-04-25T08:58:26.959Z</time></trkpt><trkpt lat="43.72081758080498" lon="10.980858250755224"><ele>27.25</ele><time>2026-04-25T08:58:27.959Z</time></trkpt><trkpt lat="43.720782218459014" lon="10.980715224923587"><ele>27.5</ele><time>2026-04-25T08:58:28.959Z</time></trkpt><trkpt lat="43.72074689678303" lon="10.980563048462397"><ele>27.75</ele><time>2026-04-25T08:58:29.959Z</time></trkpt><trkpt lat="43.72071455321776" lon="10.980405720521176"><ele>28.0</ele><time>2026-04-25T08:58:30.959Z</time></trkpt><trkpt lat="43.72068578121734" lon="10.980235580759977"><ele>28.0</ele><time>2026-04-25T08:58:31.959Z</time></trkpt><trkpt lat="43.72066005488203" lon="10.980058718090099"><ele>28.0</ele><time>2026-04-25T08:58:32.959Z</time></trkpt><trkpt lat="43.720642553684144" lon="10.979876525817897"><ele>28.0</ele><time>2026-04-25T08:58:33.959Z</time></trkpt><trkpt lat="43.720629531549896" lon="10.979691537561578"><ele>28.0</ele><time>2026-04-25T08:58:34.959Z</time></trkpt><trkpt lat="43.72061899459894" lon="10.979505552254562"><ele>27.75</ele><time>2026-04-25T08:58:35.959Z</time></trkpt><trkpt lat="43.720617479913045" lon="10.979322393912959"><ele>27.5</ele><time>2026-04-25T08:58:36.959Z</time></trkpt><trkpt lat="43.7206230057494" lon="10.9791394282615"><ele>27.25</ele><time>2026-04-25T08:58:37.959Z</time></trkpt><trkpt lat="43.720633452183066" lon="10.978958729916098"><ele>27.0</ele><time>2026-04-25T08:58:38.959Z</time></trkpt><trkpt lat="43.72063901479909" lon="10.978789097403297"><ele>27.0</ele><time>2026-04-25T08:58:39.959Z</time></trkpt><trkpt lat="43.72064783179974" lon="10.978605669678664"><ele>27.0</ele><time>2026-04-25T08:58:40.959Z</time></trkpt><trkpt lat="43.72068755965482" lon="10.978423901783195"><ele>27.0</ele><time>2026-04-25T08:58:41.959Z</time></trkpt><trkpt lat="43.72070551679306" lon="10.978223445285307"><ele>27.0</ele><time>2026-04-25T08:58:42.959Z</time></trkpt><trkpt lat="43.720728103482266" lon="10.977995659461829"><ele>27.0</ele><time>2026-04-25T08:58:43.959Z</time></trkpt><trkpt lat="43.720763820098085" lon="10.977765205222179"><ele>27.0</ele><time>2026-04-25T08:58:44.959Z</time></trkpt><trkpt lat="43.72079857851789" lon="10.977560511132893"><ele>27.0</ele><time>2026-04-25T08:58:45.959Z</time></trkpt><trkpt lat="43.720837273748266" lon="10.97738283820126"><ele>26.833333333333332</ele><time>2026-04-25T08:58:46.959Z</time></trkpt><trkpt lat="43.720874718590714" lon="10.97722410784757"><ele>26.666666666666664</ele><time>2026-04-25T08:58:47.959Z</time></trkpt><trkpt lat="43.720900904284264" lon="10.97709984652562"><ele>26.5</ele><time>2026-04-25T08:58:48.959Z</time></trkpt><trkpt lat="43.72093324338805" lon="10.976999790850948"><ele>26.333333333333332</ele><time>2026-04-25T08:58:49.959Z</time></trkpt><trkpt lat="43.720959655188125" lon="10.976902813760937"><ele>26.166666666666664</ele><time>2026-04-25T08:58:50.959Z</time></trkpt><trkpt lat="43.72098971322429" lon="10.976804513640559"><ele>26.0</ele><time>2026-04-25T08:58:51.959Z</time></trkpt><trkpt lat="43.721023846415044" lon="10.976709265438606"><ele>25.8</ele><time>2026-04-25T08:58:52.959Z</time></trkpt><trkpt lat="43.72105532718819" lon="10.97661569243118"><ele>25.6</ele><time>2026-04-25T08:58:53.959Z</time></trkpt><trkpt lat="43.7210873875467" lon="10.976510758976147"><ele>25.4</ele><time>2026-04-25T08:58:54.959Z</time></trkpt><trkpt lat="43.721134988417724" lon="10.976369131411529"><ele>25.2</ele><time>2026-04-25T08:58:55.959Z</time></trkpt><trkpt lat="43.72119180450448" lon="10.976222807103632"><ele>25.0</ele><time>2026-04-25T08:58:56.959Z</time></trkpt><trkpt lat="43.72123520329629" lon="10.976058208012416"><ele>25.0</ele><time>2026-04-25T08:58:57.959Z</time></trkpt><trkpt lat="43.721269787733966" lon="10.97588774242642"><ele>25.0</ele><time>2026-04-25T08:58:58.959Z</time></trkpt><trkpt lat="43.72131013282636" lon="10.975721887469831"><ele>25.0</ele><time>2026-04-25T08:58:59.959Z</time></trkpt><trkpt lat="43.7213544206801" lon="10.975563564842155"><ele>25.0</ele><time>2026-04-25T08:59:00.959Z</time></trkpt><trkpt lat="43.72140453598117" lon="10.975403810417555"><ele>25.25</ele><time>2026-04-25T08:59:01.959Z</time></trkpt><trkpt lat="43.721451591845444" lon="10.975239868016153"><ele>25.5</ele><time>2026-04-25T08:59:02.959Z</time></trkpt><trkpt lat="43.72150473348895" lon="10.975077438669224"><ele>25.75</ele><time>2026-04-25T08:59:03.959Z</time></trkpt><trkpt lat="43.721565371630504" lon="10.97493106388556"><ele>26.0</ele><time>2026-04-25T08:59:04.96Z</time></trkpt><trkpt lat="43.72162919406776" lon="10.974799966427641"><ele>26.0</ele><time>2026-04-25T08:59:05.96Z</time></trkpt><trkpt lat="43.72168972376086" lon="10.974683311734733"><ele>26.0</ele><time>2026-04-25T08:59:06.96Z</time></trkpt><trkpt lat="43.72173248211746" lon="10.974561798335984"><ele>26.0</ele><time>2026-04-25T08:59:07.96Z</time></trkpt><trkpt lat="43.72175155086804" lon="10.97443768688169"><ele>26.0</ele><time>2026-04-25T08:59:08.96Z</time></trkpt><trkpt lat="43.72174919191576" lon="10.974299618104133"><ele>26.0</ele><time>2026-04-25T08:59:09.96Z</time></trkpt><trkpt lat="43.721744466427076" lon="10.97414276874992"><ele>26.0</ele><time>2026-04-25T08:59:10.96Z</time></trkpt><trkpt lat="43.72175047659382" lon="10.973973514825227"><ele>26.0</ele><time>2026-04-25T08:59:11.96Z</time></trkpt><trkpt lat="43.721768179650624" lon="10.973805573822068"><ele>26.0</ele><time>2026-04-25T08:59:12.96Z</time></trkpt><trkpt lat="43.72178659286432" lon="10.973633867064498"><ele>26.0</ele><time>2026-04-25T08:59:13.96Z</time></trkpt><trkpt lat="43.72180352150221" lon="10.973452622763132"><ele>25.75</ele><time>2026-04-25T08:59:14.96Z</time></trkpt><trkpt lat="43.72180901466593" lon="10.973267981584021"><ele>25.5</ele><time>2026-04-25T08:59:15.957Z</time></trkpt><trkpt lat="43.72180588624342" lon="10.973069423318067"><ele>25.25</ele><time>2026-04-25T08:59:16.957Z</time></trkpt><trkpt lat="43.72179259314832" lon="10.9728740709731"><ele>25.0</ele><time>2026-04-25T08:59:17.957Z</time></trkpt><trkpt lat="43.72177655972356" lon="10.972675308928595"><ele>25.0</ele><time>2026-04-25T08:59:18.957Z</time></trkpt><trkpt lat="43.721756507937435" lon="10.972477556577768"><ele>25.0</ele><time>2026-04-25T08:59:19.957Z</time></trkpt><trkpt lat="43.721739108367046" lon="10.972289859880508"><ele>25.0</ele><time>2026-04-25T08:59:20.957Z</time></trkpt><trkpt lat="43.72172257483129" lon="10.972120025280686"><ele>25.0</ele><time>2026-04-25T08:59:21.957Z</time></trkpt><trkpt lat="43.72170951808414" lon="10.971966995641196"><ele>25.000000000000004</ele><time>2026-04-25T08:59:22.957Z</time></trkpt><trkpt lat="43.72170252731654" lon="10.97182073882464"><ele>25.0</ele><time>2026-04-25T08:59:23.957Z</time></trkpt><trkpt lat="43.72170387127885" lon="10.971688351152073"><ele>25.0</ele><time>2026-04-25T08:59:24.957Z</time></trkpt><trkpt lat="43.72170861014862" lon="10.971572965106915"><ele>25.0</ele><time>2026-04-25T08:59:25.956Z</time></trkpt><trkpt lat="43.72171345966933" lon="10.971441706826782"><ele>25.000000000000004</ele><time>2026-04-25T08:59:27.956Z</time></trkpt><trkpt lat="43.72172743353242" lon="10.971351563218182"><ele>25.0</ele><time>2026-04-25T08:59:29.957Z</time></trkpt><trkpt lat="43.7217685585323" lon="10.971220417955491"><ele>25.0</ele><time>2026-04-25T08:59:31.957Z</time></trkpt><trkpt lat="43.72179364312968" lon="10.971066326284864"><ele>25.0</ele><time>2026-04-25T08:59:33.957Z</time></trkpt><trkpt lat="43.721783450767106" lon="10.970964529496333"><ele>25.0</ele><time>2026-04-25T08:59:34.957Z</time></trkpt><trkpt lat="43.72171275570511" lon="10.970851369158742"><ele>25.0</ele><time>2026-04-25T08:59:35.957Z</time></trkpt><trkpt lat="43.72165378440326" lon="10.970736370501106"><ele>25.0</ele><time>2026-04-25T08:59:36.957Z</time></trkpt><trkpt lat="43.721604590881896" lon="10.970601905570456"><ele>25.0</ele><time>2026-04-25T08:59:37.957Z</time></trkpt><trkpt lat="43.72157169680154" lon="10.970446746727003"><ele>25.0</ele><time>2026-04-25T08:59:38.957Z</time></trkpt><trkpt lat="43.72154382170124" lon="10.970277855091688"><ele>25.0</ele><time>2026-04-25T08:59:39.957Z</time></trkpt><trkpt lat="43.72152379403851" lon="10.970089912869051"><ele>25.0</ele><time>2026-04-25T08:59:40.957Z</time></trkpt><trkpt lat="43.72150126491721" lon="10.969875686260714"><ele>25.0</ele><time>2026-04-25T08:59:41.957Z</time></trkpt><trkpt lat="43.7214787713515" lon="10.969667216597282"><ele>25.0</ele><time>2026-04-25T08:59:42.957Z</time></trkpt><trkpt lat="43.72145814434407" lon="10.969457126664109"><ele>25.0</ele><time>2026-04-25T08:59:43.957Z</time></trkpt><trkpt lat="43.72143825111459" lon="10.969256161457142"><ele>25.333333333333336</ele><time>2026-04-25T08:59:44.957Z</time></trkpt><trkpt lat="43.721418038004394" lon="10.969045453583853"><ele>25.666666666666664</ele><time>2026-04-25T08:59:45.957Z</time></trkpt><trkpt lat="43.721398762686796" lon="10.968825458165187"><ele>26.0</ele><time>2026-04-25T08:59:46.957Z</time></trkpt><trkpt lat="43.72137726733436" lon="10.968601142253634"><ele>26.0</ele><time>2026-04-25T08:59:47.957Z</time></trkpt><trkpt lat="43.72135095612936" lon="10.968376814472297"><ele>26.0</ele><time>2026-04-25T08:59:48.957Z</time></trkpt><trkpt lat="43.72132346740554" lon="10.968147563765175"><ele>26.0</ele><time>2026-04-25T08:59:49.957Z</time></trkpt><trkpt lat="43.72129583699397" lon="10.96791783162321"><ele>26.0</ele><time>2026-04-25T08:59:50.957Z</time></trkpt><trkpt lat="43.721273385179224" lon="10.967688645794556"><ele>26.0</ele><time>2026-04-25T08:59:51.957Z</time></trkpt><trkpt lat="43.7212708957857" lon="10.96746307056266"><ele>26.0</ele><time>2026-04-25T08:59:52.957Z</time></trkpt><trkpt lat="43.721259985811805" lon="10.967251247251474"><ele>26.0</ele><time>2026-04-25T08:59:53.957Z</time></trkpt><trkpt lat="43.721238929802176" lon="10.967056153598179"><ele>26.0</ele><time>2026-04-25T08:59:54.957Z</time></trkpt><trkpt lat="43.72121013170668" lon="10.966874172822887"><ele>26.0</ele><time>2026-04-25T08:59:55.957Z</time></trkpt><trkpt lat="43.72115325711508" lon="10.966722245609764"><ele>26.0</ele><time>2026-04-25T08:59:56.957Z</time></trkpt><trkpt lat="43.72111297700709" lon="10.966582475209592"><ele>26.0</ele><time>2026-04-25T08:59:57.957Z</time></trkpt><trkpt lat="43.72109016962668" lon="10.966437028847016"><ele>26.0</ele><time>2026-04-25T08:59:58.957Z</time></trkpt><trkpt lat="43.72110098784072" lon="10.96629268679179"><ele>26.0</ele><time>2026-04-25T08:59:59.957Z</time></trkpt><trkpt lat="43.721104504028034" lon="10.966143268425519"><ele>26.0</ele><time>2026-04-25T09:00:00.957Z</time></trkpt><trkpt lat="43.72107266441998" lon="10.965993912915609"><ele>26.0</ele><time>2026-04-25T09:00:01.957Z</time></trkpt><trkpt lat="43.72105910533949" lon="10.96583093420202"><ele>26.25</ele><time>2026-04-25T09:00:02.957Z</time></trkpt><trkpt lat="43.721064275337476" lon="10.965662406968002"><ele>26.5</ele><time>2026-04-25T09:00:03.957Z</time></trkpt><trkpt lat="43.721071155838025" lon="10.96547423283265"><ele>26.75</ele><time>2026-04-25T09:00:04.957Z</time></trkpt><trkpt lat="43.72104613485898" lon="10.965274843033834"><ele>27.0</ele><time>2026-04-25T09:00:05.957Z</time></trkpt><trkpt lat="43.721024430344855" lon="10.965072651347214"><ele>27.0</ele><time>2026-04-25T09:00:06.957Z</time></trkpt><trkpt lat="43.7209978697715" lon="10.964863092191509"><ele>27.0</ele><time>2026-04-25T09:00:07.957Z</time></trkpt><trkpt lat="43.72097186795553" lon="10.96465077175137"><ele>27.0</ele><time>2026-04-25T09:00:08.957Z</time></trkpt><trkpt lat="43.72094371984403" lon="10.964445238659522"><ele>27.0</ele><time>2026-04-25T09:00:09.957Z</time></trkpt><trkpt lat="43.72092038111452" lon="10.964248003222307"><ele>27.0</ele><time>2026-04-25T09:00:10.957Z</time></trkpt><trkpt lat="43.72089502266668" lon="10.964072796640734"><ele>27.0</ele><time>2026-04-25T09:00:11.957Z</time></trkpt><trkpt lat="43.7208741643636" lon="10.963903247107838"><ele>27.0</ele><time>2026-04-25T09:00:12.957Z</time></trkpt><trkpt lat="43.720856338215626" lon="10.963736768732838"><ele>26.8</ele><time>2026-04-25T09:00:13.957Z</time></trkpt><trkpt lat="43.72084315880758" lon="10.963577838656796"><ele>26.6</ele><time>2026-04-25T09:00:14.957Z</time></trkpt><trkpt lat="43.72083049463941" lon="10.963434047724865"><ele>26.400000000000002</ele><time>2026-04-25T09:00:15.957Z</time></trkpt><trkpt lat="43.720819479478145" lon="10.963296658427524"><ele>26.200000000000003</ele><time>2026-04-25T09:00:16.957Z</time></trkpt><trkpt lat="43.72080676865984" lon="10.963158889490598"><ele>26.0</ele><time>2026-04-25T09:00:17.957Z</time></trkpt><trkpt lat="43.72078763386909" lon="10.96301485733832"><ele>26.0</ele><time>2026-04-25T09:00:18.957Z</time></trkpt><trkpt lat="43.72077788474736" lon="10.962869032948078"><ele>26.0</ele><time>2026-04-25T09:00:19.957Z</time></trkpt><trkpt lat="43.72078067922178" lon="10.962703482341249"><ele>26.0</ele><time>2026-04-25T09:00:20.957Z</time></trkpt><trkpt lat="43.72079640731168" lon="10.962534298440112"><ele>26.0</ele><time>2026-04-25T09:00:21.957Z</time></trkpt><trkpt lat="43.720813880626515" lon="10.96234595728212"><ele>26.25</ele><time>2026-04-25T09:00:22.957Z</time></trkpt><trkpt lat="43.72087291321066" lon="10.96215423260796"><ele>26.5</ele><time>2026-04-25T09:00:23.957Z</time></trkpt><trkpt lat="43.72090107058711" lon="10.961960895798063"><ele>26.75</ele><time>2026-04-25T09:00:24.957Z</time></trkpt><trkpt lat="43.72091981825711" lon="10.961766181415614"><ele>27.0</ele><time>2026-04-25T09:00:25.957Z</time></trkpt><trkpt lat="43.72094604513574" lon="10.961566968631717"><ele>27.333333333333336</ele><time>2026-04-25T09:00:26.957Z</time></trkpt><trkpt lat="43.720972924587905" lon="10.961353125079672"><ele>27.666666666666668</ele><time>2026-04-25T09:00:27.957Z</time></trkpt><trkpt lat="43.72100157142341" lon="10.961145504718889"><ele>28.0</ele><time>2026-04-25T09:00:28.957Z</time></trkpt><trkpt lat="43.72102471533339" lon="10.960932637031265"><ele>28.0</ele><time>2026-04-25T09:00:29.958Z</time></trkpt><trkpt lat="43.72104497739478" lon="10.960725550783277"><ele>28.0</ele><time>2026-04-25T09:00:30.958Z</time></trkpt><trkpt lat="43.72106172197518" lon="10.960521810160934"><ele>28.0</ele><time>2026-04-25T09:00:31.958Z</time></trkpt><trkpt lat="43.72106923587555" lon="10.960323943950693"><ele>28.0</ele><time>2026-04-25T09:00:32.958Z</time></trkpt><trkpt lat="43.72106790273992" lon="10.96013498192275"><ele>28.0</ele><time>2026-04-25T09:00:33.958Z</time></trkpt><trkpt lat="43.721055705271645" lon="10.95997015915611"><ele>27.999999999999996</ele><time>2026-04-25T09:00:34.958Z</time></trkpt><trkpt lat="43.721032986943385" lon="10.959825197290273"><ele>27.999999999999996</ele><time>2026-04-25T09:00:35.958Z</time></trkpt><trkpt lat="43.72102160743561" lon="10.95969649381543"><ele>28.0</ele><time>2026-04-25T09:00:36.958Z</time></trkpt><trkpt lat="43.72100807873891" lon="10.959577207379695"><ele>28.0</ele><time>2026-04-25T09:00:37.958Z</time></trkpt><trkpt lat="43.72099789059178" lon="10.95945289678882"><ele>28.000000000000004</ele><time>2026-04-25T09:00:38.958Z</time></trkpt><trkpt lat="43.72098636515352" lon="10.959328340551801"><ele>28.0</ele><time>2026-04-25T09:00:39.958Z</time></trkpt><trkpt lat="43.72097521039219" lon="10.959208359290727"><ele>28.0</ele><time>2026-04-25T09:00:40.958Z</time></trkpt><trkpt lat="43.72096398476828" lon="10.959093878100688"><ele>28.0</ele><time>2026-04-25T09:00:41.958Z</time></trkpt><trkpt lat="43.72095934777588" lon="10.958977917234261"><ele>28.000000000000004</ele><time>2026-04-25T09:00:42.958Z</time></trkpt><trkpt lat="43.72096316308409" lon="10.958857299884585"><ele>28.0</ele><time>2026-04-25T09:00:43.958Z</time></trkpt><trkpt lat="43.720971344969016" lon="10.958735788051817"><ele>28.0</ele><time>2026-04-25T09:00:44.958Z</time></trkpt><trkpt lat="43.72099138836208" lon="10.958605502684376"><ele>27.999999999999996</ele><time>2026-04-25T09:00:45.958Z</time></trkpt><trkpt lat="43.72102001119043" lon="10.958467241478427"><ele>27.999999999999996</ele><time>2026-04-25T09:00:46.958Z</time></trkpt><trkpt lat="43.72105419690196" lon="10.958328394640628"><ele>28.0</ele><time>2026-04-25T09:00:47.958Z</time></trkpt><trkpt lat="43.72109791233877" lon="10.95820143869507"><ele>28.0</ele><time>2026-04-25T09:00:48.958Z</time></trkpt><trkpt lat="43.721208210516764" lon="10.958131708276357"><ele>28.25</ele><time>2026-04-25T09:00:49.958Z</time></trkpt><trkpt lat="43.72129812701834" lon="10.958024082745386"><ele>28.5</ele><time>2026-04-25T09:00:50.958Z</time></trkpt><trkpt lat="43.72140098079239" lon="10.957943750656161"><ele>28.75</ele><time>2026-04-25T09:00:51.958Z</time></trkpt><trkpt lat="43.72150132910639" lon="10.957851728202236"><ele>29.0</ele><time>2026-04-25T09:00:52.958Z</time></trkpt><trkpt lat="43.72159938753836" lon="10.957819997484483"><ele>28.999999999999996</ele><time>2026-04-25T09:00:53.958Z</time></trkpt><trkpt lat="43.72168200866969" lon="10.95780809527207"><ele>29.0</ele><time>2026-04-25T09:00:54.958Z</time></trkpt><trkpt lat="43.721763472893166" lon="10.957779828584332"><ele>29.0</ele><time>2026-04-25T09:00:55.958Z</time></trkpt><trkpt lat="43.7218494463307" lon="10.95774180307767"><ele>29.0</ele><time>2026-04-25T09:00:56.958Z</time></trkpt><trkpt lat="43.72192804206202" lon="10.957725216486011"><ele>28.999999999999996</ele><time>2026-04-25T09:00:57.958Z</time></trkpt><trkpt lat="43.72200493324649" lon="10.957711686773012"><ele>29.0</ele><time>2026-04-25T09:00:58.958Z</time></trkpt><trkpt lat="43.7220772777886" lon="10.957681679144452"><ele>29.0</ele><time>2026-04-25T09:00:59.958Z</time></trkpt><trkpt lat="43.72216028291451" lon="10.957632209453202"><ele>29.0</ele><time>2026-04-25T09:01:00.958Z</time></trkpt><trkpt lat="43.722271697675716" lon="10.957616392334938"><ele>29.0</ele><time>2026-04-25T09:01:01.958Z</time></trkpt><trkpt lat="43.72239588179672" lon="10.957581319501527"><ele>29.0</ele><time>2026-04-25T09:01:02.958Z</time></trkpt><trkpt lat="43.72253671208281" lon="10.957541100747429"><ele>28.666666666666664</ele><time>2026-04-25T09:01:03.958Z</time></trkpt><trkpt lat="43.72268614557346" lon="10.957495077926312"><ele>28.333333333333336</ele><time>2026-04-25T09:01:04.958Z</time></trkpt><trkpt lat="43.72286885240566" lon="10.957462289495192"><ele>28.0</ele><time>2026-04-25T09:01:05.958Z</time></trkpt><trkpt lat="43.723085224622544" lon="10.957401753764383"><ele>28.0</ele><time>2026-04-25T09:01:06.958Z</time></trkpt><trkpt lat="43.723278209238565" lon="10.957333826198278"><ele>28.0</ele><time>2026-04-25T09:01:07.958Z</time></trkpt><trkpt lat="43.72346292828763" lon="10.95726509950398"><ele>28.0</ele><time>2026-04-25T09:01:08.958Z</time></trkpt><trkpt lat="43.72362702048559" lon="10.957211573126026"><ele>27.75</ele><time>2026-04-25T09:01:09.958Z</time></trkpt><trkpt lat="43.723766493441204" lon="10.9571653677554"><ele>27.5</ele><time>2026-04-25T09:01:10.958Z</time></trkpt><trkpt lat="43.72389352637687" lon="10.957112181795061"><ele>27.25</ele><time>2026-04-25T09:01:11.958Z</time></trkpt><trkpt lat="43.72402404618307" lon="10.957039499911106"><ele>27.0</ele><time>2026-04-25T09:01:12.958Z</time></trkpt><trkpt lat="43.72414334595114" lon="10.956926102247255"><ele>27.0</ele><time>2026-04-25T09:01:13.958Z</time></trkpt><trkpt lat="43.72423756989391" lon="10.95679418160366"><ele>27.0</ele><time>2026-04-25T09:01:14.958Z</time></trkpt><trkpt lat="43.724322891391836" lon="10.956653387257154"><ele>27.0</ele><time>2026-04-25T09:01:15.958Z</time></trkpt><trkpt lat="43.72440277180663" lon="10.956516332107066"><ele>27.0</ele><time>2026-04-25T09:01:16.958Z</time></trkpt><trkpt lat="43.72448113130484" lon="10.9563830008324"><ele>27.0</ele><time>2026-04-25T09:01:17.958Z</time></trkpt><trkpt lat="43.72454789089647" lon="10.95624447266079"><ele>27.0</ele><time>2026-04-25T09:01:18.958Z</time></trkpt><trkpt lat="43.72459916636073" lon="10.956099747790669"><ele>27.0</ele><time>2026-04-25T09:01:19.958Z</time></trkpt><trkpt lat="43.724634479372234" lon="10.955932354284968"><ele>27.0</ele><time>2026-04-25T09:01:20.958Z</time></trkpt><trkpt lat="43.7246654305156" lon="10.955741085392663"><ele>27.0</ele><time>2026-04-25T09:01:21.955Z</time></trkpt><trkpt lat="43.724674014934465" lon="10.955541208992999"><ele>27.0</ele><time>2026-04-25T09:01:22.955Z</time></trkpt><trkpt lat="43.7246640338537" lon="10.955341714312809"><ele>27.0</ele><time>2026-04-25T09:01:23.955Z</time></trkpt><trkpt lat="43.72462824069706" lon="10.95515446028752"><ele>27.0</ele><time>2026-04-25T09:01:24.955Z</time></trkpt><trkpt lat="43.72458246888346" lon="10.954980812292428"><ele>27.0</ele><time>2026-04-25T09:01:25.955Z</time></trkpt><trkpt lat="43.724523164223484" lon="10.954834582629404"><ele>27.0</ele><time>2026-04-25T09:01:26.955Z</time></trkpt><trkpt lat="43.72444996371769" lon="10.954715317802407"><ele>27.0</ele><time>2026-04-25T09:01:27.955Z</time></trkpt><trkpt lat="43.72437846167438" lon="10.954590977009028"><ele>27.0</ele><time>2026-04-25T09:01:28.955Z</time></trkpt><trkpt lat="43.72431868016093" lon="10.954465706672703"><ele>27.0</ele><time>2026-04-25T09:01:29.955Z</time></trkpt><trkpt lat="43.7242573940864" lon="10.954343121804452"><ele>27.0</ele><time>2026-04-25T09:01:30.955Z</time></trkpt><trkpt lat="43.72419628860277" lon="10.954198651543102"><ele>27.0</ele><time>2026-04-25T09:01:31.955Z</time></trkpt><trkpt lat="43.72412430900129" lon="10.954031769919249"><ele>27.0</ele><time>2026-04-25T09:01:32.955Z</time></trkpt><trkpt lat="43.72405112037887" lon="10.953861671412097"><ele>27.0</ele><time>2026-04-25T09:01:33.955Z</time></trkpt><trkpt lat="43.7239812912351" lon="10.953688221057162"><ele>27.0</ele><time>2026-04-25T09:01:34.955Z</time></trkpt><trkpt lat="43.72391238473711" lon="10.953512546016084"><ele>27.0</ele><time>2026-04-25T09:01:35.955Z</time></trkpt><trkpt lat="43.723863134808575" lon="10.953328949104764"><ele>27.0</ele><time>2026-04-25T09:01:36.955Z</time></trkpt><trkpt lat="43.72383174261459" lon="10.953138542052637"><ele>26.75</ele><time>2026-04-25T09:01:37.955Z</time></trkpt><trkpt lat="43.72381607250581" lon="10.95294880754089"><ele>26.5</ele><time>2026-04-25T09:01:38.955Z</time></trkpt><trkpt lat="43.72381914564908" lon="10.95275492265208"><ele>26.25</ele><time>2026-04-25T09:01:39.955Z</time></trkpt><trkpt lat="43.72383056646283" lon="10.952564944521695"><ele>26.0</ele><time>2026-04-25T09:01:40.955Z</time></trkpt><trkpt lat="43.72385521197498" lon="10.952380788915333"><ele>26.0</ele><time>2026-04-25T09:01:41.955Z</time></trkpt><trkpt lat="43.72389396631716" lon="10.952203026751901"><ele>26.0</ele><time>2026-04-25T09:01:42.955Z</time></trkpt><trkpt lat="43.72393329046499" lon="10.95203385275991"><ele>26.0</ele><time>2026-04-25T09:01:43.955Z</time></trkpt><trkpt lat="43.723970993040176" lon="10.9518833313072"><ele>26.0</ele><time>2026-04-25T09:01:44.955Z</time></trkpt><trkpt lat="43.72400225296914" lon="10.951759363114428"><ele>26.166666666666664</ele><time>2026-04-25T09:01:45.955Z</time></trkpt><trkpt lat="43.724039206442775" lon="10.951651904846779"><ele>26.333333333333332</ele><time>2026-04-25T09:01:46.955Z</time></trkpt><trkpt lat="43.72408831500093" lon="10.951546169197766"><ele>26.5</ele><time>2026-04-25T09:01:47.955Z</time></trkpt><trkpt lat="43.72413703285527" lon="10.951453432337354"><ele>26.666666666666664</ele><time>2026-04-25T09:01:48.955Z</time></trkpt><trkpt lat="43.72417380823366" lon="10.951340698841623"><ele>26.833333333333332</ele><time>2026-04-25T09:01:49.955Z</time></trkpt><trkpt lat="43.72418613721516" lon="10.951211149527596"><ele>27.0</ele><time>2026-04-25T09:01:50.955Z</time></trkpt><trkpt lat="43.72420301288127" lon="10.951085164297105"><ele>27.0</ele><time>2026-04-25T09:01:51.955Z</time></trkpt><trkpt lat="43.7242265937205" lon="10.950948114081658"><ele>27.0</ele><time>2026-04-25T09:01:52.955Z</time></trkpt><trkpt lat="43.72427101592525" lon="10.950788586898858"><ele>27.0</ele><time>2026-04-25T09:01:53.955Z</time></trkpt><trkpt lat="43.72431941748306" lon="10.950618500363422"><ele>27.0</ele><time>2026-04-25T09:01:54.955Z</time></trkpt><trkpt lat="43.72437269376132" lon="10.95044922439446"><ele>27.5</ele><time>2026-04-25T09:01:55.955Z</time></trkpt><trkpt lat="43.72442706606582" lon="10.950280295616755"><ele>28.0</ele><time>2026-04-25T09:01:56.955Z</time></trkpt><trkpt lat="43.72447587859017" lon="10.950099375940107"><ele>28.5</ele><time>2026-04-25T09:01:57.955Z</time></trkpt><trkpt lat="43.72455961495381" lon="10.949935961421177"><ele>29.0</ele><time>2026-04-25T09:01:58.955Z</time></trkpt><trkpt lat="43.724609510907264" lon="10.949757064630004"><ele>29.0</ele><time>2026-04-25T09:01:59.955Z</time></trkpt><trkpt lat="43.72465753526544" lon="10.949580069761273"><ele>29.0</ele><time>2026-04-25T09:02:00.955Z</time></trkpt><trkpt lat="43.72470132801973" lon="10.949396689607754"><ele>29.0</ele><time>2026-04-25T09:02:01.955Z</time></trkpt><trkpt lat="43.724730931017696" lon="10.94921309798314"><ele>29.0</ele><time>2026-04-25T09:02:02.955Z</time></trkpt><trkpt lat="43.724739734854296" lon="10.9490190458531"><ele>28.333333333333332</ele><time>2026-04-25T09:02:03.955Z</time></trkpt><trkpt lat="43.72473252833305" lon="10.948805462492333"><ele>27.666666666666664</ele><time>2026-04-25T09:02:04.955Z</time></trkpt><trkpt lat="43.724707586805415" lon="10.948588894159741"><ele>27.0</ele><time>2026-04-25T09:02:05.955Z</time></trkpt><trkpt lat="43.724660838722436" lon="10.948385909948481"><ele>26.0</ele><time>2026-04-25T09:02:06.955Z</time></trkpt><trkpt lat="43.72460184837401" lon="10.948197322098359"><ele>25.0</ele><time>2026-04-25T09:02:07.955Z</time></trkpt><trkpt lat="43.7245244526421" lon="10.948016788200936"><ele>24.0</ele><time>2026-04-25T09:02:08.955Z</time></trkpt><trkpt lat="43.72443747106663" lon="10.947846924227017"><ele>24.5</ele><time>2026-04-25T09:02:09.955Z</time></trkpt><trkpt lat="43.724348545962044" lon="10.947692014723312"><ele>25.0</ele><time>2026-04-25T09:02:10.955Z</time></trkpt><trkpt lat="43.7242742389897" lon="10.94753955655088"><ele>25.5</ele><time>2026-04-25T09:02:11.955Z</time></trkpt><trkpt lat="43.72420552106675" lon="10.947388217286601"><ele>26.0</ele><time>2026-04-25T09:02:12.955Z</time></trkpt><trkpt lat="43.724141011728875" lon="10.947251809906513"><ele>26.0</ele><time>2026-04-25T09:02:13.955Z</time></trkpt><trkpt lat="43.7240709406248" lon="10.947135023372196"><ele>26.0</ele><time>2026-04-25T09:02:14.955Z</time></trkpt><trkpt lat="43.72401157260829" lon="10.947042567397125"><ele>26.0</ele><time>2026-04-25T09:02:15.955Z</time></trkpt><trkpt lat="43.72395695433292" lon="10.94696151184992"><ele>26.0</ele><time>2026-04-25T09:02:16.955Z</time></trkpt><trkpt lat="43.72387521889393" lon="10.946847305138757"><ele>26.0</ele><time>2026-04-25T09:02:18.955Z</time></trkpt><trkpt lat="43.72382516658922" lon="10.946740071010188"><ele>25.333333333333332</ele><time>2026-04-25T09:02:21.956Z</time></trkpt><trkpt lat="43.72379160861367" lon="10.946605657839108"><ele>24.666666666666664</ele><time>2026-04-25T09:02:23.956Z</time></trkpt><trkpt lat="43.72375788609415" lon="10.946521734572455"><ele>24.0</ele><time>2026-04-25T09:02:24.956Z</time></trkpt><trkpt lat="43.72372013029518" lon="10.94644245014527"><ele>23.333333333333332</ele><time>2026-04-25T09:02:25.956Z</time></trkpt><trkpt lat="43.72366707012326" lon="10.946369107190126"><ele>22.666666666666664</ele><time>2026-04-25T09:02:28.956Z</time></trkpt><trkpt lat="43.72362931298818" lon="10.946289870747078"><ele>22.0</ele><time>2026-04-25T09:02:31.956Z</time></trkpt><trkpt lat="43.723556047222296" lon="10.946141287453194"><ele>23.75</ele><time>2026-04-25T09:02:33.956Z</time></trkpt><trkpt lat="43.72351414932886" lon="10.946031520447473"><ele>25.5</ele><time>2026-04-25T09:02:34.956Z</time></trkpt><trkpt lat="43.723445309480155" lon="10.945907047590163"><ele>27.25</ele><time>2026-04-25T09:02:35.956Z</time></trkpt><trkpt lat="43.72336401852439" lon="10.945755102443059"><ele>29.0</ele><time>2026-04-25T09:02:36.956Z</time></trkpt><trkpt lat="43.72329320590243" lon="10.945577755293783"><ele>29.0</ele><time>2026-04-25T09:02:37.956Z</time></trkpt><trkpt lat="43.72319569165653" lon="10.945412773693905"><ele>29.0</ele><time>2026-04-25T09:02:38.956Z</time></trkpt><trkpt lat="43.72310198573156" lon="10.945236545770747"><ele>29.0</ele><time>2026-04-25T09:02:39.956Z</time></trkpt><trkpt lat="43.723008148952076" lon="10.945066571048166"><ele>28.0</ele><time>2026-04-25T09:02:40.956Z</time></trkpt><trkpt lat="43.722909768163746" lon="10.944894783548444"><ele>27.0</ele><time>2026-04-25T09:02:41.956Z</time></trkpt><trkpt lat="43.72280888669694" lon="10.944723394686676"><ele>26.0</ele><time>2026-04-25T09:02:42.956Z</time></trkpt><trkpt lat="43.72271304278554" lon="10.944562328462943"><ele>26.75</ele><time>2026-04-25T09:02:43.956Z</time></trkpt><trkpt lat="43.72262394531208" lon="10.944397163769716"><ele>27.5</ele><time>2026-04-25T09:02:44.956Z</time></trkpt><trkpt lat="43.72255135453693" lon="10.944237250333938"><ele>28.25</ele><time>2026-04-25T09:02:45.956Z</time></trkpt><trkpt lat="43.722498781194446" lon="10.944077209514504"><ele>29.0</ele><time>2026-04-25T09:02:46.956Z</time></trkpt><trkpt lat="43.72244829026439" lon="10.943920590522648"><ele>29.0</ele><time>2026-04-25T09:02:47.956Z</time></trkpt><trkpt lat="43.72240237262607" lon="10.943769424508506"><ele>29.0</ele><time>2026-04-25T09:02:48.956Z</time></trkpt><trkpt lat="43.72235912879776" lon="10.943610760960444"><ele>29.0</ele><time>2026-04-25T09:02:49.956Z</time></trkpt><trkpt lat="43.722312815189035" lon="10.943441532731812"><ele>29.0</ele><time>2026-04-25T09:02:50.956Z</time></trkpt><trkpt lat="43.72226110695006" lon="10.94327417700235"><ele>28.0</ele><time>2026-04-25T09:02:51.956Z</time></trkpt><trkpt lat="43.72221014358265" lon="10.9430914294164"><ele>27.0</ele><time>2026-04-25T09:02:52.956Z</time></trkpt><trkpt lat="43.7221529294745" lon="10.942893293215477"><ele>26.0</ele><time>2026-04-25T09:02:53.956Z</time></trkpt><trkpt lat="43.72210357954522" lon="10.942700589269304"><ele>25.0</ele><time>2026-04-25T09:02:54.956Z</time></trkpt><trkpt lat="43.72205360272462" lon="10.942502919969751"><ele>24.5</ele><time>2026-04-25T09:02:55.956Z</time></trkpt><trkpt lat="43.72200956552233" lon="10.942313716583644"><ele>24.0</ele><time>2026-04-25T09:02:56.956Z</time></trkpt><trkpt lat="43.72197188655288" lon="10.94213898371995"><ele>23.5</ele><time>2026-04-25T09:02:57.956Z</time></trkpt><trkpt lat="43.72193999730764" lon="10.94197757762848"><ele>23.0</ele><time>2026-04-25T09:02:58.956Z</time></trkpt><trkpt lat="43.72191158864681" lon="10.941815975135563"><ele>23.75</ele><time>2026-04-25T09:02:59.956Z</time></trkpt><trkpt lat="43.72187372373013" lon="10.941637292766968"><ele>24.5</ele><time>2026-04-25T09:03:00.956Z</time></trkpt><trkpt lat="43.721840531954804" lon="10.94146198167397"><ele>25.25</ele><time>2026-04-25T09:03:01.956Z</time></trkpt><trkpt lat="43.72180458270518" lon="10.941279495155456"><ele>26.0</ele><time>2026-04-25T09:03:02.956Z</time></trkpt><trkpt lat="43.721774393900965" lon="10.94110249485428"><ele>26.0</ele><time>2026-04-25T09:03:03.956Z</time></trkpt><trkpt lat="43.721736121860566" lon="10.940921305879364"><ele>26.0</ele><time>2026-04-25T09:03:04.956Z</time></trkpt><trkpt lat="43.72170172231969" lon="10.940735836747727"><ele>26.0</ele><time>2026-04-25T09:03:05.956Z</time></trkpt><trkpt lat="43.721675216612844" lon="10.940559857295344"><ele>26.0</ele><time>2026-04-25T09:03:06.956Z</time></trkpt><trkpt lat="43.721669420728" lon="10.94036724874659"><ele>25.75</ele><time>2026-04-25T09:03:07.956Z</time></trkpt><trkpt lat="43.72167052212504" lon="10.940160869937838"><ele>25.5</ele><time>2026-04-25T09:03:08.956Z</time></trkpt><trkpt lat="43.72172323129137" lon="10.939974169928723"><ele>25.25</ele><time>2026-04-25T09:03:09.956Z</time></trkpt><trkpt lat="43.721779088508704" lon="10.939781635458633"><ele>25.0</ele><time>2026-04-25T09:03:10.956Z</time></trkpt><trkpt lat="43.72181876328205" lon="10.939610972189481"><ele>25.0</ele><time>2026-04-25T09:03:11.956Z</time></trkpt><trkpt lat="43.72185350437669" lon="10.939434536669937"><ele>25.0</ele><time>2026-04-25T09:03:12.956Z</time></trkpt><trkpt lat="43.72188132254262" lon="10.9392563310781"><ele>25.0</ele><time>2026-04-25T09:03:13.956Z</time></trkpt><trkpt lat="43.721908897060196" lon="10.9390742159042"><ele>25.0</ele><time>2026-04-25T09:03:14.956Z</time></trkpt><trkpt lat="43.721932985701265" lon="10.938897860729002"><ele>24.5</ele><time>2026-04-25T09:03:15.956Z</time></trkpt><trkpt lat="43.72195428904139" lon="10.938722317230189"><ele>24.0</ele><time>2026-04-25T09:03:16.956Z</time></trkpt><trkpt lat="43.721971039581" lon="10.938555185489394"><ele>23.5</ele><time>2026-04-25T09:03:17.956Z</time></trkpt><trkpt lat="43.72197806734522" lon="10.938393296829659"><ele>23.0</ele><time>2026-04-25T09:03:18.956Z</time></trkpt><trkpt lat="43.72197429233258" lon="10.938234360336118"><ele>23.0</ele><time>2026-04-25T09:03:19.956Z</time></trkpt><trkpt lat="43.721961870169096" lon="10.93807957271453"><ele>23.0</ele><time>2026-04-25T09:03:20.956Z</time></trkpt><trkpt lat="43.72192982802706" lon="10.93794104138183"><ele>23.0</ele><time>2026-04-25T09:03:21.956Z</time></trkpt><trkpt lat="43.72189594398591" lon="10.937815158903637"><ele>23.0</ele><time>2026-04-25T09:03:22.956Z</time></trkpt><trkpt lat="43.721857159597924" lon="10.937694439281724"><ele>23.0</ele><time>2026-04-25T09:03:23.956Z</time></trkpt><trkpt lat="43.7218137652436" lon="10.937589119811015"><ele>23.799999999999997</ele><time>2026-04-25T09:03:24.956Z</time></trkpt><trkpt lat="43.72175934692348" lon="10.937481677469611"><ele>24.6</ele><time>2026-04-25T09:03:25.956Z</time></trkpt><trkpt lat="43.72168637914236" lon="10.937380485444908"><ele>25.400000000000002</ele><time>2026-04-25T09:03:26.956Z</time></trkpt><trkpt lat="43.72160618215742" lon="10.93728466127628"><ele>26.200000000000003</ele><time>2026-04-25T09:03:27.953Z</time></trkpt><trkpt lat="43.72152394320458" lon="10.937193924779473"><ele>27.0</ele><time>2026-04-25T09:03:28.953Z</time></trkpt><trkpt lat="43.72143437499213" lon="10.937133867798424"><ele>27.0</ele><time>2026-04-25T09:03:29.954Z</time></trkpt><trkpt lat="43.72133385913825" lon="10.937096759274086"><ele>27.0</ele><time>2026-04-25T09:03:30.954Z</time></trkpt><trkpt lat="43.72122033003881" lon="10.937055218000728"><ele>27.0</ele><time>2026-04-25T09:03:31.953Z</time></trkpt><trkpt lat="43.72108523453532" lon="10.936992649847785"><ele>27.0</ele><time>2026-04-25T09:03:32.953Z</time></trkpt><trkpt lat="43.72096317404413" lon="10.936950122337135"><ele>27.25</ele><time>2026-04-25T09:03:33.953Z</time></trkpt><trkpt lat="43.72086581817394" lon="10.93691780552511"><ele>27.5</ele><time>2026-04-25T09:03:34.953Z</time></trkpt><trkpt lat="43.720757931596104" lon="10.936892699534475"><ele>27.75</ele><time>2026-04-25T09:03:35.953Z</time></trkpt><trkpt lat="43.7206407088594" lon="10.936848407698426"><ele>28.0</ele><time>2026-04-25T09:03:36.953Z</time></trkpt><trkpt lat="43.72052406133585" lon="10.93678605371245"><ele>27.75</ele><time>2026-04-25T09:03:37.953Z</time></trkpt><trkpt lat="43.720421552325334" lon="10.936700797186813"><ele>27.5</ele><time>2026-04-25T09:03:38.953Z</time></trkpt><trkpt lat="43.720327472071574" lon="10.93659418412102"><ele>27.25</ele><time>2026-04-25T09:03:39.953Z</time></trkpt><trkpt lat="43.72024737000059" lon="10.936486116830688"><ele>27.0</ele><time>2026-04-25T09:03:40.953Z</time></trkpt><trkpt lat="43.72018082785016" lon="10.936373246261816"><ele>26.8</ele><time>2026-04-25T09:03:41.953Z</time></trkpt><trkpt lat="43.72012566999088" lon="10.936242146558476"><ele>26.6</ele><time>2026-04-25T09:03:42.953Z</time></trkpt><trkpt lat="43.720082677915414" lon="10.936101699828617"><ele>26.400000000000002</ele><time>2026-04-25T09:03:43.953Z</time></trkpt><trkpt lat="43.720050771751794" lon="10.935956670717063"><ele>26.200000000000003</ele><time>2026-04-25T09:03:44.953Z</time></trkpt><trkpt lat="43.72002440006665" lon="10.935798805985733"><ele>26.0</ele><time>2026-04-25T09:03:45.953Z</time></trkpt><trkpt lat="43.71999845031721" lon="10.935641621355506"><ele>26.0</ele><time>2026-04-25T09:03:46.953Z</time></trkpt><trkpt lat="43.71997911501264" lon="10.935486792721774"><ele>26.0</ele><time>2026-04-25T09:03:47.953Z</time></trkpt><trkpt lat="43.719989674636274" lon="10.935332053086318"><ele>26.0</ele><time>2026-04-25T09:03:48.953Z</time></trkpt><trkpt lat="43.720010812049026" lon="10.935168271317126"><ele>26.0</ele><time>2026-04-25T09:03:49.953Z</time></trkpt><trkpt lat="43.72001810746437" lon="10.935014741299913"><ele>26.0</ele><time>2026-04-25T09:03:50.953Z</time></trkpt><trkpt lat="43.720030390551386" lon="10.934861778329022"><ele>26.0</ele><time>2026-04-25T09:03:51.953Z</time></trkpt><trkpt lat="43.72003794852707" lon="10.93471036071724"><ele>26.0</ele><time>2026-04-25T09:03:52.953Z</time></trkpt><trkpt lat="43.72004096771844" lon="10.934568825719685"><ele>26.0</ele><time>2026-04-25T09:03:53.953Z</time></trkpt><trkpt lat="43.72004202212932" lon="10.934412211736737"><ele>26.0</ele><time>2026-04-25T09:03:54.953Z</time></trkpt><trkpt lat="43.72004085062708" lon="10.934236036092226"><ele>26.200000000000003</ele><time>2026-04-25T09:03:55.953Z</time></trkpt><trkpt lat="43.72004951917937" lon="10.934072036387905"><ele>26.400000000000002</ele><time>2026-04-25T09:03:56.953Z</time></trkpt><trkpt lat="43.72006330176707" lon="10.933920418024506"><ele>26.6</ele><time>2026-04-25T09:03:57.953Z</time></trkpt><trkpt lat="43.720072720822024" lon="10.933782297849294"><ele>26.8</ele><time>2026-04-25T09:03:58.953Z</time></trkpt><trkpt lat="43.72006954002387" lon="10.93363284670387"><ele>27.0</ele><time>2026-04-25T09:03:59.953Z</time></trkpt><trkpt lat="43.72006586591087" lon="10.933466474854836"><ele>27.0</ele><time>2026-04-25T09:04:00.953Z</time></trkpt><trkpt lat="43.72005682217551" lon="10.933280233690532"><ele>27.0</ele><time>2026-04-25T09:04:01.953Z</time></trkpt><trkpt lat="43.72007408495958" lon="10.933062635166772"><ele>27.0</ele><time>2026-04-25T09:04:02.953Z</time></trkpt><trkpt lat="43.7201008201862" lon="10.93284196496947"><ele>27.0</ele><time>2026-04-25T09:04:03.953Z</time></trkpt><trkpt lat="43.72010432941953" lon="10.932631701774344"><ele>27.0</ele><time>2026-04-25T09:04:04.953Z</time></trkpt><trkpt lat="43.72010529753472" lon="10.932423509738323"><ele>27.0</ele><time>2026-04-25T09:04:05.953Z</time></trkpt><trkpt lat="43.72011266301266" lon="10.932216844099978"><ele>26.75</ele><time>2026-04-25T09:04:06.953Z</time></trkpt><trkpt lat="43.72011945302826" lon="10.932011437300938"><ele>26.5</ele><time>2026-04-25T09:04:07.953Z</time></trkpt><trkpt lat="43.72011978496" lon="10.931813059425536"><ele>26.25</ele><time>2026-04-25T09:04:08.953Z</time></trkpt><trkpt lat="43.720125150154466" lon="10.931620018183326"><ele>26.0</ele><time>2026-04-25T09:04:09.953Z</time></trkpt><trkpt lat="43.72012878417694" lon="10.931437527556238"><ele>25.75</ele><time>2026-04-25T09:04:10.953Z</time></trkpt><trkpt lat="43.72016753898673" lon="10.931260525549314"><ele>25.5</ele><time>2026-04-25T09:04:11.953Z</time></trkpt><trkpt lat="43.72016131896982" lon="10.931074058351543"><ele>25.25</ele><time>2026-04-25T09:04:12.953Z</time></trkpt><trkpt lat="43.72015728218432" lon="10.930884204836753"><ele>25.0</ele><time>2026-04-25T09:04:13.953Z</time></trkpt><trkpt lat="43.72015346761882" lon="10.930697870118301"><ele>25.0</ele><time>2026-04-25T09:04:14.953Z</time></trkpt><trkpt lat="43.720151415672504" lon="10.930504465060231"><ele>25.0</ele><time>2026-04-25T09:04:15.953Z</time></trkpt><trkpt lat="43.720152388653574" lon="10.930319006636045"><ele>25.0</ele><time>2026-04-25T09:04:16.953Z</time></trkpt><trkpt lat="43.72015911491551" lon="10.930133407280543"><ele>25.0</ele><time>2026-04-25T09:04:17.953Z</time></trkpt><trkpt lat="43.720152269757776" lon="10.929952160428584"><ele>24.75</ele><time>2026-04-25T09:04:18.953Z</time></trkpt><trkpt lat="43.7201392318903" lon="10.929766398608946"><ele>24.5</ele><time>2026-04-25T09:04:19.954Z</time></trkpt><trkpt lat="43.72013127326526" lon="10.92957034643647"><ele>24.25</ele><time>2026-04-25T09:04:20.954Z</time></trkpt><trkpt lat="43.720132048625416" lon="10.929375654264234"><ele>24.0</ele><time>2026-04-25T09:04:21.954Z</time></trkpt><trkpt lat="43.72013906658794" lon="10.929185816246882"><ele>24.0</ele><time>2026-04-25T09:04:22.954Z</time></trkpt><trkpt lat="43.7201274768021" lon="10.928997387243776"><ele>24.0</ele><time>2026-04-25T09:04:23.954Z</time></trkpt><trkpt lat="43.720117058239694" lon="10.928810139279486"><ele>24.0</ele><time>2026-04-25T09:04:24.954Z</time></trkpt><trkpt lat="43.72011983469028" lon="10.928617145668914"><ele>24.0</ele><time>2026-04-25T09:04:25.954Z</time></trkpt><trkpt lat="43.72011646558966" lon="10.928422842330196"><ele>24.25</ele><time>2026-04-25T09:04:26.954Z</time></trkpt><trkpt lat="43.720120336794956" lon="10.928235163544029"><ele>24.5</ele><time>2026-04-25T09:04:27.954Z</time></trkpt><trkpt lat="43.72012601451203" lon="10.928046718216233"><ele>24.75</ele><time>2026-04-25T09:04:28.954Z</time></trkpt><trkpt lat="43.720132671774316" lon="10.927868896692814"><ele>25.0</ele><time>2026-04-25T09:04:29.954Z</time></trkpt><trkpt lat="43.7201416696636" lon="10.927697292734027"><ele>25.5</ele><time>2026-04-25T09:04:30.954Z</time></trkpt><trkpt lat="43.720149697086505" lon="10.927535937688235"><ele>26.0</ele><time>2026-04-25T09:04:31.954Z</time></trkpt><trkpt lat="43.72014789318154" lon="10.92735118222602"><ele>26.5</ele><time>2026-04-25T09:04:32.954Z</time></trkpt><trkpt lat="43.72014674624994" lon="10.927177898409978"><ele>27.0</ele><time>2026-04-25T09:04:33.954Z</time></trkpt><trkpt lat="43.720145990147785" lon="10.926999573896337"><ele>27.0</ele><time>2026-04-25T09:04:34.954Z</time></trkpt><trkpt lat="43.720138973348845" lon="10.926822603318413"><ele>27.0</ele><time>2026-04-25T09:04:35.954Z</time></trkpt><trkpt lat="43.72014067097659" lon="10.926650110908247"><ele>27.0</ele><time>2026-04-25T09:04:36.954Z</time></trkpt><trkpt lat="43.72014410188848" lon="10.92647123776587"><ele>27.0</ele><time>2026-04-25T09:04:37.954Z</time></trkpt><trkpt lat="43.720145804448464" lon="10.926298288096449"><ele>26.75</ele><time>2026-04-25T09:04:38.954Z</time></trkpt><trkpt lat="43.72014809035479" lon="10.926118894594584"><ele>26.5</ele><time>2026-04-25T09:04:39.954Z</time></trkpt><trkpt lat="43.720149778669814" lon="10.925937565106652"><ele>26.25</ele><time>2026-04-25T09:04:40.954Z</time></trkpt><trkpt lat="43.72015655895003" lon="10.925770628534806"><ele>26.0</ele><time>2026-04-25T09:04:41.954Z</time></trkpt><trkpt lat="43.720155431940285" lon="10.925602581201382"><ele>26.0</ele><time>2026-04-25T09:04:42.954Z</time></trkpt><trkpt lat="43.720165572831576" lon="10.925430701437005"><ele>26.0</ele><time>2026-04-25T09:04:43.954Z</time></trkpt><trkpt lat="43.720172342997806" lon="10.925248347809001"><ele>26.0</ele><time>2026-04-25T09:04:44.954Z</time></trkpt><trkpt lat="43.720178556025076" lon="10.925066398303999"><ele>26.0</ele><time>2026-04-25T09:04:45.954Z</time></trkpt><trkpt lat="43.72017806993026" lon="10.924884267044881"><ele>26.0</ele><time>2026-04-25T09:04:46.954Z</time></trkpt><trkpt lat="43.72017803810608" lon="10.924711083623157"><ele>26.0</ele><time>2026-04-25T09:04:47.954Z</time></trkpt><trkpt lat="43.720177251497" lon="10.924569500217704"><ele>26.0</ele><time>2026-04-25T09:04:48.954Z</time></trkpt><trkpt lat="43.72017865928818" lon="10.924463516723389"><ele>26.0</ele><time>2026-04-25T09:04:49.954Z</time></trkpt><trkpt lat="43.72018397426943" lon="10.924292719380848"><ele>26.0</ele><time>2026-04-25T09:04:51.954Z</time></trkpt><trkpt lat="43.720222895764735" lon="10.924133943457377"><ele>25.833333333333332</ele><time>2026-04-25T09:04:53.954Z</time></trkpt><trkpt lat="43.72028769151799" lon="10.923993433901291"><ele>25.666666666666664</ele><time>2026-04-25T09:04:55.954Z</time></trkpt><trkpt lat="43.72029757410098" lon="10.923897515216558"><ele>25.5</ele><time>2026-04-25T09:04:56.954Z</time></trkpt><trkpt lat="43.72028353554749" lon="10.923787436998145"><ele>25.333333333333336</ele><time>2026-04-25T09:04:57.954Z</time></trkpt><trkpt lat="43.720244377506944" lon="10.923690019208939"><ele>25.166666666666668</ele><time>2026-04-25T09:04:58.954Z</time></trkpt><trkpt lat="43.72020173305246" lon="10.923575820483064"><ele>25.0</ele><time>2026-04-25T09:04:59.954Z</time></trkpt><trkpt lat="43.720173186884686" lon="10.923443726003027"><ele>24.75</ele><time>2026-04-25T09:05:00.954Z</time></trkpt><trkpt lat="43.72015562819769" lon="10.923302564444066"><ele>24.5</ele><time>2026-04-25T09:05:01.954Z</time></trkpt><trkpt lat="43.72014947407964" lon="10.923151304323701"><ele>24.25</ele><time>2026-04-25T09:05:02.954Z</time></trkpt><trkpt lat="43.720147028635964" lon="10.92299198175851"><ele>24.0</ele><time>2026-04-25T09:05:03.954Z</time></trkpt><trkpt lat="43.72014954356183" lon="10.922821004233946"><ele>24.0</ele><time>2026-04-25T09:05:04.954Z</time></trkpt><trkpt lat="43.720149946428194" lon="10.922631443692838"><ele>24.0</ele><time>2026-04-25T09:05:05.954Z</time></trkpt><trkpt lat="43.72014861499064" lon="10.922437163882458"><ele>24.0</ele><time>2026-04-25T09:05:06.954Z</time></trkpt><trkpt lat="43.72017618250696" lon="10.922242023171611"><ele>24.0</ele><time>2026-04-25T09:05:07.954Z</time></trkpt><trkpt lat="43.72017444305689" lon="10.92204844678951"><ele>24.0</ele><time>2026-04-25T09:05:08.954Z</time></trkpt><trkpt lat="43.72017627903374" lon="10.921857160078513"><ele>24.0</ele><time>2026-04-25T09:05:09.954Z</time></trkpt><trkpt lat="43.720177478045905" lon="10.921662563311466"><ele>24.0</ele><time>2026-04-25T09:05:10.954Z</time></trkpt><trkpt lat="43.72017114778851" lon="10.921461564745774"><ele>24.0</ele><time>2026-04-25T09:05:11.954Z</time></trkpt><trkpt lat="43.72017230116631" lon="10.921266834208357"><ele>24.0</ele><time>2026-04-25T09:05:12.954Z</time></trkpt><trkpt lat="43.72017145787257" lon="10.92106866538634"><ele>24.0</ele><time>2026-04-25T09:05:13.954Z</time></trkpt><trkpt lat="43.72017237818724" lon="10.920866879110784"><ele>24.0</ele><time>2026-04-25T09:05:14.954Z</time></trkpt><trkpt lat="43.72017047914046" lon="10.920661331946638"><ele>24.0</ele><time>2026-04-25T09:05:15.954Z</time></trkpt><trkpt lat="43.72017299880863" lon="10.92044826719012"><ele>24.0</ele><time>2026-04-25T09:05:16.954Z</time></trkpt><trkpt lat="43.72017259506727" lon="10.920233972149635"><ele>24.0</ele><time>2026-04-25T09:05:17.954Z</time></trkpt><trkpt lat="43.7201716495211" lon="10.920015461660968"><ele>24.0</ele><time>2026-04-25T09:05:18.954Z</time></trkpt><trkpt lat="43.72017056177293" lon="10.919786596950356"><ele>24.0</ele><time>2026-04-25T09:05:19.954Z</time></trkpt><trkpt lat="43.72016829386094" lon="10.919558850859756"><ele>24.0</ele><time>2026-04-25T09:05:20.954Z</time></trkpt><trkpt lat="43.72016917245771" lon="10.919328697990965"><ele>24.0</ele><time>2026-04-25T09:05:21.954Z</time></trkpt><trkpt lat="43.72016864851683" lon="10.919097291753744"><ele>23.666666666666668</ele><time>2026-04-25T09:05:22.954Z</time></trkpt><trkpt lat="43.72016891142497" lon="10.918875029624646"><ele>23.333333333333336</ele><time>2026-04-25T09:05:23.954Z</time></trkpt><trkpt lat="43.720170533983676" lon="10.918641246218721"><ele>23.0</ele><time>2026-04-25T09:05:24.954Z</time></trkpt><trkpt lat="43.72017179938737" lon="10.918415886026372"><ele>23.5</ele><time>2026-04-25T09:05:25.954Z</time></trkpt><trkpt lat="43.72017810219359" lon="10.918223803106223"><ele>24.0</ele><time>2026-04-25T09:05:26.954Z</time></trkpt><trkpt lat="43.72017650390984" lon="10.91805176553214"><ele>24.5</ele><time>2026-04-25T09:05:27.954Z</time></trkpt><trkpt lat="43.72017844036831" lon="10.917896548110123"><ele>25.0</ele><time>2026-04-25T09:05:28.954Z</time></trkpt><trkpt lat="43.72018041957777" lon="10.917751972204599"><ele>25.0</ele><time>2026-04-25T09:05:29.954Z</time></trkpt><trkpt lat="43.72018314621218" lon="10.91760278310351"><ele>25.0</ele><time>2026-04-25T09:05:30.954Z</time></trkpt><trkpt lat="43.72018032405703" lon="10.917464610444013"><ele>25.0</ele><time>2026-04-25T09:05:31.954Z</time></trkpt><trkpt lat="43.7201757230283" lon="10.91733172808803"><ele>25.0</ele><time>2026-04-25T09:05:32.954Z</time></trkpt><trkpt lat="43.72017793752168" lon="10.917203431294121"><ele>25.0</ele><time>2026-04-25T09:05:33.951Z</time></trkpt><trkpt lat="43.72018122357964" lon="10.917074195416884"><ele>24.833333333333336</ele><time>2026-04-25T09:05:34.95Z</time></trkpt><trkpt lat="43.72017907856383" lon="10.91695521435829"><ele>24.666666666666668</ele><time>2026-04-25T09:05:35.95Z</time></trkpt><trkpt lat="43.72016883981562" lon="10.916853160870861"><ele>24.5</ele><time>2026-04-25T09:05:36.951Z</time></trkpt><trkpt lat="43.720159981507045" lon="10.916766617023322"><ele>24.333333333333336</ele><time>2026-04-25T09:05:37.951Z</time></trkpt><trkpt lat="43.720170715457535" lon="10.916661572289678"><ele>24.166666666666668</ele><time>2026-04-25T09:05:39.951Z</time></trkpt><trkpt lat="43.72005857525713" lon="10.916656869794364"><ele>24.0</ele><time>2026-04-25T09:05:40.951Z</time></trkpt><trkpt lat="43.72012451448509" lon="10.916712253163816"><ele>24.0</ele><time>2026-04-25T09:05:47.951Z</time></trkpt><trkpt lat="43.72013675348815" lon="10.917008515643492"><ele>24.0</ele><time>2026-04-25T09:05:50.951Z</time></trkpt><trkpt lat="43.72014609099354" lon="10.917149091894952"><ele>24.0</ele><time>2026-04-25T09:05:51.951Z</time></trkpt><trkpt lat="43.72014383037415" lon="10.917294882066512"><ele>24.0</ele><time>2026-04-25T09:05:52.951Z</time></trkpt><trkpt lat="43.720131883072426" lon="10.917453101712066"><ele>24.25</ele><time>2026-04-25T09:05:53.951Z</time></trkpt><trkpt lat="43.72013291223713" lon="10.917619527546199"><ele>24.5</ele><time>2026-04-25T09:05:54.951Z</time></trkpt><trkpt lat="43.720133071205474" lon="10.917782236403125"><ele>24.75</ele><time>2026-04-25T09:05:55.951Z</time></trkpt><trkpt lat="43.72013418022022" lon="10.91794450616288"><ele>25.0</ele><time>2026-04-25T09:05:56.951Z</time></trkpt><trkpt lat="43.720130089220504" lon="10.918123000601744"><ele>25.0</ele><time>2026-04-25T09:05:57.951Z</time></trkpt><trkpt lat="43.72012380760767" lon="10.918290410819022"><ele>25.0</ele><time>2026-04-25T09:05:58.951Z</time></trkpt><trkpt lat="43.72012473867654" lon="10.918446162376075"><ele>25.0</ele><time>2026-04-25T09:05:59.951Z</time></trkpt><trkpt lat="43.720125209143355" lon="10.918594707198416"><ele>25.0</ele><time>2026-04-25T09:06:00.951Z</time></trkpt><trkpt lat="43.72012648335908" lon="10.918728724711517"><ele>25.0</ele><time>2026-04-25T09:06:01.951Z</time></trkpt><trkpt lat="43.72012838862081" lon="10.918850227020748"><ele>24.8</ele><time>2026-04-25T09:06:02.951Z</time></trkpt><trkpt lat="43.720127478765995" lon="10.918978945483696"><ele>24.6</ele><time>2026-04-25T09:06:03.951Z</time></trkpt><trkpt lat="43.72012658019542" lon="10.919118125256887"><ele>24.4</ele><time>2026-04-25T09:06:04.951Z</time></trkpt><trkpt lat="43.72013377320833" lon="10.919266187654362"><ele>24.2</ele><time>2026-04-25T09:06:05.951Z</time></trkpt><trkpt lat="43.720136096546995" lon="10.919387262252075"><ele>24.0</ele><time>2026-04-25T09:06:06.951Z</time></trkpt><trkpt lat="43.72012283051269" lon="10.919508493298057"><ele>24.0</ele><time>2026-04-25T09:06:08.951Z</time></trkpt><trkpt lat="43.71989832877995" lon="10.919421700693988"><ele>24.0</ele><time>2026-04-25T09:06:12.951Z</time></trkpt><trkpt lat="43.71981877293401" lon="10.919401665255828"><ele>24.0</ele><time>2026-04-25T09:06:13.951Z</time></trkpt><trkpt lat="43.71973375443017" lon="10.919370580065843"><ele>24.0</ele><time>2026-04-25T09:06:14.951Z</time></trkpt><trkpt lat="43.719636244266496" lon="10.919345976270886"><ele>24.0</ele><time>2026-04-25T09:06:15.951Z</time></trkpt><trkpt lat="43.719535723382734" lon="10.919316070709105"><ele>24.0</ele><time>2026-04-25T09:06:16.951Z</time></trkpt><trkpt lat="43.7194203669349" lon="10.91929077226188"><ele>24.0</ele><time>2026-04-25T09:06:17.951Z</time></trkpt><trkpt lat="43.71930093658" lon="10.919262103657545"><ele>24.0</ele><time>2026-04-25T09:06:18.951Z</time></trkpt><trkpt lat="43.719182630773794" lon="10.919237592865102"><ele>24.0</ele><time>2026-04-25T09:06:19.951Z</time></trkpt><trkpt lat="43.719069668500595" lon="10.91920541933537"><ele>24.0</ele><time>2026-04-25T09:06:20.951Z</time></trkpt><trkpt lat="43.71895834448253" lon="10.919179131991894"><ele>24.0</ele><time>2026-04-25T09:06:21.951Z</time></trkpt><trkpt lat="43.718846335804265" lon="10.919157750653454"><ele>24.0</ele><time>2026-04-25T09:06:22.951Z</time></trkpt><trkpt lat="43.71873994327226" lon="10.919122532016855"><ele>24.0</ele><time>2026-04-25T09:06:23.952Z</time></trkpt><trkpt lat="43.71864627484866" lon="10.919081595039668"><ele>24.0</ele><time>2026-04-25T09:06:24.952Z</time></trkpt><trkpt lat="43.718564696225954" lon="10.919042782114863"><ele>24.0</ele><time>2026-04-25T09:06:25.952Z</time></trkpt><trkpt lat="43.71849749757982" lon="10.918973107520555"><ele>24.0</ele><time>2026-04-25T09:06:26.952Z</time></trkpt><trkpt lat="43.7184283639711" lon="10.91894292977235"><ele>24.0</ele><time>2026-04-25T09:06:27.952Z</time></trkpt><trkpt lat="43.71836332790327" lon="10.918917485354127"><ele>24.0</ele><time>2026-04-25T09:06:28.952Z</time></trkpt><trkpt lat="43.718230708180215" lon="10.918909773268922"><ele>23.666666666666668</ele><time>2026-04-25T09:06:30.952Z</time></trkpt><trkpt lat="43.7181437165779" lon="10.918898725482695"><ele>23.333333333333332</ele><time>2026-04-25T09:06:31.952Z</time></trkpt><trkpt lat="43.7180582724353" lon="10.918855870165347"><ele>23.0</ele><time>2026-04-25T09:06:32.952Z</time></trkpt><trkpt lat="43.717984767314" lon="10.918834992918997"><ele>22.666666666666664</ele><time>2026-04-25T09:06:33.952Z</time></trkpt><trkpt lat="43.717905151006576" lon="10.91880953586993"><ele>22.333333333333332</ele><time>2026-04-25T09:06:35.952Z</time></trkpt><trkpt lat="43.717888198436896" lon="10.918709923899517"><ele>22.0</ele><time>2026-04-25T09:06:37.952Z</time></trkpt><trkpt lat="43.717896665714186" lon="10.918623324542086"><ele>22.0</ele><time>2026-04-25T09:06:38.952Z</time></trkpt><trkpt lat="43.717932971454715" lon="10.91850757786004"><ele>22.0</ele><time>2026-04-25T09:06:39.952Z</time></trkpt><trkpt lat="43.71794295058841" lon="10.918368004130615"><ele>22.0</ele><time>2026-04-25T09:06:40.952Z</time></trkpt><trkpt lat="43.717940702953456" lon="10.91821340023501"><ele>22.0</ele><time>2026-04-25T09:06:41.952Z</time></trkpt><trkpt lat="43.71794527716578" lon="10.918064021063206"><ele>22.0</ele><time>2026-04-25T09:06:42.952Z</time></trkpt><trkpt lat="43.71793943085657" lon="10.917919988604874"><ele>22.0</ele><time>2026-04-25T09:06:43.952Z</time></trkpt><trkpt lat="43.717933775260114" lon="10.917792200880834"><ele>22.0</ele><time>2026-04-25T09:06:44.952Z</time></trkpt><trkpt lat="43.71793013227658" lon="10.91766678827871"><ele>22.0</ele><time>2026-04-25T09:06:45.952Z</time></trkpt><trkpt lat="43.71794683969014" lon="10.917558092737497"><ele>22.0</ele><time>2026-04-25T09:06:46.952Z</time></trkpt><trkpt lat="43.71793174061787" lon="10.917458742291958"><ele>22.0</ele><time>2026-04-25T09:06:47.952Z</time></trkpt><trkpt lat="43.7179390499379" lon="10.917369537519797"><ele>22.0</ele><time>2026-04-25T09:06:48.952Z</time></trkpt><trkpt lat="43.7179337414165" lon="10.917192917139964"><ele>22.0</ele><time>2026-04-25T09:06:50.952Z</time></trkpt><trkpt lat="43.71793914584565" lon="10.917104251989297"><ele>22.0</ele><time>2026-04-25T09:06:51.952Z</time></trkpt><trkpt lat="43.71791420872743" lon="10.91699025955334"><ele>22.0</ele><time>2026-04-25T09:06:52.952Z</time></trkpt><trkpt lat="43.717909168755554" lon="10.916857562560972"><ele>22.0</ele><time>2026-04-25T09:06:53.952Z</time></trkpt><trkpt lat="43.717876538391046" lon="10.91673633998381"><ele>22.0</ele><time>2026-04-25T09:06:54.952Z</time></trkpt><trkpt lat="43.71786149197397" lon="10.916608916000342"><ele>22.0</ele><time>2026-04-25T09:06:56.952Z</time></trkpt><trkpt lat="43.71769530167558" lon="10.916547801544342"><ele>22.333333333333332</ele><time>2026-04-25T09:07:07.952Z</time></trkpt><trkpt lat="43.71762188402408" lon="10.916526298199612"><ele>22.666666666666664</ele><time>2026-04-25T09:07:08.952Z</time></trkpt><trkpt lat="43.7175398167427" lon="10.916515392074858"><ele>23.0</ele><time>2026-04-25T09:07:09.952Z</time></trkpt><trkpt lat="43.717453695727954" lon="10.916503947231604"><ele>23.333333333333332</ele><time>2026-04-25T09:07:10.952Z</time></trkpt><trkpt lat="43.71737569087257" lon="10.916508998510004"><ele>23.666666666666668</ele><time>2026-04-25T09:07:11.952Z</time></trkpt><trkpt lat="43.71729501444469" lon="10.916500015400052"><ele>24.0</ele><time>2026-04-25T09:07:12.952Z</time></trkpt><trkpt lat="43.71721312109037" lon="10.916502570860606"><ele>24.0</ele><time>2026-04-25T09:07:13.952Z</time></trkpt><trkpt lat="43.71713620316497" lon="10.91649559012508"><ele>24.0</ele><time>2026-04-25T09:07:14.952Z</time></trkpt><trkpt lat="43.717069595964034" lon="10.916491805893472"><ele>24.0</ele><time>2026-04-25T09:07:15.952Z</time></trkpt><trkpt lat="43.716971770084534" lon="10.916448906857342"><ele>24.0</ele><time>2026-04-25T09:07:17.952Z</time></trkpt><trkpt lat="43.71693058167139" lon="10.916345519932444"><ele>24.0</ele><time>2026-04-25T09:07:20.952Z</time></trkpt><trkpt lat="43.71698055955617" lon="10.91628636629386"><ele>24.0</ele><time>2026-04-25T09:07:21.952Z</time></trkpt><trkpt lat="43.716975001707695" lon="10.91613462743126"><ele>24.0</ele><time>2026-04-25T09:07:23.952Z</time></trkpt><trkpt lat="43.71697769785822" lon="10.916046000466219"><ele>24.0</ele><time>2026-04-25T09:07:24.952Z</time></trkpt><trkpt lat="43.71697692419173" lon="10.915952603878363"><ele>24.0</ele><time>2026-04-25T09:07:25.952Z</time></trkpt><trkpt lat="43.71698123303869" lon="10.915854889193412"><ele>24.0</ele><time>2026-04-25T09:07:26.952Z</time></trkpt><trkpt lat="43.716987479364626" lon="10.915765130212403"><ele>24.0</ele><time>2026-04-25T09:07:27.952Z</time></trkpt><trkpt lat="43.7169843851071" lon="10.915674675969534"><ele>24.0</ele><time>2026-04-25T09:07:28.952Z</time></trkpt><trkpt lat="43.71695487683401" lon="10.915513376240797"><ele>23.799999999999997</ele><time>2026-04-25T09:07:30.952Z</time></trkpt><trkpt lat="43.71692362011068" lon="10.915343005992876"><ele>23.599999999999998</ele><time>2026-04-25T09:07:32.952Z</time></trkpt><trkpt lat="43.71689503127245" lon="10.915189891883372"><ele>23.4</ele><time>2026-04-25T09:07:34.952Z</time></trkpt><trkpt lat="43.71684484125523" lon="10.915048461620401"><ele>23.2</ele><time>2026-04-25T09:07:36.952Z</time></trkpt><trkpt lat="43.716813450035445" lon="10.91493199368445"><ele>23.0</ele><time>2026-04-25T09:07:38.953Z</time></trkpt><trkpt lat="43.71679623275088" lon="10.914825497930023"><ele>23.0</ele><time>2026-04-25T09:07:40.948Z</time></trkpt><trkpt lat="43.71679055711741" lon="10.914730728355945"><ele>23.0</ele><time>2026-04-25T09:07:45.948Z</time></trkpt><trkpt lat="43.71679690927466" lon="10.914856971265491"><ele>23.0</ele><time>2026-04-25T09:08:05.955Z</time></trkpt><trkpt lat="43.71683213320914" lon="10.915032818764049"><ele>23.0</ele><time>2026-04-25T09:08:07.956Z</time></trkpt><trkpt lat="43.71685645442794" lon="10.915141820575675"><ele>23.0</ele><time>2026-04-25T09:08:08.956Z</time></trkpt><trkpt lat="43.71691418468778" lon="10.915225033445761"><ele>23.0</ele><time>2026-04-25T09:08:09.956Z</time></trkpt><trkpt lat="43.71691370715445" lon="10.915370693985066"><ele>23.0</ele><time>2026-04-25T09:08:10.957Z</time></trkpt><trkpt lat="43.716927683243675" lon="10.915566413083459"><ele>23.0</ele><time>2026-04-25T09:08:11.957Z</time></trkpt><trkpt lat="43.716943609146384" lon="10.915684461030011"><ele>23.0</ele><time>2026-04-25T09:08:12.957Z</time></trkpt><trkpt lat="43.71695108086814" lon="10.915788290484508"><ele>23.0</ele><time>2026-04-25T09:08:13.958Z</time></trkpt><trkpt lat="43.716955587681255" lon="10.915906068755353"><ele>23.2</ele><time>2026-04-25T09:08:14.958Z</time></trkpt><trkpt lat="43.71695981730321" lon="10.916055648534075"><ele>23.4</ele><time>2026-04-25T09:08:15.958Z</time></trkpt><trkpt lat="43.71696307541549" lon="10.916184714287246"><ele>23.599999999999998</ele><time>2026-04-25T09:08:16.958Z</time></trkpt><trkpt lat="43.71695924918238" lon="10.91628753990628"><ele>23.799999999999997</ele><time>2026-04-25T09:08:17.959Z</time></trkpt><trkpt lat="43.71694756967083" lon="10.916431653402457"><ele>24.0</ele><time>2026-04-25T09:08:19.959Z</time></trkpt><trkpt lat="43.71701407618397" lon="10.9165048465169"><ele>24.0</ele><time>2026-04-25T09:08:21.959Z</time></trkpt><trkpt lat="43.71707533886832" lon="10.91652694932072"><ele>24.0</ele><time>2026-04-25T09:08:22.96Z</time></trkpt><trkpt lat="43.717167544651566" lon="10.916527979170365"><ele>24.0</ele><time>2026-04-25T09:08:23.96Z</time></trkpt><trkpt lat="43.71727171827015" lon="10.916525881834204"><ele>24.0</ele><time>2026-04-25T09:08:24.96Z</time></trkpt><trkpt lat="43.71739389009229" lon="10.916539995551922"><ele>24.0</ele><time>2026-04-25T09:08:25.96Z</time></trkpt><trkpt lat="43.71751544695373" lon="10.916555763258591"><ele>24.0</ele><time>2026-04-25T09:08:26.96Z</time></trkpt><trkpt lat="43.71762640446899" lon="10.916569865646101"><ele>24.0</ele><time>2026-04-25T09:08:27.96Z</time></trkpt><trkpt lat="43.717718569156276" lon="10.916580600353415"><ele>24.0</ele><time>2026-04-25T09:08:28.96Z</time></trkpt><trkpt lat="43.71778369416462" lon="10.916580525311645"><ele>24.0</ele><time>2026-04-25T09:08:29.961Z</time></trkpt><trkpt lat="43.71783539510961" lon="10.916488169954789"><ele>24.0</ele><time>2026-04-25T09:08:33.961Z</time></trkpt><trkpt lat="43.71783584976262" lon="10.916283483959395"><ele>24.0</ele><time>2026-04-25T09:08:35.961Z</time></trkpt><trkpt lat="43.71782443879813" lon="10.916149833100432"><ele>24.0</ele><time>2026-04-25T09:08:36.961Z</time></trkpt><trkpt lat="43.71781433041101" lon="10.916002771906319"><ele>24.0</ele><time>2026-04-25T09:08:37.961Z</time></trkpt><trkpt lat="43.71781428620751" lon="10.915837160829534"><ele>24.0</ele><time>2026-04-25T09:08:38.961Z</time></trkpt><trkpt lat="43.717810441035375" lon="10.915680297167242"><ele>24.0</ele><time>2026-04-25T09:08:39.961Z</time></trkpt><trkpt lat="43.71780576990856" lon="10.915541995049999"><ele>24.0</ele><time>2026-04-25T09:08:40.961Z</time></trkpt><trkpt lat="43.717798925459846" lon="10.915410005525542"><ele>24.0</ele><time>2026-04-25T09:08:41.961Z</time></trkpt><trkpt lat="43.717783946707826" lon="10.915294480851085"><ele>24.0</ele><time>2026-04-25T09:08:42.962Z</time></trkpt><trkpt lat="43.71776837465038" lon="10.91518357841552"><ele>24.0</ele><time>2026-04-25T09:08:43.962Z</time></trkpt><trkpt lat="43.71771210019822" lon="10.91509489748949"><ele>24.0</ele><time>2026-04-25T09:08:44.962Z</time></trkpt><trkpt lat="43.71762190643959" lon="10.915029422195751"><ele>24.0</ele><time>2026-04-25T09:08:45.962Z</time></trkpt><trkpt lat="43.717532747900854" lon="10.914977771374629"><ele>23.666666666666668</ele><time>2026-04-25T09:08:46.962Z</time></trkpt><trkpt lat="43.717455008594214" lon="10.91493369228628"><ele>23.333333333333332</ele><time>2026-04-25T09:08:47.962Z</time></trkpt><trkpt lat="43.71740891600897" lon="10.914830415380257"><ele>23.0</ele><time>2026-04-25T09:08:49.962Z</time></trkpt><trkpt lat="43.717394603651464" lon="10.914714615907572"><ele>22.666666666666664</ele><time>2026-04-25T09:08:51.962Z</time></trkpt><trkpt lat="43.71739725131172" lon="10.914627013420985"><ele>22.333333333333332</ele><time>2026-04-25T09:08:52.962Z</time></trkpt><trkpt lat="43.71740857631978" lon="10.91451216661886"><ele>22.0</ele><time>2026-04-25T09:08:53.962Z</time></trkpt><trkpt lat="43.71741373296218" lon="10.91438882779591"><ele>22.0</ele><time>2026-04-25T09:08:54.962Z</time></trkpt><trkpt lat="43.717437485696436" lon="10.914284733158839"><ele>22.0</ele><time>2026-04-25T09:08:55.962Z</time></trkpt><trkpt lat="43.71743807100334" lon="10.914181153643206"><ele>22.0</ele><time>2026-04-25T09:08:56.962Z</time></trkpt><trkpt lat="43.71744698918862" lon="10.914087394656379"><ele>22.0</ele><time>2026-04-25T09:08:57.962Z</time></trkpt><trkpt lat="43.71746729666991" lon="10.913928456899422"><ele>22.0</ele><time>2026-04-25T09:08:59.962Z</time></trkpt><trkpt lat="43.717479127309765" lon="10.913808929701435"><ele>22.0</ele><time>2026-04-25T09:09:01.962Z</time></trkpt><trkpt lat="43.71749568036972" lon="10.913686578517389"><ele>22.0</ele><time>2026-04-25T09:09:03.962Z</time></trkpt><trkpt lat="43.71751957213292" lon="10.913545289168425"><ele>22.0</ele><time>2026-04-25T09:09:05.962Z</time></trkpt><trkpt lat="43.717532051140026" lon="10.913426636850183"><ele>22.0</ele><time>2026-04-25T09:09:07.962Z</time></trkpt><trkpt lat="43.71751032677847" lon="10.913339740284387"><ele>22.0</ele><time>2026-04-25T09:09:10.963Z</time></trkpt><trkpt lat="43.717424714234426" lon="10.913199854027614"><ele>22.0</ele><time>2026-04-25T09:09:13.963Z</time></trkpt><trkpt lat="43.71734992371677" lon="10.91317050958642"><ele>22.0</ele><time>2026-04-25T09:09:14.963Z</time></trkpt><trkpt lat="43.7172776575232" lon="10.913147852165215"><ele>22.0</ele><time>2026-04-25T09:09:15.963Z</time></trkpt><trkpt lat="43.71720423419719" lon="10.91312804170841"><ele>22.0</ele><time>2026-04-25T09:09:16.963Z</time></trkpt><trkpt lat="43.71713052957516" lon="10.913108787764173"><ele>22.0</ele><time>2026-04-25T09:09:17.963Z</time></trkpt><trkpt lat="43.71702270493006" lon="10.91308229506689"><ele>22.0</ele><time>2026-04-25T09:09:19.963Z</time></trkpt><trkpt lat="43.71695525932189" lon="10.91303776103773"><ele>22.0</ele><time>2026-04-25T09:09:21.963Z</time></trkpt><trkpt lat="43.71697756772292" lon="10.912907761733177"><ele>22.0</ele><time>2026-04-25T09:09:22.963Z</time></trkpt><trkpt lat="43.71695777048704" lon="10.912801960255395"><ele>22.0</ele><time>2026-04-25T09:09:23.963Z</time></trkpt><trkpt lat="43.71696829351883" lon="10.912694396487256"><ele>22.0</ele><time>2026-04-25T09:09:24.963Z</time></trkpt><trkpt lat="43.716965538446196" lon="10.912583549575213"><ele>22.0</ele><time>2026-04-25T09:09:25.963Z</time></trkpt><trkpt lat="43.716967788820604" lon="10.912477134480739"><ele>22.0</ele><time>2026-04-25T09:09:26.963Z</time></trkpt><trkpt lat="43.716962752569" lon="10.91238925156821"><ele>22.0</ele><time>2026-04-25T09:09:27.963Z</time></trkpt><trkpt lat="43.71696020501421" lon="10.912254396740446"><ele>22.200000000000003</ele><time>2026-04-25T09:09:29.963Z</time></trkpt><trkpt lat="43.71695764235639" lon="10.912115508524877"><ele>22.4</ele><time>2026-04-25T09:09:31.963Z</time></trkpt><trkpt lat="43.71696228379338" lon="10.911973410697415"><ele>22.6</ele><time>2026-04-25T09:09:33.963Z</time></trkpt><trkpt lat="43.71695374284547" lon="10.911810159923453"><ele>22.799999999999997</ele><time>2026-04-25T09:09:35.963Z</time></trkpt><trkpt lat="43.71693714625" lon="10.911654034829692"><ele>23.0</ele><time>2026-04-25T09:09:37.963Z</time></trkpt><trkpt lat="43.716918441658116" lon="10.911514538247717"><ele>22.799999999999997</ele><time>2026-04-25T09:09:39.963Z</time></trkpt><trkpt lat="43.71689489383109" lon="10.911386087091774"><ele>22.6</ele><time>2026-04-25T09:09:41.963Z</time></trkpt><trkpt lat="43.71687405048214" lon="10.911248818251437"><ele>22.4</ele><time>2026-04-25T09:09:43.963Z</time></trkpt><trkpt lat="43.716857575962266" lon="10.911114124785577"><ele>22.200000000000003</ele><time>2026-04-25T09:09:45.959Z</time></trkpt><trkpt lat="43.716843294252776" lon="10.910956550293825"><ele>22.0</ele><time>2026-04-25T09:09:47.959Z</time></trkpt><trkpt lat="43.7168131216683" lon="10.910820298611153"><ele>21.833333333333332</ele><time>2026-04-25T09:09:49.958Z</time></trkpt><trkpt lat="43.716764750725204" lon="10.91074859162414"><ele>21.666666666666664</ele><time>2026-04-25T09:09:51.958Z</time></trkpt><trkpt lat="43.716725777844395" lon="10.91064024184342"><ele>21.5</ele><time>2026-04-25T09:10:05.958Z</time></trkpt><trkpt lat="43.716707126621266" lon="10.910553907130923"><ele>21.333333333333332</ele><time>2026-04-25T09:10:06.958Z</time></trkpt><trkpt lat="43.71668606397027" lon="10.910456862707264"><ele>21.166666666666668</ele><time>2026-04-25T09:10:07.958Z</time></trkpt><trkpt lat="43.71667240571615" lon="10.910350102994371"><ele>21.0</ele><time>2026-04-25T09:10:08.958Z</time></trkpt><trkpt lat="43.71666407945722" lon="10.910234897066546"><ele>21.0</ele><time>2026-04-25T09:10:09.958Z</time></trkpt><trkpt lat="43.716657843372786" lon="10.910126907815906"><ele>21.0</ele><time>2026-04-25T09:10:10.958Z</time></trkpt><trkpt lat="43.71665692203834" lon="10.91002055879431"><ele>21.0</ele><time>2026-04-25T09:10:11.958Z</time></trkpt><trkpt lat="43.7166558400401" lon="10.909917711309607"><ele>21.0</ele><time>2026-04-25T09:10:12.958Z</time></trkpt><trkpt lat="43.71664435938541" lon="10.909801233209544"><ele>21.0</ele><time>2026-04-25T09:10:13.958Z</time></trkpt><trkpt lat="43.71662431334779" lon="10.909698976912118"><ele>21.0</ele><time>2026-04-25T09:10:14.958Z</time></trkpt><trkpt lat="43.71660124870671" lon="10.909608470619542"><ele>21.200000000000003</ele><time>2026-04-25T09:10:15.958Z</time></trkpt><trkpt lat="43.71655731479527" lon="10.90944210181037"><ele>21.400000000000002</ele><time>2026-04-25T09:10:17.958Z</time></trkpt><trkpt lat="43.71648897915059" lon="10.909286555394132"><ele>21.6</ele><time>2026-04-25T09:10:19.958Z</time></trkpt><trkpt lat="43.71645812163206" lon="10.909190944894569"><ele>21.8</ele><time>2026-04-25T09:10:20.958Z</time></trkpt><trkpt lat="43.71642864071087" lon="10.909094707769516"><ele>22.0</ele><time>2026-04-25T09:10:21.958Z</time></trkpt><trkpt lat="43.716395802829396" lon="10.909000206464198"><ele>22.166666666666664</ele><time>2026-04-25T09:10:22.958Z</time></trkpt><trkpt lat="43.716370169539765" lon="10.908912083793778"><ele>22.333333333333332</ele><time>2026-04-25T09:10:23.958Z</time></trkpt><trkpt lat="43.71635780831467" lon="10.908823694060514"><ele>22.5</ele><time>2026-04-25T09:10:24.958Z</time></trkpt><trkpt lat="43.71635858944663" lon="10.908649509202643"><ele>22.666666666666668</ele><time>2026-04-25T09:10:26.958Z</time></trkpt><trkpt lat="43.716372820677684" lon="10.908559020976787"><ele>22.833333333333336</ele><time>2026-04-25T09:10:27.959Z</time></trkpt><trkpt lat="43.71640092289625" lon="10.908470221985274"><ele>23.0</ele><time>2026-04-25T09:10:28.959Z</time></trkpt><trkpt lat="43.716442859119894" lon="10.908383620891481"><ele>23.0</ele><time>2026-04-25T09:10:29.959Z</time></trkpt><trkpt lat="43.71649733900926" lon="10.908308119277724"><ele>23.0</ele><time>2026-04-25T09:10:30.959Z</time></trkpt><trkpt lat="43.716548401278445" lon="10.908231771643518"><ele>23.0</ele><time>2026-04-25T09:10:31.959Z</time></trkpt><trkpt lat="43.716625369860395" lon="10.90809858055932"><ele>23.0</ele><time>2026-04-25T09:10:33.959Z</time></trkpt><trkpt lat="43.71668755170585" lon="10.907941714298422"><ele>23.0</ele><time>2026-04-25T09:10:35.959Z</time></trkpt><trkpt lat="43.71671651023576" lon="10.907857275640866"><ele>23.0</ele><time>2026-04-25T09:10:36.959Z</time></trkpt><trkpt lat="43.71676247444996" lon="10.907705461825493"><ele>23.0</ele><time>2026-04-25T09:10:38.959Z</time></trkpt><trkpt lat="43.71681797673943" lon="10.907545173761504"><ele>23.0</ele><time>2026-04-25T09:10:40.959Z</time></trkpt><trkpt lat="43.71686839296524" lon="10.907393796066664"><ele>23.0</ele><time>2026-04-25T09:10:42.959Z</time></trkpt><trkpt lat="43.71690030434598" lon="10.90731156169483"><ele>23.0</ele><time>2026-04-25T09:10:43.959Z</time></trkpt><trkpt lat="43.716924887324325" lon="10.907225542799267"><ele>22.857142857142858</ele><time>2026-04-25T09:10:44.959Z</time></trkpt><trkpt lat="43.71695640647474" lon="10.907086584832944"><ele>22.71428571428571</ele><time>2026-04-25T09:10:46.959Z</time></trkpt><trkpt lat="43.71695940190685" lon="10.906989261813603"><ele>22.57142857142857</ele><time>2026-04-25T09:10:47.959Z</time></trkpt><trkpt lat="43.71695568408138" lon="10.906901149012318"><ele>22.42857142857143</ele><time>2026-04-25T09:10:48.959Z</time></trkpt><trkpt lat="43.716949792091285" lon="10.906800448148886"><ele>22.285714285714285</ele><time>2026-04-25T09:10:49.959Z</time></trkpt><trkpt lat="43.71694814559413" lon="10.906709967444526"><ele>22.142857142857142</ele><time>2026-04-25T09:10:50.959Z</time></trkpt><trkpt lat="43.71694489087587" lon="10.906621083839132"><ele>22.0</ele><time>2026-04-25T09:10:51.959Z</time></trkpt><trkpt lat="43.71693072204134" lon="10.906384470773645"><ele>22.0</ele><time>2026-04-25T09:12:11.958Z</time></trkpt><trkpt lat="43.716926495804714" lon="10.906238124702593"><ele>22.0</ele><time>2026-04-25T09:12:13.958Z</time></trkpt><trkpt lat="43.716919439847665" lon="10.906068615771751"><ele>22.0</ele><time>2026-04-25T09:12:15.958Z</time></trkpt><trkpt lat="43.71691226751059" lon="10.905898041607065"><ele>22.0</ele><time>2026-04-25T09:12:17.958Z</time></trkpt><trkpt lat="43.71690902700504" lon="10.90575056459876"><ele>21.857142857142858</ele><time>2026-04-25T09:12:19.958Z</time></trkpt><trkpt lat="43.716944062029825" lon="10.905667940630805"><ele>21.714285714285715</ele><time>2026-04-25T09:12:20.958Z</time></trkpt><trkpt lat="43.716912085083976" lon="10.905572633945154"><ele>21.57142857142857</ele><time>2026-04-25T09:12:21.958Z</time></trkpt><trkpt lat="43.716914988916145" lon="10.905484618502916"><ele>21.42857142857143</ele><time>2026-04-25T09:12:22.958Z</time></trkpt><trkpt lat="43.71691993861389" lon="10.905390513464482"><ele>21.285714285714285</ele><time>2026-04-25T09:12:23.958Z</time></trkpt><trkpt lat="43.71691880907073" lon="10.905298206368235"><ele>21.142857142857142</ele><time>2026-04-25T09:12:24.958Z</time></trkpt><trkpt lat="43.716918256645506" lon="10.905197690495793"><ele>21.0</ele><time>2026-04-25T09:12:25.958Z</time></trkpt><trkpt lat="43.71691151455064" lon="10.905102577443639"><ele>21.200000000000003</ele><time>2026-04-25T09:12:26.958Z</time></trkpt><trkpt lat="43.71690827780037" lon="10.905008605039344"><ele>21.400000000000002</ele><time>2026-04-25T09:12:27.958Z</time></trkpt><trkpt lat="43.716905637647514" lon="10.90491733753225"><ele>21.6</ele><time>2026-04-25T09:12:28.958Z</time></trkpt><trkpt lat="43.71690883893379" lon="10.90474751345737"><ele>21.8</ele><time>2026-04-25T09:12:30.958Z</time></trkpt><trkpt lat="43.71690070590019" lon="10.904606038494585"><ele>22.0</ele><time>2026-04-25T09:12:32.958Z</time></trkpt><trkpt lat="43.71689745219628" lon="10.90444550767122"><ele>22.0</ele><time>2026-04-25T09:12:34.958Z</time></trkpt><trkpt lat="43.71689199142513" lon="10.904305164605747"><ele>22.0</ele><time>2026-04-25T09:12:36.958Z</time></trkpt><trkpt lat="43.71689162641653" lon="10.904141732631631"><ele>22.0</ele><time>2026-04-25T09:12:38.958Z</time></trkpt><trkpt lat="43.71688638732571" lon="10.90405177332672"><ele>22.0</ele><time>2026-04-25T09:12:39.958Z</time></trkpt><trkpt lat="43.71689255766252" lon="10.903876221671739"><ele>22.0</ele><time>2026-04-25T09:12:41.958Z</time></trkpt><trkpt lat="43.71688750484473" lon="10.903781989361688"><ele>22.0</ele><time>2026-04-25T09:12:42.958Z</time></trkpt><trkpt lat="43.71687730120391" lon="10.903693332486302"><ele>22.0</ele><time>2026-04-25T09:12:43.958Z</time></trkpt><trkpt lat="43.71687892615686" lon="10.90360005886376"><ele>22.0</ele><time>2026-04-25T09:12:44.958Z</time></trkpt><trkpt lat="43.71688238977633" lon="10.903508569226648"><ele>22.0</ele><time>2026-04-25T09:12:45.958Z</time></trkpt><trkpt lat="43.716886440695085" lon="10.903421263149243"><ele>22.0</ele><time>2026-04-25T09:12:46.958Z</time></trkpt><trkpt lat="43.71689231864666" lon="10.903331703177054"><ele>22.0</ele><time>2026-04-25T09:12:47.958Z</time></trkpt><trkpt lat="43.71688477689325" lon="10.903245102143837"><ele>22.0</ele><time>2026-04-25T09:12:48.958Z</time></trkpt><trkpt lat="43.71686729077838" lon="10.90315147450824"><ele>22.200000000000003</ele><time>2026-04-25T09:12:49.958Z</time></trkpt><trkpt lat="43.71685018640119" lon="10.903037338990208"><ele>22.4</ele><time>2026-04-25T09:12:50.958Z</time></trkpt><trkpt lat="43.71683400446988" lon="10.902897092145269"><ele>22.6</ele><time>2026-04-25T09:12:51.958Z</time></trkpt><trkpt lat="43.71681416888004" lon="10.902731419295714"><ele>22.799999999999997</ele><time>2026-04-25T09:12:52.958Z</time></trkpt><trkpt lat="43.71679617789218" lon="10.902565608722321"><ele>23.0</ele><time>2026-04-25T09:12:53.958Z</time></trkpt><trkpt lat="43.716776526389" lon="10.902385245606286"><ele>23.0</ele><time>2026-04-25T09:12:54.958Z</time></trkpt><trkpt lat="43.71676130611307" lon="10.902190576442107"><ele>23.0</ele><time>2026-04-25T09:12:55.958Z</time></trkpt><trkpt lat="43.71674421717126" lon="10.90201634110954"><ele>23.0</ele><time>2026-04-25T09:12:56.958Z</time></trkpt><trkpt lat="43.716735812328125" lon="10.901850570997333"><ele>23.0</ele><time>2026-04-25T09:12:57.958Z</time></trkpt><trkpt lat="43.71671907342139" lon="10.901694922756711"><ele>23.2</ele><time>2026-04-25T09:12:58.959Z</time></trkpt><trkpt lat="43.716698157956" lon="10.90155077175613"><ele>23.4</ele><time>2026-04-25T09:12:59.959Z</time></trkpt><trkpt lat="43.71668520453677" lon="10.901403105785493"><ele>23.599999999999998</ele><time>2026-04-25T09:13:00.959Z</time></trkpt><trkpt lat="43.71667502920986" lon="10.901260594014845"><ele>23.799999999999997</ele><time>2026-04-25T09:13:01.959Z</time></trkpt><trkpt lat="43.71666427537615" lon="10.90115186077583"><ele>24.0</ele><time>2026-04-25T09:13:02.959Z</time></trkpt><trkpt lat="43.716658758862295" lon="10.901064638359044"><ele>24.0</ele><time>2026-04-25T09:13:03.959Z</time></trkpt><trkpt lat="43.71665906470672" lon="10.90095804860287"><ele>24.0</ele><time>2026-04-25T09:13:05.959Z</time></trkpt><trkpt lat="43.71663548323208" lon="10.900809725454524"><ele>24.0</ele><time>2026-04-25T09:13:11.959Z</time></trkpt><trkpt lat="43.716613949071586" lon="10.900707430339066"><ele>24.0</ele><time>2026-04-25T09:13:12.959Z</time></trkpt><trkpt lat="43.71659973388948" lon="10.900603021885535"><ele>24.0</ele><time>2026-04-25T09:13:13.959Z</time></trkpt><trkpt lat="43.71657373820071" lon="10.900478265128697"><ele>24.0</ele><time>2026-04-25T09:13:14.959Z</time></trkpt><trkpt lat="43.71654749097738" lon="10.900353454032116"><ele>24.0</ele><time>2026-04-25T09:13:15.959Z</time></trkpt><trkpt lat="43.71651991288281" lon="10.900219052792218"><ele>24.0</ele><time>2026-04-25T09:13:16.959Z</time></trkpt><trkpt lat="43.71649619542297" lon="10.900117872394333"><ele>24.0</ele><time>2026-04-25T09:13:17.959Z</time></trkpt><trkpt lat="43.716472990258936" lon="10.900014298757242"><ele>24.0</ele><time>2026-04-25T09:13:18.959Z</time></trkpt><trkpt lat="43.716451447229446" lon="10.899929713336325"><ele>24.0</ele><time>2026-04-25T09:13:19.959Z</time></trkpt><trkpt lat="43.716411624825106" lon="10.89977495307877"><ele>24.0</ele><time>2026-04-25T09:13:21.959Z</time></trkpt><trkpt lat="43.71639063258063" lon="10.899669053291248"><ele>23.833333333333332</ele><time>2026-04-25T09:13:23.959Z</time></trkpt><trkpt lat="43.71636870327045" lon="10.899563623077889"><ele>23.666666666666668</ele><time>2026-04-25T09:13:25.959Z</time></trkpt><trkpt lat="43.716347671167625" lon="10.899437209086026"><ele>23.5</ele><time>2026-04-25T09:13:28.959Z</time></trkpt><trkpt lat="43.71632566858158" lon="10.899289020701843"><ele>23.333333333333336</ele><time>2026-04-25T09:13:30.959Z</time></trkpt><trkpt lat="43.71630885462677" lon="10.899182040515948"><ele>23.166666666666668</ele><time>2026-04-25T09:13:31.959Z</time></trkpt><trkpt lat="43.716290808028944" lon="10.899072705184777"><ele>23.0</ele><time>2026-04-25T09:13:32.959Z</time></trkpt><trkpt lat="43.71626725673347" lon="10.898954242614835"><ele>22.799999999999997</ele><time>2026-04-25T09:13:33.959Z</time></trkpt><trkpt lat="43.71624383801482" lon="10.89883183248338"><ele>22.6</ele><time>2026-04-25T09:13:34.959Z</time></trkpt><trkpt lat="43.716221575994865" lon="10.898703237924456"><ele>22.4</ele><time>2026-04-25T09:13:35.959Z</time></trkpt><trkpt lat="43.71619874914102" lon="10.898564644497307"><ele>22.200000000000003</ele><time>2026-04-25T09:13:36.959Z</time></trkpt><trkpt lat="43.71617132564191" lon="10.898421741636868"><ele>22.0</ele><time>2026-04-25T09:13:37.959Z</time></trkpt><trkpt lat="43.71614364866412" lon="10.898278564220496"><ele>22.0</ele><time>2026-04-25T09:13:38.959Z</time></trkpt><trkpt lat="43.716119668657925" lon="10.898149304252156"><ele>22.0</ele><time>2026-04-25T09:13:39.959Z</time></trkpt><trkpt lat="43.7160954889648" lon="10.898029305513505"><ele>22.0</ele><time>2026-04-25T09:13:40.959Z</time></trkpt><trkpt lat="43.71606327160528" lon="10.89789825930498"><ele>22.0</ele><time>2026-04-25T09:13:41.959Z</time></trkpt><trkpt lat="43.7160384166123" lon="10.897770548988822"><ele>22.0</ele><time>2026-04-25T09:13:42.959Z</time></trkpt><trkpt lat="43.716009701092595" lon="10.897642391686079"><ele>22.166666666666664</ele><time>2026-04-25T09:13:43.959Z</time></trkpt><trkpt lat="43.71598241588478" lon="10.897527056766432"><ele>22.333333333333332</ele><time>2026-04-25T09:13:44.959Z</time></trkpt><trkpt lat="43.715957523895746" lon="10.89740695289926"><ele>22.5</ele><time>2026-04-25T09:13:45.959Z</time></trkpt><trkpt lat="43.715935425974905" lon="10.897308263377218"><ele>22.666666666666668</ele><time>2026-04-25T09:13:46.959Z</time></trkpt><trkpt lat="43.71590849168424" lon="10.897188403693972"><ele>22.833333333333336</ele><time>2026-04-25T09:13:47.959Z</time></trkpt><trkpt lat="43.715920745885455" lon="10.897055221741363"><ele>23.0</ele><time>2026-04-25T09:13:48.959Z</time></trkpt><trkpt lat="43.71589525937845" lon="10.896945922268403"><ele>23.0</ele><time>2026-04-25T09:13:49.959Z</time></trkpt><trkpt lat="43.71586796664687" lon="10.89682903242737"><ele>23.0</ele><time>2026-04-25T09:13:50.959Z</time></trkpt><trkpt lat="43.71582779524376" lon="10.8967299701606"><ele>23.0</ele><time>2026-04-25T09:13:51.959Z</time></trkpt><trkpt lat="43.715820695904526" lon="10.896625779240322"><ele>23.0</ele><time>2026-04-25T09:13:52.959Z</time></trkpt><trkpt lat="43.71579392152042" lon="10.896528719768783"><ele>23.0</ele><time>2026-04-25T09:13:53.959Z</time></trkpt><trkpt lat="43.71577007026963" lon="10.89644739094021"><ele>23.0</ele><time>2026-04-25T09:13:54.959Z</time></trkpt><trkpt lat="43.715732334354094" lon="10.896301060646893"><ele>22.833333333333336</ele><time>2026-04-25T09:13:56.96Z</time></trkpt><trkpt lat="43.71571689229716" lon="10.896193037878547"><ele>22.666666666666668</ele><time>2026-04-25T09:13:58.957Z</time></trkpt><trkpt lat="43.71569007261768" lon="10.896078937481107"><ele>22.5</ele><time>2026-04-25T09:14:00.956Z</time></trkpt><trkpt lat="43.7156576329084" lon="10.895975560889369"><ele>22.333333333333332</ele><time>2026-04-25T09:14:02.957Z</time></trkpt><trkpt lat="43.71563837881558" lon="10.895879006489059"><ele>22.166666666666664</ele><time>2026-04-25T09:14:04.957Z</time></trkpt><trkpt lat="43.715626120874184" lon="10.895769805932357"><ele>22.0</ele><time>2026-04-25T09:14:06.957Z</time></trkpt><trkpt lat="43.71561724804458" lon="10.895648500501833"><ele>22.0</ele><time>2026-04-25T09:14:08.957Z</time></trkpt><trkpt lat="43.7156095524429" lon="10.895518639260022"><ele>22.0</ele><time>2026-04-25T09:14:10.956Z</time></trkpt><trkpt lat="43.71561837955909" lon="10.895361746943678"><ele>22.0</ele><time>2026-04-25T09:14:12.956Z</time></trkpt><trkpt lat="43.71560769956851" lon="10.895190965239232"><ele>22.0</ele><time>2026-04-25T09:14:14.956Z</time></trkpt><trkpt lat="43.71560383003806" lon="10.895099099711091"><ele>22.0</ele><time>2026-04-25T09:14:15.956Z</time></trkpt><trkpt lat="43.715592668651" lon="10.894935239423061"><ele>22.0</ele><time>2026-04-25T09:14:17.957Z</time></trkpt><trkpt lat="43.71558765349832" lon="10.894763090576676"><ele>22.0</ele><time>2026-04-25T09:14:19.957Z</time></trkpt><trkpt lat="43.7155849237758" lon="10.894592830836105"><ele>22.0</ele><time>2026-04-25T09:14:21.957Z</time></trkpt><trkpt lat="43.715577129937884" lon="10.8945056232202"><ele>22.0</ele><time>2026-04-25T09:14:22.957Z</time></trkpt><trkpt lat="43.715577205942104" lon="10.894337960562067"><ele>22.0</ele><time>2026-04-25T09:14:24.957Z</time></trkpt><trkpt lat="43.715582568249246" lon="10.894250728506975"><ele>21.833333333333332</ele><time>2026-04-25T09:14:25.957Z</time></trkpt><trkpt lat="43.71558106343743" lon="10.89415668633327"><ele>21.666666666666664</ele><time>2026-04-25T09:14:26.957Z</time></trkpt><trkpt lat="43.71557976369361" lon="10.894060888570074"><ele>21.5</ele><time>2026-04-25T09:14:27.957Z</time></trkpt><trkpt lat="43.715594712130425" lon="10.89396950226245"><ele>21.333333333333332</ele><time>2026-04-25T09:14:28.957Z</time></trkpt><trkpt lat="43.71558874745703" lon="10.893879702055253"><ele>21.166666666666668</ele><time>2026-04-25T09:14:29.957Z</time></trkpt><trkpt lat="43.71558110661205" lon="10.893782295188238"><ele>21.0</ele><time>2026-04-25T09:14:30.957Z</time></trkpt><trkpt lat="43.71556414787262" lon="10.893609055378583"><ele>21.0</ele><time>2026-04-25T09:14:32.957Z</time></trkpt><trkpt lat="43.715550810791825" lon="10.893511567082022"><ele>21.0</ele><time>2026-04-25T09:14:33.957Z</time></trkpt><trkpt lat="43.71553878968387" lon="10.893407040641693"><ele>21.0</ele><time>2026-04-25T09:14:34.957Z</time></trkpt><trkpt lat="43.715527191945675" lon="10.893305828703205"><ele>21.0</ele><time>2026-04-25T09:14:35.957Z</time></trkpt><trkpt lat="43.71552170678819" lon="10.8932077200767"><ele>21.0</ele><time>2026-04-25T09:14:36.957Z</time></trkpt><trkpt lat="43.71551782504297" lon="10.893108568299324"><ele>21.0</ele><time>2026-04-25T09:14:37.957Z</time></trkpt><trkpt lat="43.715511867054154" lon="10.893008597424169"><ele>21.0</ele><time>2026-04-25T09:14:38.957Z</time></trkpt><trkpt lat="43.71550124134836" lon="10.892906462015594"><ele>20.857142857142858</ele><time>2026-04-25T09:14:39.957Z</time></trkpt><trkpt lat="43.71549404065576" lon="10.892810979304436"><ele>20.714285714285715</ele><time>2026-04-25T09:14:40.957Z</time></trkpt><trkpt lat="43.71548554985981" lon="10.89270761857075"><ele>20.57142857142857</ele><time>2026-04-25T09:14:41.957Z</time></trkpt><trkpt lat="43.71547551036859" lon="10.89260511199466"><ele>20.42857142857143</ele><time>2026-04-25T09:14:42.957Z</time></trkpt><trkpt lat="43.71546840958798" lon="10.89250853095805"><ele>20.285714285714285</ele><time>2026-04-25T09:14:43.957Z</time></trkpt><trkpt lat="43.71546316272002" lon="10.892414314904839"><ele>20.142857142857142</ele><time>2026-04-25T09:14:44.957Z</time></trkpt><trkpt lat="43.715456844257496" lon="10.892321314356566"><ele>20.0</ele><time>2026-04-25T09:14:45.957Z</time></trkpt><trkpt lat="43.71544705688881" lon="10.892228843378419"><ele>20.142857142857142</ele><time>2026-04-25T09:14:46.957Z</time></trkpt><trkpt lat="43.715433628605865" lon="10.892139818114059"><ele>20.285714285714285</ele><time>2026-04-25T09:14:47.957Z</time></trkpt><trkpt lat="43.71541108877164" lon="10.892054852758855"><ele>20.42857142857143</ele><time>2026-04-25T09:14:48.957Z</time></trkpt><trkpt lat="43.71538088741875" lon="10.891969396033574"><ele>20.57142857142857</ele><time>2026-04-25T09:14:49.957Z</time></trkpt><trkpt lat="43.715348989842354" lon="10.891890331321852"><ele>20.714285714285715</ele><time>2026-04-25T09:14:50.957Z</time></trkpt><trkpt lat="43.71530740489165" lon="10.891812350774403"><ele>20.857142857142858</ele><time>2026-04-25T09:14:51.957Z</time></trkpt><trkpt lat="43.71526119777241" lon="10.891738932249806"><ele>21.0</ele><time>2026-04-25T09:14:52.957Z</time></trkpt><trkpt lat="43.71521080953237" lon="10.891670129551844"><ele>21.0</ele><time>2026-04-25T09:14:53.957Z</time></trkpt><trkpt lat="43.71515280077968" lon="10.891607021529733"><ele>21.0</ele><time>2026-04-25T09:14:54.957Z</time></trkpt><trkpt lat="43.715097431725034" lon="10.891560152750994"><ele>21.0</ele><time>2026-04-25T09:14:55.957Z</time></trkpt><trkpt lat="43.7150287303475" lon="10.891452313932644"><ele>21.0</ele><time>2026-04-25T09:14:57.957Z</time></trkpt><trkpt lat="43.71501380269234" lon="10.89133017882639"><ele>21.0</ele><time>2026-04-25T09:14:59.957Z</time></trkpt><trkpt lat="43.71503442925001" lon="10.891204998171474"><ele>21.0</ele><time>2026-04-25T09:15:01.957Z</time></trkpt><trkpt lat="43.7150417707995" lon="10.891055988499422"><ele>21.0</ele><time>2026-04-25T09:15:03.957Z</time></trkpt><trkpt lat="43.71504917892607" lon="10.890871643835233"><ele>21.0</ele><time>2026-04-25T09:15:05.957Z</time></trkpt><trkpt lat="43.71504590539595" lon="10.890770000477012"><ele>21.0</ele><time>2026-04-25T09:15:06.957Z</time></trkpt><trkpt lat="43.71504097188705" lon="10.890663100257422"><ele>21.0</ele><time>2026-04-25T09:15:07.957Z</time></trkpt><trkpt lat="43.715031807901184" lon="10.890566481361892"><ele>21.0</ele><time>2026-04-25T09:15:08.957Z</time></trkpt><trkpt lat="43.71501945520622" lon="10.89047101744322"><ele>21.0</ele><time>2026-04-25T09:15:09.957Z</time></trkpt><trkpt lat="43.71500219018459" lon="10.89037618822962"><ele>21.0</ele><time>2026-04-25T09:15:10.957Z</time></trkpt><trkpt lat="43.714974915944325" lon="10.890265929977271"><ele>21.0</ele><time>2026-04-25T09:15:11.957Z</time></trkpt><trkpt lat="43.71494755225154" lon="10.890158969444627"><ele>21.0</ele><time>2026-04-25T09:15:12.957Z</time></trkpt><trkpt lat="43.714921802898814" lon="10.890064156454178"><ele>21.0</ele><time>2026-04-25T09:15:13.958Z</time></trkpt><trkpt lat="43.714891154756835" lon="10.889962876719123"><ele>21.0</ele><time>2026-04-25T09:15:14.958Z</time></trkpt><trkpt lat="43.714858030018085" lon="10.889870555550974"><ele>21.0</ele><time>2026-04-25T09:15:15.958Z</time></trkpt><trkpt lat="43.714825564174106" lon="10.889787175563706"><ele>21.0</ele><time>2026-04-25T09:15:16.958Z</time></trkpt><trkpt lat="43.714769529494596" lon="10.889624904210619"><ele>21.0</ele><time>2026-04-25T09:15:18.958Z</time></trkpt><trkpt lat="43.7147397126424" lon="10.889544023666321"><ele>21.0</ele><time>2026-04-25T09:15:19.958Z</time></trkpt><trkpt lat="43.71470458073568" lon="10.889456271932142"><ele>21.0</ele><time>2026-04-25T09:15:20.958Z</time></trkpt><trkpt lat="43.71467131387777" lon="10.889365912053055"><ele>21.0</ele><time>2026-04-25T09:15:21.958Z</time></trkpt><trkpt lat="43.71464980102495" lon="10.889257940775433"><ele>21.0</ele><time>2026-04-25T09:15:22.958Z</time></trkpt><trkpt lat="43.71461366821377" lon="10.889166818888254"><ele>21.285714285714285</ele><time>2026-04-25T09:15:23.958Z</time></trkpt><trkpt lat="43.714576348884314" lon="10.889072568676799"><ele>21.57142857142857</ele><time>2026-04-25T09:15:24.958Z</time></trkpt><trkpt lat="43.714541236152535" lon="10.888977903230197"><ele>21.857142857142858</ele><time>2026-04-25T09:15:25.958Z</time></trkpt><trkpt lat="43.71451090666616" lon="10.888886774028034"><ele>22.142857142857142</ele><time>2026-04-25T09:15:26.958Z</time></trkpt><trkpt lat="43.71447923553195" lon="10.888792725020734"><ele>22.428571428571427</ele><time>2026-04-25T09:15:27.958Z</time></trkpt><trkpt lat="43.71445489058491" lon="10.888708396176293"><ele>22.714285714285715</ele><time>2026-04-25T09:15:28.958Z</time></trkpt><trkpt lat="43.71441941160844" lon="10.888620930669536"><ele>23.0</ele><time>2026-04-25T09:15:29.958Z</time></trkpt><trkpt lat="43.71438286786332" lon="10.888546513479692"><ele>23.0</ele><time>2026-04-25T09:15:30.958Z</time></trkpt><trkpt lat="43.71433620283462" lon="10.888479771788887"><ele>23.0</ele><time>2026-04-25T09:15:31.958Z</time></trkpt><trkpt lat="43.71427489664471" lon="10.88842365994173"><ele>23.0</ele><time>2026-04-25T09:15:32.958Z</time></trkpt><trkpt lat="43.71421124889576" lon="10.88838851371624"><ele>23.0</ele><time>2026-04-25T09:15:33.958Z</time></trkpt><trkpt lat="43.714132625350175" lon="10.888326039361173"><ele>23.0</ele><time>2026-04-25T09:15:35.958Z</time></trkpt><trkpt lat="43.71407600080743" lon="10.88821410953576"><ele>23.0</ele><time>2026-04-25T09:15:43.958Z</time></trkpt><trkpt lat="43.71394540692762" lon="10.888324374935229"><ele>23.0</ele><time>2026-04-25T09:15:44.958Z</time></trkpt><trkpt lat="43.713830968118614" lon="10.888394442223875"><ele>23.0</ele><time>2026-04-25T09:15:45.958Z</time></trkpt><trkpt lat="43.713711704942156" lon="10.88846003272633"><ele>23.0</ele><time>2026-04-25T09:15:46.958Z</time></trkpt><trkpt lat="43.713597772625754" lon="10.888522639968707"><ele>23.0</ele><time>2026-04-25T09:15:47.958Z</time></trkpt><trkpt lat="43.7134900383577" lon="10.888558520279135"><ele>23.0</ele><time>2026-04-25T09:15:48.958Z</time></trkpt><trkpt lat="43.71339419977736" lon="10.888553200506053"><ele>23.0</ele><time>2026-04-25T09:15:49.958Z</time></trkpt><trkpt lat="43.71324226939792" lon="10.88841105571913"><ele>23.0</ele><time>2026-04-25T09:15:51.958Z</time></trkpt><trkpt lat="43.71317791895822" lon="10.888306750467432"><ele>23.0</ele><time>2026-04-25T09:15:52.958Z</time></trkpt><trkpt lat="43.713122781461" lon="10.88815542797092"><ele>23.0</ele><time>2026-04-25T09:15:53.958Z</time></trkpt><trkpt lat="43.713078366784245" lon="10.887974350764093"><ele>23.0</ele><time>2026-04-25T09:15:54.958Z</time></trkpt><trkpt lat="43.713038221110835" lon="10.88777795419519"><ele>23.0</ele><time>2026-04-25T09:15:55.958Z</time></trkpt><trkpt lat="43.712993060520986" lon="10.887575639468414"><ele>23.0</ele><time>2026-04-25T09:15:56.958Z</time></trkpt><trkpt lat="43.71294468263746" lon="10.887361341530147"><ele>23.0</ele><time>2026-04-25T09:15:57.958Z</time></trkpt><trkpt lat="43.71289177029141" lon="10.887141239914762"><ele>23.0</ele><time>2026-04-25T09:15:58.958Z</time></trkpt><trkpt lat="43.71283973940201" lon="10.886916123539752"><ele>23.0</ele><time>2026-04-25T09:15:59.958Z</time></trkpt><trkpt lat="43.712788972078876" lon="10.886682588475088"><ele>23.0</ele><time>2026-04-25T09:16:00.958Z</time></trkpt><trkpt lat="43.71273743433151" lon="10.886443773582574"><ele>23.0</ele><time>2026-04-25T09:16:01.958Z</time></trkpt><trkpt lat="43.71267959048191" lon="10.88620686208903"><ele>23.0</ele><time>2026-04-25T09:16:02.958Z</time></trkpt><trkpt lat="43.71262056630936" lon="10.885978758032847"><ele>23.333333333333336</ele><time>2026-04-25T09:16:03.956Z</time></trkpt><trkpt lat="43.71256063246514" lon="10.885741312800388"><ele>23.666666666666668</ele><time>2026-04-25T09:16:04.955Z</time></trkpt><trkpt lat="43.71250196543924" lon="10.88549794046447"><ele>24.0</ele><time>2026-04-25T09:16:05.955Z</time></trkpt><trkpt lat="43.71244404925497" lon="10.885258654502493"><ele>23.666666666666668</ele><time>2026-04-25T09:16:06.955Z</time></trkpt><trkpt lat="43.712385834392016" lon="10.885017071611312"><ele>23.333333333333336</ele><time>2026-04-25T09:16:07.956Z</time></trkpt><trkpt lat="43.71232372144614" lon="10.884775110925064"><ele>23.0</ele><time>2026-04-25T09:16:08.956Z</time></trkpt><trkpt lat="43.712262637613215" lon="10.884533030083483"><ele>23.0</ele><time>2026-04-25T09:16:09.955Z</time></trkpt><trkpt lat="43.712202981879024" lon="10.884292287989828"><ele>23.0</ele><time>2026-04-25T09:16:10.955Z</time></trkpt><trkpt lat="43.71214310633679" lon="10.884056147914137"><ele>23.0</ele><time>2026-04-25T09:16:11.955Z</time></trkpt><trkpt lat="43.712087636991285" lon="10.883824562250659"><ele>22.666666666666668</ele><time>2026-04-25T09:16:12.956Z</time></trkpt><trkpt lat="43.71203040888448" lon="10.883590471080923"><ele>22.333333333333332</ele><time>2026-04-25T09:16:13.955Z</time></trkpt><trkpt lat="43.71197439191276" lon="10.883351500820405"><ele>22.0</ele><time>2026-04-25T09:16:14.955Z</time></trkpt><trkpt lat="43.71191544052639" lon="10.883109925379678"><ele>22.333333333333332</ele><time>2026-04-25T09:16:15.955Z</time></trkpt><trkpt lat="43.711856642672664" lon="10.882871492932901"><ele>22.666666666666668</ele><time>2026-04-25T09:16:16.955Z</time></trkpt><trkpt lat="43.711793027082585" lon="10.882622938553057"><ele>23.0</ele><time>2026-04-25T09:16:17.955Z</time></trkpt><trkpt lat="43.71172507550434" lon="10.882350998820147"><ele>23.0</ele><time>2026-04-25T09:16:18.955Z</time></trkpt><trkpt lat="43.711650355812075" lon="10.882055190532697"><ele>23.0</ele><time>2026-04-25T09:16:19.955Z</time></trkpt><trkpt lat="43.71157277159764" lon="10.881742454217418"><ele>23.0</ele><time>2026-04-25T09:16:20.955Z</time></trkpt><trkpt lat="43.71150285231913" lon="10.88145472785438"><ele>23.0</ele><time>2026-04-25T09:16:21.955Z</time></trkpt><trkpt lat="43.711444054806385" lon="10.881203863810581"><ele>23.0</ele><time>2026-04-25T09:16:22.955Z</time></trkpt><trkpt lat="43.711395913096986" lon="10.880979764204616"><ele>22.666666666666668</ele><time>2026-04-25T09:16:23.955Z</time></trkpt><trkpt lat="43.71136286308806" lon="10.880760937707967"><ele>22.333333333333332</ele><time>2026-04-25T09:16:24.955Z</time></trkpt><trkpt lat="43.711354221070586" lon="10.880543586485686"><ele>22.0</ele><time>2026-04-25T09:16:25.955Z</time></trkpt><trkpt lat="43.71136151227286" lon="10.88034154838633"><ele>22.0</ele><time>2026-04-25T09:16:26.955Z</time></trkpt><trkpt lat="43.711388048254605" lon="10.88013568485498"><ele>22.0</ele><time>2026-04-25T09:16:27.955Z</time></trkpt><trkpt lat="43.711430490788835" lon="10.87994949868333"><ele>22.0</ele><time>2026-04-25T09:16:28.955Z</time></trkpt><trkpt lat="43.711473571280116" lon="10.87979837051696"><ele>22.0</ele><time>2026-04-25T09:16:29.955Z</time></trkpt><trkpt lat="43.71151429951933" lon="10.879658477796998"><ele>22.0</ele><time>2026-04-25T09:16:30.955Z</time></trkpt><trkpt lat="43.711571708100564" lon="10.87951591263329"><ele>22.0</ele><time>2026-04-25T09:16:31.955Z</time></trkpt><trkpt lat="43.71161683420855" lon="10.879359610927965"><ele>22.0</ele><time>2026-04-25T09:16:32.955Z</time></trkpt><trkpt lat="43.711658781002996" lon="10.879198488458268"><ele>22.0</ele><time>2026-04-25T09:16:33.955Z</time></trkpt><trkpt lat="43.71169981569205" lon="10.87903589165195"><ele>22.0</ele><time>2026-04-25T09:16:34.955Z</time></trkpt><trkpt lat="43.711746416284" lon="10.878874259087498"><ele>22.0</ele><time>2026-04-25T09:16:35.955Z</time></trkpt><trkpt lat="43.71178825430125" lon="10.878712574632772"><ele>22.0</ele><time>2026-04-25T09:16:36.955Z</time></trkpt><trkpt lat="43.71184671587841" lon="10.87855733242822"><ele>22.0</ele><time>2026-04-25T09:16:37.955Z</time></trkpt><trkpt lat="43.711880839855695" lon="10.878395661645305"><ele>22.5</ele><time>2026-04-25T09:16:38.956Z</time></trkpt><trkpt lat="43.711911975716724" lon="10.878243459926619"><ele>23.0</ele><time>2026-04-25T09:16:39.956Z</time></trkpt><trkpt lat="43.71194243725372" lon="10.878100403332418"><ele>23.5</ele><time>2026-04-25T09:16:40.956Z</time></trkpt><trkpt lat="43.71196234571257" lon="10.877946835146249"><ele>24.0</ele><time>2026-04-25T09:16:41.956Z</time></trkpt><trkpt lat="43.711965992324366" lon="10.877777570327948"><ele>24.0</ele><time>2026-04-25T09:16:42.956Z</time></trkpt><trkpt lat="43.711952742351" lon="10.877598529245628"><ele>24.0</ele><time>2026-04-25T09:16:43.956Z</time></trkpt><trkpt lat="43.71194684720162" lon="10.877417431596726"><ele>24.0</ele><time>2026-04-25T09:16:44.956Z</time></trkpt><trkpt lat="43.71188803608662" lon="10.877251149094905"><ele>24.0</ele><time>2026-04-25T09:16:45.956Z</time></trkpt><trkpt lat="43.71182861537395" lon="10.877091067193264"><ele>24.25</ele><time>2026-04-25T09:16:46.956Z</time></trkpt><trkpt lat="43.71177011771089" lon="10.876924921445013"><ele>24.5</ele><time>2026-04-25T09:16:47.956Z</time></trkpt><trkpt lat="43.71172042725278" lon="10.876747441274453"><ele>24.75</ele><time>2026-04-25T09:16:48.956Z</time></trkpt><trkpt lat="43.711653894786366" lon="10.876570720534207"><ele>25.0</ele><time>2026-04-25T09:16:49.956Z</time></trkpt><trkpt lat="43.71157749018965" lon="10.876395986867129"><ele>25.333333333333336</ele><time>2026-04-25T09:16:50.956Z</time></trkpt><trkpt lat="43.71152579419023" lon="10.876199864579128"><ele>25.666666666666664</ele><time>2026-04-25T09:16:51.956Z</time></trkpt><trkpt lat="43.71150110531131" lon="10.875992693548145"><ele>26.0</ele><time>2026-04-25T09:16:52.956Z</time></trkpt><trkpt lat="43.71145741582048" lon="10.875791162582821"><ele>26.0</ele><time>2026-04-25T09:16:53.956Z</time></trkpt><trkpt lat="43.71140313774878" lon="10.875600059096197"><ele>26.0</ele><time>2026-04-25T09:16:54.956Z</time></trkpt><trkpt lat="43.71135952809504" lon="10.875414150735097"><ele>26.0</ele><time>2026-04-25T09:16:55.956Z</time></trkpt><trkpt lat="43.71131464125847" lon="10.875239042963745"><ele>26.0</ele><time>2026-04-25T09:16:56.956Z</time></trkpt><trkpt lat="43.71126422243104" lon="10.87507899574529"><ele>25.75</ele><time>2026-04-25T09:16:57.956Z</time></trkpt><trkpt lat="43.71121320834142" lon="10.874931423763694"><ele>25.5</ele><time>2026-04-25T09:16:58.956Z</time></trkpt><trkpt lat="43.711151852112685" lon="10.87479543611794"><ele>25.25</ele><time>2026-04-25T09:16:59.956Z</time></trkpt><trkpt lat="43.711076635026416" lon="10.874668110045672"><ele>25.0</ele><time>2026-04-25T09:17:00.956Z</time></trkpt><trkpt lat="43.71097179040038" lon="10.874573666104952"><ele>24.75</ele><time>2026-04-25T09:17:01.956Z</time></trkpt><trkpt lat="43.71084981568128" lon="10.874490280179213"><ele>24.5</ele><time>2026-04-25T09:17:02.956Z</time></trkpt><trkpt lat="43.71071651392775" lon="10.874398330031845"><ele>24.25</ele><time>2026-04-25T09:17:03.956Z</time></trkpt><trkpt lat="43.710579580508735" lon="10.874308482236048"><ele>24.0</ele><time>2026-04-25T09:17:04.956Z</time></trkpt><trkpt lat="43.710430069274395" lon="10.874223849462327"><ele>23.333333333333332</ele><time>2026-04-25T09:17:05.956Z</time></trkpt><trkpt lat="43.710283036990106" lon="10.874129954044946"><ele>22.666666666666664</ele><time>2026-04-25T09:17:06.956Z</time></trkpt><trkpt lat="43.710126959467665" lon="10.874033529107953"><ele>22.0</ele><time>2026-04-25T09:17:07.956Z</time></trkpt><trkpt lat="43.70997264508224" lon="10.873937583407997"><ele>22.0</ele><time>2026-04-25T09:17:08.956Z</time></trkpt><trkpt lat="43.70981647621487" lon="10.873841329703536"><ele>22.0</ele><time>2026-04-25T09:17:09.956Z</time></trkpt><trkpt lat="43.709658535095855" lon="10.873746916746514"><ele>22.0</ele><time>2026-04-25T09:17:10.956Z</time></trkpt><trkpt lat="43.709498845551984" lon="10.873651984054257"><ele>22.666666666666664</ele><time>2026-04-25T09:17:11.956Z</time></trkpt><trkpt lat="43.70933976930477" lon="10.873554299278236"><ele>23.333333333333332</ele><time>2026-04-25T09:17:12.956Z</time></trkpt><trkpt lat="43.70917693638885" lon="10.873458001492766"><ele>24.0</ele><time>2026-04-25T09:17:13.956Z</time></trkpt><trkpt lat="43.709010759008166" lon="10.87336176713033"><ele>24.0</ele><time>2026-04-25T09:17:14.956Z</time></trkpt><trkpt lat="43.70884160983082" lon="10.873264520747497"><ele>24.0</ele><time>2026-04-25T09:17:15.956Z</time></trkpt><trkpt lat="43.70866817264517" lon="10.873163839495328"><ele>24.0</ele><time>2026-04-25T09:17:16.956Z</time></trkpt><trkpt lat="43.708499053252446" lon="10.87306692426873"><ele>23.666666666666668</ele><time>2026-04-25T09:17:17.956Z</time></trkpt><trkpt lat="43.70832980344954" lon="10.872967951157118"><ele>23.333333333333336</ele><time>2026-04-25T09:17:18.956Z</time></trkpt><trkpt lat="43.70816270088351" lon="10.872869785329364"><ele>23.0</ele><time>2026-04-25T09:17:19.956Z</time></trkpt><trkpt lat="43.70799069467214" lon="10.87277642176152"><ele>23.0</ele><time>2026-04-25T09:17:20.956Z</time></trkpt><trkpt lat="43.70783163720324" lon="10.872686898752182"><ele>23.0</ele><time>2026-04-25T09:17:21.956Z</time></trkpt><trkpt lat="43.70767939399282" lon="10.872600636895733"><ele>23.0</ele><time>2026-04-25T09:17:22.956Z</time></trkpt><trkpt lat="43.70753321141611" lon="10.872520707352935"><ele>23.5</ele><time>2026-04-25T09:17:23.956Z</time></trkpt><trkpt lat="43.70740457572996" lon="10.872444682571924"><ele>24.0</ele><time>2026-04-25T09:17:24.956Z</time></trkpt><trkpt lat="43.70728459280867" lon="10.87236521577359"><ele>24.5</ele><time>2026-04-25T09:17:25.956Z</time></trkpt><trkpt lat="43.70718002723449" lon="10.872269485283127"><ele>25.0</ele><time>2026-04-25T09:17:26.956Z</time></trkpt><trkpt lat="43.70708277514957" lon="10.872152360922183"><ele>25.0</ele><time>2026-04-25T09:17:27.956Z</time></trkpt><trkpt lat="43.707011455791864" lon="10.872001854013279"><ele>25.0</ele><time>2026-04-25T09:17:28.956Z</time></trkpt><trkpt lat="43.706958688352294" lon="10.87189712925132"><ele>25.0</ele><time>2026-04-25T09:17:29.956Z</time></trkpt><trkpt lat="43.706934119637324" lon="10.872031138753574"><ele>25.0</ele><time>2026-04-25T09:17:33.956Z</time></trkpt><trkpt lat="43.70688923281818" lon="10.872123070386278"><ele>25.0</ele><time>2026-04-25T09:17:35.957Z</time></trkpt><trkpt lat="43.70698091083956" lon="10.872235514884602"><ele>25.0</ele><time>2026-04-25T09:17:37.957Z</time></trkpt><trkpt lat="43.707054628150395" lon="10.872287805779212"><ele>25.0</ele><time>2026-04-25T09:17:38.957Z</time></trkpt><trkpt lat="43.707146261104405" lon="10.872338325755925"><ele>25.0</ele><time>2026-04-25T09:17:39.957Z</time></trkpt><trkpt lat="43.7072542831748" lon="10.8724026331153"><ele>25.0</ele><time>2026-04-25T09:17:40.957Z</time></trkpt><trkpt lat="43.70735320810944" lon="10.87246853147001"><ele>25.0</ele><time>2026-04-25T09:17:41.957Z</time></trkpt><trkpt lat="43.707451207407324" lon="10.87251990615263"><ele>25.000000000000004</ele><time>2026-04-25T09:17:42.957Z</time></trkpt><trkpt lat="43.70753450669639" lon="10.872561152772514"><ele>25.0</ele><time>2026-04-25T09:17:43.957Z</time></trkpt><trkpt lat="43.707625188029475" lon="10.872610242357304"><ele>25.0</ele><time>2026-04-25T09:17:45.957Z</time></trkpt><trkpt lat="43.70769790469093" lon="10.872525537609812"><ele>25.0</ele><time>2026-04-25T09:17:46.957Z</time></trkpt><trkpt lat="43.70774326303572" lon="10.872441976059555"><ele>25.000000000000004</ele><time>2026-04-25T09:17:47.957Z</time></trkpt><trkpt lat="43.70779216497677" lon="10.872335880427704"><ele>25.0</ele><time>2026-04-25T09:17:48.957Z</time></trkpt><trkpt lat="43.707831312311754" lon="10.872210511579507"><ele>24.5</ele><time>2026-04-25T09:17:49.957Z</time></trkpt><trkpt lat="43.707890901130035" lon="10.872082790088017"><ele>24.0</ele><time>2026-04-25T09:17:50.957Z</time></trkpt><trkpt lat="43.70796722920427" lon="10.87195247463712"><ele>23.5</ele><time>2026-04-25T09:17:51.957Z</time></trkpt><trkpt lat="43.70803344080166" lon="10.871811790664196"><ele>23.0</ele><time>2026-04-25T09:17:52.957Z</time></trkpt><trkpt lat="43.708101485873335" lon="10.871666445054254"><ele>23.0</ele><time>2026-04-25T09:17:53.957Z</time></trkpt><trkpt lat="43.70817247081178" lon="10.871517413220069"><ele>23.0</ele><time>2026-04-25T09:17:54.957Z</time></trkpt><trkpt lat="43.70824670962954" lon="10.871361465952697"><ele>23.0</ele><time>2026-04-25T09:17:55.957Z</time></trkpt><trkpt lat="43.708311573061884" lon="10.871208465330394"><ele>23.0</ele><time>2026-04-25T09:17:56.957Z</time></trkpt><trkpt lat="43.708372511109744" lon="10.871048553919872"><ele>23.0</ele><time>2026-04-25T09:17:57.957Z</time></trkpt><trkpt lat="43.70845388340841" lon="10.870898094767957"><ele>23.0</ele><time>2026-04-25T09:17:58.957Z</time></trkpt><trkpt lat="43.70851896071074" lon="10.870728496410427"><ele>23.0</ele><time>2026-04-25T09:17:59.957Z</time></trkpt><trkpt lat="43.70858186723479" lon="10.870556066687701"><ele>23.0</ele><time>2026-04-25T09:18:00.957Z</time></trkpt><trkpt lat="43.708644769759076" lon="10.870372653100725"><ele>23.0</ele><time>2026-04-25T09:18:01.957Z</time></trkpt><trkpt lat="43.70870592980091" lon="10.870186197414702"><ele>23.0</ele><time>2026-04-25T09:18:02.957Z</time></trkpt><trkpt lat="43.70875988402658" lon="10.870011949170205"><ele>23.0</ele><time>2026-04-25T09:18:03.957Z</time></trkpt><trkpt lat="43.708807927579045" lon="10.8698454248262"><ele>23.0</ele><time>2026-04-25T09:18:04.957Z</time></trkpt><trkpt lat="43.70884699610226" lon="10.869687382679277"><ele>23.0</ele><time>2026-04-25T09:18:05.957Z</time></trkpt><trkpt lat="43.708876886926674" lon="10.869552128238345"><ele>23.0</ele><time>2026-04-25T09:18:06.957Z</time></trkpt><trkpt lat="43.70888353805569" lon="10.869408956689806"><ele>23.0</ele><time>2026-04-25T09:18:07.957Z</time></trkpt><trkpt lat="43.70887896086656" lon="10.869262758556852"><ele>23.0</ele><time>2026-04-25T09:18:08.957Z</time></trkpt><trkpt lat="43.708870665903646" lon="10.869090133927799"><ele>23.0</ele><time>2026-04-25T09:18:09.954Z</time></trkpt><trkpt lat="43.70885551131191" lon="10.868897901328173"><ele>23.0</ele><time>2026-04-25T09:18:10.954Z</time></trkpt><trkpt lat="43.70883826975875" lon="10.868701083787975"><ele>23.0</ele><time>2026-04-25T09:18:11.954Z</time></trkpt><trkpt lat="43.70882134437577" lon="10.868511469339042"><ele>23.0</ele><time>2026-04-25T09:18:12.954Z</time></trkpt><trkpt lat="43.708805701135596" lon="10.868320261848371"><ele>23.0</ele><time>2026-04-25T09:18:13.954Z</time></trkpt><trkpt lat="43.70879258550127" lon="10.868157635270618"><ele>23.0</ele><time>2026-04-25T09:18:14.954Z</time></trkpt><trkpt lat="43.708781523767556" lon="10.868024990643788"><ele>23.0</ele><time>2026-04-25T09:18:15.954Z</time></trkpt><trkpt lat="43.70875551243685" lon="10.86791951406158"><ele>23.0</ele><time>2026-04-25T09:18:16.955Z</time></trkpt><trkpt lat="43.708749271340615" lon="10.867824246244066"><ele>23.0</ele><time>2026-04-25T09:18:17.955Z</time></trkpt><trkpt lat="43.708747334517916" lon="10.86767838237729"><ele>23.0</ele><time>2026-04-25T09:18:19.954Z</time></trkpt><trkpt lat="43.7087313758482" lon="10.867579684029707"><ele>23.0</ele><time>2026-04-25T09:18:22.954Z</time></trkpt><trkpt lat="43.70880115391046" lon="10.867499534262844"><ele>23.2</ele><time>2026-04-25T09:18:26.954Z</time></trkpt><trkpt lat="43.708901802521595" lon="10.867418735562138"><ele>23.4</ele><time>2026-04-25T09:18:28.955Z</time></trkpt><trkpt lat="43.70897563473948" lon="10.867368290483814"><ele>23.599999999999998</ele><time>2026-04-25T09:18:29.955Z</time></trkpt><trkpt lat="43.7090594693935" lon="10.867306865652964"><ele>23.799999999999997</ele><time>2026-04-25T09:18:30.955Z</time></trkpt><trkpt lat="43.709137912527815" lon="10.867248748663306"><ele>24.0</ele><time>2026-04-25T09:18:31.955Z</time></trkpt><trkpt lat="43.70921819197712" lon="10.867195243532816"><ele>24.0</ele><time>2026-04-25T09:18:32.955Z</time></trkpt><trkpt lat="43.70930168731053" lon="10.86713382751125"><ele>24.0</ele><time>2026-04-25T09:18:33.955Z</time></trkpt><trkpt lat="43.709375851036896" lon="10.867081697237804"><ele>24.0</ele><time>2026-04-25T09:18:34.955Z</time></trkpt><trkpt lat="43.709445360830465" lon="10.867031490368385"><ele>24.0</ele><time>2026-04-25T09:18:35.955Z</time></trkpt><trkpt lat="43.70951865643795" lon="10.866981029975445"><ele>24.0</ele><time>2026-04-25T09:18:36.955Z</time></trkpt><trkpt lat="43.70958525323955" lon="10.866924391304904"><ele>24.0</ele><time>2026-04-25T09:18:37.955Z</time></trkpt><trkpt lat="43.70965679655779" lon="10.866860014009855"><ele>23.799999999999997</ele><time>2026-04-25T09:18:38.955Z</time></trkpt><trkpt lat="43.70972057241007" lon="10.866794864517605"><ele>23.599999999999998</ele><time>2026-04-25T09:18:39.955Z</time></trkpt><trkpt lat="43.70977028182982" lon="10.86673953578163"><ele>23.4</ele><time>2026-04-25T09:18:40.955Z</time></trkpt><trkpt lat="43.7098624767052" lon="10.866639402013764"><ele>23.2</ele><time>2026-04-25T09:18:42.955Z</time></trkpt><trkpt lat="43.70998794415325" lon="10.866559954719445"><ele>23.0</ele><time>2026-04-25T09:18:44.955Z</time></trkpt><trkpt lat="43.71007307301471" lon="10.866500956572951"><ele>23.0</ele><time>2026-04-25T09:18:45.955Z</time></trkpt><trkpt lat="43.71017730028022" lon="10.866463398540704"><ele>23.0</ele><time>2026-04-25T09:18:46.955Z</time></trkpt><trkpt lat="43.710280296291856" lon="10.866410764196658"><ele>23.0</ele><time>2026-04-25T09:18:47.955Z</time></trkpt><trkpt lat="43.710361454372915" lon="10.866321881768165"><ele>23.0</ele><time>2026-04-25T09:18:48.955Z</time></trkpt><trkpt lat="43.710441238408556" lon="10.866266172353118"><ele>23.0</ele><time>2026-04-25T09:18:49.955Z</time></trkpt><trkpt lat="43.71052149852803" lon="10.866251090070818"><ele>23.0</ele><time>2026-04-25T09:18:50.955Z</time></trkpt><trkpt lat="43.710598317088284" lon="10.866226132004092"><ele>23.0</ele><time>2026-04-25T09:18:51.955Z</time></trkpt><trkpt lat="43.71067460264078" lon="10.866204277819143"><ele>23.0</ele><time>2026-04-25T09:18:52.955Z</time></trkpt><trkpt lat="43.71075273161226" lon="10.86618314335067"><ele>23.0</ele><time>2026-04-25T09:18:53.955Z</time></trkpt><trkpt lat="43.71082280582729" lon="10.866143210978755"><ele>23.0</ele><time>2026-04-25T09:18:54.955Z</time></trkpt><trkpt lat="43.71090305373119" lon="10.866150693846846"><ele>23.0</ele><time>2026-04-25T09:18:56.955Z</time></trkpt><trkpt lat="43.71103965263693" lon="10.866116528364056"><ele>23.25</ele><time>2026-04-25T09:19:32.956Z</time></trkpt><trkpt lat="43.71113139987799" lon="10.866103487992836"><ele>23.5</ele><time>2026-04-25T09:19:33.956Z</time></trkpt><trkpt lat="43.71123883304749" lon="10.86609764904919"><ele>23.75</ele><time>2026-04-25T09:19:34.956Z</time></trkpt><trkpt lat="43.71136232459255" lon="10.866095653833472"><ele>24.0</ele><time>2026-04-25T09:19:35.956Z</time></trkpt><trkpt lat="43.71149359657865" lon="10.86609242624574"><ele>24.0</ele><time>2026-04-25T09:19:36.956Z</time></trkpt><trkpt lat="43.711635566056" lon="10.866101547609048"><ele>24.0</ele><time>2026-04-25T09:19:37.956Z</time></trkpt><trkpt lat="43.71177054542934" lon="10.866109732024306"><ele>24.0</ele><time>2026-04-25T09:19:38.956Z</time></trkpt><trkpt lat="43.71188651855382" lon="10.86612448412398"><ele>24.0</ele><time>2026-04-25T09:19:39.956Z</time></trkpt><trkpt lat="43.71198441664352" lon="10.866148124399878"><ele>23.6</ele><time>2026-04-25T09:19:40.956Z</time></trkpt><trkpt lat="43.712065207571946" lon="10.86616873207574"><ele>23.2</ele><time>2026-04-25T09:19:41.956Z</time></trkpt><trkpt lat="43.71213891801658" lon="10.866183735788566"><ele>22.8</ele><time>2026-04-25T09:19:43.956Z</time></trkpt><trkpt lat="43.71219976419785" lon="10.866025417727792"><ele>22.400000000000002</ele><time>2026-04-25T09:19:47.956Z</time></trkpt><trkpt lat="43.71217448693374" lon="10.865899102145741"><ele>22.0</ele><time>2026-04-25T09:19:48.956Z</time></trkpt><trkpt lat="43.71216050739812" lon="10.865771594811829"><ele>21.75</ele><time>2026-04-25T09:19:49.956Z</time></trkpt><trkpt lat="43.71214750592751" lon="10.865619791394376"><ele>21.5</ele><time>2026-04-25T09:19:50.956Z</time></trkpt><trkpt lat="43.71213416174265" lon="10.865452717651317"><ele>21.25</ele><time>2026-04-25T09:19:51.956Z</time></trkpt><trkpt lat="43.71212411896832" lon="10.865274889639165"><ele>21.0</ele><time>2026-04-25T09:19:52.956Z</time></trkpt><trkpt lat="43.71212603178938" lon="10.865093090041798"><ele>21.5</ele><time>2026-04-25T09:19:53.956Z</time></trkpt><trkpt lat="43.71213974087724" lon="10.86491437582142"><ele>22.0</ele><time>2026-04-25T09:19:54.956Z</time></trkpt><trkpt lat="43.712165597105646" lon="10.864751802743736"><ele>22.5</ele><time>2026-04-25T09:19:55.956Z</time></trkpt><trkpt lat="43.71220066996782" lon="10.86459992872055"><ele>23.0</ele><time>2026-04-25T09:19:56.956Z</time></trkpt><trkpt lat="43.71223355336294" lon="10.86445636658599"><ele>23.0</ele><time>2026-04-25T09:19:57.956Z</time></trkpt><trkpt lat="43.71226266597018" lon="10.864310029321219"><ele>23.0</ele><time>2026-04-25T09:19:58.956Z</time></trkpt><trkpt lat="43.71228212593466" lon="10.864162510136067"><ele>23.0</ele><time>2026-04-25T09:19:59.956Z</time></trkpt><trkpt lat="43.71228115840601" lon="10.86400172888898"><ele>23.0</ele><time>2026-04-25T09:20:00.956Z</time></trkpt><trkpt lat="43.71226614025106" lon="10.863864069060329"><ele>23.0</ele><time>2026-04-25T09:20:01.956Z</time></trkpt><trkpt lat="43.71226517088463" lon="10.863719734285448"><ele>23.0</ele><time>2026-04-25T09:20:02.956Z</time></trkpt><trkpt lat="43.71224631980213" lon="10.863568510399864"><ele>23.0</ele><time>2026-04-25T09:20:03.956Z</time></trkpt><trkpt lat="43.71220245529232" lon="10.86340680991843"><ele>23.0</ele><time>2026-04-25T09:20:04.956Z</time></trkpt><trkpt lat="43.712140713532825" lon="10.863236833353387"><ele>23.0</ele><time>2026-04-25T09:20:05.956Z</time></trkpt><trkpt lat="43.71208637401927" lon="10.863068047942495"><ele>23.0</ele><time>2026-04-25T09:20:06.956Z</time></trkpt><trkpt lat="43.71205485624854" lon="10.862872059438839"><ele>23.0</ele><time>2026-04-25T09:20:07.956Z</time></trkpt><trkpt lat="43.712021872102" lon="10.862689925406535"><ele>23.0</ele><time>2026-04-25T09:20:08.956Z</time></trkpt><trkpt lat="43.71202198061044" lon="10.862544308002295"><ele>23.0</ele><time>2026-04-25T09:20:09.956Z</time></trkpt><trkpt lat="43.712012758641414" lon="10.862402680598917"><ele>22.799999999999997</ele><time>2026-04-25T09:20:10.956Z</time></trkpt><trkpt lat="43.712004306651544" lon="10.862266618466059"><ele>22.6</ele><time>2026-04-25T09:20:11.956Z</time></trkpt><trkpt lat="43.712005338960644" lon="10.862144708797528"><ele>22.4</ele><time>2026-04-25T09:20:12.956Z</time></trkpt><trkpt lat="43.71202522142929" lon="10.862039630239781"><ele>22.200000000000003</ele><time>2026-04-25T09:20:13.956Z</time></trkpt><trkpt lat="43.712060619003715" lon="10.861927840631838"><ele>22.0</ele><time>2026-04-25T09:20:14.956Z</time></trkpt><trkpt lat="43.71209808317748" lon="10.861801647311642"><ele>21.75</ele><time>2026-04-25T09:20:15.954Z</time></trkpt><trkpt lat="43.712129413365716" lon="10.8616553916385"><ele>21.5</ele><time>2026-04-25T09:20:16.954Z</time></trkpt><trkpt lat="43.71214340080064" lon="10.86149160276234"><ele>21.25</ele><time>2026-04-25T09:20:17.954Z</time></trkpt><trkpt lat="43.712128588438" lon="10.861307822741004"><ele>21.0</ele><time>2026-04-25T09:20:18.954Z</time></trkpt><trkpt lat="43.7121298395354" lon="10.861124369507184"><ele>22.0</ele><time>2026-04-25T09:20:19.953Z</time></trkpt><trkpt lat="43.71211449520265" lon="10.86091652288706"><ele>23.0</ele><time>2026-04-25T09:20:20.953Z</time></trkpt><trkpt lat="43.712095662918486" lon="10.860706616619282"><ele>24.0</ele><time>2026-04-25T09:20:21.953Z</time></trkpt><trkpt lat="43.712082529300794" lon="10.860505014228293"><ele>24.0</ele><time>2026-04-25T09:20:22.953Z</time></trkpt><trkpt lat="43.712077930342026" lon="10.86033110821107"><ele>24.0</ele><time>2026-04-25T09:20:23.953Z</time></trkpt><trkpt lat="43.71207357733842" lon="10.860184219391712"><ele>24.0</ele><time>2026-04-25T09:20:24.953Z</time></trkpt><trkpt lat="43.7120641325455" lon="10.860059909332971"><ele>24.0</ele><time>2026-04-25T09:20:25.953Z</time></trkpt><trkpt lat="43.7120558775544" lon="10.859913566432274"><ele>24.0</ele><time>2026-04-25T09:20:27.953Z</time></trkpt><trkpt lat="43.712046758504236" lon="10.859770556255924"><ele>23.5</ele><time>2026-04-25T09:27:15.96Z</time></trkpt><trkpt lat="43.71209591937846" lon="10.859586587891473"><ele>23.0</ele><time>2026-04-25T09:27:17.96Z</time></trkpt><trkpt lat="43.71211962368107" lon="10.85945500174926"><ele>22.5</ele><time>2026-04-25T09:27:18.96Z</time></trkpt><trkpt lat="43.71215678030556" lon="10.85930799511791"><ele>22.0</ele><time>2026-04-25T09:27:19.96Z</time></trkpt><trkpt lat="43.71220403931122" lon="10.859138661493128"><ele>22.0</ele><time>2026-04-25T09:27:20.96Z</time></trkpt><trkpt lat="43.71225445984682" lon="10.858966411711469"><ele>22.0</ele><time>2026-04-25T09:27:21.96Z</time></trkpt><trkpt lat="43.712313715574766" lon="10.858785645014711"><ele>22.0</ele><time>2026-04-25T09:27:22.96Z</time></trkpt><trkpt lat="43.71237520528566" lon="10.858604647359778"><ele>22.0</ele><time>2026-04-25T09:27:23.96Z</time></trkpt><trkpt lat="43.71243699361422" lon="10.85841796611164"><ele>22.333333333333332</ele><time>2026-04-25T09:27:24.96Z</time></trkpt><trkpt lat="43.71249826327771" lon="10.858219626955155"><ele>22.666666666666668</ele><time>2026-04-25T09:27:25.96Z</time></trkpt><trkpt lat="43.712558326757446" lon="10.85802040993154"><ele>23.0</ele><time>2026-04-25T09:27:26.96Z</time></trkpt><trkpt lat="43.712642338351635" lon="10.857817155146067"><ele>23.0</ele><time>2026-04-25T09:27:27.96Z</time></trkpt><trkpt lat="43.71269901467908" lon="10.857600894414922"><ele>23.0</ele><time>2026-04-25T09:27:28.96Z</time></trkpt><trkpt lat="43.71275166268851" lon="10.857395034639087"><ele>23.0</ele><time>2026-04-25T09:27:29.96Z</time></trkpt><trkpt lat="43.71279371907237" lon="10.857194544687482"><ele>22.666666666666668</ele><time>2026-04-25T09:27:30.96Z</time></trkpt><trkpt lat="43.7128258387523" lon="10.857011205368767"><ele>22.333333333333336</ele><time>2026-04-25T09:27:31.96Z</time></trkpt><trkpt lat="43.71284032016524" lon="10.856869490906295"><ele>22.0</ele><time>2026-04-25T09:27:32.96Z</time></trkpt><trkpt lat="43.71285115731907" lon="10.856780742468402"><ele>21.666666666666668</ele><time>2026-04-25T09:27:33.96Z</time></trkpt><trkpt lat="43.71287770419283" lon="10.856700559280158"><ele>21.333333333333332</ele><time>2026-04-25T09:27:35.96Z</time></trkpt><trkpt lat="43.71286954061483" lon="10.85659866995909"><ele>21.0</ele><time>2026-04-25T09:27:38.961Z</time></trkpt><trkpt lat="43.713007365696086" lon="10.856536929525152"><ele>21.0</ele><time>2026-04-25T09:27:39.961Z</time></trkpt><trkpt lat="43.71306090909701" lon="10.856435752422067"><ele>21.0</ele><time>2026-04-25T09:27:40.961Z</time></trkpt><trkpt lat="43.71311751936954" lon="10.85630485119773"><ele>21.0</ele><time>2026-04-25T09:27:41.961Z</time></trkpt><trkpt lat="43.71316726507632" lon="10.856192476013854"><ele>21.0</ele><time>2026-04-25T09:27:42.961Z</time></trkpt><trkpt lat="43.713228215535246" lon="10.856121159296173"><ele>21.0</ele><time>2026-04-25T09:27:43.961Z</time></trkpt><trkpt lat="43.71330921957013" lon="10.856083707211623"><ele>21.0</ele><time>2026-04-25T09:27:45.961Z</time></trkpt><trkpt lat="43.71338222875772" lon="10.856097430742834"><ele>21.0</ele><time>2026-04-25T09:27:47.961Z</time></trkpt><trkpt lat="43.71345616127868" lon="10.85610366154282"><ele>21.0</ele><time>2026-04-25T09:27:49.961Z</time></trkpt><trkpt lat="43.713538800009324" lon="10.856097779780335"><ele>21.0</ele><time>2026-04-25T09:27:51.961Z</time></trkpt><trkpt lat="43.713626578018534" lon="10.85632580637338"><ele>21.0</ele><time>2026-04-25T09:27:53.961Z</time></trkpt><trkpt lat="43.71367691562849" lon="10.85643654136038"><ele>21.0</ele><time>2026-04-25T09:27:55.961Z</time></trkpt><trkpt lat="43.71371466968536" lon="10.856533272719936"><ele>21.0</ele><time>2026-04-25T09:27:57.961Z</time></trkpt><trkpt lat="43.71377972157112" lon="10.856634621519596"><ele>21.0</ele><time>2026-04-25T09:27:59.961Z</time></trkpt><trkpt lat="43.71385450242175" lon="10.856762647742473"><ele>21.0</ele><time>2026-04-25T09:28:01.961Z</time></trkpt><trkpt lat="43.71392541321981" lon="10.856870815352611"><ele>21.0</ele><time>2026-04-25T09:28:03.961Z</time></trkpt><trkpt lat="43.71400034375658" lon="10.856975116338658"><ele>21.0</ele><time>2026-04-25T09:28:05.961Z</time></trkpt><trkpt lat="43.714065199446324" lon="10.857043562281323"><ele>21.0</ele><time>2026-04-25T09:28:07.961Z</time></trkpt><trkpt lat="43.71411141128202" lon="10.856978173007263"><ele>21.0</ele><time>2026-04-25T09:28:51.947Z</time></trkpt><trkpt lat="43.714044585231946" lon="10.856943849178847"><ele>21.0</ele><time>2026-04-25T09:28:55.946Z</time></trkpt><trkpt lat="43.713966136986144" lon="10.856914759023729"><ele>21.0</ele><time>2026-04-25T09:28:58.946Z</time></trkpt><trkpt lat="43.713919245188244" lon="10.856852230928242"><ele>21.0</ele><time>2026-04-25T09:29:00.946Z</time></trkpt><trkpt lat="43.71383509207055" lon="10.856724306943303"><ele>21.0</ele><time>2026-04-25T09:29:02.946Z</time></trkpt><trkpt lat="43.713754940727256" lon="10.856607219252664"><ele>21.0</ele><time>2026-04-25T09:29:04.946Z</time></trkpt><trkpt lat="43.713677938575465" lon="10.856520486597645"><ele>21.0</ele><time>2026-04-25T09:29:06.945Z</time></trkpt><trkpt lat="43.71363560103144" lon="10.856438632528517"><ele>21.0</ele><time>2026-04-25T09:29:08.945Z</time></trkpt><trkpt lat="43.71358862709603" lon="10.85633394223405"><ele>21.0</ele><time>2026-04-25T09:29:10.945Z</time></trkpt><trkpt lat="43.713557868973794" lon="10.85625119624024"><ele>21.0</ele><time>2026-04-25T09:29:12.945Z</time></trkpt><trkpt lat="43.71349559443429" lon="10.85616544622441"><ele>21.0</ele><time>2026-04-25T09:29:14.945Z</time></trkpt><trkpt lat="43.71339904508794" lon="10.856097492207171"><ele>21.0</ele><time>2026-04-25T09:29:16.945Z</time></trkpt><trkpt lat="43.71331189636167" lon="10.856061639592793"><ele>21.0</ele><time>2026-04-25T09:29:18.945Z</time></trkpt><trkpt lat="43.71324194722295" lon="10.856050552210322"><ele>21.0</ele><time>2026-04-25T09:29:20.945Z</time></trkpt><trkpt lat="43.71318617280974" lon="10.856100234036955"><ele>21.0</ele><time>2026-04-25T09:29:57.945Z</time></trkpt><trkpt lat="43.71313931004869" lon="10.85620281359056"><ele>21.0</ele><time>2026-04-25T09:29:58.945Z</time></trkpt><trkpt lat="43.71309069105123" lon="10.85631899869587"><ele>21.0</ele><time>2026-04-25T09:29:59.945Z</time></trkpt><trkpt lat="43.71303445376949" lon="10.856445841204009"><ele>21.0</ele><time>2026-04-25T09:30:00.945Z</time></trkpt><trkpt lat="43.7129864856775" lon="10.856545220113729"><ele>21.0</ele><time>2026-04-25T09:30:01.945Z</time></trkpt><trkpt lat="43.71291992758527" lon="10.85663484312421"><ele>21.0</ele><time>2026-04-25T09:30:03.945Z</time></trkpt><trkpt lat="43.71284339575606" lon="10.856669039912703"><ele>21.0</ele><time>2026-04-25T09:30:06.945Z</time></trkpt><trkpt lat="43.712751580728415" lon="10.856458443959413"><ele>21.5</ele><time>2026-04-25T09:30:07.945Z</time></trkpt><trkpt lat="43.71266998185411" lon="10.856379618249015"><ele>22.0</ele><time>2026-04-25T09:30:08.945Z</time></trkpt><trkpt lat="43.71257069217353" lon="10.856296215019256"><ele>22.5</ele><time>2026-04-25T09:30:09.945Z</time></trkpt><trkpt lat="43.71246234207712" lon="10.856210539281097"><ele>23.0</ele><time>2026-04-25T09:30:10.945Z</time></trkpt><trkpt lat="43.71235717781999" lon="10.856130330603968"><ele>23.0</ele><time>2026-04-25T09:30:11.945Z</time></trkpt><trkpt lat="43.71227075911392" lon="10.85606004894253"><ele>23.0</ele><time>2026-04-25T09:30:12.945Z</time></trkpt><trkpt lat="43.71218328762581" lon="10.855988103466146"><ele>23.0</ele><time>2026-04-25T09:30:13.945Z</time></trkpt><trkpt lat="43.71209332266938" lon="10.855914107105749"><ele>23.0</ele><time>2026-04-25T09:30:14.945Z</time></trkpt><trkpt lat="43.71200226068983" lon="10.855839944680442"><ele>23.0</ele><time>2026-04-25T09:30:15.945Z</time></trkpt><trkpt lat="43.71191658770781" lon="10.855770768043026"><ele>23.0</ele><time>2026-04-25T09:30:16.945Z</time></trkpt><trkpt lat="43.71183774234876" lon="10.855707775987577"><ele>23.0</ele><time>2026-04-25T09:30:17.945Z</time></trkpt><trkpt lat="43.71176438793405" lon="10.855649815562968"><ele>23.0</ele><time>2026-04-25T09:30:18.945Z</time></trkpt><trkpt lat="43.71167743783301" lon="10.85559720717773"><ele>23.0</ele><time>2026-04-25T09:30:19.945Z</time></trkpt><trkpt lat="43.711578147862845" lon="10.855506804022248"><ele>23.0</ele><time>2026-04-25T09:30:20.945Z</time></trkpt><trkpt lat="43.711477152140766" lon="10.855410492815338"><ele>23.0</ele><time>2026-04-25T09:30:21.946Z</time></trkpt><trkpt lat="43.711386359114385" lon="10.855300104255212"><ele>23.0</ele><time>2026-04-25T09:30:22.946Z</time></trkpt><trkpt lat="43.71129149131492" lon="10.85518793653539"><ele>23.0</ele><time>2026-04-25T09:30:23.946Z</time></trkpt><trkpt lat="43.711196963713824" lon="10.855083577900968"><ele>23.0</ele><time>2026-04-25T09:30:24.946Z</time></trkpt><trkpt lat="43.71110284961576" lon="10.854985178763734"><ele>23.2</ele><time>2026-04-25T09:30:25.946Z</time></trkpt><trkpt lat="43.711009887628684" lon="10.854919338308529"><ele>23.4</ele><time>2026-04-25T09:30:26.946Z</time></trkpt><trkpt lat="43.710929473028315" lon="10.854833350789178"><ele>23.599999999999998</ele><time>2026-04-25T09:30:27.946Z</time></trkpt><trkpt lat="43.71086673408742" lon="10.854751618420371"><ele>23.799999999999997</ele><time>2026-04-25T09:30:28.946Z</time></trkpt><trkpt lat="43.71080889461419" lon="10.854664521829267"><ele>24.0</ele><time>2026-04-25T09:30:29.946Z</time></trkpt><trkpt lat="43.71075901750011" lon="10.854581460143956"><ele>24.0</ele><time>2026-04-25T09:30:30.946Z</time></trkpt><trkpt lat="43.71070754645512" lon="10.854505719792778"><ele>24.0</ele><time>2026-04-25T09:30:31.946Z</time></trkpt><trkpt lat="43.71065359026407" lon="10.854441017979632"><ele>24.0</ele><time>2026-04-25T09:30:32.946Z</time></trkpt><trkpt lat="43.71057956047206" lon="10.85437615332515"><ele>24.0</ele><time>2026-04-25T09:30:33.946Z</time></trkpt><trkpt lat="43.71048397857095" lon="10.854312967613804"><ele>24.0</ele><time>2026-04-25T09:30:34.946Z</time></trkpt><trkpt lat="43.71039600662601" lon="10.854249247946074"><ele>24.0</ele><time>2026-04-25T09:30:35.946Z</time></trkpt><trkpt lat="43.710309192191254" lon="10.854185516215592"><ele>24.5</ele><time>2026-04-25T09:30:36.946Z</time></trkpt><trkpt lat="43.7102305985775" lon="10.854127760808659"><ele>25.0</ele><time>2026-04-25T09:30:37.946Z</time></trkpt><trkpt lat="43.71016650440218" lon="10.854066260584876"><ele>25.5</ele><time>2026-04-25T09:30:38.946Z</time></trkpt><trkpt lat="43.710106671122325" lon="10.854005958222176"><ele>26.0</ele><time>2026-04-25T09:30:39.946Z</time></trkpt><trkpt lat="43.71005472530463" lon="10.853926036834368"><ele>26.5</ele><time>2026-04-25T09:30:40.946Z</time></trkpt><trkpt lat="43.71001554471891" lon="10.85383063254071"><ele>27.0</ele><time>2026-04-25T09:30:41.946Z</time></trkpt><trkpt lat="43.70999366403075" lon="10.853731914663038"><ele>27.0</ele><time>2026-04-25T09:30:42.946Z</time></trkpt><trkpt lat="43.70999215775114" lon="10.853642055659492"><ele>27.000000000000004</ele><time>2026-04-25T09:30:43.946Z</time></trkpt><trkpt lat="43.710018556004755" lon="10.853518889572516"><ele>27.000000000000004</ele><time>2026-04-25T09:30:44.946Z</time></trkpt><trkpt lat="43.710055872404524" lon="10.853368470865657"><ele>27.0</ele><time>2026-04-25T09:30:45.943Z</time></trkpt><trkpt lat="43.71006238618895" lon="10.853205015290289"><ele>27.0</ele><time>2026-04-25T09:30:46.943Z</time></trkpt><trkpt lat="43.71007915521857" lon="10.853042806745158"><ele>26.400000000000002</ele><time>2026-04-25T09:30:47.943Z</time></trkpt><trkpt lat="43.710090347905094" lon="10.852899490334023"><ele>25.800000000000004</ele><time>2026-04-25T09:30:48.943Z</time></trkpt><trkpt lat="43.71010561405164" lon="10.852777133437675"><ele>25.2</ele><time>2026-04-25T09:30:49.943Z</time></trkpt><trkpt lat="43.71017719860474" lon="10.852665039607347"><ele>24.6</ele><time>2026-04-25T09:30:50.943Z</time></trkpt><trkpt lat="43.710229870578026" lon="10.852529919130484"><ele>24.0</ele><time>2026-04-25T09:30:51.943Z</time></trkpt><trkpt lat="43.71028829410231" lon="10.852378995516775"><ele>23.5</ele><time>2026-04-25T09:30:52.943Z</time></trkpt><trkpt lat="43.710355668071195" lon="10.852212643811571"><ele>23.0</ele><time>2026-04-25T09:30:53.943Z</time></trkpt><trkpt lat="43.71041480300415" lon="10.852042663401743"><ele>22.5</ele><time>2026-04-25T09:30:54.943Z</time></trkpt><trkpt lat="43.71048305143342" lon="10.851874008545133"><ele>22.0</ele><time>2026-04-25T09:30:55.943Z</time></trkpt><trkpt lat="43.71055131153046" lon="10.851700763878089"><ele>21.75</ele><time>2026-04-25T09:30:56.943Z</time></trkpt><trkpt lat="43.71060752407433" lon="10.851522177645975"><ele>21.5</ele><time>2026-04-25T09:30:57.943Z</time></trkpt><trkpt lat="43.71065098462353" lon="10.851359122459616"><ele>21.25</ele><time>2026-04-25T09:30:58.943Z</time></trkpt><trkpt lat="43.7106598636368" lon="10.851192588183315"><ele>21.0</ele><time>2026-04-25T09:30:59.943Z</time></trkpt><trkpt lat="43.710662877323976" lon="10.851016216365185"><ele>21.0</ele><time>2026-04-25T09:31:00.943Z</time></trkpt><trkpt lat="43.71066137249663" lon="10.850829768557446"><ele>21.0</ele><time>2026-04-25T09:31:01.943Z</time></trkpt><trkpt lat="43.71065586725982" lon="10.850633664044244"><ele>21.0</ele><time>2026-04-25T09:31:02.943Z</time></trkpt><trkpt lat="43.71065242803552" lon="10.850434333726978"><ele>21.0</ele><time>2026-04-25T09:31:03.943Z</time></trkpt><trkpt lat="43.710632832599" lon="10.850253653610938"><ele>21.25</ele><time>2026-04-25T09:31:04.943Z</time></trkpt><trkpt lat="43.71062412127622" lon="10.850082340355243"><ele>21.5</ele><time>2026-04-25T09:31:05.943Z</time></trkpt><trkpt lat="43.71062643703476" lon="10.84990731085301"><ele>21.75</ele><time>2026-04-25T09:31:06.943Z</time></trkpt><trkpt lat="43.7106270799987" lon="10.849729970042887"><ele>22.0</ele><time>2026-04-25T09:31:07.943Z</time></trkpt><trkpt lat="43.71063972019583" lon="10.849538623032288"><ele>22.0</ele><time>2026-04-25T09:31:08.943Z</time></trkpt><trkpt lat="43.710655597499894" lon="10.849342418138798"><ele>22.0</ele><time>2026-04-25T09:31:09.943Z</time></trkpt><trkpt lat="43.71067592067395" lon="10.849143776863423"><ele>22.0</ele><time>2026-04-25T09:31:10.943Z</time></trkpt><trkpt lat="43.71069358406121" lon="10.84894539745564"><ele>22.0</ele><time>2026-04-25T09:31:11.943Z</time></trkpt><trkpt lat="43.71071175080905" lon="10.848744400630979"><ele>21.75</ele><time>2026-04-25T09:31:12.943Z</time></trkpt><trkpt lat="43.71072970332621" lon="10.848551036099323"><ele>21.5</ele><time>2026-04-25T09:31:13.943Z</time></trkpt><trkpt lat="43.71074954625104" lon="10.848350109943004"><ele>21.25</ele><time>2026-04-25T09:31:14.943Z</time></trkpt><trkpt lat="43.710770197719455" lon="10.848149738760693"><ele>21.0</ele><time>2026-04-25T09:31:15.943Z</time></trkpt><trkpt lat="43.710796893947325" lon="10.847947706555322"><ele>21.0</ele><time>2026-04-25T09:31:16.943Z</time></trkpt><trkpt lat="43.710829114592926" lon="10.84775966804615"><ele>21.0</ele><time>2026-04-25T09:31:17.943Z</time></trkpt><trkpt lat="43.71085570784742" lon="10.847573880687776"><ele>21.0</ele><time>2026-04-25T09:31:18.943Z</time></trkpt><trkpt lat="43.71087244767754" lon="10.84738458426957"><ele>21.0</ele><time>2026-04-25T09:31:19.943Z</time></trkpt><trkpt lat="43.710875418757325" lon="10.84719283957901"><ele>21.0</ele><time>2026-04-25T09:31:20.943Z</time></trkpt><trkpt lat="43.71085759627117" lon="10.847001514024923"><ele>21.0</ele><time>2026-04-25T09:31:21.943Z</time></trkpt><trkpt lat="43.710822849945686" lon="10.846822947585224"><ele>21.0</ele><time>2026-04-25T09:31:22.943Z</time></trkpt><trkpt lat="43.71077413928227" lon="10.846657164450694"><ele>21.0</ele><time>2026-04-25T09:31:23.943Z</time></trkpt><trkpt lat="43.710729209293376" lon="10.846501798004258"><ele>21.0</ele><time>2026-04-25T09:31:24.943Z</time></trkpt><trkpt lat="43.71070099880534" lon="10.846355851474556"><ele>21.0</ele><time>2026-04-25T09:31:25.943Z</time></trkpt><trkpt lat="43.71068618983205" lon="10.84619498774166"><ele>21.0</ele><time>2026-04-25T09:31:26.943Z</time></trkpt><trkpt lat="43.71071372452093" lon="10.846028495297833"><ele>21.0</ele><time>2026-04-25T09:31:27.943Z</time></trkpt><trkpt lat="43.710728108690645" lon="10.845873300389421"><ele>21.200000000000003</ele><time>2026-04-25T09:31:28.943Z</time></trkpt><trkpt lat="43.71074281147938" lon="10.845763817161115"><ele>21.400000000000002</ele><time>2026-04-25T09:31:29.943Z</time></trkpt><trkpt lat="43.710765442750095" lon="10.845628710206592"><ele>21.6</ele><time>2026-04-25T09:31:31.943Z</time></trkpt><trkpt lat="43.71078974063152" lon="10.845525196018594"><ele>21.8</ele><time>2026-04-25T09:31:35.943Z</time></trkpt><trkpt lat="43.71074630883104" lon="10.84561403730888"><ele>22.0</ele><time>2026-04-25T09:31:42.943Z</time></trkpt><trkpt lat="43.710720979684474" lon="10.845868981197196"><ele>21.8</ele><time>2026-04-25T09:31:44.943Z</time></trkpt><trkpt lat="43.710713016402956" lon="10.845994558998909"><ele>21.6</ele><time>2026-04-25T09:31:45.943Z</time></trkpt><trkpt lat="43.71069592153437" lon="10.846121813404093"><ele>21.400000000000002</ele><time>2026-04-25T09:31:46.943Z</time></trkpt><trkpt lat="43.71068484095317" lon="10.846254996911215"><ele>21.200000000000003</ele><time>2026-04-25T09:31:47.943Z</time></trkpt><trkpt lat="43.7106940576828" lon="10.846389645451387"><ele>21.0</ele><time>2026-04-25T09:31:48.943Z</time></trkpt><trkpt lat="43.71071876555938" lon="10.846525115120397"><ele>21.0</ele><time>2026-04-25T09:31:49.943Z</time></trkpt><trkpt lat="43.710736615641586" lon="10.8466556070683"><ele>21.0</ele><time>2026-04-25T09:31:50.943Z</time></trkpt><trkpt lat="43.71076297041813" lon="10.846750502374805"><ele>21.0</ele><time>2026-04-25T09:31:51.943Z</time></trkpt><trkpt lat="43.71079465751813" lon="10.846864598157502"><ele>21.0</ele><time>2026-04-25T09:31:53.943Z</time></trkpt><trkpt lat="43.71076584221447" lon="10.846760842812351"><ele>21.0</ele><time>2026-04-25T09:32:11.944Z</time></trkpt><trkpt lat="43.71072176333796" lon="10.846602127228225"><ele>21.0</ele><time>2026-04-25T09:32:13.944Z</time></trkpt><trkpt lat="43.71072092177314" lon="10.84638070817432"><ele>21.0</ele><time>2026-04-25T09:32:14.944Z</time></trkpt><trkpt lat="43.71070776713195" lon="10.846215527914223"><ele>21.0</ele><time>2026-04-25T09:32:15.944Z</time></trkpt><trkpt lat="43.710713835374406" lon="10.846052767281138"><ele>21.0</ele><time>2026-04-25T09:32:16.944Z</time></trkpt><trkpt lat="43.71072773941904" lon="10.845871576728628"><ele>21.0</ele><time>2026-04-25T09:32:17.944Z</time></trkpt><trkpt lat="43.71074978693266" lon="10.845675282788758"><ele>21.0</ele><time>2026-04-25T09:32:18.944Z</time></trkpt><trkpt lat="43.71078421351611" lon="10.84547833842774"><ele>21.0</ele><time>2026-04-25T09:32:19.944Z</time></trkpt><trkpt lat="43.71082626089795" lon="10.84527907297646"><ele>21.0</ele><time>2026-04-25T09:32:20.944Z</time></trkpt><trkpt lat="43.71088302743911" lon="10.84508268363054"><ele>21.0</ele><time>2026-04-25T09:32:21.944Z</time></trkpt><trkpt lat="43.71094747252995" lon="10.844886557704694"><ele>21.0</ele><time>2026-04-25T09:32:22.944Z</time></trkpt><trkpt lat="43.71101931118917" lon="10.844690188471567"><ele>21.0</ele><time>2026-04-25T09:32:23.944Z</time></trkpt><trkpt lat="43.711084126062836" lon="10.844476508063677"><ele>21.333333333333332</ele><time>2026-04-25T09:32:24.944Z</time></trkpt><trkpt lat="43.71113424275581" lon="10.844259165852344"><ele>21.666666666666664</ele><time>2026-04-25T09:32:25.944Z</time></trkpt><trkpt lat="43.71119279805008" lon="10.844040540383652"><ele>22.0</ele><time>2026-04-25T09:32:26.944Z</time></trkpt><trkpt lat="43.71125188900029" lon="10.84382592691604"><ele>22.0</ele><time>2026-04-25T09:32:27.944Z</time></trkpt><trkpt lat="43.711313948065964" lon="10.843621386556038"><ele>22.0</ele><time>2026-04-25T09:32:28.944Z</time></trkpt><trkpt lat="43.71138322954604" lon="10.843405406245783"><ele>22.0</ele><time>2026-04-25T09:32:29.944Z</time></trkpt><trkpt lat="43.7114522044308" lon="10.843196800400687"><ele>22.0</ele><time>2026-04-25T09:32:30.944Z</time></trkpt><trkpt lat="43.711518767204865" lon="10.842988221600336"><ele>22.0</ele><time>2026-04-25T09:32:31.944Z</time></trkpt><trkpt lat="43.71157628916236" lon="10.8427483372213"><ele>22.0</ele><time>2026-04-25T09:32:32.944Z</time></trkpt><trkpt lat="43.7116405922743" lon="10.842477589151295"><ele>22.0</ele><time>2026-04-25T09:32:33.944Z</time></trkpt><trkpt lat="43.7117079055853" lon="10.84221890291259"><ele>22.0</ele><time>2026-04-25T09:32:34.944Z</time></trkpt><trkpt lat="43.71179677291568" lon="10.841993015548038"><ele>22.0</ele><time>2026-04-25T09:32:35.944Z</time></trkpt><trkpt lat="43.711872250661436" lon="10.841779399185468"><ele>21.666666666666664</ele><time>2026-04-25T09:32:36.944Z</time></trkpt><trkpt lat="43.711956968653354" lon="10.841581401520266"><ele>21.333333333333332</ele><time>2026-04-25T09:32:37.944Z</time></trkpt><trkpt lat="43.712050445430606" lon="10.841398921571544"><ele>21.0</ele><time>2026-04-25T09:32:38.944Z</time></trkpt><trkpt lat="43.7121489052324" lon="10.841231349608844"><ele>21.0</ele><time>2026-04-25T09:32:39.944Z</time></trkpt><trkpt lat="43.71222878133153" lon="10.841064184140787"><ele>21.0</ele><time>2026-04-25T09:32:40.944Z</time></trkpt><trkpt lat="43.712307825815984" lon="10.84092413224226"><ele>21.0</ele><time>2026-04-25T09:32:41.944Z</time></trkpt><trkpt lat="43.71237701043798" lon="10.840761799886304"><ele>21.0</ele><time>2026-04-25T09:32:42.944Z</time></trkpt><trkpt lat="43.71243193456765" lon="10.840580429074373"><ele>21.0</ele><time>2026-04-25T09:32:43.944Z</time></trkpt><trkpt lat="43.712458457190685" lon="10.840372571155392"><ele>21.0</ele><time>2026-04-25T09:32:44.944Z</time></trkpt><trkpt lat="43.71246456167543" lon="10.840148640317707"><ele>21.0</ele><time>2026-04-25T09:32:45.944Z</time></trkpt><trkpt lat="43.71247626430645" lon="10.83992874357696"><ele>21.0</ele><time>2026-04-25T09:32:46.944Z</time></trkpt><trkpt lat="43.712485952937996" lon="10.839702278232739"><ele>21.0</ele><time>2026-04-25T09:32:47.944Z</time></trkpt><trkpt lat="43.71249764838016" lon="10.839469959341388"><ele>21.0</ele><time>2026-04-25T09:32:48.944Z</time></trkpt><trkpt lat="43.71251207861019" lon="10.839236134936693"><ele>21.0</ele><time>2026-04-25T09:32:49.944Z</time></trkpt><trkpt lat="43.71252185412211" lon="10.838993013339746"><ele>21.0</ele><time>2026-04-25T09:32:50.944Z</time></trkpt><trkpt lat="43.712529804975816" lon="10.83875699005992"><ele>21.0</ele><time>2026-04-25T09:32:51.942Z</time></trkpt><trkpt lat="43.712539499359394" lon="10.838519516195628"><ele>20.666666666666668</ele><time>2026-04-25T09:32:52.941Z</time></trkpt><trkpt lat="43.712567691884175" lon="10.838280074052975"><ele>20.333333333333336</ele><time>2026-04-25T09:32:53.942Z</time></trkpt><trkpt lat="43.712577241743126" lon="10.838041756635707"><ele>20.0</ele><time>2026-04-25T09:32:54.941Z</time></trkpt><trkpt lat="43.71256650736164" lon="10.837809523307346"><ele>20.333333333333336</ele><time>2026-04-25T09:32:55.941Z</time></trkpt><trkpt lat="43.712557334965325" lon="10.837578305611896"><ele>20.666666666666668</ele><time>2026-04-25T09:32:56.941Z</time></trkpt><trkpt lat="43.71253294250982" lon="10.83735355142159"><ele>21.0</ele><time>2026-04-25T09:32:57.941Z</time></trkpt><trkpt lat="43.712506393013236" lon="10.837131056364582"><ele>21.0</ele><time>2026-04-25T09:32:58.942Z</time></trkpt><trkpt lat="43.7124854530228" lon="10.836923766385674"><ele>21.0</ele><time>2026-04-25T09:32:59.942Z</time></trkpt><trkpt lat="43.712461488175755" lon="10.836732831132847"><ele>21.0</ele><time>2026-04-25T09:33:00.941Z</time></trkpt><trkpt lat="43.712443916139016" lon="10.836556407296527"><ele>21.0</ele><time>2026-04-25T09:33:01.942Z</time></trkpt><trkpt lat="43.71246077055639" lon="10.836377201603476"><ele>21.200000000000003</ele><time>2026-04-25T09:33:02.942Z</time></trkpt><trkpt lat="43.71248396112797" lon="10.836211453595151"><ele>21.400000000000002</ele><time>2026-04-25T09:33:03.942Z</time></trkpt><trkpt lat="43.71250835659558" lon="10.836059360372241"><ele>21.6</ele><time>2026-04-25T09:33:04.942Z</time></trkpt><trkpt lat="43.71254157430155" lon="10.83591219387683"><ele>21.8</ele><time>2026-04-25T09:33:05.942Z</time></trkpt><trkpt lat="43.71254380403506" lon="10.83577550367057"><ele>22.0</ele><time>2026-04-25T09:33:06.942Z</time></trkpt><trkpt lat="43.71253555332156" lon="10.83563831390134"><ele>22.0</ele><time>2026-04-25T09:33:07.942Z</time></trkpt><trkpt lat="43.7124869553751" lon="10.835508138056028"><ele>22.0</ele><time>2026-04-25T09:33:08.942Z</time></trkpt><trkpt lat="43.71240918491296" lon="10.83537922699238"><ele>22.0</ele><time>2026-04-25T09:33:09.942Z</time></trkpt><trkpt lat="43.71231112917429" lon="10.835260160470021"><ele>22.0</ele><time>2026-04-25T09:33:10.942Z</time></trkpt><trkpt lat="43.7122145359045" lon="10.835161377775314"><ele>21.75</ele><time>2026-04-25T09:33:11.942Z</time></trkpt><trkpt lat="43.712115899949225" lon="10.835047261922648"><ele>21.5</ele><time>2026-04-25T09:33:12.942Z</time></trkpt><trkpt lat="43.71201795437071" lon="10.834933690126219"><ele>21.25</ele><time>2026-04-25T09:33:13.942Z</time></trkpt><trkpt lat="43.711913854354535" lon="10.834816366817392"><ele>21.0</ele><time>2026-04-25T09:33:14.942Z</time></trkpt><trkpt lat="43.711814885889865" lon="10.83470652575459"><ele>21.0</ele><time>2026-04-25T09:33:15.942Z</time></trkpt><trkpt lat="43.7117154069474" lon="10.834589945996221"><ele>21.0</ele><time>2026-04-25T09:33:16.942Z</time></trkpt><trkpt lat="43.711621276186605" lon="10.834475620706066"><ele>21.0</ele><time>2026-04-25T09:33:17.942Z</time></trkpt><trkpt lat="43.7115255693472" lon="10.834365134876146"><ele>21.0</ele><time>2026-04-25T09:33:18.942Z</time></trkpt><trkpt lat="43.71142956972607" lon="10.834248601990408"><ele>21.0</ele><time>2026-04-25T09:33:19.942Z</time></trkpt><trkpt lat="43.71133344770895" lon="10.834129031077811"><ele>21.0</ele><time>2026-04-25T09:33:20.942Z</time></trkpt><trkpt lat="43.711234981785296" lon="10.834000838727874"><ele>21.0</ele><time>2026-04-25T09:33:21.942Z</time></trkpt><trkpt lat="43.71113877471186" lon="10.83387626971596"><ele>21.0</ele><time>2026-04-25T09:33:22.942Z</time></trkpt><trkpt lat="43.71105094735493" lon="10.8337538422276"><ele>21.0</ele><time>2026-04-25T09:33:23.942Z</time></trkpt><trkpt lat="43.710973311256055" lon="10.833643978614505"><ele>21.0</ele><time>2026-04-25T09:33:24.942Z</time></trkpt><trkpt lat="43.710925188209515" lon="10.83357438039436"><ele>21.0</ele><time>2026-04-25T09:33:25.942Z</time></trkpt><trkpt lat="43.71085766519904" lon="10.833479184141165"><ele>21.0</ele><time>2026-04-25T09:33:27.942Z</time></trkpt><trkpt lat="43.71081123125509" lon="10.833409070164274"><ele>21.0</ele><time>2026-04-25T09:33:30.942Z</time></trkpt><trkpt lat="43.710754358190016" lon="10.833318885979576"><ele>21.0</ele><time>2026-04-25T09:33:40.943Z</time></trkpt><trkpt lat="43.71070610279753" lon="10.833261209264041"><ele>21.0</ele><time>2026-04-25T09:33:48.943Z</time></trkpt><trkpt lat="43.71065621651462" lon="10.833154069067108"><ele>21.0</ele><time>2026-04-25T09:33:50.943Z</time></trkpt><trkpt lat="43.710609585647695" lon="10.83308074605423"><ele>21.0</ele><time>2026-04-25T09:33:51.943Z</time></trkpt><trkpt lat="43.710540139767936" lon="10.832973871400936"><ele>21.0</ele><time>2026-04-25T09:33:52.943Z</time></trkpt><trkpt lat="43.71044534495683" lon="10.832815316542804"><ele>21.0</ele><time>2026-04-25T09:33:53.943Z</time></trkpt><trkpt lat="43.71035538864245" lon="10.832669042106279"><ele>21.0</ele><time>2026-04-25T09:33:54.943Z</time></trkpt><trkpt lat="43.710266309338024" lon="10.832536852717645"><ele>21.0</ele><time>2026-04-25T09:33:55.943Z</time></trkpt><trkpt lat="43.71018301113997" lon="10.832417004436474"><ele>21.0</ele><time>2026-04-25T09:33:56.943Z</time></trkpt><trkpt lat="43.710092592934856" lon="10.832298998237418"><ele>21.0</ele><time>2026-04-25T09:33:57.943Z</time></trkpt><trkpt lat="43.71000441889662" lon="10.83216833083588"><ele>21.0</ele><time>2026-04-25T09:33:58.943Z</time></trkpt><trkpt lat="43.7099184197373" lon="10.832030143444369"><ele>21.0</ele><time>2026-04-25T09:33:59.943Z</time></trkpt><trkpt lat="43.70983796581963" lon="10.831873636531908"><ele>21.0</ele><time>2026-04-25T09:34:00.943Z</time></trkpt><trkpt lat="43.70975121126889" lon="10.831727918609033"><ele>21.0</ele><time>2026-04-25T09:34:01.943Z</time></trkpt><trkpt lat="43.70966349193876" lon="10.831579399212458"><ele>21.0</ele><time>2026-04-25T09:34:02.943Z</time></trkpt><trkpt lat="43.709588203193036" lon="10.83141771676992"><ele>21.0</ele><time>2026-04-25T09:34:03.943Z</time></trkpt><trkpt lat="43.70951149254669" lon="10.831232785669085"><ele>21.0</ele><time>2026-04-25T09:34:04.943Z</time></trkpt><trkpt lat="43.70943673540478" lon="10.831053499201724"><ele>21.0</ele><time>2026-04-25T09:34:05.943Z</time></trkpt><trkpt lat="43.70937003180647" lon="10.830882524330006"><ele>21.0</ele><time>2026-04-25T09:34:06.943Z</time></trkpt><trkpt lat="43.70930635847426" lon="10.830746489002928"><ele>21.0</ele><time>2026-04-25T09:34:07.943Z</time></trkpt><trkpt lat="43.70924609678628" lon="10.830658919365721"><ele>21.0</ele><time>2026-04-25T09:34:08.943Z</time></trkpt><trkpt lat="43.70916249313003" lon="10.8305963309091"><ele>21.0</ele><time>2026-04-25T09:34:09.943Z</time></trkpt><trkpt lat="43.70905389511787" lon="10.830560736503967"><ele>21.0</ele><time>2026-04-25T09:34:10.943Z</time></trkpt><trkpt lat="43.708958255539294" lon="10.830550928381566"><ele>21.0</ele><time>2026-04-25T09:34:11.943Z</time></trkpt><trkpt lat="43.70889164750351" lon="10.830541106720801"><ele>21.0</ele><time>2026-04-25T09:34:12.943Z</time></trkpt><trkpt lat="43.708826545630096" lon="10.830481292590347"><ele>21.0</ele><time>2026-04-25T09:34:14.943Z</time></trkpt><trkpt lat="43.70883595529981" lon="10.8303116726322"><ele>21.0</ele><time>2026-04-25T09:34:17.943Z</time></trkpt><trkpt lat="43.70880918195986" lon="10.830114796190347"><ele>21.0</ele><time>2026-04-25T09:34:19.943Z</time></trkpt><trkpt lat="43.70879210099239" lon="10.830004390959951"><ele>21.166666666666668</ele><time>2026-04-25T09:34:20.943Z</time></trkpt><trkpt lat="43.70877719766106" lon="10.829911785925423"><ele>21.333333333333332</ele><time>2026-04-25T09:34:21.943Z</time></trkpt><trkpt lat="43.708734708226615" lon="10.829770068427093"><ele>21.5</ele><time>2026-04-25T09:34:23.943Z</time></trkpt><trkpt lat="43.70867800873429" lon="10.829619523564112"><ele>21.666666666666664</ele><time>2026-04-25T09:34:25.943Z</time></trkpt><trkpt lat="43.70864337988779" lon="10.829531554887208"><ele>21.833333333333332</ele><time>2026-04-25T09:34:26.943Z</time></trkpt><trkpt lat="43.7086107012232" lon="10.829441210227479"><ele>22.0</ele><time>2026-04-25T09:34:27.943Z</time></trkpt><trkpt lat="43.708580561431006" lon="10.829356295862778"><ele>22.166666666666664</ele><time>2026-04-25T09:34:28.943Z</time></trkpt><trkpt lat="43.70855553206532" lon="10.829266917953763"><ele>22.333333333333332</ele><time>2026-04-25T09:34:29.943Z</time></trkpt><trkpt lat="43.70852196490636" lon="10.829175517628494"><ele>22.5</ele><time>2026-04-25T09:34:30.943Z</time></trkpt><trkpt lat="43.70848962027113" lon="10.829073212391577"><ele>22.666666666666668</ele><time>2026-04-25T09:34:31.943Z</time></trkpt><trkpt lat="43.70845363115822" lon="10.828972056303007"><ele>22.833333333333336</ele><time>2026-04-25T09:34:32.943Z</time></trkpt><trkpt lat="43.708416823238394" lon="10.8288777029861"><ele>23.0</ele><time>2026-04-25T09:34:33.943Z</time></trkpt><trkpt lat="43.70838171596639" lon="10.828780332372736"><ele>23.0</ele><time>2026-04-25T09:34:34.943Z</time></trkpt><trkpt lat="43.70834880046458" lon="10.828673976208313"><ele>23.0</ele><time>2026-04-25T09:34:35.943Z</time></trkpt><trkpt lat="43.7083130851955" lon="10.828570719523734"><ele>23.0</ele><time>2026-04-25T09:34:36.943Z</time></trkpt><trkpt lat="43.70827963009783" lon="10.828465811958496"><ele>23.0</ele><time>2026-04-25T09:34:37.943Z</time></trkpt><trkpt lat="43.7082474152066" lon="10.82836914898018"><ele>23.0</ele><time>2026-04-25T09:34:38.943Z</time></trkpt><trkpt lat="43.70821190039471" lon="10.828259324876997"><ele>23.0</ele><time>2026-04-25T09:34:39.943Z</time></trkpt><trkpt lat="43.70817682647625" lon="10.828156821906406"><ele>22.833333333333336</ele><time>2026-04-25T09:34:40.943Z</time></trkpt><trkpt lat="43.70814333211443" lon="10.828049073412084"><ele>22.666666666666668</ele><time>2026-04-25T09:34:41.943Z</time></trkpt><trkpt lat="43.70811366576408" lon="10.827947131911639"><ele>22.5</ele><time>2026-04-25T09:34:42.943Z</time></trkpt><trkpt lat="43.708081913436445" lon="10.827840743485046"><ele>22.333333333333332</ele><time>2026-04-25T09:34:43.943Z</time></trkpt><trkpt lat="43.70805312179395" lon="10.827734893793723"><ele>22.166666666666664</ele><time>2026-04-25T09:34:44.944Z</time></trkpt><trkpt lat="43.70801952444908" lon="10.827635263946151"><ele>22.0</ele><time>2026-04-25T09:34:45.944Z</time></trkpt><trkpt lat="43.70798519956415" lon="10.827544953469424"><ele>22.0</ele><time>2026-04-25T09:34:46.944Z</time></trkpt><trkpt lat="43.70795285831485" lon="10.827443811658041"><ele>22.0</ele><time>2026-04-25T09:34:47.944Z</time></trkpt><trkpt lat="43.70792047402928" lon="10.827336222613951"><ele>22.0</ele><time>2026-04-25T09:34:48.944Z</time></trkpt><trkpt lat="43.70788228826141" lon="10.827219819030486"><ele>22.0</ele><time>2026-04-25T09:34:49.944Z</time></trkpt><trkpt lat="43.707853716516695" lon="10.827119397405406"><ele>22.0</ele><time>2026-04-25T09:34:50.944Z</time></trkpt><trkpt lat="43.70782033061835" lon="10.827028889794205"><ele>22.0</ele><time>2026-04-25T09:34:51.944Z</time></trkpt><trkpt lat="43.707789590580944" lon="10.826942621671948"><ele>22.0</ele><time>2026-04-25T09:34:52.944Z</time></trkpt><trkpt lat="43.70772977699008" lon="10.82684004395733"><ele>22.0</ele><time>2026-04-25T09:34:54.944Z</time></trkpt><trkpt lat="43.707647876357356" lon="10.82680302489514"><ele>22.0</ele><time>2026-04-25T09:34:56.944Z</time></trkpt><trkpt lat="43.70752977666842" lon="10.82673867329401"><ele>22.0</ele><time>2026-04-25T09:34:58.941Z</time></trkpt><trkpt lat="43.70747127999675" lon="10.826704334875165"><ele>22.0</ele><time>2026-04-25T09:34:59.941Z</time></trkpt><trkpt lat="43.7074074322865" lon="10.826667024524099"><ele>22.0</ele><time>2026-04-25T09:35:00.941Z</time></trkpt><trkpt lat="43.70734592305733" lon="10.826633538523726"><ele>22.0</ele><time>2026-04-25T09:35:01.94Z</time></trkpt><trkpt lat="43.70728424162325" lon="10.826592637783927"><ele>22.0</ele><time>2026-04-25T09:35:02.94Z</time></trkpt><trkpt lat="43.707212386928454" lon="10.826551721348421"><ele>22.0</ele><time>2026-04-25T09:35:03.94Z</time></trkpt><trkpt lat="43.70710517348781" lon="10.826484833832222"><ele>22.0</ele><time>2026-04-25T09:35:05.941Z</time></trkpt><trkpt lat="43.70703961341659" lon="10.826464660526439"><ele>22.0</ele><time>2026-04-25T09:35:06.94Z</time></trkpt><trkpt lat="43.706974299434165" lon="10.826436882058722"><ele>22.0</ele><time>2026-04-25T09:35:07.94Z</time></trkpt><trkpt lat="43.70691027525217" lon="10.826410467494235"><ele>22.0</ele><time>2026-04-25T09:35:08.94Z</time></trkpt><trkpt lat="43.7068410563737" lon="10.82637821149648"><ele>22.0</ele><time>2026-04-25T09:35:09.94Z</time></trkpt><trkpt lat="43.70677520809249" lon="10.826330510917103"><ele>22.0</ele><time>2026-04-25T09:35:10.941Z</time></trkpt><trkpt lat="43.706666209367086" lon="10.826263258279248"><ele>22.0</ele><time>2026-04-25T09:35:12.941Z</time></trkpt><trkpt lat="43.706553808064015" lon="10.82619092739435"><ele>22.0</ele><time>2026-04-25T09:35:14.941Z</time></trkpt><trkpt lat="43.70645430809069" lon="10.82612558848686"><ele>22.0</ele><time>2026-04-25T09:35:16.941Z</time></trkpt><trkpt lat="43.706372597589414" lon="10.826083207789877"><ele>22.0</ele><time>2026-04-25T09:35:18.941Z</time></trkpt><trkpt lat="43.70629249336709" lon="10.826034974415053"><ele>22.0</ele><time>2026-04-25T09:35:20.941Z</time></trkpt><trkpt lat="43.70622164867805" lon="10.825990157553559"><ele>22.0</ele><time>2026-04-25T09:35:22.941Z</time></trkpt><trkpt lat="43.706164768572584" lon="10.825933212218825"><ele>22.0</ele><time>2026-04-25T09:35:26.941Z</time></trkpt><trkpt lat="43.70623320644328" lon="10.825776982215523"><ele>21.5</ele><time>2026-04-25T09:35:29.941Z</time></trkpt><trkpt lat="43.70629579597519" lon="10.825669046992154"><ele>21.0</ele><time>2026-04-25T09:35:30.941Z</time></trkpt><trkpt lat="43.706365963700094" lon="10.82554691109726"><ele>20.5</ele><time>2026-04-25T09:35:31.941Z</time></trkpt><trkpt lat="43.70645045847139" lon="10.825394151442973"><ele>20.0</ele><time>2026-04-25T09:35:32.941Z</time></trkpt><trkpt lat="43.70654726853974" lon="10.82522920743792"><ele>20.0</ele><time>2026-04-25T09:35:33.941Z</time></trkpt><trkpt lat="43.70664348070518" lon="10.825055728801939"><ele>20.0</ele><time>2026-04-25T09:35:34.941Z</time></trkpt><trkpt lat="43.70673554781238" lon="10.824887272217351"><ele>20.0</ele><time>2026-04-25T09:35:35.941Z</time></trkpt><trkpt lat="43.706826902228705" lon="10.824718517263802"><ele>20.0</ele><time>2026-04-25T09:35:36.941Z</time></trkpt><trkpt lat="43.70690744281089" lon="10.824553638501282"><ele>20.0</ele><time>2026-04-25T09:35:37.941Z</time></trkpt><trkpt lat="43.706995493693654" lon="10.824389295426073"><ele>20.0</ele><time>2026-04-25T09:35:38.941Z</time></trkpt><trkpt lat="43.70708693110964" lon="10.82423320227704"><ele>20.0</ele><time>2026-04-25T09:35:39.941Z</time></trkpt><trkpt lat="43.707167281706674" lon="10.824077837716745"><ele>20.0</ele><time>2026-04-25T09:35:40.941Z</time></trkpt><trkpt lat="43.70724224568831" lon="10.823943732836529"><ele>20.0</ele><time>2026-04-25T09:35:41.941Z</time></trkpt><trkpt lat="43.70731396104041" lon="10.8238214842679"><ele>20.0</ele><time>2026-04-25T09:35:42.941Z</time></trkpt><trkpt lat="43.70737606868821" lon="10.823710215041144"><ele>20.0</ele><time>2026-04-25T09:35:43.941Z</time></trkpt><trkpt lat="43.70743275269533" lon="10.823600272765228"><ele>20.0</ele><time>2026-04-25T09:35:44.941Z</time></trkpt><trkpt lat="43.70749507771375" lon="10.823490815092043"><ele>20.5</ele><time>2026-04-25T09:35:45.941Z</time></trkpt><trkpt lat="43.70755636694306" lon="10.82336807142775"><ele>21.0</ele><time>2026-04-25T09:35:46.941Z</time></trkpt><trkpt lat="43.70762381162417" lon="10.823236930859379"><ele>21.5</ele><time>2026-04-25T09:35:47.941Z</time></trkpt><trkpt lat="43.70769817065995" lon="10.823104722137815"><ele>22.0</ele><time>2026-04-25T09:35:48.941Z</time></trkpt><trkpt lat="43.70777447147884" lon="10.82296355869716"><ele>22.0</ele><time>2026-04-25T09:35:49.942Z</time></trkpt><trkpt lat="43.70785380364637" lon="10.822806749640993"><ele>22.0</ele><time>2026-04-25T09:35:50.942Z</time></trkpt><trkpt lat="43.70793555626662" lon="10.822652971810346"><ele>22.0</ele><time>2026-04-25T09:35:51.942Z</time></trkpt><trkpt lat="43.70802141761999" lon="10.82249454751757"><ele>22.0</ele><time>2026-04-25T09:35:52.942Z</time></trkpt><trkpt lat="43.708115252933226" lon="10.82231528354285"><ele>22.0</ele><time>2026-04-25T09:35:53.942Z</time></trkpt><trkpt lat="43.70823062734929" lon="10.822098418911757"><ele>22.0</ele><time>2026-04-25T09:35:54.942Z</time></trkpt><trkpt lat="43.708361014899964" lon="10.821865271009157"><ele>22.0</ele><time>2026-04-25T09:35:55.942Z</time></trkpt><trkpt lat="43.70848382757958" lon="10.821628770053831"><ele>22.0</ele><time>2026-04-25T09:35:56.942Z</time></trkpt><trkpt lat="43.7085968095412" lon="10.82140827886097"><ele>22.0</ele><time>2026-04-25T09:35:57.942Z</time></trkpt><trkpt lat="43.70871235115269" lon="10.821197791401014"><ele>22.0</ele><time>2026-04-25T09:35:58.942Z</time></trkpt><trkpt lat="43.7088267746377" lon="10.820991784312408"><ele>21.333333333333332</ele><time>2026-04-25T09:35:59.942Z</time></trkpt><trkpt lat="43.7089398339826" lon="10.820790119412216"><ele>20.666666666666668</ele><time>2026-04-25T09:36:00.942Z</time></trkpt><trkpt lat="43.70905735175697" lon="10.820603746521606"><ele>20.0</ele><time>2026-04-25T09:36:01.942Z</time></trkpt><trkpt lat="43.70917746065813" lon="10.820434959314564"><ele>20.0</ele><time>2026-04-25T09:36:02.942Z</time></trkpt><trkpt lat="43.70930400921028" lon="10.820270063983793"><ele>20.0</ele><time>2026-04-25T09:36:03.942Z</time></trkpt><trkpt lat="43.70942543363142" lon="10.820113777532157"><ele>20.0</ele><time>2026-04-25T09:36:04.942Z</time></trkpt><trkpt lat="43.709553553055905" lon="10.819960471772754"><ele>20.333333333333336</ele><time>2026-04-25T09:36:05.942Z</time></trkpt><trkpt lat="43.70967992173252" lon="10.819807100289351"><ele>20.666666666666668</ele><time>2026-04-25T09:36:06.942Z</time></trkpt><trkpt lat="43.709806346378706" lon="10.819667786537993"><ele>21.0</ele><time>2026-04-25T09:36:07.942Z</time></trkpt><trkpt lat="43.709918635079795" lon="10.8195466528384"><ele>21.0</ele><time>2026-04-25T09:36:08.942Z</time></trkpt><trkpt lat="43.71002914458999" lon="10.819433050160443"><ele>21.0</ele><time>2026-04-25T09:36:09.942Z</time></trkpt><trkpt lat="43.71013695348623" lon="10.819333920155684"><ele>21.0</ele><time>2026-04-25T09:36:10.942Z</time></trkpt><trkpt lat="43.710243403151644" lon="10.81926093731596"><ele>21.0</ele><time>2026-04-25T09:36:11.942Z</time></trkpt><trkpt lat="43.71034902366634" lon="10.819243553199108"><ele>21.4</ele><time>2026-04-25T09:36:12.942Z</time></trkpt><trkpt lat="43.71044517596305" lon="10.819242647517475"><ele>21.8</ele><time>2026-04-25T09:36:13.942Z</time></trkpt><trkpt lat="43.71052089238962" lon="10.819191142882097"><ele>22.2</ele><time>2026-04-25T09:36:14.942Z</time></trkpt><trkpt lat="43.71052958220621" lon="10.819074719325611"><ele>22.599999999999998</ele><time>2026-04-25T09:36:15.942Z</time></trkpt><trkpt lat="43.71049467003165" lon="10.81895473912632"><ele>23.0</ele><time>2026-04-25T09:36:16.942Z</time></trkpt><trkpt lat="43.710423424692614" lon="10.818830853790473"><ele>23.0</ele><time>2026-04-25T09:36:17.942Z</time></trkpt><trkpt lat="43.710351509649485" lon="10.81868365074709"><ele>23.0</ele><time>2026-04-25T09:36:18.942Z</time></trkpt><trkpt lat="43.71030832752606" lon="10.81850595859754"><ele>23.0</ele><time>2026-04-25T09:36:19.942Z</time></trkpt><trkpt lat="43.710295528399044" lon="10.818332329782999"><ele>23.0</ele><time>2026-04-25T09:36:20.942Z</time></trkpt><trkpt lat="43.710298625205276" lon="10.818161375659015"><ele>22.75</ele><time>2026-04-25T09:36:21.942Z</time></trkpt><trkpt lat="43.71034111555979" lon="10.817999042637748"><ele>22.5</ele><time>2026-04-25T09:36:22.942Z</time></trkpt><trkpt lat="43.71042069762895" lon="10.817858061834436"><ele>22.25</ele><time>2026-04-25T09:36:23.942Z</time></trkpt><trkpt lat="43.7105324468042" lon="10.817752800268204"><ele>22.0</ele><time>2026-04-25T09:36:24.942Z</time></trkpt><trkpt lat="43.710676594450426" lon="10.817665735140036"><ele>21.666666666666664</ele><time>2026-04-25T09:36:25.942Z</time></trkpt><trkpt lat="43.710824407454595" lon="10.81754945449145"><ele>21.333333333333332</ele><time>2026-04-25T09:36:26.942Z</time></trkpt><trkpt lat="43.71096473825226" lon="10.817412825510361"><ele>21.0</ele><time>2026-04-25T09:36:27.942Z</time></trkpt><trkpt lat="43.711095022626814" lon="10.817290865449134"><ele>21.0</ele><time>2026-04-25T09:36:28.942Z</time></trkpt><trkpt lat="43.71119722293138" lon="10.817202494580311"><ele>21.0</ele><time>2026-04-25T09:36:29.942Z</time></trkpt><trkpt lat="43.71127982741937" lon="10.817127577279752"><ele>21.0</ele><time>2026-04-25T09:36:30.942Z</time></trkpt><trkpt lat="43.711349460918264" lon="10.817062929340832"><ele>21.0</ele><time>2026-04-25T09:36:31.942Z</time></trkpt><trkpt lat="43.7114066893064" lon="10.817017360220877"><ele>21.0</ele><time>2026-04-25T09:36:32.942Z</time></trkpt><trkpt lat="43.71150201792467" lon="10.817035045290522"><ele>21.0</ele><time>2026-04-25T09:36:34.942Z</time></trkpt><trkpt lat="43.71155432407429" lon="10.81710258710469"><ele>21.0</ele><time>2026-04-25T09:36:35.942Z</time></trkpt><trkpt lat="43.71160248652689" lon="10.81720284206417"><ele>21.0</ele><time>2026-04-25T09:36:36.942Z</time></trkpt><trkpt lat="43.71166964862922" lon="10.81730706073528"><ele>21.0</ele><time>2026-04-25T09:36:37.942Z</time></trkpt><trkpt lat="43.71171096824347" lon="10.817395908845311"><ele>21.0</ele><time>2026-04-25T09:36:38.942Z</time></trkpt><trkpt lat="43.71175611652373" lon="10.81750097954698"><ele>21.0</ele><time>2026-04-25T09:36:40.942Z</time></trkpt><trkpt lat="43.71181227788955" lon="10.817610155722704"><ele>21.25</ele><time>2026-04-25T09:36:42.942Z</time></trkpt><trkpt lat="43.711867094296046" lon="10.817706371589864"><ele>21.5</ele><time>2026-04-25T09:36:43.942Z</time></trkpt><trkpt lat="43.71193360131179" lon="10.817823635585109"><ele>21.75</ele><time>2026-04-25T09:36:44.942Z</time></trkpt><trkpt lat="43.7120136028833" lon="10.81796726424062"><ele>22.0</ele><time>2026-04-25T09:36:45.942Z</time></trkpt><trkpt lat="43.71210186163045" lon="10.818123960100246"><ele>22.0</ele><time>2026-04-25T09:36:46.942Z</time></trkpt><trkpt lat="43.712189018915225" lon="10.818279243439818"><ele>22.0</ele><time>2026-04-25T09:36:47.942Z</time></trkpt><trkpt lat="43.71227783981428" lon="10.818411653035696"><ele>22.0</ele><time>2026-04-25T09:36:48.942Z</time></trkpt><trkpt lat="43.71238265937122" lon="10.818489856868883"><ele>22.0</ele><time>2026-04-25T09:36:49.942Z</time></trkpt><trkpt lat="43.712508278320136" lon="10.818504268242075"><ele>22.0</ele><time>2026-04-25T09:36:50.942Z</time></trkpt><trkpt lat="43.712663597162084" lon="10.818466125005509"><ele>22.0</ele><time>2026-04-25T09:36:51.942Z</time></trkpt><trkpt lat="43.71280296791133" lon="10.818382870304594"><ele>22.0</ele><time>2026-04-25T09:36:52.942Z</time></trkpt><trkpt lat="43.71293617711085" lon="10.81828336715803"><ele>21.75</ele><time>2026-04-25T09:36:53.942Z</time></trkpt><trkpt lat="43.713069044128346" lon="10.818193366968698"><ele>21.5</ele><time>2026-04-25T09:36:54.943Z</time></trkpt><trkpt lat="43.71319136349187" lon="10.818116181165319"><ele>21.25</ele><time>2026-04-25T09:36:55.943Z</time></trkpt><trkpt lat="43.71330914726086" lon="10.818044472520091"><ele>21.0</ele><time>2026-04-25T09:36:56.943Z</time></trkpt><trkpt lat="43.71342741449968" lon="10.817938787458948"><ele>21.0</ele><time>2026-04-25T09:36:57.943Z</time></trkpt><trkpt lat="43.71353036081295" lon="10.817820584013944"><ele>21.0</ele><time>2026-04-25T09:36:58.943Z</time></trkpt><trkpt lat="43.713628126320245" lon="10.817695130734831"><ele>21.0</ele><time>2026-04-25T09:36:59.943Z</time></trkpt><trkpt lat="43.71371709293846" lon="10.817563689236742"><ele>21.0</ele><time>2026-04-25T09:37:00.943Z</time></trkpt><trkpt lat="43.713809780280755" lon="10.817423385738655"><ele>21.0</ele><time>2026-04-25T09:37:01.943Z</time></trkpt><trkpt lat="43.71390068960545" lon="10.817272211518393"><ele>21.0</ele><time>2026-04-25T09:37:02.943Z</time></trkpt><trkpt lat="43.71399078736159" lon="10.817123000138455"><ele>21.0</ele><time>2026-04-25T09:37:03.939Z</time></trkpt><trkpt lat="43.71408422183187" lon="10.81697755941546"><ele>21.0</ele><time>2026-04-25T09:37:04.94Z</time></trkpt><trkpt lat="43.71418156237821" lon="10.816825916922227"><ele>21.0</ele><time>2026-04-25T09:37:05.94Z</time></trkpt><trkpt lat="43.71427718762176" lon="10.816674998505643"><ele>21.0</ele><time>2026-04-25T09:37:06.94Z</time></trkpt><trkpt lat="43.71437354399377" lon="10.816535117263939"><ele>21.0</ele><time>2026-04-25T09:37:07.94Z</time></trkpt><trkpt lat="43.71447625245812" lon="10.816377397993174"><ele>21.0</ele><time>2026-04-25T09:37:08.94Z</time></trkpt><trkpt lat="43.71457968213558" lon="10.816216490684175"><ele>21.0</ele><time>2026-04-25T09:37:09.939Z</time></trkpt><trkpt lat="43.71468989391966" lon="10.816054287441508"><ele>21.0</ele><time>2026-04-25T09:37:10.94Z</time></trkpt><trkpt lat="43.71479338435677" lon="10.815898009601796"><ele>21.0</ele><time>2026-04-25T09:37:11.94Z</time></trkpt><trkpt lat="43.71489637312797" lon="10.815744680181556"><ele>21.0</ele><time>2026-04-25T09:37:12.94Z</time></trkpt><trkpt lat="43.71499847726529" lon="10.815599951182653"><ele>21.0</ele><time>2026-04-25T09:37:13.939Z</time></trkpt><trkpt lat="43.71509530003701" lon="10.81544542235787"><ele>21.0</ele><time>2026-04-25T09:37:14.939Z</time></trkpt><trkpt lat="43.71519245142596" lon="10.815292509541303"><ele>21.0</ele><time>2026-04-25T09:37:15.939Z</time></trkpt><trkpt lat="43.715288809809465" lon="10.815148895409319"><ele>21.0</ele><time>2026-04-25T09:37:16.939Z</time></trkpt><trkpt lat="43.71539489696997" lon="10.815005156110233"><ele>21.0</ele><time>2026-04-25T09:37:17.939Z</time></trkpt><trkpt lat="43.71549961750092" lon="10.814868983114572"><ele>21.0</ele><time>2026-04-25T09:37:18.939Z</time></trkpt><trkpt lat="43.71558927792467" lon="10.814719562440333"><ele>21.0</ele><time>2026-04-25T09:37:19.939Z</time></trkpt><trkpt lat="43.71568345183951" lon="10.814568445720106"><ele>21.0</ele><time>2026-04-25T09:37:20.939Z</time></trkpt><trkpt lat="43.71577672887114" lon="10.814414212139788"><ele>21.0</ele><time>2026-04-25T09:37:21.939Z</time></trkpt><trkpt lat="43.715877892791866" lon="10.81426470768463"><ele>21.0</ele><time>2026-04-25T09:37:22.94Z</time></trkpt><trkpt lat="43.715976570385216" lon="10.814114043055266"><ele>21.0</ele><time>2026-04-25T09:37:23.94Z</time></trkpt><trkpt lat="43.716073812510324" lon="10.813962753258886"><ele>20.333333333333332</ele><time>2026-04-25T09:37:24.94Z</time></trkpt><trkpt lat="43.71618135272188" lon="10.813813348573715"><ele>19.666666666666664</ele><time>2026-04-25T09:37:25.94Z</time></trkpt><trkpt lat="43.71628513975824" lon="10.813653783895315"><ele>19.0</ele><time>2026-04-25T09:37:26.94Z</time></trkpt><trkpt lat="43.71638239401217" lon="10.813495770376933"><ele>19.333333333333332</ele><time>2026-04-25T09:37:27.94Z</time></trkpt><trkpt lat="43.716480575645235" lon="10.813335099935141"><ele>19.666666666666668</ele><time>2026-04-25T09:37:28.94Z</time></trkpt><trkpt lat="43.716580713249144" lon="10.813178223945924"><ele>20.0</ele><time>2026-04-25T09:37:29.94Z</time></trkpt><trkpt lat="43.71668049924171" lon="10.813013976755968"><ele>20.0</ele><time>2026-04-25T09:37:30.94Z</time></trkpt><trkpt lat="43.71679711870205" lon="10.812870151334364"><ele>20.0</ele><time>2026-04-25T09:37:31.94Z</time></trkpt><trkpt lat="43.71690768996997" lon="10.81270733931374"><ele>20.0</ele><time>2026-04-25T09:37:32.94Z</time></trkpt><trkpt lat="43.71702250452665" lon="10.812540937547478"><ele>21.0</ele><time>2026-04-25T09:37:33.94Z</time></trkpt><trkpt lat="43.71714182556099" lon="10.812371085294258"><ele>22.0</ele><time>2026-04-25T09:37:34.94Z</time></trkpt><trkpt lat="43.71726321684648" lon="10.81220478318963"><ele>23.0</ele><time>2026-04-25T09:37:35.94Z</time></trkpt><trkpt lat="43.717396380590536" lon="10.812038332418942"><ele>23.0</ele><time>2026-04-25T09:37:36.94Z</time></trkpt><trkpt lat="43.71753777696036" lon="10.811885794587784"><ele>23.0</ele><time>2026-04-25T09:37:37.94Z</time></trkpt><trkpt lat="43.71768552909357" lon="10.81175040812104"><ele>23.0</ele><time>2026-04-25T09:37:38.94Z</time></trkpt><trkpt lat="43.71782441564252" lon="10.811641293463216"><ele>23.25</ele><time>2026-04-25T09:37:39.94Z</time></trkpt><trkpt lat="43.717959956046286" lon="10.811559541067856"><ele>23.5</ele><time>2026-04-25T09:37:40.94Z</time></trkpt><trkpt lat="43.71808913176577" lon="10.811497627666325"><ele>23.75</ele><time>2026-04-25T09:37:41.94Z</time></trkpt><trkpt lat="43.71822481143928" lon="10.811452057359004"><ele>24.0</ele><time>2026-04-25T09:37:42.94Z</time></trkpt><trkpt lat="43.7183610423874" lon="10.811453756630405"><ele>24.0</ele><time>2026-04-25T09:37:43.94Z</time></trkpt><trkpt lat="43.71850247711187" lon="10.811443465723686"><ele>24.0</ele><time>2026-04-25T09:37:44.94Z</time></trkpt><trkpt lat="43.71862352302384" lon="10.811502278415047"><ele>24.0</ele><time>2026-04-25T09:37:45.94Z</time></trkpt><trkpt lat="43.71868534591337" lon="10.811547447350291"><ele>24.0</ele><time>2026-04-25T09:37:46.94Z</time></trkpt><trkpt lat="43.718743018212265" lon="10.811624724324558"><ele>24.0</ele><time>2026-04-25T09:39:29.939Z</time></trkpt><trkpt lat="43.71879258796959" lon="10.811682601122383"><ele>22.0</ele><time>2026-04-25T09:39:30.939Z</time></trkpt><trkpt lat="43.7188653593074" lon="10.81174401583269"><ele>20.0</ele><time>2026-04-25T09:39:31.939Z</time></trkpt><trkpt lat="43.71895612300609" lon="10.811799136505668"><ele>18.0</ele><time>2026-04-25T09:39:32.939Z</time></trkpt><trkpt lat="43.7190613601289" lon="10.811878989664654"><ele>16.0</ele><time>2026-04-25T09:39:33.939Z</time></trkpt><trkpt lat="43.71920771973738" lon="10.811989687170986"><ele>15.666666666666666</ele><time>2026-04-25T09:39:34.939Z</time></trkpt><trkpt lat="43.71936921062371" lon="10.81210592968972"><ele>15.333333333333332</ele><time>2026-04-25T09:39:35.939Z</time></trkpt><trkpt lat="43.719533067479425" lon="10.812225297264105"><ele>15.0</ele><time>2026-04-25T09:39:36.939Z</time></trkpt><trkpt lat="43.7196966998242" lon="10.812346252907687"><ele>15.666666666666668</ele><time>2026-04-25T09:39:37.939Z</time></trkpt><trkpt lat="43.71985450770067" lon="10.812462077078052"><ele>16.333333333333336</ele><time>2026-04-25T09:39:38.939Z</time></trkpt><trkpt lat="43.72000215812912" lon="10.812570253595396"><ele>17.0</ele><time>2026-04-25T09:39:39.939Z</time></trkpt><trkpt lat="43.720122423800774" lon="10.812685913743106"><ele>19.5</ele><time>2026-04-25T09:39:40.939Z</time></trkpt><trkpt lat="43.72024274721318" lon="10.812770394077772"><ele>22.0</ele><time>2026-04-25T09:39:41.939Z</time></trkpt><trkpt lat="43.720354683472664" lon="10.812855323307138"><ele>24.5</ele><time>2026-04-25T09:39:42.939Z</time></trkpt><trkpt lat="43.720463091318976" lon="10.812934303779441"><ele>27.0</ele><time>2026-04-25T09:39:43.939Z</time></trkpt><trkpt lat="43.72056903994244" lon="10.813013262835472"><ele>27.0</ele><time>2026-04-25T09:39:44.94Z</time></trkpt><trkpt lat="43.72066375479734" lon="10.81310888102596"><ele>27.0</ele><time>2026-04-25T09:39:45.94Z</time></trkpt><trkpt lat="43.72076663338242" lon="10.813186546495858"><ele>27.0</ele><time>2026-04-25T09:39:46.94Z</time></trkpt><trkpt lat="43.72088496170433" lon="10.81324999630239"><ele>27.0</ele><time>2026-04-25T09:39:47.94Z</time></trkpt><trkpt lat="43.72099413854637" lon="10.813340530741467"><ele>26.75</ele><time>2026-04-25T09:39:48.94Z</time></trkpt><trkpt lat="43.721098902567746" lon="10.813424598748272"><ele>26.5</ele><time>2026-04-25T09:39:49.94Z</time></trkpt><trkpt lat="43.72122414099746" lon="10.813482739306568"><ele>26.25</ele><time>2026-04-25T09:39:50.94Z</time></trkpt><trkpt lat="43.72136173464099" lon="10.8135014998544"><ele>26.0</ele><time>2026-04-25T09:39:51.94Z</time></trkpt><trkpt lat="43.7214985089318" lon="10.81350031995049"><ele>26.0</ele><time>2026-04-25T09:39:52.94Z</time></trkpt><trkpt lat="43.72163277306863" lon="10.813482935626205"><ele>26.0</ele><time>2026-04-25T09:39:53.94Z</time></trkpt><trkpt lat="43.72177072777229" lon="10.813450929959636"><ele>26.0</ele><time>2026-04-25T09:39:54.94Z</time></trkpt><trkpt lat="43.721898409800374" lon="10.813389238790672"><ele>26.0</ele><time>2026-04-25T09:39:55.94Z</time></trkpt><trkpt lat="43.72203639751844" lon="10.81329401048248"><ele>25.25</ele><time>2026-04-25T09:39:56.94Z</time></trkpt><trkpt lat="43.72215893000332" lon="10.813196824371223"><ele>24.5</ele><time>2026-04-25T09:39:57.94Z</time></trkpt><trkpt lat="43.72227421678274" lon="10.813110930457164"><ele>23.75</ele><time>2026-04-25T09:39:58.94Z</time></trkpt><trkpt lat="43.72239089988578" lon="10.813044899335987"><ele>23.0</ele><time>2026-04-25T09:39:59.94Z</time></trkpt><trkpt lat="43.722501144300516" lon="10.812956102110759"><ele>23.0</ele><time>2026-04-25T09:40:00.94Z</time></trkpt><trkpt lat="43.72261019361322" lon="10.812877074268016"><ele>23.0</ele><time>2026-04-25T09:40:01.94Z</time></trkpt><trkpt lat="43.72271679685091" lon="10.81280557872026"><ele>23.0</ele><time>2026-04-25T09:40:02.94Z</time></trkpt><trkpt lat="43.72281304373389" lon="10.812743867851253"><ele>23.0</ele><time>2026-04-25T09:40:03.94Z</time></trkpt><trkpt lat="43.722874826362386" lon="10.812690246046447"><ele>23.0</ele><time>2026-04-25T09:40:04.94Z</time></trkpt><trkpt lat="43.72294114533567" lon="10.81261501242995"><ele>23.0</ele><time>2026-04-25T09:40:06.94Z</time></trkpt><trkpt lat="43.722848762786484" lon="10.81253941782773"><ele>23.0</ele><time>2026-04-25T09:40:09.94Z</time></trkpt><trkpt lat="43.7227651005027" lon="10.812544232294863"><ele>23.0</ele><time>2026-04-25T09:40:10.94Z</time></trkpt><trkpt lat="43.722655369196445" lon="10.812565350873129"><ele>23.0</ele><time>2026-04-25T09:40:11.94Z</time></trkpt><trkpt lat="43.72256298836879" lon="10.812544833124626"><ele>23.0</ele><time>2026-04-25T09:40:12.94Z</time></trkpt><trkpt lat="43.722491826561125" lon="10.81248964389797"><ele>23.599999999999998</ele><time>2026-04-25T09:40:13.94Z</time></trkpt><trkpt lat="43.72245048890283" lon="10.812402656536305"><ele>24.2</ele><time>2026-04-25T09:40:14.94Z</time></trkpt><trkpt lat="43.72240807154832" lon="10.812297921745065"><ele>24.8</ele><time>2026-04-25T09:40:15.94Z</time></trkpt><trkpt lat="43.72236343448942" lon="10.812182431573937"><ele>25.4</ele><time>2026-04-25T09:40:16.94Z</time></trkpt><trkpt lat="43.72231094407858" lon="10.812040018052546"><ele>26.0</ele><time>2026-04-25T09:40:17.94Z</time></trkpt><trkpt lat="43.72225268478699" lon="10.811889483975829"><ele>25.5</ele><time>2026-04-25T09:40:18.94Z</time></trkpt><trkpt lat="43.72219599112388" lon="10.81172600043334"><ele>25.0</ele><time>2026-04-25T09:40:19.94Z</time></trkpt><trkpt lat="43.72213769302929" lon="10.811560344382178"><ele>24.5</ele><time>2026-04-25T09:40:20.94Z</time></trkpt><trkpt lat="43.72208754472593" lon="10.811397577601841"><ele>24.0</ele><time>2026-04-25T09:40:21.94Z</time></trkpt><trkpt lat="43.722034242172015" lon="10.811228953563978"><ele>24.0</ele><time>2026-04-25T09:40:22.94Z</time></trkpt><trkpt lat="43.721978829687245" lon="10.811065098553605"><ele>24.0</ele><time>2026-04-25T09:40:23.94Z</time></trkpt><trkpt lat="43.72192349885602" lon="10.810922349041464"><ele>24.0</ele><time>2026-04-25T09:40:24.94Z</time></trkpt><trkpt lat="43.72189107590618" lon="10.810796755511635"><ele>24.0</ele><time>2026-04-25T09:40:25.94Z</time></trkpt><trkpt lat="43.721856917116014" lon="10.810679874860632"><ele>24.0</ele><time>2026-04-25T09:40:26.94Z</time></trkpt><trkpt lat="43.7218232010863" lon="10.810573445295237"><ele>23.833333333333332</ele><time>2026-04-25T09:40:27.94Z</time></trkpt><trkpt lat="43.72179980718677" lon="10.810488375555357"><ele>23.666666666666668</ele><time>2026-04-25T09:40:28.94Z</time></trkpt><trkpt lat="43.72176942529648" lon="10.810365923053226"><ele>23.5</ele><time>2026-04-25T09:40:30.94Z</time></trkpt><trkpt lat="43.72184510442634" lon="10.810263093938385"><ele>23.333333333333336</ele><time>2026-04-25T09:40:33.94Z</time></trkpt><trkpt lat="43.72190830522184" lon="10.810219723267316"><ele>23.166666666666668</ele><time>2026-04-25T09:40:34.94Z</time></trkpt><trkpt lat="43.72198598431551" lon="10.810196585138689"><ele>23.0</ele><time>2026-04-25T09:40:35.94Z</time></trkpt><trkpt lat="43.722073054857084" lon="10.810152074868093"><ele>23.0</ele><time>2026-04-25T09:40:36.94Z</time></trkpt><trkpt lat="43.722157986079985" lon="10.810105058476264"><ele>23.0</ele><time>2026-04-25T09:40:37.94Z</time></trkpt><trkpt lat="43.72222914032467" lon="10.81006566880245"><ele>23.0</ele><time>2026-04-25T09:40:38.94Z</time></trkpt><trkpt lat="43.72231654515169" lon="10.810041429103201"><ele>23.0</ele><time>2026-04-25T09:40:40.94Z</time></trkpt><trkpt lat="43.722396502992" lon="10.810173336285601"><ele>23.0</ele><time>2026-04-25T09:40:42.94Z</time></trkpt><trkpt lat="43.72241783436525" lon="10.810312727233182"><ele>22.75</ele><time>2026-04-25T09:40:43.94Z</time></trkpt><trkpt lat="43.722462131085344" lon="10.810470632027723"><ele>22.5</ele><time>2026-04-25T09:40:44.94Z</time></trkpt><trkpt lat="43.72250839426802" lon="10.810635306102212"><ele>22.25</ele><time>2026-04-25T09:40:45.94Z</time></trkpt><trkpt lat="43.722559362248084" lon="10.810816520948071"><ele>22.0</ele><time>2026-04-25T09:40:46.94Z</time></trkpt><trkpt lat="43.72261047344924" lon="10.810998245071227"><ele>22.25</ele><time>2026-04-25T09:40:47.94Z</time></trkpt><trkpt lat="43.72265364703911" lon="10.81115174724824"><ele>22.5</ele><time>2026-04-25T09:40:48.94Z</time></trkpt><trkpt lat="43.722683245904385" lon="10.811256984963507"><ele>22.75</ele><time>2026-04-25T09:40:49.941Z</time></trkpt><trkpt lat="43.722723604507266" lon="10.811352735515385"><ele>23.0</ele><time>2026-04-25T09:40:51.941Z</time></trkpt><trkpt lat="43.72291498653959" lon="10.811306684788974"><ele>23.0</ele><time>2026-04-25T09:40:52.941Z</time></trkpt><trkpt lat="43.72299563691162" lon="10.81126545913245"><ele>23.0</ele><time>2026-04-25T09:40:53.941Z</time></trkpt><trkpt lat="43.72308815460361" lon="10.811218167320941"><ele>23.0</ele><time>2026-04-25T09:40:54.941Z</time></trkpt><trkpt lat="43.723163544903805" lon="10.811179630352912"><ele>23.0</ele><time>2026-04-25T09:40:55.941Z</time></trkpt><trkpt lat="43.72329124785748" lon="10.811213455743426"><ele>23.0</ele><time>2026-04-25T09:40:57.941Z</time></trkpt><trkpt lat="43.723389560229286" lon="10.811196577991018"><ele>23.0</ele><time>2026-04-25T09:40:59.941Z</time></trkpt><trkpt lat="43.72347307724119" lon="10.811157918792938"><ele>23.0</ele><time>2026-04-25T09:41:02.941Z</time></trkpt><trkpt lat="43.72358959568499" lon="10.811081238289956"><ele>23.0</ele><time>2026-04-25T09:41:04.941Z</time></trkpt><trkpt lat="43.72367572945035" lon="10.81103626136829"><ele>23.0</ele><time>2026-04-25T09:41:05.941Z</time></trkpt><trkpt lat="43.7237737080119" lon="10.810986230747822"><ele>23.0</ele><time>2026-04-25T09:41:06.941Z</time></trkpt><trkpt lat="43.72385623415745" lon="10.810960376033144"><ele>23.0</ele><time>2026-04-25T09:41:07.941Z</time></trkpt><trkpt lat="43.723943166505606" lon="10.810915564456364"><ele>23.0</ele><time>2026-04-25T09:41:09.941Z</time></trkpt><trkpt lat="43.72386598890913" lon="10.810448647530034"><ele>23.0</ele><time>2026-04-25T09:41:18.937Z</time></trkpt><trkpt lat="43.72382444381263" lon="10.810279962849377"><ele>22.599999999999998</ele><time>2026-04-25T09:41:19.937Z</time></trkpt><trkpt lat="43.72378385660233" lon="10.810131181087797"><ele>22.2</ele><time>2026-04-25T09:41:20.937Z</time></trkpt><trkpt lat="43.72374597214863" lon="10.809978925287322"><ele>21.8</ele><time>2026-04-25T09:41:21.937Z</time></trkpt><trkpt lat="43.72370567774444" lon="10.809841471336291"><ele>21.4</ele><time>2026-04-25T09:41:22.938Z</time></trkpt><trkpt lat="43.72367317644756" lon="10.809723920092672"><ele>21.0</ele><time>2026-04-25T09:41:23.938Z</time></trkpt><trkpt lat="43.72364139626354" lon="10.809620922392158"><ele>21.0</ele><time>2026-04-25T09:41:24.938Z</time></trkpt><trkpt lat="43.72360669781391" lon="10.809514191787041"><ele>21.0</ele><time>2026-04-25T09:41:25.938Z</time></trkpt><trkpt lat="43.72358025058827" lon="10.809417097453512"><ele>21.0</ele><time>2026-04-25T09:41:26.938Z</time></trkpt><trkpt lat="43.723551782381605" lon="10.809321686637173"><ele>21.0</ele><time>2026-04-25T09:41:27.938Z</time></trkpt><trkpt lat="43.72352553730829" lon="10.80922943405744"><ele>21.0</ele><time>2026-04-25T09:41:28.937Z</time></trkpt><trkpt lat="43.723494172207005" lon="10.809134367488483"><ele>21.0</ele><time>2026-04-25T09:41:29.937Z</time></trkpt><trkpt lat="43.72346481194458" lon="10.80904570603259"><ele>21.200000000000003</ele><time>2026-04-25T09:41:30.937Z</time></trkpt><trkpt lat="43.72343899586944" lon="10.808954638257688"><ele>21.400000000000002</ele><time>2026-04-25T09:41:31.937Z</time></trkpt><trkpt lat="43.723398137356206" lon="10.80881876611839"><ele>21.6</ele><time>2026-04-25T09:41:33.937Z</time></trkpt><trkpt lat="43.72334800139156" lon="10.808695101382106"><ele>21.8</ele><time>2026-04-25T09:41:53.938Z</time></trkpt><trkpt lat="43.72334076624071" lon="10.80858830010728"><ele>22.0</ele><time>2026-04-25T09:41:54.938Z</time></trkpt><trkpt lat="43.723307113966705" lon="10.808467340736788"><ele>22.0</ele><time>2026-04-25T09:41:56.938Z</time></trkpt><trkpt lat="43.72327633943467" lon="10.808325483296771"><ele>22.0</ele><time>2026-04-25T09:42:04.938Z</time></trkpt><trkpt lat="43.7232607853414" lon="10.808195806057492"><ele>22.0</ele><time>2026-04-25T09:42:05.938Z</time></trkpt><trkpt lat="43.72323658462401" lon="10.808071781595906"><ele>22.0</ele><time>2026-04-25T09:42:06.938Z</time></trkpt><trkpt lat="43.72328104722008" lon="10.807998457494001"><ele>22.0</ele><time>2026-04-25T09:42:18.938Z</time></trkpt><trkpt lat="43.72341051789167" lon="10.80803672507928"><ele>22.0</ele><time>2026-04-25T09:42:20.938Z</time></trkpt><trkpt lat="43.72351431953329" lon="10.808039013747965"><ele>22.0</ele><time>2026-04-25T09:42:21.938Z</time></trkpt><trkpt lat="43.7236191101129" lon="10.808034517901561"><ele>22.0</ele><time>2026-04-25T09:42:22.938Z</time></trkpt><trkpt lat="43.72369302514151" lon="10.808044061762937"><ele>22.0</ele><time>2026-04-25T09:42:23.938Z</time></trkpt><trkpt lat="43.72376698752111" lon="10.808053097560158"><ele>22.0</ele><time>2026-04-25T09:42:24.938Z</time></trkpt><trkpt lat="43.723846404933596" lon="10.808063847847846"><ele>22.0</ele><time>2026-04-25T09:42:26.938Z</time></trkpt><trkpt lat="43.72390243077043" lon="10.807898868764912"><ele>21.8</ele><time>2026-04-25T09:42:30.938Z</time></trkpt><trkpt lat="43.72391502583629" lon="10.807752989659619"><ele>21.6</ele><time>2026-04-25T09:42:31.938Z</time></trkpt><trkpt lat="43.723914551329145" lon="10.807625915628"><ele>21.400000000000002</ele><time>2026-04-25T09:42:32.938Z</time></trkpt><trkpt lat="43.72391257868649" lon="10.807503884071668"><ele>21.200000000000003</ele><time>2026-04-25T09:42:33.938Z</time></trkpt><trkpt lat="43.723914312765416" lon="10.807386227201853"><ele>21.0</ele><time>2026-04-25T09:42:34.938Z</time></trkpt><trkpt lat="43.72390513292266" lon="10.807260924193116"><ele>21.0</ele><time>2026-04-25T09:42:35.938Z</time></trkpt><trkpt lat="43.72389370041425" lon="10.807148514055816"><ele>21.0</ele><time>2026-04-25T09:42:36.938Z</time></trkpt><trkpt lat="43.72389314296342" lon="10.80704579030426"><ele>21.0</ele><time>2026-04-25T09:42:37.938Z</time></trkpt><trkpt lat="43.72388970368716" lon="10.806948731035861"><ele>21.0</ele><time>2026-04-25T09:42:42.939Z</time></trkpt><trkpt lat="43.72388635036672" lon="10.806854097472655"><ele>21.0</ele><time>2026-04-25T09:42:50.939Z</time></trkpt><trkpt lat="43.72389017653217" lon="10.806962075306304"><ele>21.0</ele><time>2026-04-25T09:42:59.939Z</time></trkpt><trkpt lat="43.72389574335324" lon="10.807119175688216"><ele>21.0</ele><time>2026-04-25T09:43:01.939Z</time></trkpt><trkpt lat="43.72390051796932" lon="10.807253919036421"><ele>21.0</ele><time>2026-04-25T09:43:03.939Z</time></trkpt><trkpt lat="43.723907871622465" lon="10.807397727987738"><ele>21.0</ele><time>2026-04-25T09:43:05.939Z</time></trkpt><trkpt lat="43.72391314528128" lon="10.807500835461289"><ele>21.0</ele><time>2026-04-25T09:43:06.939Z</time></trkpt><trkpt lat="43.72391626505106" lon="10.807624221665483"><ele>21.0</ele><time>2026-04-25T09:43:07.939Z</time></trkpt><trkpt lat="43.72391506807989" lon="10.80771463944238"><ele>21.0</ele><time>2026-04-25T09:43:08.939Z</time></trkpt><trkpt lat="43.723914708229174" lon="10.807814114833885"><ele>21.0</ele><time>2026-04-25T09:43:11.939Z</time></trkpt><trkpt lat="43.723913959440345" lon="10.807958220466771"><ele>21.0</ele><time>2026-04-25T09:43:13.939Z</time></trkpt><trkpt lat="43.72371054166463" lon="10.808050830209364"><ele>21.0</ele><time>2026-04-25T09:43:16.939Z</time></trkpt><trkpt lat="43.7236068082581" lon="10.80806439238137"><ele>21.0</ele><time>2026-04-25T09:43:17.939Z</time></trkpt><trkpt lat="43.72350039267521" lon="10.808064523932867"><ele>21.166666666666668</ele><time>2026-04-25T09:43:18.939Z</time></trkpt><trkpt lat="43.72341854112605" lon="10.808074295783502"><ele>21.333333333333332</ele><time>2026-04-25T09:43:19.939Z</time></trkpt><trkpt lat="43.723352665549086" lon="10.808061615314724"><ele>21.5</ele><time>2026-04-25T09:43:20.939Z</time></trkpt><trkpt lat="43.72326883426943" lon="10.808008054494676"><ele>21.666666666666664</ele><time>2026-04-25T09:43:22.936Z</time></trkpt><trkpt lat="43.72322200163692" lon="10.807915652004956"><ele>21.833333333333332</ele><time>2026-04-25T09:43:24.936Z</time></trkpt><trkpt lat="43.72320524983971" lon="10.807817394062226"><ele>22.0</ele><time>2026-04-25T09:43:25.936Z</time></trkpt><trkpt lat="43.72318005232071" lon="10.807679386343503"><ele>22.0</ele><time>2026-04-25T09:43:26.936Z</time></trkpt><trkpt lat="43.72313600498761" lon="10.807504097737157"><ele>22.0</ele><time>2026-04-25T09:43:27.936Z</time></trkpt><trkpt lat="43.72308780400304" lon="10.807327051925428"><ele>22.0</ele><time>2026-04-25T09:43:28.936Z</time></trkpt><trkpt lat="43.72304808505052" lon="10.807191808472702"><ele>22.0</ele><time>2026-04-25T09:43:29.936Z</time></trkpt><trkpt lat="43.723021496049945" lon="10.80708164029668"><ele>22.0</ele><time>2026-04-25T09:43:30.936Z</time></trkpt><trkpt lat="43.723000932447576" lon="10.806996608193659"><ele>22.0</ele><time>2026-04-25T09:43:31.936Z</time></trkpt><trkpt lat="43.72297301958267" lon="10.806916855498185"><ele>22.0</ele><time>2026-04-25T09:43:32.936Z</time></trkpt><trkpt lat="43.722946655445654" lon="10.806814238578394"><ele>22.0</ele><time>2026-04-25T09:43:33.936Z</time></trkpt><trkpt lat="43.72291362452936" lon="10.806687651124491"><ele>22.0</ele><time>2026-04-25T09:43:34.936Z</time></trkpt><trkpt lat="43.72287921689907" lon="10.806551611450146"><ele>22.0</ele><time>2026-04-25T09:43:35.936Z</time></trkpt><trkpt lat="43.72284512634084" lon="10.806420115281922"><ele>22.0</ele><time>2026-04-25T09:43:36.936Z</time></trkpt><trkpt lat="43.722814090322046" lon="10.806306237433423"><ele>22.0</ele><time>2026-04-25T09:43:37.936Z</time></trkpt><trkpt lat="43.72278888320009" lon="10.80620761173584"><ele>22.0</ele><time>2026-04-25T09:43:38.936Z</time></trkpt><trkpt lat="43.722760305005025" lon="10.806104858344636"><ele>22.0</ele><time>2026-04-25T09:43:39.936Z</time></trkpt><trkpt lat="43.72272089831834" lon="10.805972752183722"><ele>22.0</ele><time>2026-04-25T09:43:40.936Z</time></trkpt><trkpt lat="43.72266752667536" lon="10.805814860295479"><ele>22.0</ele><time>2026-04-25T09:43:41.936Z</time></trkpt><trkpt lat="43.72261550766146" lon="10.8056174240306"><ele>22.0</ele><time>2026-04-25T09:43:42.936Z</time></trkpt><trkpt lat="43.72255863880261" lon="10.805398542679047"><ele>22.0</ele><time>2026-04-25T09:43:43.936Z</time></trkpt><trkpt lat="43.72250447614563" lon="10.805182232257105"><ele>21.75</ele><time>2026-04-25T09:43:44.936Z</time></trkpt><trkpt lat="43.72245366889711" lon="10.805007734875801"><ele>21.5</ele><time>2026-04-25T09:43:45.936Z</time></trkpt><trkpt lat="43.722397611845764" lon="10.804859574125167"><ele>21.25</ele><time>2026-04-25T09:43:46.936Z</time></trkpt><trkpt lat="43.72233405286458" lon="10.804727821011062"><ele>21.0</ele><time>2026-04-25T09:43:47.936Z</time></trkpt><trkpt lat="43.72226523572264" lon="10.804618194672718"><ele>21.0</ele><time>2026-04-25T09:43:48.936Z</time></trkpt><trkpt lat="43.72220613641392" lon="10.804537666228732"><ele>21.0</ele><time>2026-04-25T09:43:49.936Z</time></trkpt><trkpt lat="43.72214345110463" lon="10.804468589469602"><ele>21.0</ele><time>2026-04-25T09:43:51.936Z</time></trkpt><trkpt lat="43.722165476097096" lon="10.804368639114683"><ele>21.0</ele><time>2026-04-25T09:43:53.936Z</time></trkpt><trkpt lat="43.72222319281607" lon="10.804284772913094"><ele>21.0</ele><time>2026-04-25T09:43:54.936Z</time></trkpt><trkpt lat="43.72231796963079" lon="10.804180153422644"><ele>21.0</ele><time>2026-04-25T09:43:55.936Z</time></trkpt><trkpt lat="43.72241007418622" lon="10.804067363484466"><ele>20.5</ele><time>2026-04-25T09:43:56.936Z</time></trkpt><trkpt lat="43.72250751760733" lon="10.803943109506227"><ele>20.0</ele><time>2026-04-25T09:43:57.936Z</time></trkpt><trkpt lat="43.72260461064148" lon="10.803814093671383"><ele>19.5</ele><time>2026-04-25T09:43:58.936Z</time></trkpt><trkpt lat="43.72270482316741" lon="10.803692612084944"><ele>19.0</ele><time>2026-04-25T09:43:59.936Z</time></trkpt><trkpt lat="43.72279939448905" lon="10.803590555062938"><ele>19.0</ele><time>2026-04-25T09:44:00.936Z</time></trkpt><trkpt lat="43.72289758580376" lon="10.803494127069404"><ele>19.0</ele><time>2026-04-25T09:44:01.936Z</time></trkpt><trkpt lat="43.72300171550592" lon="10.803384217047634"><ele>19.0</ele><time>2026-04-25T09:44:02.936Z</time></trkpt><trkpt lat="43.723115601502776" lon="10.803272891739686"><ele>19.0</ele><time>2026-04-25T09:44:03.936Z</time></trkpt><trkpt lat="43.72322035484051" lon="10.803167535857735"><ele>19.0</ele><time>2026-04-25T09:44:04.936Z</time></trkpt><trkpt lat="43.72331466732562" lon="10.803073099992167"><ele>19.0</ele><time>2026-04-25T09:44:05.936Z</time></trkpt><trkpt lat="43.723386257283885" lon="10.802991095493503"><ele>19.0</ele><time>2026-04-25T09:44:06.936Z</time></trkpt><trkpt lat="43.72348579462258" lon="10.802872671989988"><ele>19.0</ele><time>2026-04-25T09:44:08.936Z</time></trkpt><trkpt lat="43.72354197578768" lon="10.802796227640396"><ele>19.0</ele><time>2026-04-25T09:44:09.936Z</time></trkpt><trkpt lat="43.723596131651384" lon="10.802708516853121"><ele>19.5</ele><time>2026-04-25T09:44:10.936Z</time></trkpt><trkpt lat="43.72367761270319" lon="10.802623622066598"><ele>20.0</ele><time>2026-04-25T09:44:11.936Z</time></trkpt><trkpt lat="43.72376036361934" lon="10.802524829024813"><ele>20.5</ele><time>2026-04-25T09:44:12.937Z</time></trkpt><trkpt lat="43.7238544428916" lon="10.802406889215273"><ele>21.0</ele><time>2026-04-25T09:44:13.937Z</time></trkpt><trkpt lat="43.723958840185986" lon="10.802288730418164"><ele>21.0</ele><time>2026-04-25T09:44:14.937Z</time></trkpt><trkpt lat="43.72407082611915" lon="10.80216421623999"><ele>21.0</ele><time>2026-04-25T09:44:15.937Z</time></trkpt><trkpt lat="43.724191150381785" lon="10.802038875229384"><ele>21.0</ele><time>2026-04-25T09:44:16.937Z</time></trkpt><trkpt lat="43.72431498327782" lon="10.801912891040514"><ele>21.0</ele><time>2026-04-25T09:44:17.937Z</time></trkpt><trkpt lat="43.724444934090215" lon="10.801800087531772"><ele>20.333333333333332</ele><time>2026-04-25T09:44:18.937Z</time></trkpt><trkpt lat="43.72456825213645" lon="10.801671867615473"><ele>19.666666666666664</ele><time>2026-04-25T09:44:19.937Z</time></trkpt><trkpt lat="43.7246940156034" lon="10.801549888831104"><ele>19.0</ele><time>2026-04-25T09:44:20.937Z</time></trkpt><trkpt lat="43.72481814072156" lon="10.801440761989474"><ele>19.0</ele><time>2026-04-25T09:44:21.937Z</time></trkpt><trkpt lat="43.72492712697619" lon="10.801343243940375"><ele>19.0</ele><time>2026-04-25T09:44:22.937Z</time></trkpt><trkpt lat="43.72501013857446" lon="10.801260339332288"><ele>19.0</ele><time>2026-04-25T09:44:23.937Z</time></trkpt><trkpt lat="43.725095139442054" lon="10.801181571038951"><ele>19.0</ele><time>2026-04-25T09:44:24.937Z</time></trkpt><trkpt lat="43.725188654145065" lon="10.80109376263521"><ele>19.0</ele><time>2026-04-25T09:44:25.937Z</time></trkpt><trkpt lat="43.72528305839076" lon="10.800997731781555"><ele>19.25</ele><time>2026-04-25T09:44:26.937Z</time></trkpt><trkpt lat="43.72538237609276" lon="10.800907716015743"><ele>19.5</ele><time>2026-04-25T09:44:27.937Z</time></trkpt><trkpt lat="43.72548833439494" lon="10.800819107975393"><ele>19.75</ele><time>2026-04-25T09:44:28.937Z</time></trkpt><trkpt lat="43.72559854128192" lon="10.800725963148015"><ele>20.0</ele><time>2026-04-25T09:44:29.937Z</time></trkpt><trkpt lat="43.72571196701318" lon="10.800626540262542"><ele>20.0</ele><time>2026-04-25T09:44:30.937Z</time></trkpt><trkpt lat="43.72583227988098" lon="10.800529974168347"><ele>20.0</ele><time>2026-04-25T09:44:31.937Z</time></trkpt><trkpt lat="43.725957960817766" lon="10.80043065368647"><ele>20.0</ele><time>2026-04-25T09:44:32.937Z</time></trkpt><trkpt lat="43.726088370747505" lon="10.800325382140729"><ele>20.0</ele><time>2026-04-25T09:44:33.937Z</time></trkpt><trkpt lat="43.72621730609253" lon="10.80022325148584"><ele>20.0</ele><time>2026-04-25T09:44:34.937Z</time></trkpt><trkpt lat="43.7263485023132" lon="10.800115579912871"><ele>20.0</ele><time>2026-04-25T09:44:35.937Z</time></trkpt><trkpt lat="43.72648130742941" lon="10.800005574430417"><ele>20.0</ele><time>2026-04-25T09:44:36.937Z</time></trkpt><trkpt lat="43.72661920005956" lon="10.799895599212777"><ele>20.0</ele><time>2026-04-25T09:44:37.937Z</time></trkpt><trkpt lat="43.72675015421484" lon="10.799786432946341"><ele>20.0</ele><time>2026-04-25T09:44:38.937Z</time></trkpt><trkpt lat="43.72687309887321" lon="10.799678522006918"><ele>20.0</ele><time>2026-04-25T09:44:39.937Z</time></trkpt><trkpt lat="43.72698655609146" lon="10.799587194498486"><ele>20.0</ele><time>2026-04-25T09:44:40.937Z</time></trkpt><trkpt lat="43.72709968222663" lon="10.799504397506388"><ele>20.0</ele><time>2026-04-25T09:44:41.937Z</time></trkpt><trkpt lat="43.7272080059059" lon="10.799421637089878"><ele>20.0</ele><time>2026-04-25T09:44:42.937Z</time></trkpt><trkpt lat="43.727309803301075" lon="10.799340641318294"><ele>20.0</ele><time>2026-04-25T09:44:43.937Z</time></trkpt><trkpt lat="43.72741058549706" lon="10.799264820433118"><ele>20.0</ele><time>2026-04-25T09:44:44.937Z</time></trkpt><trkpt lat="43.727505361698014" lon="10.799185800543944"><ele>20.0</ele><time>2026-04-25T09:44:45.937Z</time></trkpt><trkpt lat="43.72761683455454" lon="10.7991174310371"><ele>20.0</ele><time>2026-04-25T09:44:46.937Z</time></trkpt><trkpt lat="43.727712170571955" lon="10.799035539309326"><ele>20.0</ele><time>2026-04-25T09:44:47.937Z</time></trkpt><trkpt lat="43.72780978956429" lon="10.798949243077184"><ele>20.0</ele><time>2026-04-25T09:44:48.937Z</time></trkpt><trkpt lat="43.7279028678995" lon="10.79886826195863"><ele>20.2</ele><time>2026-04-25T09:44:49.937Z</time></trkpt><trkpt lat="43.72800371435758" lon="10.79879624442797"><ele>20.4</ele><time>2026-04-25T09:44:50.937Z</time></trkpt><trkpt lat="43.728096257233325" lon="10.798724201502033"><ele>20.6</ele><time>2026-04-25T09:44:51.937Z</time></trkpt><trkpt lat="43.728170128186456" lon="10.7986630294119"><ele>20.8</ele><time>2026-04-25T09:44:52.937Z</time></trkpt><trkpt lat="43.728236897579436" lon="10.798611504882672"><ele>21.0</ele><time>2026-04-25T09:44:53.937Z</time></trkpt><trkpt lat="43.72829703909598" lon="10.798555673168538"><ele>21.200000000000003</ele><time>2026-04-25T09:44:54.937Z</time></trkpt><trkpt lat="43.728360970027914" lon="10.798496533262728"><ele>21.400000000000002</ele><time>2026-04-25T09:44:55.937Z</time></trkpt><trkpt lat="43.728441181983094" lon="10.798424219944824"><ele>21.6</ele><time>2026-04-25T09:44:56.937Z</time></trkpt><trkpt lat="43.72852521816019" lon="10.798348620867511"><ele>21.8</ele><time>2026-04-25T09:44:57.937Z</time></trkpt><trkpt lat="43.728613977028495" lon="10.798272436865005"><ele>22.0</ele><time>2026-04-25T09:44:58.937Z</time></trkpt><trkpt lat="43.72869666410863" lon="10.79819730671376"><ele>22.0</ele><time>2026-04-25T09:44:59.937Z</time></trkpt><trkpt lat="43.72877429391287" lon="10.7981347676659"><ele>22.0</ele><time>2026-04-25T09:45:00.937Z</time></trkpt><trkpt lat="43.72884806695467" lon="10.798070984104761"><ele>22.0</ele><time>2026-04-25T09:45:01.937Z</time></trkpt><trkpt lat="43.72891612950604" lon="10.798004097962302"><ele>22.0</ele><time>2026-04-25T09:45:02.937Z</time></trkpt><trkpt lat="43.72897209729339" lon="10.797929960413699"><ele>22.0</ele><time>2026-04-25T09:45:03.937Z</time></trkpt><trkpt lat="43.72902324209566" lon="10.797855267999484"><ele>22.0</ele><time>2026-04-25T09:45:04.937Z</time></trkpt><trkpt lat="43.729076648076145" lon="10.797805338335662"><ele>22.0</ele><time>2026-04-25T09:45:05.937Z</time></trkpt><trkpt lat="43.729174257417945" lon="10.797744334544655"><ele>22.0</ele><time>2026-04-25T09:45:07.937Z</time></trkpt><trkpt lat="43.72921125275123" lon="10.797619999693666"><ele>22.0</ele><time>2026-04-25T09:45:09.937Z</time></trkpt><trkpt lat="43.72912882473206" lon="10.797464233960662"><ele>22.0</ele><time>2026-04-25T09:45:11.937Z</time></trkpt><trkpt lat="43.72907517010041" lon="10.797359971491986"><ele>22.0</ele><time>2026-04-25T09:45:12.937Z</time></trkpt><trkpt lat="43.72900075055574" lon="10.797240063566042"><ele>21.5</ele><time>2026-04-25T09:45:13.937Z</time></trkpt><trkpt lat="43.728924740866255" lon="10.79711392390206"><ele>21.0</ele><time>2026-04-25T09:45:14.937Z</time></trkpt><trkpt lat="43.72884156752689" lon="10.796958070329842"><ele>20.5</ele><time>2026-04-25T09:45:15.937Z</time></trkpt><trkpt lat="43.7287507325181" lon="10.796789074819232"><ele>20.0</ele><time>2026-04-25T09:45:16.937Z</time></trkpt><trkpt lat="43.72866076722483" lon="10.796617783576725"><ele>19.666666666666668</ele><time>2026-04-25T09:45:17.938Z</time></trkpt><trkpt lat="43.72856947189345" lon="10.796427996216895"><ele>19.333333333333332</ele><time>2026-04-25T09:45:18.938Z</time></trkpt><trkpt lat="43.728464024590686" lon="10.796224099425004"><ele>19.0</ele><time>2026-04-25T09:45:19.938Z</time></trkpt><trkpt lat="43.72836399312172" lon="10.796015695329201"><ele>18.666666666666664</ele><time>2026-04-25T09:45:20.938Z</time></trkpt><trkpt lat="43.728263503917965" lon="10.795811333511953"><ele>18.333333333333332</ele><time>2026-04-25T09:45:21.938Z</time></trkpt><trkpt lat="43.728158228135" lon="10.795604178684178"><ele>18.0</ele><time>2026-04-25T09:45:22.938Z</time></trkpt><trkpt lat="43.728054434727184" lon="10.795405452353865"><ele>18.0</ele><time>2026-04-25T09:45:23.938Z</time></trkpt><trkpt lat="43.72795295271413" lon="10.79520526616511"><ele>18.0</ele><time>2026-04-25T09:45:24.938Z</time></trkpt><trkpt lat="43.72784820334487" lon="10.79500560518153"><ele>18.0</ele><time>2026-04-25T09:45:25.938Z</time></trkpt><trkpt lat="43.727741221220235" lon="10.794799818498689"><ele>18.0</ele><time>2026-04-25T09:45:26.938Z</time></trkpt><trkpt lat="43.72763148987852" lon="10.794599597480731"><ele>18.0</ele><time>2026-04-25T09:45:27.934Z</time></trkpt><trkpt lat="43.72752002213537" lon="10.794388022690995"><ele>18.0</ele><time>2026-04-25T09:45:28.934Z</time></trkpt><trkpt lat="43.727411855464496" lon="10.79417125357319"><ele>18.333333333333332</ele><time>2026-04-25T09:45:29.934Z</time></trkpt><trkpt lat="43.727305276267565" lon="10.793956321408055"><ele>18.666666666666664</ele><time>2026-04-25T09:45:30.934Z</time></trkpt><trkpt lat="43.72721046784371" lon="10.793752080907025"><ele>19.0</ele><time>2026-04-25T09:45:31.934Z</time></trkpt><trkpt lat="43.72713740442994" lon="10.793588010322525"><ele>18.599999999999998</ele><time>2026-04-25T09:45:32.934Z</time></trkpt><trkpt lat="43.727086191073134" lon="10.793472865996861"><ele>18.2</ele><time>2026-04-25T09:45:33.935Z</time></trkpt><trkpt lat="43.72704550508862" lon="10.793382137948054"><ele>17.799999999999997</ele><time>2026-04-25T09:45:35.934Z</time></trkpt><trkpt lat="43.726978022058574" lon="10.793245176621618"><ele>17.4</ele><time>2026-04-25T09:46:16.935Z</time></trkpt><trkpt lat="43.726931937692" lon="10.793150989451487"><ele>17.0</ele><time>2026-04-25T09:46:17.935Z</time></trkpt><trkpt lat="43.72687890321112" lon="10.793040691472205"><ele>17.0</ele><time>2026-04-25T09:46:18.935Z</time></trkpt><trkpt lat="43.726818447272365" lon="10.792917062783543"><ele>17.0</ele><time>2026-04-25T09:46:19.935Z</time></trkpt><trkpt lat="43.72675031885911" lon="10.792782031741591"><ele>17.0</ele><time>2026-04-25T09:46:20.935Z</time></trkpt><trkpt lat="43.72668264417859" lon="10.79263242206543"><ele>17.0</ele><time>2026-04-25T09:46:21.935Z</time></trkpt><trkpt lat="43.726615945475885" lon="10.792470080420705"><ele>17.0</ele><time>2026-04-25T09:46:22.935Z</time></trkpt><trkpt lat="43.7265528737439" lon="10.792288267069145"><ele>17.0</ele><time>2026-04-25T09:46:23.935Z</time></trkpt><trkpt lat="43.72648827103536" lon="10.792090643072692"><ele>17.0</ele><time>2026-04-25T09:46:24.935Z</time></trkpt><trkpt lat="43.72642203569931" lon="10.791884697639313"><ele>16.666666666666668</ele><time>2026-04-25T09:46:25.935Z</time></trkpt><trkpt lat="43.72636049974084" lon="10.791668838319097"><ele>16.333333333333332</ele><time>2026-04-25T09:46:26.935Z</time></trkpt><trkpt lat="43.72629377938011" lon="10.791449582549538"><ele>16.0</ele><time>2026-04-25T09:46:27.935Z</time></trkpt><trkpt lat="43.72622373326668" lon="10.791221266291899"><ele>15.666666666666666</ele><time>2026-04-25T09:46:28.935Z</time></trkpt><trkpt lat="43.72615528024046" lon="10.790994703218571"><ele>15.333333333333332</ele><time>2026-04-25T09:46:29.935Z</time></trkpt><trkpt lat="43.72608408253291" lon="10.790763191455284"><ele>15.0</ele><time>2026-04-25T09:46:30.935Z</time></trkpt><trkpt lat="43.72601445309115" lon="10.790534376781787"><ele>14.666666666666668</ele><time>2026-04-25T09:46:31.935Z</time></trkpt><trkpt lat="43.725941646550474" lon="10.790300497261496"><ele>14.333333333333334</ele><time>2026-04-25T09:46:32.935Z</time></trkpt><trkpt lat="43.72586419757975" lon="10.790061793392104"><ele>14.0</ele><time>2026-04-25T09:46:33.935Z</time></trkpt><trkpt lat="43.72579151094637" lon="10.789828927912454"><ele>14.0</ele><time>2026-04-25T09:46:34.935Z</time></trkpt><trkpt lat="43.725733558800705" lon="10.789625806813943"><ele>14.0</ele><time>2026-04-25T09:46:35.935Z</time></trkpt><trkpt lat="43.72568914201995" lon="10.78945876970332"><ele>14.0</ele><time>2026-04-25T09:46:36.935Z</time></trkpt><trkpt lat="43.725654890282556" lon="10.789316460264335"><ele>14.0</ele><time>2026-04-25T09:46:37.935Z</time></trkpt><trkpt lat="43.725627669246855" lon="10.78919867631664"><ele>14.2</ele><time>2026-04-25T09:46:38.935Z</time></trkpt><trkpt lat="43.72565197468338" lon="10.78901682965002"><ele>14.399999999999999</ele><time>2026-04-25T09:46:40.935Z</time></trkpt><trkpt lat="43.7256757165425" lon="10.78892612483331"><ele>14.6</ele><time>2026-04-25T09:46:41.935Z</time></trkpt><trkpt lat="43.725705564590655" lon="10.788777535804051"><ele>14.8</ele><time>2026-04-25T09:46:43.935Z</time></trkpt><trkpt lat="43.72572395643348" lon="10.78868654667981"><ele>15.0</ele><time>2026-04-25T09:46:44.934Z</time></trkpt><trkpt lat="43.72573248959584" lon="10.788579390345449"><ele>15.4</ele><time>2026-04-25T09:46:45.934Z</time></trkpt><trkpt lat="43.72572378727847" lon="10.78846227145638"><ele>15.8</ele><time>2026-04-25T09:46:46.934Z</time></trkpt><trkpt lat="43.725691961341724" lon="10.788327951507593"><ele>16.2</ele><time>2026-04-25T09:46:47.934Z</time></trkpt><trkpt lat="43.725658618241006" lon="10.788177691879111"><ele>16.6</ele><time>2026-04-25T09:46:48.934Z</time></trkpt><trkpt lat="43.72561730714153" lon="10.788017834792663"><ele>17.0</ele><time>2026-04-25T09:46:49.934Z</time></trkpt><trkpt lat="43.72556416649847" lon="10.787825875490654"><ele>16.333333333333336</ele><time>2026-04-25T09:46:50.934Z</time></trkpt><trkpt lat="43.72550200622201" lon="10.787609216816865"><ele>15.666666666666668</ele><time>2026-04-25T09:46:51.934Z</time></trkpt><trkpt lat="43.725433164729" lon="10.78738774779249"><ele>15.0</ele><time>2026-04-25T09:46:52.934Z</time></trkpt><trkpt lat="43.725343637481025" lon="10.78717360628385"><ele>15.0</ele><time>2026-04-25T09:46:53.934Z</time></trkpt><trkpt lat="43.72524596225969" lon="10.78698344382421"><ele>15.0</ele><time>2026-04-25T09:46:54.934Z</time></trkpt><trkpt lat="43.72514415857206" lon="10.786783682124518"><ele>15.0</ele><time>2026-04-25T09:46:55.934Z</time></trkpt><trkpt lat="43.72504536631156" lon="10.786585004816247"><ele>14.666666666666668</ele><time>2026-04-25T09:46:56.934Z</time></trkpt><trkpt lat="43.72494165468928" lon="10.786379935404264"><ele>14.333333333333334</ele><time>2026-04-25T09:46:57.934Z</time></trkpt><trkpt lat="43.72483613192677" lon="10.786174573340356"><ele>14.0</ele><time>2026-04-25T09:46:58.934Z</time></trkpt><trkpt lat="43.72472873531246" lon="10.785963762240835"><ele>14.0</ele><time>2026-04-25T09:46:59.934Z</time></trkpt><trkpt lat="43.72462399826951" lon="10.785755027601908"><ele>14.0</ele><time>2026-04-25T09:47:00.934Z</time></trkpt><trkpt lat="43.724533949723025" lon="10.785570524089891"><ele>14.0</ele><time>2026-04-25T09:47:01.934Z</time></trkpt><trkpt lat="43.72445489604342" lon="10.785402320554123"><ele>14.2</ele><time>2026-04-25T09:47:02.934Z</time></trkpt><trkpt lat="43.724388371625004" lon="10.785263252879336"><ele>14.399999999999999</ele><time>2026-04-25T09:47:03.934Z</time></trkpt><trkpt lat="43.724344744605595" lon="10.785134527115721"><ele>14.6</ele><time>2026-04-25T09:47:04.934Z</time></trkpt><trkpt lat="43.72432802425891" lon="10.785016583969554"><ele>14.8</ele><time>2026-04-25T09:47:05.933Z</time></trkpt><trkpt lat="43.72430468162349" lon="10.784912809733372"><ele>15.0</ele><time>2026-04-25T09:47:06.933Z</time></trkpt><trkpt lat="43.72434514074208" lon="10.784763151608203"><ele>15.0</ele><time>2026-04-25T09:47:07.933Z</time></trkpt><trkpt lat="43.72432479982065" lon="10.784638739279078"><ele>15.0</ele><time>2026-04-25T09:47:08.933Z</time></trkpt><trkpt lat="43.724271284897405" lon="10.784521760524493"><ele>15.0</ele><time>2026-04-25T09:47:09.933Z</time></trkpt><trkpt lat="43.72417345198523" lon="10.784402227488917"><ele>15.0</ele><time>2026-04-25T09:47:10.933Z</time></trkpt><trkpt lat="43.724081486339706" lon="10.784256471302308"><ele>15.333333333333332</ele><time>2026-04-25T09:47:11.933Z</time></trkpt><trkpt lat="43.72399266850776" lon="10.784073942474244"><ele>15.666666666666666</ele><time>2026-04-25T09:47:12.933Z</time></trkpt><trkpt lat="43.723903313632675" lon="10.78387186823969"><ele>16.0</ele><time>2026-04-25T09:47:13.933Z</time></trkpt><trkpt lat="43.723806323701695" lon="10.783672867636257"><ele>15.666666666666666</ele><time>2026-04-25T09:47:14.933Z</time></trkpt><trkpt lat="43.72370448575669" lon="10.783459649712567"><ele>15.333333333333332</ele><time>2026-04-25T09:47:15.933Z</time></trkpt><trkpt lat="43.723604537938925" lon="10.783249402813572"><ele>15.0</ele><time>2026-04-25T09:47:16.933Z</time></trkpt><trkpt lat="43.72350283513907" lon="10.783040804150321"><ele>14.666666666666668</ele><time>2026-04-25T09:47:17.933Z</time></trkpt><trkpt lat="43.7234056148496" lon="10.782838521712122"><ele>14.333333333333334</ele><time>2026-04-25T09:47:18.933Z</time></trkpt><trkpt lat="43.723317895304625" lon="10.782618423117649"><ele>14.0</ele><time>2026-04-25T09:47:19.933Z</time></trkpt><trkpt lat="43.723199619067074" lon="10.782434097292299"><ele>14.0</ele><time>2026-04-25T09:47:20.933Z</time></trkpt><trkpt lat="43.723099878914866" lon="10.782239015305034"><ele>14.0</ele><time>2026-04-25T09:47:21.933Z</time></trkpt><trkpt lat="43.723002131496855" lon="10.78204619564451"><ele>14.0</ele><time>2026-04-25T09:47:22.933Z</time></trkpt><trkpt lat="43.72291531027006" lon="10.781857496222056"><ele>13.75</ele><time>2026-04-25T09:47:23.933Z</time></trkpt><trkpt lat="43.72284327380829" lon="10.781673839301932"><ele>13.5</ele><time>2026-04-25T09:47:24.933Z</time></trkpt><trkpt lat="43.722774584465036" lon="10.781492624046162"><ele>13.25</ele><time>2026-04-25T09:47:25.933Z</time></trkpt><trkpt lat="43.7227112513863" lon="10.78133258063174"><ele>13.0</ele><time>2026-04-25T09:47:26.933Z</time></trkpt><trkpt lat="43.7226225726471" lon="10.781178065437029"><ele>13.5</ele><time>2026-04-25T09:47:27.933Z</time></trkpt><trkpt lat="43.7225860347652" lon="10.780990482007601"><ele>14.0</ele><time>2026-04-25T09:47:28.933Z</time></trkpt><trkpt lat="43.722516167898895" lon="10.780804393352476"><ele>14.5</ele><time>2026-04-25T09:47:29.934Z</time></trkpt><trkpt lat="43.72244503731032" lon="10.780613522308206"><ele>15.0</ele><time>2026-04-25T09:47:30.934Z</time></trkpt><trkpt lat="43.72237205858595" lon="10.780418702758285"><ele>15.0</ele><time>2026-04-25T09:47:31.934Z</time></trkpt><trkpt lat="43.722297917338565" lon="10.780217312682725"><ele>15.0</ele><time>2026-04-25T09:47:32.934Z</time></trkpt><trkpt lat="43.72224009922956" lon="10.779998581474032"><ele>15.0</ele><time>2026-04-25T09:47:33.93Z</time></trkpt><trkpt lat="43.722151810365006" lon="10.779801601080889"><ele>15.0</ele><time>2026-04-25T09:47:34.93Z</time></trkpt><trkpt lat="43.722078142757624" lon="10.779605231239131"><ele>15.0</ele><time>2026-04-25T09:47:35.93Z</time></trkpt><trkpt lat="43.72201491441568" lon="10.779429277165583"><ele>15.0</ele><time>2026-04-25T09:47:36.93Z</time></trkpt><trkpt lat="43.72197099932617" lon="10.77926272451317"><ele>15.0</ele><time>2026-04-25T09:47:37.93Z</time></trkpt><trkpt lat="43.72196737755136" lon="10.77909474546775"><ele>14.75</ele><time>2026-04-25T09:47:38.93Z</time></trkpt><trkpt lat="43.72200716114515" lon="10.778955614716098"><ele>14.5</ele><time>2026-04-25T09:47:39.93Z</time></trkpt><trkpt lat="43.72207814006662" lon="10.77884836345539"><ele>14.25</ele><time>2026-04-25T09:47:40.93Z</time></trkpt><trkpt lat="43.722180393955504" lon="10.778758221610692"><ele>14.0</ele><time>2026-04-25T09:47:41.93Z</time></trkpt><trkpt lat="43.722302413881266" lon="10.778665516535222"><ele>14.0</ele><time>2026-04-25T09:47:42.93Z</time></trkpt><trkpt lat="43.72244355620863" lon="10.778568656947591"><ele>14.0</ele><time>2026-04-25T09:47:43.931Z</time></trkpt><trkpt lat="43.72258875041578" lon="10.778463720632825"><ele>14.0</ele><time>2026-04-25T09:47:44.931Z</time></trkpt><trkpt lat="43.72275092561295" lon="10.778383101659182"><ele>14.0</ele><time>2026-04-25T09:47:45.93Z</time></trkpt><trkpt lat="43.72290610496201" lon="10.778266187473479"><ele>14.0</ele><time>2026-04-25T09:47:46.93Z</time></trkpt><trkpt lat="43.72306397329006" lon="10.778147716338406"><ele>14.0</ele><time>2026-04-25T09:47:47.93Z</time></trkpt><trkpt lat="43.723198632411126" lon="10.7780466620338"><ele>14.0</ele><time>2026-04-25T09:47:48.93Z</time></trkpt><trkpt lat="43.72330640512856" lon="10.7779657846079"><ele>13.999999999999998</ele><time>2026-04-25T09:47:49.93Z</time></trkpt><trkpt lat="43.72339350159622" lon="10.777900423540263"><ele>13.999999999999998</ele><time>2026-04-25T09:47:50.93Z</time></trkpt><trkpt lat="43.72348283617583" lon="10.777833383656795"><ele>14.0</ele><time>2026-04-25T09:47:51.93Z</time></trkpt><trkpt lat="43.72358410451957" lon="10.777756640406063"><ele>14.0</ele><time>2026-04-25T09:47:52.93Z</time></trkpt><trkpt lat="43.723698205933154" lon="10.77764754215476"><ele>14.666666666666668</ele><time>2026-04-25T09:47:53.93Z</time></trkpt><trkpt lat="43.72381760214877" lon="10.777520830628607"><ele>15.333333333333332</ele><time>2026-04-25T09:47:54.93Z</time></trkpt><trkpt lat="43.72393129421612" lon="10.777373307251423"><ele>16.0</ele><time>2026-04-25T09:47:55.93Z</time></trkpt><trkpt lat="43.72405894631525" lon="10.777235356297824"><ele>16.0</ele><time>2026-04-25T09:47:56.93Z</time></trkpt><trkpt lat="43.724192841335224" lon="10.777100223221781"><ele>16.0</ele><time>2026-04-25T09:47:57.93Z</time></trkpt><trkpt lat="43.72432992279585" lon="10.776971121262436"><ele>16.0</ele><time>2026-04-25T09:47:58.93Z</time></trkpt><trkpt lat="43.7244697508862" lon="10.776854427329065"><ele>15.666666666666666</ele><time>2026-04-25T09:47:59.93Z</time></trkpt><trkpt lat="43.72461343394106" lon="10.776748725735187"><ele>15.333333333333332</ele><time>2026-04-25T09:48:00.93Z</time></trkpt><trkpt lat="43.72475673197274" lon="10.776653626798545"><ele>15.0</ele><time>2026-04-25T09:48:01.93Z</time></trkpt><trkpt lat="43.7248918757607" lon="10.776572045005123"><ele>15.0</ele><time>2026-04-25T09:48:02.93Z</time></trkpt><trkpt lat="43.72502528936383" lon="10.776486543310497"><ele>15.0</ele><time>2026-04-25T09:48:03.93Z</time></trkpt><trkpt lat="43.72515925960915" lon="10.776399104630846"><ele>15.0</ele><time>2026-04-25T09:48:04.93Z</time></trkpt><trkpt lat="43.725289531125576" lon="10.776306868296993"><ele>15.0</ele><time>2026-04-25T09:48:05.93Z</time></trkpt><trkpt lat="43.725409051730296" lon="10.776207134974195"><ele>15.0</ele><time>2026-04-25T09:48:06.93Z</time></trkpt><trkpt lat="43.72552390164967" lon="10.776117316266006"><ele>15.0</ele><time>2026-04-25T09:48:07.93Z</time></trkpt><trkpt lat="43.72563324901534" lon="10.776017049294591"><ele>15.0</ele><time>2026-04-25T09:48:08.93Z</time></trkpt><trkpt lat="43.72574421381487" lon="10.775915299151036"><ele>15.0</ele><time>2026-04-25T09:48:09.93Z</time></trkpt><trkpt lat="43.72585055567266" lon="10.775793676768398"><ele>15.0</ele><time>2026-04-25T09:48:10.93Z</time></trkpt><trkpt lat="43.72598152640691" lon="10.775711722052575"><ele>15.0</ele><time>2026-04-25T09:48:11.93Z</time></trkpt><trkpt lat="43.72609869967695" lon="10.775624820588494"><ele>15.0</ele><time>2026-04-25T09:48:12.93Z</time></trkpt><trkpt lat="43.726214041537105" lon="10.77554954769149"><ele>15.0</ele><time>2026-04-25T09:48:13.93Z</time></trkpt><trkpt lat="43.72633139389069" lon="10.775469025845155"><ele>15.0</ele><time>2026-04-25T09:48:14.93Z</time></trkpt><trkpt lat="43.72645567052039" lon="10.775387299324425"><ele>15.0</ele><time>2026-04-25T09:48:15.93Z</time></trkpt><trkpt lat="43.726595900580115" lon="10.775330415819464"><ele>15.0</ele><time>2026-04-25T09:48:16.93Z</time></trkpt><trkpt lat="43.72674007062893" lon="10.775262104569792"><ele>15.0</ele><time>2026-04-25T09:48:17.93Z</time></trkpt><trkpt lat="43.726889831679756" lon="10.775173363362079"><ele>15.0</ele><time>2026-04-25T09:48:18.93Z</time></trkpt><trkpt lat="43.72705328855361" lon="10.775053952124026"><ele>15.0</ele><time>2026-04-25T09:48:19.93Z</time></trkpt><trkpt lat="43.7272200120692" lon="10.774937177543698"><ele>15.0</ele><time>2026-04-25T09:48:20.93Z</time></trkpt><trkpt lat="43.72738102675705" lon="10.77482714132398"><ele>15.0</ele><time>2026-04-25T09:48:21.93Z</time></trkpt><trkpt lat="43.72752944380774" lon="10.774727036061345"><ele>15.0</ele><time>2026-04-25T09:48:22.93Z</time></trkpt><trkpt lat="43.72766368649288" lon="10.774624673465114"><ele>15.0</ele><time>2026-04-25T09:48:23.93Z</time></trkpt><trkpt lat="43.7277986341125" lon="10.77450832215152"><ele>15.0</ele><time>2026-04-25T09:48:24.93Z</time></trkpt><trkpt lat="43.72793400574315" lon="10.774383488485517"><ele>15.0</ele><time>2026-04-25T09:48:25.93Z</time></trkpt><trkpt lat="43.72805916728695" lon="10.774251133662402"><ele>15.0</ele><time>2026-04-25T09:48:26.93Z</time></trkpt><trkpt lat="43.72819023375718" lon="10.774120313151267"><ele>15.0</ele><time>2026-04-25T09:48:27.93Z</time></trkpt><trkpt lat="43.72832183486533" lon="10.773990445814633"><ele>15.0</ele><time>2026-04-25T09:48:28.93Z</time></trkpt><trkpt lat="43.72846043083978" lon="10.773861983418161"><ele>15.0</ele><time>2026-04-25T09:48:29.93Z</time></trkpt><trkpt lat="43.728598070927575" lon="10.773712894459786"><ele>15.0</ele><time>2026-04-25T09:48:30.93Z</time></trkpt><trkpt lat="43.72873364034849" lon="10.773556230131804"><ele>15.0</ele><time>2026-04-25T09:48:31.93Z</time></trkpt><trkpt lat="43.728877040364644" lon="10.773401775860613"><ele>15.0</ele><time>2026-04-25T09:48:32.93Z</time></trkpt><trkpt lat="43.72902595464301" lon="10.773251638455493"><ele>15.333333333333332</ele><time>2026-04-25T09:48:33.93Z</time></trkpt><trkpt lat="43.729171128422806" lon="10.773103002883204"><ele>15.666666666666666</ele><time>2026-04-25T09:48:34.93Z</time></trkpt><trkpt lat="43.72931448997705" lon="10.772963366626412"><ele>16.0</ele><time>2026-04-25T09:48:35.93Z</time></trkpt><trkpt lat="43.729460269973536" lon="10.77283441919528"><ele>16.0</ele><time>2026-04-25T09:48:36.93Z</time></trkpt><trkpt lat="43.72959318127853" lon="10.772697247292585"><ele>16.0</ele><time>2026-04-25T09:48:37.93Z</time></trkpt><trkpt lat="43.72972529310665" lon="10.772560258404347"><ele>16.0</ele><time>2026-04-25T09:48:38.93Z</time></trkpt><trkpt lat="43.72985812575333" lon="10.772420744028555"><ele>16.0</ele><time>2026-04-25T09:48:39.93Z</time></trkpt><trkpt lat="43.72999284787468" lon="10.772285188399367"><ele>16.0</ele><time>2026-04-25T09:48:40.93Z</time></trkpt><trkpt lat="43.73012953646844" lon="10.77214905757616"><ele>16.0</ele><time>2026-04-25T09:48:41.931Z</time></trkpt><trkpt lat="43.73027418887599" lon="10.77201616885696"><ele>15.666666666666666</ele><time>2026-04-25T09:48:42.931Z</time></trkpt><trkpt lat="43.730415999150665" lon="10.77187842190929"><ele>15.333333333333332</ele><time>2026-04-25T09:48:43.931Z</time></trkpt><trkpt lat="43.73056187859782" lon="10.771730201867033"><ele>15.0</ele><time>2026-04-25T09:48:44.931Z</time></trkpt><trkpt lat="43.730707497712636" lon="10.77158584462453"><ele>15.0</ele><time>2026-04-25T09:48:45.931Z</time></trkpt><trkpt lat="43.730852802273446" lon="10.771450343014799"><ele>15.0</ele><time>2026-04-25T09:48:46.931Z</time></trkpt><trkpt lat="43.73099180578251" lon="10.77131061325522"><ele>15.0</ele><time>2026-04-25T09:48:47.931Z</time></trkpt><trkpt lat="43.7311242966532" lon="10.771178376663462"><ele>14.666666666666668</ele><time>2026-04-25T09:48:48.931Z</time></trkpt><trkpt lat="43.73125061289148" lon="10.771042457831607"><ele>14.333333333333334</ele><time>2026-04-25T09:48:49.931Z</time></trkpt><trkpt lat="43.73137888380022" lon="10.770917327381058"><ele>14.0</ele><time>2026-04-25T09:48:50.931Z</time></trkpt><trkpt lat="43.73150470833805" lon="10.770797020420455"><ele>15.0</ele><time>2026-04-25T09:48:51.931Z</time></trkpt><trkpt lat="43.73162909305045" lon="10.77067274541474"><ele>16.0</ele><time>2026-04-25T09:48:52.931Z</time></trkpt><trkpt lat="43.73175208920165" lon="10.770544643384364"><ele>17.0</ele><time>2026-04-25T09:48:53.931Z</time></trkpt><trkpt lat="43.73188094379145" lon="10.770408629599439"><ele>16.75</ele><time>2026-04-25T09:48:54.931Z</time></trkpt><trkpt lat="43.73200830109595" lon="10.770266999701086"><ele>16.5</ele><time>2026-04-25T09:48:55.931Z</time></trkpt><trkpt lat="43.732122975756496" lon="10.770148995841911"><ele>16.25</ele><time>2026-04-25T09:48:56.931Z</time></trkpt><trkpt lat="43.73221721662448" lon="10.770051188866292"><ele>16.0</ele><time>2026-04-25T09:48:57.931Z</time></trkpt><trkpt lat="43.732292864858664" lon="10.769966305076945"><ele>15.8</ele><time>2026-04-25T09:48:58.931Z</time></trkpt><trkpt lat="43.732354944961344" lon="10.769903387393509"><ele>15.600000000000001</ele><time>2026-04-25T09:48:59.931Z</time></trkpt><trkpt lat="43.73243442780689" lon="10.76982351900658"><ele>15.4</ele><time>2026-04-25T09:49:01.931Z</time></trkpt><trkpt lat="43.73239795852803" lon="10.769642608822037"><ele>15.2</ele><time>2026-04-25T09:49:03.931Z</time></trkpt><trkpt lat="43.73235065080561" lon="10.769530092335785"><ele>15.0</ele><time>2026-04-25T09:49:04.931Z</time></trkpt><trkpt lat="43.73229490475093" lon="10.769392053201537"><ele>14.75</ele><time>2026-04-25T09:49:05.931Z</time></trkpt><trkpt lat="43.73223353625821" lon="10.769231945433923"><ele>14.5</ele><time>2026-04-25T09:49:06.931Z</time></trkpt><trkpt lat="43.73216252771518" lon="10.769054173095029"><ele>14.25</ele><time>2026-04-25T09:49:07.931Z</time></trkpt><trkpt lat="43.73209633899946" lon="10.768877519971142"><ele>14.0</ele><time>2026-04-25T09:49:08.931Z</time></trkpt><trkpt lat="43.73203387367418" lon="10.768709035731982"><ele>14.0</ele><time>2026-04-25T09:49:09.931Z</time></trkpt><trkpt lat="43.73197072721001" lon="10.76854665245362"><ele>14.0</ele><time>2026-04-25T09:49:10.931Z</time></trkpt><trkpt lat="43.731906996557655" lon="10.768377519153312"><ele>14.0</ele><time>2026-04-25T09:49:11.931Z</time></trkpt><trkpt lat="43.7318527469679" lon="10.768209867729109"><ele>14.0</ele><time>2026-04-25T09:49:12.931Z</time></trkpt><trkpt lat="43.731808611168084" lon="10.76805534337327"><ele>14.5</ele><time>2026-04-25T09:49:13.931Z</time></trkpt><trkpt lat="43.73177580029563" lon="10.76790452271368"><ele>15.0</ele><time>2026-04-25T09:49:14.931Z</time></trkpt><trkpt lat="43.73175692491392" lon="10.7677452915236"><ele>15.5</ele><time>2026-04-25T09:49:15.931Z</time></trkpt><trkpt lat="43.731745663923626" lon="10.767571025299997"><ele>16.0</ele><time>2026-04-25T09:49:16.931Z</time></trkpt><trkpt lat="43.731740974554185" lon="10.767381546245678"><ele>16.0</ele><time>2026-04-25T09:49:17.931Z</time></trkpt><trkpt lat="43.73172958174791" lon="10.767190910732259"><ele>16.0</ele><time>2026-04-25T09:49:18.931Z</time></trkpt><trkpt lat="43.7317152377767" lon="10.76700396895168"><ele>16.0</ele><time>2026-04-25T09:49:19.931Z</time></trkpt><trkpt lat="43.73169339213953" lon="10.766823005819889"><ele>16.0</ele><time>2026-04-25T09:49:20.931Z</time></trkpt><trkpt lat="43.73166127512181" lon="10.766640092198875"><ele>15.75</ele><time>2026-04-25T09:49:21.931Z</time></trkpt><trkpt lat="43.7316212121159" lon="10.766466252083442"><ele>15.5</ele><time>2026-04-25T09:49:22.931Z</time></trkpt><trkpt lat="43.73156601328651" lon="10.766300401304978"><ele>15.25</ele><time>2026-04-25T09:49:23.931Z</time></trkpt><trkpt lat="43.73149929558631" lon="10.766137615440257"><ele>15.0</ele><time>2026-04-25T09:49:24.931Z</time></trkpt><trkpt lat="43.73142599393119" lon="10.765982742456982"><ele>15.333333333333334</ele><time>2026-04-25T09:49:25.931Z</time></trkpt><trkpt lat="43.73137003330917" lon="10.765843779566438"><ele>15.666666666666668</ele><time>2026-04-25T09:49:26.931Z</time></trkpt><trkpt lat="43.73131128822547" lon="10.765731593396252"><ele>16.0</ele><time>2026-04-25T09:49:27.931Z</time></trkpt><trkpt lat="43.73125776468497" lon="10.765635806382805"><ele>16.333333333333336</ele><time>2026-04-25T09:49:28.931Z</time></trkpt><trkpt lat="43.731220589616115" lon="10.765554516491449"><ele>16.666666666666668</ele><time>2026-04-25T09:49:29.931Z</time></trkpt><trkpt lat="43.731190780918794" lon="10.765461569027533"><ele>17.0</ele><time>2026-04-25T09:49:32.931Z</time></trkpt><trkpt lat="43.73125427466715" lon="10.765313786561045"><ele>17.0</ele><time>2026-04-25T09:49:35.931Z</time></trkpt><trkpt lat="43.731321180780036" lon="10.765206620690947"><ele>17.0</ele><time>2026-04-25T09:49:36.931Z</time></trkpt><trkpt lat="43.73138371380662" lon="10.765093982128837"><ele>17.0</ele><time>2026-04-25T09:49:37.931Z</time></trkpt><trkpt lat="43.731452647524264" lon="10.764978208169977"><ele>17.0</ele><time>2026-04-25T09:49:38.931Z</time></trkpt><trkpt lat="43.731521771565845" lon="10.764854309895174"><ele>17.0</ele><time>2026-04-25T09:49:39.929Z</time></trkpt><trkpt lat="43.73158691354844" lon="10.764740614906088"><ele>16.833333333333336</ele><time>2026-04-25T09:49:40.929Z</time></trkpt><trkpt lat="43.73164006120536" lon="10.764639705600233"><ele>16.666666666666668</ele><time>2026-04-25T09:49:41.929Z</time></trkpt><trkpt lat="43.73168730553124" lon="10.764541652409818"><ele>16.5</ele><time>2026-04-25T09:49:42.929Z</time></trkpt><trkpt lat="43.731731636585394" lon="10.764461851930784"><ele>16.333333333333332</ele><time>2026-04-25T09:49:44.929Z</time></trkpt><trkpt lat="43.73178166037417" lon="10.76432439418095"><ele>16.166666666666664</ele><time>2026-04-25T09:50:32.929Z</time></trkpt><trkpt lat="43.73182138629019" lon="10.764215413493178"><ele>16.0</ele><time>2026-04-25T09:50:33.929Z</time></trkpt><trkpt lat="43.73187308274887" lon="10.764092307080197"><ele>16.25</ele><time>2026-04-25T09:50:34.929Z</time></trkpt><trkpt lat="43.73193315914883" lon="10.763941931390477"><ele>16.5</ele><time>2026-04-25T09:50:35.929Z</time></trkpt><trkpt lat="43.731997671257844" lon="10.763771054108371"><ele>16.75</ele><time>2026-04-25T09:50:36.929Z</time></trkpt><trkpt lat="43.73207410249974" lon="10.763587229306411"><ele>17.0</ele><time>2026-04-25T09:50:37.929Z</time></trkpt><trkpt lat="43.73215921595691" lon="10.763382299289825"><ele>17.333333333333336</ele><time>2026-04-25T09:50:38.929Z</time></trkpt><trkpt lat="43.73225333332378" lon="10.763167160721524"><ele>17.666666666666668</ele><time>2026-04-25T09:50:39.929Z</time></trkpt><trkpt lat="43.73236405944322" lon="10.762959655699598"><ele>18.0</ele><time>2026-04-25T09:50:40.929Z</time></trkpt><trkpt lat="43.73245097828245" lon="10.762726829988642"><ele>17.333333333333332</ele><time>2026-04-25T09:50:41.929Z</time></trkpt><trkpt lat="43.73255212296453" lon="10.76250418099494"><ele>16.666666666666664</ele><time>2026-04-25T09:50:42.929Z</time></trkpt><trkpt lat="43.73265821897432" lon="10.762267910308575"><ele>16.0</ele><time>2026-04-25T09:50:43.929Z</time></trkpt><trkpt lat="43.732771146002015" lon="10.762032321926132"><ele>15.666666666666666</ele><time>2026-04-25T09:50:44.929Z</time></trkpt><trkpt lat="43.73288407803619" lon="10.761797846051591"><ele>15.333333333333332</ele><time>2026-04-25T09:50:45.929Z</time></trkpt><trkpt lat="43.73298950034986" lon="10.761568076321316"><ele>15.0</ele><time>2026-04-25T09:50:46.929Z</time></trkpt><trkpt lat="43.73308099989001" lon="10.761345236191502"><ele>15.0</ele><time>2026-04-25T09:50:47.929Z</time></trkpt><trkpt lat="43.73314755050152" lon="10.761156565037242"><ele>15.0</ele><time>2026-04-25T09:50:48.929Z</time></trkpt><trkpt lat="43.73318284301622" lon="10.761045405254013"><ele>15.0</ele><time>2026-04-25T09:50:49.929Z</time></trkpt><trkpt lat="43.73320982558551" lon="10.760919310092774"><ele>15.0</ele><time>2026-04-25T09:50:51.929Z</time></trkpt><trkpt lat="43.733276361067915" lon="10.760858204435266"><ele>15.0</ele><time>2026-04-25T09:50:52.929Z</time></trkpt><trkpt lat="43.733354878983135" lon="10.760765286871601"><ele>15.0</ele><time>2026-04-25T09:50:53.929Z</time></trkpt><trkpt lat="43.7334627208675" lon="10.760644861943334"><ele>15.0</ele><time>2026-04-25T09:50:54.929Z</time></trkpt><trkpt lat="43.73358337354556" lon="10.760506050104144"><ele>15.0</ele><time>2026-04-25T09:50:55.929Z</time></trkpt><trkpt lat="43.733715738278896" lon="10.76033720452866"><ele>14.666666666666668</ele><time>2026-04-25T09:50:56.93Z</time></trkpt><trkpt lat="43.73386377270582" lon="10.76013004718356"><ele>14.333333333333334</ele><time>2026-04-25T09:50:57.93Z</time></trkpt><trkpt lat="43.73401631275861" lon="10.759931554637992"><ele>14.0</ele><time>2026-04-25T09:50:58.93Z</time></trkpt><trkpt lat="43.73416340564851" lon="10.759731182416175"><ele>14.0</ele><time>2026-04-25T09:50:59.93Z</time></trkpt><trkpt lat="43.73430089306149" lon="10.759533946724137"><ele>14.0</ele><time>2026-04-25T09:51:00.93Z</time></trkpt><trkpt lat="43.73443813245122" lon="10.75933455677436"><ele>14.0</ele><time>2026-04-25T09:51:01.93Z</time></trkpt><trkpt lat="43.73458208684943" lon="10.759134261181895"><ele>14.0</ele><time>2026-04-25T09:51:02.93Z</time></trkpt><trkpt lat="43.734729588992934" lon="10.75894651377024"><ele>14.0</ele><time>2026-04-25T09:51:03.93Z</time></trkpt><trkpt lat="43.73486374286089" lon="10.758798583492913"><ele>14.0</ele><time>2026-04-25T09:51:04.93Z</time></trkpt><trkpt lat="43.73498701241398" lon="10.758680042618424"><ele>14.0</ele><time>2026-04-25T09:51:05.93Z</time></trkpt><trkpt lat="43.73512711019135" lon="10.758631440372913"><ele>14.0</ele><time>2026-04-25T09:51:06.93Z</time></trkpt><trkpt lat="43.735277857542854" lon="10.758557247228168"><ele>14.0</ele><time>2026-04-25T09:51:07.93Z</time></trkpt><trkpt lat="43.73543865277211" lon="10.758483811481867"><ele>15.0</ele><time>2026-04-25T09:51:08.93Z</time></trkpt><trkpt lat="43.735614548608204" lon="10.75839839183354"><ele>16.0</ele><time>2026-04-25T09:51:09.93Z</time></trkpt><trkpt lat="43.73579889070319" lon="10.758308992324707"><ele>17.0</ele><time>2026-04-25T09:51:10.93Z</time></trkpt><trkpt lat="43.73598433296034" lon="10.758220622108345"><ele>17.666666666666668</ele><time>2026-04-25T09:51:11.93Z</time></trkpt><trkpt lat="43.73616659817208" lon="10.758133767672646"><ele>18.333333333333332</ele><time>2026-04-25T09:51:12.93Z</time></trkpt><trkpt lat="43.736371717981584" lon="10.75804544275724"><ele>19.0</ele><time>2026-04-25T09:51:13.93Z</time></trkpt><trkpt lat="43.73657758913981" lon="10.757945876566271"><ele>19.0</ele><time>2026-04-25T09:51:14.93Z</time></trkpt><trkpt lat="43.73679212922997" lon="10.757822048235372"><ele>19.0</ele><time>2026-04-25T09:51:15.93Z</time></trkpt><trkpt lat="43.73699588823275" lon="10.75771309226862"><ele>21.0</ele><time>2026-04-25T09:51:16.93Z</time></trkpt><trkpt lat="43.73719413848593" lon="10.757603729277832"><ele>23.0</ele><time>2026-04-25T09:51:17.93Z</time></trkpt><trkpt lat="43.7373913289067" lon="10.757501816875829"><ele>25.0</ele><time>2026-04-25T09:51:18.93Z</time></trkpt><trkpt lat="43.737581840512945" lon="10.757417801422497"><ele>29.666666666666668</ele><time>2026-04-25T09:51:19.93Z</time></trkpt><trkpt lat="43.737776033431366" lon="10.757348437376443"><ele>34.333333333333336</ele><time>2026-04-25T09:51:20.93Z</time></trkpt><trkpt lat="43.73798920268722" lon="10.757372045930076"><ele>39.0</ele><time>2026-04-25T09:51:21.93Z</time></trkpt><trkpt lat="43.73819963683524" lon="10.757347029693216"><ele>39.0</ele><time>2026-04-25T09:51:22.93Z</time></trkpt><trkpt lat="43.73842625055548" lon="10.757331662491369"><ele>39.0</ele><time>2026-04-25T09:51:23.93Z</time></trkpt><trkpt lat="43.73863443024759" lon="10.757325464042365"><ele>39.0</ele><time>2026-04-25T09:51:24.93Z</time></trkpt><trkpt lat="43.73884223623685" lon="10.757337365414857"><ele>39.666666666666664</ele><time>2026-04-25T09:51:25.93Z</time></trkpt><trkpt lat="43.739066236124536" lon="10.757358138225321"><ele>40.33333333333333</ele><time>2026-04-25T09:51:26.93Z</time></trkpt><trkpt lat="43.73929032752762" lon="10.757357542829274"><ele>41.0</ele><time>2026-04-25T09:51:27.93Z</time></trkpt><trkpt lat="43.739503608112" lon="10.757303486302682"><ele>43.33333333333333</ele><time>2026-04-25T09:51:28.93Z</time></trkpt><trkpt lat="43.739677959049466" lon="10.75728388675625"><ele>45.666666666666664</ele><time>2026-04-25T09:51:29.93Z</time></trkpt><trkpt lat="43.73982059258277" lon="10.757253527683757"><ele>48.0</ele><time>2026-04-25T09:51:30.93Z</time></trkpt><trkpt lat="43.73994691887689" lon="10.757154731837458"><ele>48.0</ele><time>2026-04-25T09:51:31.93Z</time></trkpt><trkpt lat="43.74000249781864" lon="10.756982187341526"><ele>48.0</ele><time>2026-04-25T09:51:32.93Z</time></trkpt><trkpt lat="43.74002762443079" lon="10.756747927924241"><ele>48.0</ele><time>2026-04-25T09:51:33.93Z</time></trkpt><trkpt lat="43.74000817521098" lon="10.75650851724122"><ele>47.0</ele><time>2026-04-25T09:51:34.93Z</time></trkpt><trkpt lat="43.739998070481306" lon="10.75631633808934"><ele>46.0</ele><time>2026-04-25T09:51:35.93Z</time></trkpt><trkpt lat="43.74000288517033" lon="10.756134755804649"><ele>45.0</ele><time>2026-04-25T09:51:36.93Z</time></trkpt><trkpt lat="43.74008403642873" lon="10.756036456849559"><ele>44.0</ele><time>2026-04-25T09:51:37.93Z</time></trkpt><trkpt lat="43.74020896187638" lon="10.756030758880403"><ele>48.33333333333333</ele><time>2026-04-25T09:51:38.93Z</time></trkpt><trkpt lat="43.740311783030954" lon="10.756063983305927"><ele>52.666666666666664</ele><time>2026-04-25T09:51:39.93Z</time></trkpt><trkpt lat="43.74046832160488" lon="10.75607211215939"><ele>57.0</ele><time>2026-04-25T09:51:40.93Z</time></trkpt><trkpt lat="43.740679374706524" lon="10.756080352623433"><ele>57.0</ele><time>2026-04-25T09:51:41.93Z</time></trkpt><trkpt lat="43.74088979420733" lon="10.75608856834569"><ele>57.0</ele><time>2026-04-25T09:51:42.93Z</time></trkpt><trkpt lat="43.741118061101446" lon="10.756097201218015"><ele>57.0</ele><time>2026-04-25T09:51:43.93Z</time></trkpt><trkpt lat="43.74133829407668" lon="10.756104542286394"><ele>57.0</ele><time>2026-04-25T09:51:44.93Z</time></trkpt><trkpt lat="43.74151135680082" lon="10.756097322274744"><ele>57.0</ele><time>2026-04-25T09:51:45.929Z</time></trkpt><trkpt lat="43.74164038924594" lon="10.75605576400752"><ele>57.0</ele><time>2026-04-25T09:51:46.929Z</time></trkpt><trkpt lat="43.74176978786262" lon="10.755943656847535"><ele>57.33333333333333</ele><time>2026-04-25T09:51:47.929Z</time></trkpt><trkpt lat="43.741929635230974" lon="10.755774455313057"><ele>57.666666666666664</ele><time>2026-04-25T09:51:48.928Z</time></trkpt><trkpt lat="43.74208185457319" lon="10.75555338568977"><ele>58.0</ele><time>2026-04-25T09:51:49.929Z</time></trkpt><trkpt lat="43.7422565089514" lon="10.755376115853279"><ele>60.33333333333333</ele><time>2026-04-25T09:51:50.929Z</time></trkpt><trkpt lat="43.742414811585334" lon="10.755199696183391"><ele>62.66666666666667</ele><time>2026-04-25T09:51:51.928Z</time></trkpt><trkpt lat="43.74254486603218" lon="10.755008740293075"><ele>65.0</ele><time>2026-04-25T09:51:52.929Z</time></trkpt><trkpt lat="43.74263254960533" lon="10.754768577329832"><ele>63.66666666666667</ele><time>2026-04-25T09:51:53.929Z</time></trkpt><trkpt lat="43.742729689637976" lon="10.754485504975417"><ele>62.33333333333333</ele><time>2026-04-25T09:51:54.928Z</time></trkpt><trkpt lat="43.74281580528837" lon="10.75421363775572"><ele>61.0</ele><time>2026-04-25T09:51:55.929Z</time></trkpt><trkpt lat="43.74288195592944" lon="10.754016199889852"><ele>63.75</ele><time>2026-04-25T09:51:56.929Z</time></trkpt><trkpt lat="43.74295832201364" lon="10.75385572941687"><ele>66.5</ele><time>2026-04-25T09:51:57.928Z</time></trkpt><trkpt lat="43.743037817587364" lon="10.753747408964491"><ele>69.25</ele><time>2026-04-25T09:51:58.928Z</time></trkpt><trkpt lat="43.74320087961382" lon="10.753784992913701"><ele>72.0</ele><time>2026-04-25T09:51:59.928Z</time></trkpt><trkpt lat="43.74335800112308" lon="10.75378568624898"><ele>72.0</ele><time>2026-04-25T09:52:00.928Z</time></trkpt><trkpt lat="43.7434888775385" lon="10.753791759947818"><ele>72.0</ele><time>2026-04-25T09:52:01.928Z</time></trkpt><trkpt lat="43.743586565579854" lon="10.753812173855161"><ele>72.0</ele><time>2026-04-25T09:52:02.928Z</time></trkpt><trkpt lat="43.743681114909826" lon="10.75390793197243"><ele>72.0</ele><time>2026-04-25T09:52:03.928Z</time></trkpt><trkpt lat="43.743733436537376" lon="10.754058470556725"><ele>72.5</ele><time>2026-04-25T09:52:04.929Z</time></trkpt><trkpt lat="43.74375280967458" lon="10.754217114843458"><ele>73.0</ele><time>2026-04-25T09:52:05.929Z</time></trkpt><trkpt lat="43.7438020615213" lon="10.754399551271298"><ele>73.5</ele><time>2026-04-25T09:52:06.929Z</time></trkpt><trkpt lat="43.7438486914899" lon="10.75454121515901"><ele>74.0</ele><time>2026-04-25T09:52:07.929Z</time></trkpt><trkpt lat="43.74391636170043" lon="10.754651986880283"><ele>74.0</ele><time>2026-04-25T09:52:08.929Z</time></trkpt><trkpt lat="43.74399733598641" lon="10.754747030403685"><ele>74.0</ele><time>2026-04-25T09:52:09.929Z</time></trkpt><trkpt lat="43.74409612079468" lon="10.754797075307474"><ele>74.0</ele><time>2026-04-25T09:52:10.929Z</time></trkpt><trkpt lat="43.74419467066735" lon="10.754753391841668"><ele>74.0</ele><time>2026-04-25T09:52:11.929Z</time></trkpt><trkpt lat="43.74447898520964" lon="10.754614502859857"><ele>77.33333333333334</ele><time>2026-04-25T09:52:12.929Z</time></trkpt><trkpt lat="43.74469215120348" lon="10.754454162022874"><ele>80.66666666666667</ele><time>2026-04-25T09:52:13.929Z</time></trkpt><trkpt lat="43.74486869280556" lon="10.754429971685704"><ele>84.0</ele><time>2026-04-25T09:52:14.929Z</time></trkpt><trkpt lat="43.74500863695936" lon="10.754459166926345"><ele>84.0</ele><time>2026-04-25T09:52:15.929Z</time></trkpt><trkpt lat="43.74509479083997" lon="10.75455348929497"><ele>84.0</ele><time>2026-04-25T09:52:16.929Z</time></trkpt><trkpt lat="43.7452175566357" lon="10.754685883830566"><ele>84.0</ele><time>2026-04-25T09:52:17.929Z</time></trkpt><trkpt lat="43.74536095970582" lon="10.75477462328126"><ele>84.0</ele><time>2026-04-25T09:52:18.929Z</time></trkpt><trkpt lat="43.74549941988946" lon="10.75476524275474"><ele>86.33333333333333</ele><time>2026-04-25T09:52:19.929Z</time></trkpt><trkpt lat="43.74563782525867" lon="10.754732693676493"><ele>88.66666666666666</ele><time>2026-04-25T09:52:20.929Z</time></trkpt><trkpt lat="43.745774856039716" lon="10.75463251262239"><ele>91.0</ele><time>2026-04-25T09:52:21.929Z</time></trkpt><trkpt lat="43.74586389633115" lon="10.754451822562316"><ele>92.66666666666666</ele><time>2026-04-25T09:52:22.929Z</time></trkpt><trkpt lat="43.745867893231626" lon="10.754202413156385"><ele>94.33333333333333</ele><time>2026-04-25T09:52:23.929Z</time></trkpt><trkpt lat="43.74589393351972" lon="10.75396716630182"><ele>96.0</ele><time>2026-04-25T09:52:24.929Z</time></trkpt><trkpt lat="43.745920068484246" lon="10.753753891789506"><ele>96.0</ele><time>2026-04-25T09:52:25.929Z</time></trkpt><trkpt lat="43.74591405895962" lon="10.753620006797002"><ele>96.0</ele><time>2026-04-25T09:52:26.929Z</time></trkpt><trkpt lat="43.74590192317315" lon="10.753533746042216"><ele>96.0</ele><time>2026-04-25T09:52:30.929Z</time></trkpt><trkpt lat="43.74579572657428" lon="10.753510907655318"><ele>96.0</ele><time>2026-04-25T09:52:31.929Z</time></trkpt><trkpt lat="43.74569093210494" lon="10.753500023817441"><ele>96.0</ele><time>2026-04-25T09:52:32.929Z</time></trkpt><trkpt lat="43.745574879860676" lon="10.753497109212017"><ele>95.5</ele><time>2026-04-25T09:52:33.929Z</time></trkpt><trkpt lat="43.745449708238034" lon="10.753505157969586"><ele>95.0</ele><time>2026-04-25T09:52:34.929Z</time></trkpt><trkpt lat="43.745317199393874" lon="10.753503797897865"><ele>94.5</ele><time>2026-04-25T09:52:35.929Z</time></trkpt><trkpt lat="43.74518289614231" lon="10.753501229606654"><ele>94.0</ele><time>2026-04-25T09:52:36.929Z</time></trkpt><trkpt lat="43.745050034424644" lon="10.75349943517769"><ele>93.75</ele><time>2026-04-25T09:52:37.929Z</time></trkpt><trkpt lat="43.744928567203296" lon="10.753494418848437"><ele>93.5</ele><time>2026-04-25T09:52:38.929Z</time></trkpt><trkpt lat="43.74480480422471" lon="10.753484494408015"><ele>93.25</ele><time>2026-04-25T09:52:39.929Z</time></trkpt><trkpt lat="43.74468581719199" lon="10.753465023740315"><ele>93.0</ele><time>2026-04-25T09:52:40.929Z</time></trkpt><trkpt lat="43.7445890202182" lon="10.753442967174083"><ele>93.0</ele><time>2026-04-25T09:52:41.929Z</time></trkpt><trkpt lat="43.74449964853172" lon="10.75341998986772"><ele>93.0</ele><time>2026-04-25T09:52:42.929Z</time></trkpt><trkpt lat="43.74444034893182" lon="10.753369626095314"><ele>93.0</ele><time>2026-04-25T09:52:43.929Z</time></trkpt><trkpt lat="43.74438529327628" lon="10.753313466523435"><ele>93.0</ele><time>2026-04-25T09:52:45.929Z</time></trkpt><trkpt lat="43.74449096342454" lon="10.75301875603281"><ele>93.0</ele><time>2026-04-25T09:53:42.93Z</time></trkpt><trkpt lat="43.74442501455701" lon="10.75314289990404"><ele>93.0</ele><time>2026-04-25T09:53:46.93Z</time></trkpt><trkpt lat="43.74436674530735" lon="10.753277315409807"><ele>93.0</ele><time>2026-04-25T09:53:48.93Z</time></trkpt><trkpt lat="43.744256103506224" lon="10.753288643727993"><ele>93.0</ele><time>2026-04-25T09:53:52.927Z</time></trkpt><trkpt lat="43.744187739176986" lon="10.753214713040968"><ele>93.0</ele><time>2026-04-25T09:53:53.927Z</time></trkpt><trkpt lat="43.74409574573312" lon="10.753156654266943"><ele>93.2</ele><time>2026-04-25T09:53:54.927Z</time></trkpt><trkpt lat="43.743983219696176" lon="10.75308452774263"><ele>93.4</ele><time>2026-04-25T09:53:55.927Z</time></trkpt><trkpt lat="43.743882207506864" lon="10.753016187006377"><ele>93.60000000000001</ele><time>2026-04-25T09:53:56.927Z</time></trkpt><trkpt lat="43.74379603337337" lon="10.752955810508519"><ele>93.80000000000001</ele><time>2026-04-25T09:53:57.928Z</time></trkpt><trkpt lat="43.74373490660354" lon="10.75291723005637"><ele>94.0</ele><time>2026-04-25T09:53:58.927Z</time></trkpt><trkpt lat="43.74365553967378" lon="10.752863686692592"><ele>94.0</ele><time>2026-04-25T09:55:49.929Z</time></trkpt><trkpt lat="43.74359200715337" lon="10.752821811859485"><ele>94.0</ele><time>2026-04-25T09:55:50.929Z</time></trkpt><trkpt lat="43.743512830333756" lon="10.752769625793594"><ele>94.0</ele><time>2026-04-25T09:55:51.929Z</time></trkpt><trkpt lat="43.74342241737339" lon="10.752710444253129"><ele>94.0</ele><time>2026-04-25T09:55:52.929Z</time></trkpt><trkpt lat="43.743314902408045" lon="10.752660345151648"><ele>94.0</ele><time>2026-04-25T09:55:53.929Z</time></trkpt><trkpt lat="43.74320536410411" lon="10.75258762554656"><ele>95.25</ele><time>2026-04-25T09:55:54.929Z</time></trkpt><trkpt lat="43.74308834835259" lon="10.752495548097123"><ele>96.5</ele><time>2026-04-25T09:55:55.929Z</time></trkpt><trkpt lat="43.7429614203938" lon="10.75241064930172"><ele>97.75</ele><time>2026-04-25T09:55:56.929Z</time></trkpt><trkpt lat="43.74282779879603" lon="10.752322115954556"><ele>99.0</ele><time>2026-04-25T09:55:57.927Z</time></trkpt><trkpt lat="43.74268665789136" lon="10.752229143038992"><ele>99.0</ele><time>2026-04-25T09:55:58.927Z</time></trkpt><trkpt lat="43.74254047006517" lon="10.752132845538872"><ele>99.0</ele><time>2026-04-25T09:55:59.927Z</time></trkpt><trkpt lat="43.742391002830196" lon="10.752034387846736"><ele>99.0</ele><time>2026-04-25T09:56:00.926Z</time></trkpt><trkpt lat="43.74224282532712" lon="10.751957916455776"><ele>100.0</ele><time>2026-04-25T09:56:01.927Z</time></trkpt><trkpt lat="43.742099286522226" lon="10.751862350316161"><ele>101.0</ele><time>2026-04-25T09:56:02.927Z</time></trkpt><trkpt lat="43.74195853273066" lon="10.75174690821242"><ele>102.0</ele><time>2026-04-25T09:56:03.927Z</time></trkpt><trkpt lat="43.741809329233774" lon="10.751648560693003"><ele>102.66666666666666</ele><time>2026-04-25T09:56:04.927Z</time></trkpt><trkpt lat="43.74164996091835" lon="10.75156121915186"><ele>103.33333333333333</ele><time>2026-04-25T09:56:05.927Z</time></trkpt><trkpt lat="43.741502594243784" lon="10.751467013962564"><ele>104.0</ele><time>2026-04-25T09:56:06.927Z</time></trkpt><trkpt lat="43.74136163390388" lon="10.751350778793833"><ele>104.0</ele><time>2026-04-25T09:56:07.926Z</time></trkpt><trkpt lat="43.74120911873667" lon="10.751248953168954"><ele>104.0</ele><time>2026-04-25T09:56:08.926Z</time></trkpt><trkpt lat="43.74106105705031" lon="10.751150441446148"><ele>104.0</ele><time>2026-04-25T09:56:09.927Z</time></trkpt><trkpt lat="43.74092246815109" lon="10.751052940911892"><ele>104.66666666666666</ele><time>2026-04-25T09:56:10.927Z</time></trkpt><trkpt lat="43.74078601517785" lon="10.750954517863573"><ele>105.33333333333334</ele><time>2026-04-25T09:56:11.927Z</time></trkpt><trkpt lat="43.740652736157585" lon="10.750863267356735"><ele>106.0</ele><time>2026-04-25T09:56:12.927Z</time></trkpt><trkpt lat="43.74050817882244" lon="10.750732064748275"><ele>106.0</ele><time>2026-04-25T09:56:13.927Z</time></trkpt><trkpt lat="43.740366105979746" lon="10.75058643954516"><ele>106.0</ele><time>2026-04-25T09:56:14.927Z</time></trkpt><trkpt lat="43.74023426014341" lon="10.750444829866883"><ele>106.0</ele><time>2026-04-25T09:56:15.927Z</time></trkpt><trkpt lat="43.74011535529581" lon="10.750346675677266"><ele>105.25</ele><time>2026-04-25T09:56:16.927Z</time></trkpt><trkpt lat="43.739991942771724" lon="10.750282927727026"><ele>104.5</ele><time>2026-04-25T09:56:17.927Z</time></trkpt><trkpt lat="43.73985491822476" lon="10.75025390355765"><ele>103.75</ele><time>2026-04-25T09:56:18.927Z</time></trkpt><trkpt lat="43.73969276960376" lon="10.750240515196737"><ele>103.0</ele><time>2026-04-25T09:56:19.927Z</time></trkpt><trkpt lat="43.73955105595347" lon="10.750202788150615"><ele>102.75</ele><time>2026-04-25T09:56:20.927Z</time></trkpt><trkpt lat="43.739442515446456" lon="10.75010148592907"><ele>102.5</ele><time>2026-04-25T09:56:21.927Z</time></trkpt><trkpt lat="43.73932822933071" lon="10.749988013769133"><ele>102.25</ele><time>2026-04-25T09:56:22.927Z</time></trkpt><trkpt lat="43.73927001065673" lon="10.749773904201422"><ele>102.0</ele><time>2026-04-25T09:56:23.927Z</time></trkpt><trkpt lat="43.7391996106503" lon="10.749570998473718"><ele>103.0</ele><time>2026-04-25T09:56:24.927Z</time></trkpt><trkpt lat="43.73914681415928" lon="10.749350574988433"><ele>104.0</ele><time>2026-04-25T09:56:25.927Z</time></trkpt><trkpt lat="43.73914029510717" lon="10.749120004543276"><ele>105.0</ele><time>2026-04-25T09:56:26.927Z</time></trkpt><trkpt lat="43.73917600871711" lon="10.748909489994816"><ele>105.0</ele><time>2026-04-25T09:56:27.927Z</time></trkpt><trkpt lat="43.7392207233694" lon="10.748702665209539"><ele>105.0</ele><time>2026-04-25T09:56:28.927Z</time></trkpt><trkpt lat="43.739308346849285" lon="10.748550912221889"><ele>105.0</ele><time>2026-04-25T09:56:29.927Z</time></trkpt><trkpt lat="43.73941373699926" lon="10.748406942641894"><ele>105.0</ele><time>2026-04-25T09:56:30.927Z</time></trkpt><trkpt lat="43.73954835839324" lon="10.748275181828118"><ele>105.0</ele><time>2026-04-25T09:56:31.927Z</time></trkpt><trkpt lat="43.739698682076565" lon="10.74815804334768"><ele>105.0</ele><time>2026-04-25T09:56:32.927Z</time></trkpt><trkpt lat="43.73987222657007" lon="10.748035316908924"><ele>105.0</ele><time>2026-04-25T09:56:33.927Z</time></trkpt><trkpt lat="43.74006074977534" lon="10.747893722039294"><ele>105.0</ele><time>2026-04-25T09:56:34.927Z</time></trkpt><trkpt lat="43.740264893998216" lon="10.747736867333836"><ele>105.0</ele><time>2026-04-25T09:56:35.927Z</time></trkpt><trkpt lat="43.74047044510331" lon="10.747568956364278"><ele>105.0</ele><time>2026-04-25T09:56:36.927Z</time></trkpt><trkpt lat="43.740687407560216" lon="10.747402491843348"><ele>105.0</ele><time>2026-04-25T09:56:37.927Z</time></trkpt><trkpt lat="43.740904745426796" lon="10.747228900086826"><ele>105.0</ele><time>2026-04-25T09:56:38.927Z</time></trkpt><trkpt lat="43.74112425016807" lon="10.74704638960173"><ele>105.0</ele><time>2026-04-25T09:56:39.927Z</time></trkpt><trkpt lat="43.74134509823033" lon="10.746866399739226"><ele>103.0</ele><time>2026-04-25T09:56:40.927Z</time></trkpt><trkpt lat="43.7415797073761" lon="10.746687116218615"><ele>101.0</ele><time>2026-04-25T09:56:41.927Z</time></trkpt><trkpt lat="43.74180551242415" lon="10.746508366071744"><ele>102.0</ele><time>2026-04-25T09:56:42.927Z</time></trkpt><trkpt lat="43.742024265179566" lon="10.746320023639809"><ele>103.0</ele><time>2026-04-25T09:56:43.927Z</time></trkpt><trkpt lat="43.74223803054653" lon="10.746120076509323"><ele>102.5</ele><time>2026-04-25T09:56:44.927Z</time></trkpt><trkpt lat="43.74245211270566" lon="10.745924072007613"><ele>102.0</ele><time>2026-04-25T09:56:45.927Z</time></trkpt><trkpt lat="43.74266795136701" lon="10.74572558461003"><ele>103.0</ele><time>2026-04-25T09:56:46.927Z</time></trkpt><trkpt lat="43.74288147631354" lon="10.745520915470886"><ele>104.0</ele><time>2026-04-25T09:56:47.927Z</time></trkpt><trkpt lat="43.74308538613274" lon="10.74532703630184"><ele>101.5</ele><time>2026-04-25T09:56:48.927Z</time></trkpt><trkpt lat="43.74327534000927" lon="10.745143214158386"><ele>99.0</ele><time>2026-04-25T09:56:49.928Z</time></trkpt><trkpt lat="43.74345620176499" lon="10.74494563086069"><ele>101.0</ele><time>2026-04-25T09:56:50.928Z</time></trkpt><trkpt lat="43.743627832728706" lon="10.744725269333424"><ele>103.0</ele><time>2026-04-25T09:56:51.928Z</time></trkpt><trkpt lat="43.74378950767054" lon="10.744494238876753"><ele>102.0</ele><time>2026-04-25T09:56:52.928Z</time></trkpt><trkpt lat="43.74395390478394" lon="10.744219394141055"><ele>101.0</ele><time>2026-04-25T09:56:53.928Z</time></trkpt><trkpt lat="43.744118214780805" lon="10.743945684791267"><ele>101.0</ele><time>2026-04-25T09:56:54.928Z</time></trkpt><trkpt lat="43.7442858771995" lon="10.743677848289604"><ele>101.0</ele><time>2026-04-25T09:56:55.928Z</time></trkpt><trkpt lat="43.74445482035654" lon="10.743413652316285"><ele>99.5</ele><time>2026-04-25T09:56:56.928Z</time></trkpt><trkpt lat="43.744620336255466" lon="10.743144613520174"><ele>98.0</ele><time>2026-04-25T09:56:57.928Z</time></trkpt><trkpt lat="43.74479095150823" lon="10.74287806085169"><ele>97.0</ele><time>2026-04-25T09:56:58.928Z</time></trkpt><trkpt lat="43.74496370054925" lon="10.742611152066837"><ele>96.0</ele><time>2026-04-25T09:56:59.928Z</time></trkpt><trkpt lat="43.7451312457562" lon="10.742337006353113"><ele>92.5</ele><time>2026-04-25T09:57:00.928Z</time></trkpt><trkpt lat="43.74529074385812" lon="10.742056396866195"><ele>89.0</ele><time>2026-04-25T09:57:01.928Z</time></trkpt><trkpt lat="43.74544041836764" lon="10.741771300690283"><ele>88.5</ele><time>2026-04-25T09:57:02.928Z</time></trkpt><trkpt lat="43.745584868823954" lon="10.741476815553959"><ele>88.0</ele><time>2026-04-25T09:57:03.928Z</time></trkpt><trkpt lat="43.745728516523066" lon="10.74118101801739"><ele>89.5</ele><time>2026-04-25T09:57:04.928Z</time></trkpt><trkpt lat="43.74587563663611" lon="10.740886444967618"><ele>91.0</ele><time>2026-04-25T09:57:05.928Z</time></trkpt><trkpt lat="43.74602650129617" lon="10.740596477069444"><ele>90.0</ele><time>2026-04-25T09:57:06.928Z</time></trkpt><trkpt lat="43.746174599137746" lon="10.740310867030445"><ele>89.0</ele><time>2026-04-25T09:57:07.928Z</time></trkpt><trkpt lat="43.74631868479432" lon="10.740019114689787"><ele>89.0</ele><time>2026-04-25T09:57:08.928Z</time></trkpt><trkpt lat="43.746449021358025" lon="10.739718286179484"><ele>89.0</ele><time>2026-04-25T09:57:09.928Z</time></trkpt><trkpt lat="43.74656567266717" lon="10.739404466637687"><ele>89.0</ele><time>2026-04-25T09:57:10.928Z</time></trkpt><trkpt lat="43.74667145741505" lon="10.739075709328006"><ele>89.0</ele><time>2026-04-25T09:57:11.928Z</time></trkpt><trkpt lat="43.746762919802634" lon="10.738740861622091"><ele>88.5</ele><time>2026-04-25T09:57:12.928Z</time></trkpt><trkpt lat="43.74685408959775" lon="10.738401712934786"><ele>88.0</ele><time>2026-04-25T09:57:13.928Z</time></trkpt><trkpt lat="43.74694903133158" lon="10.738055927661263"><ele>88.0</ele><time>2026-04-25T09:57:14.928Z</time></trkpt><trkpt lat="43.747049868892894" lon="10.737717437624685"><ele>88.0</ele><time>2026-04-25T09:57:15.928Z</time></trkpt><trkpt lat="43.74714912657698" lon="10.737379019609383"><ele>88.0</ele><time>2026-04-25T09:57:16.928Z</time></trkpt><trkpt lat="43.74724705658661" lon="10.737035429906099"><ele>88.0</ele><time>2026-04-25T09:57:17.928Z</time></trkpt><trkpt lat="43.74734681188756" lon="10.736692342313992"><ele>85.5</ele><time>2026-04-25T09:57:18.928Z</time></trkpt><trkpt lat="43.74744497106495" lon="10.736354210508846"><ele>83.0</ele><time>2026-04-25T09:57:19.928Z</time></trkpt><trkpt lat="43.74753837746094" lon="10.736022453987928"><ele>83.5</ele><time>2026-04-25T09:57:20.928Z</time></trkpt><trkpt lat="43.74763241357427" lon="10.735684712377578"><ele>84.0</ele><time>2026-04-25T09:57:21.928Z</time></trkpt><trkpt lat="43.74772915655051" lon="10.735357904095117"><ele>83.0</ele><time>2026-04-25T09:57:22.928Z</time></trkpt><trkpt lat="43.747823613565835" lon="10.735029375953319"><ele>82.0</ele><time>2026-04-25T09:57:23.928Z</time></trkpt><trkpt lat="43.74792016641729" lon="10.734697122447129"><ele>82.5</ele><time>2026-04-25T09:57:24.928Z</time></trkpt><trkpt lat="43.748013056984774" lon="10.734365101319552"><ele>83.0</ele><time>2026-04-25T09:57:25.928Z</time></trkpt><trkpt lat="43.74810677542859" lon="10.734044820845408"><ele>83.0</ele><time>2026-04-25T09:57:26.928Z</time></trkpt><trkpt lat="43.74820321936793" lon="10.73372425408649"><ele>83.0</ele><time>2026-04-25T09:57:27.928Z</time></trkpt><trkpt lat="43.74829242798799" lon="10.733390442927993"><ele>83.0</ele><time>2026-04-25T09:57:28.928Z</time></trkpt><trkpt lat="43.748389199223645" lon="10.73305382815136"><ele>83.0</ele><time>2026-04-25T09:57:29.928Z</time></trkpt><trkpt lat="43.74849251061354" lon="10.73272073250852"><ele>81.5</ele><time>2026-04-25T09:57:30.928Z</time></trkpt><trkpt lat="43.74861074535387" lon="10.732398974933801"><ele>80.0</ele><time>2026-04-25T09:57:31.928Z</time></trkpt><trkpt lat="43.748737093990314" lon="10.732075957824964"><ele>79.5</ele><time>2026-04-25T09:57:32.928Z</time></trkpt><trkpt lat="43.748871413131155" lon="10.73176370293523"><ele>79.0</ele><time>2026-04-25T09:57:33.928Z</time></trkpt><trkpt lat="43.7490042199111" lon="10.731451241212675"><ele>79.0</ele><time>2026-04-25T09:57:34.928Z</time></trkpt><trkpt lat="43.749132273367714" lon="10.73113475464909"><ele>79.0</ele><time>2026-04-25T09:57:35.928Z</time></trkpt><trkpt lat="43.74926057661246" lon="10.73081981167811"><ele>79.5</ele><time>2026-04-25T09:57:36.928Z</time></trkpt><trkpt lat="43.749385349715666" lon="10.730503703927425"><ele>80.0</ele><time>2026-04-25T09:57:37.928Z</time></trkpt><trkpt lat="43.7495086160275" lon="10.73018324561065"><ele>78.5</ele><time>2026-04-25T09:57:38.928Z</time></trkpt><trkpt lat="43.749632749443236" lon="10.729868703103563"><ele>77.0</ele><time>2026-04-25T09:57:39.928Z</time></trkpt><trkpt lat="43.749763254301115" lon="10.729556311172487"><ele>77.0</ele><time>2026-04-25T09:57:40.928Z</time></trkpt><trkpt lat="43.74989134184086" lon="10.729243628464499"><ele>77.0</ele><time>2026-04-25T09:57:41.928Z</time></trkpt><trkpt lat="43.75003507817268" lon="10.728937723661309"><ele>77.0</ele><time>2026-04-25T09:57:42.928Z</time></trkpt><trkpt lat="43.75019507789377" lon="10.728646311603997"><ele>77.0</ele><time>2026-04-25T09:57:43.928Z</time></trkpt><trkpt lat="43.75035640704217" lon="10.728373587723254"><ele>76.0</ele><time>2026-04-25T09:57:44.928Z</time></trkpt><trkpt lat="43.750508013555" lon="10.728138206258931"><ele>75.0</ele><time>2026-04-25T09:57:45.928Z</time></trkpt><trkpt lat="43.75063755830544" lon="10.727910033645305"><ele>74.0</ele><time>2026-04-25T09:57:46.928Z</time></trkpt><trkpt lat="43.750742746729685" lon="10.7276612123167"><ele>73.0</ele><time>2026-04-25T09:57:47.928Z</time></trkpt><trkpt lat="43.7508170947372" lon="10.727372582693102"><ele>72.0</ele><time>2026-04-25T09:57:48.928Z</time></trkpt><trkpt lat="43.75084366923843" lon="10.727044830203713"><ele>71.5</ele><time>2026-04-25T09:57:49.928Z</time></trkpt><trkpt lat="43.75085580709372" lon="10.72668758084822"><ele>71.0</ele><time>2026-04-25T09:57:50.928Z</time></trkpt><trkpt lat="43.750887145527294" lon="10.72633469179914"><ele>69.0</ele><time>2026-04-25T09:57:51.928Z</time></trkpt><trkpt lat="43.75091498155549" lon="10.72596553162974"><ele>67.0</ele><time>2026-04-25T09:57:52.928Z</time></trkpt><trkpt lat="43.75095204763661" lon="10.725599892991308"><ele>67.0</ele><time>2026-04-25T09:57:53.928Z</time></trkpt><trkpt lat="43.750991487370555" lon="10.725232662136913"><ele>67.0</ele><time>2026-04-25T09:57:54.928Z</time></trkpt><trkpt lat="43.75103092269735" lon="10.7248640780243"><ele>67.5</ele><time>2026-04-25T09:57:55.928Z</time></trkpt><trkpt lat="43.7510712099539" lon="10.72449311826967"><ele>68.0</ele><time>2026-04-25T09:57:56.929Z</time></trkpt><trkpt lat="43.75112050528264" lon="10.724123458018715"><ele>66.0</ele><time>2026-04-25T09:57:57.929Z</time></trkpt><trkpt lat="43.751183406789636" lon="10.72377908917642"><ele>64.0</ele><time>2026-04-25T09:57:58.929Z</time></trkpt><trkpt lat="43.751262990751556" lon="10.723436474805652"><ele>63.5</ele><time>2026-04-25T09:57:59.929Z</time></trkpt><trkpt lat="43.75135910699543" lon="10.72308538961656"><ele>63.0</ele><time>2026-04-25T09:58:00.929Z</time></trkpt><trkpt lat="43.75144893785295" lon="10.722745471322169"><ele>63.33333333333333</ele><time>2026-04-25T09:58:01.929Z</time></trkpt><trkpt lat="43.751526084407075" lon="10.72245116442648"><ele>63.666666666666664</ele><time>2026-04-25T09:58:02.929Z</time></trkpt><trkpt lat="43.75158666216035" lon="10.722184046324596"><ele>64.0</ele><time>2026-04-25T09:58:03.926Z</time></trkpt><trkpt lat="43.75162468509472" lon="10.721921351022084"><ele>63.666666666666664</ele><time>2026-04-25T09:58:04.926Z</time></trkpt><trkpt lat="43.751639374055536" lon="10.721655883349584"><ele>63.33333333333333</ele><time>2026-04-25T09:58:05.926Z</time></trkpt><trkpt lat="43.75162715148542" lon="10.721382751819023"><ele>63.0</ele><time>2026-04-25T09:58:06.925Z</time></trkpt><trkpt lat="43.7515924489729" lon="10.721084930329923"><ele>62.66666666666667</ele><time>2026-04-25T09:58:07.926Z</time></trkpt><trkpt lat="43.75154978329657" lon="10.720774217260914"><ele>62.333333333333336</ele><time>2026-04-25T09:58:08.926Z</time></trkpt><trkpt lat="43.75151576486471" lon="10.720477772944875"><ele>62.0</ele><time>2026-04-25T09:58:09.925Z</time></trkpt><trkpt lat="43.751481352746744" lon="10.720198051649747"><ele>61.66666666666667</ele><time>2026-04-25T09:58:10.926Z</time></trkpt><trkpt lat="43.75145653831183" lon="10.719928849507744"><ele>61.33333333333333</ele><time>2026-04-25T09:58:11.926Z</time></trkpt><trkpt lat="43.75143509057914" lon="10.719675787601904"><ele>61.0</ele><time>2026-04-25T09:58:12.926Z</time></trkpt><trkpt lat="43.75141183331231" lon="10.719436203837239"><ele>59.33333333333333</ele><time>2026-04-25T09:58:13.925Z</time></trkpt><trkpt lat="43.75138117567928" lon="10.719194910768659"><ele>57.66666666666667</ele><time>2026-04-25T09:58:14.925Z</time></trkpt><trkpt lat="43.75134372544007" lon="10.718946161648057"><ele>56.0</ele><time>2026-04-25T09:58:15.926Z</time></trkpt><trkpt lat="43.7513028279265" lon="10.718680324599642"><ele>55.333333333333336</ele><time>2026-04-25T09:58:16.926Z</time></trkpt><trkpt lat="43.75126737322329" lon="10.718407003205476"><ele>54.66666666666667</ele><time>2026-04-25T09:58:17.926Z</time></trkpt><trkpt lat="43.75123501142855" lon="10.718116686907612"><ele>54.0</ele><time>2026-04-25T09:58:18.926Z</time></trkpt><trkpt lat="43.75121784476996" lon="10.717816349493983"><ele>52.5</ele><time>2026-04-25T09:58:19.926Z</time></trkpt><trkpt lat="43.751203831342075" lon="10.71749937845642"><ele>51.0</ele><time>2026-04-25T09:58:20.926Z</time></trkpt><trkpt lat="43.75119408431255" lon="10.717186976970833"><ele>50.0</ele><time>2026-04-25T09:58:21.926Z</time></trkpt><trkpt lat="43.75118898100241" lon="10.716874356305834"><ele>49.0</ele><time>2026-04-25T09:58:22.926Z</time></trkpt><trkpt lat="43.751202301361964" lon="10.716578421494901"><ele>48.0</ele><time>2026-04-25T09:58:23.926Z</time></trkpt><trkpt lat="43.75121949790764" lon="10.716293841662436"><ele>47.666666666666664</ele><time>2026-04-25T09:58:24.926Z</time></trkpt><trkpt lat="43.7512466440822" lon="10.716027695492524"><ele>47.33333333333333</ele><time>2026-04-25T09:58:25.926Z</time></trkpt><trkpt lat="43.75131390448201" lon="10.715763457936632"><ele>47.0</ele><time>2026-04-25T09:58:26.926Z</time></trkpt><trkpt lat="43.7513687266313" lon="10.715483483266913"><ele>46.0</ele><time>2026-04-25T09:58:27.926Z</time></trkpt><trkpt lat="43.751431374347305" lon="10.715183675584234"><ele>45.0</ele><time>2026-04-25T09:58:28.926Z</time></trkpt><trkpt lat="43.75149454369969" lon="10.714868445697972"><ele>45.0</ele><time>2026-04-25T09:58:29.926Z</time></trkpt><trkpt lat="43.75154743358034" lon="10.714555886151675"><ele>45.0</ele><time>2026-04-25T09:58:30.926Z</time></trkpt><trkpt lat="43.7515892487119" lon="10.71427698526306"><ele>45.0</ele><time>2026-04-25T09:58:31.926Z</time></trkpt><trkpt lat="43.75160854415042" lon="10.714006016370957"><ele>46.0</ele><time>2026-04-25T09:58:32.926Z</time></trkpt><trkpt lat="43.751620724317135" lon="10.713727859790138"><ele>47.0</ele><time>2026-04-25T09:58:33.926Z</time></trkpt><trkpt lat="43.75162052853371" lon="10.713446360774013"><ele>48.0</ele><time>2026-04-25T09:58:34.926Z</time></trkpt><trkpt lat="43.751623291588594" lon="10.713174599737977"><ele>48.33333333333333</ele><time>2026-04-25T09:58:35.926Z</time></trkpt><trkpt lat="43.751621259480466" lon="10.712904225170021"><ele>48.666666666666664</ele><time>2026-04-25T09:58:36.926Z</time></trkpt><trkpt lat="43.75162118397049" lon="10.712641988329903"><ele>49.0</ele><time>2026-04-25T09:58:37.926Z</time></trkpt><trkpt lat="43.751624509518805" lon="10.712387285331546"><ele>47.33333333333333</ele><time>2026-04-25T09:58:38.926Z</time></trkpt><trkpt lat="43.75162545812751" lon="10.712141837785328"><ele>45.666666666666664</ele><time>2026-04-25T09:58:39.926Z</time></trkpt><trkpt lat="43.75162633977539" lon="10.71191540152647"><ele>44.0</ele><time>2026-04-25T09:58:40.926Z</time></trkpt><trkpt lat="43.75162750618641" lon="10.711692658038706"><ele>43.0</ele><time>2026-04-25T09:58:41.926Z</time></trkpt><trkpt lat="43.751630409076846" lon="10.71148067496559"><ele>42.0</ele><time>2026-04-25T09:58:42.926Z</time></trkpt><trkpt lat="43.751635758679576" lon="10.711278656026701"><ele>41.0</ele><time>2026-04-25T09:58:43.926Z</time></trkpt><trkpt lat="43.75163970117606" lon="10.711091180393883"><ele>40.0</ele><time>2026-04-25T09:58:44.926Z</time></trkpt><trkpt lat="43.751639469946795" lon="10.710903744976807"><ele>40.0</ele><time>2026-04-25T09:58:45.926Z</time></trkpt><trkpt lat="43.75163749492333" lon="10.710724413869073"><ele>40.0</ele><time>2026-04-25T09:58:46.926Z</time></trkpt><trkpt lat="43.7516398276879" lon="10.710552718222507"><ele>40.0</ele><time>2026-04-25T09:58:47.926Z</time></trkpt><trkpt lat="43.751644259739415" lon="10.7103842661276"><ele>40.0</ele><time>2026-04-25T09:58:48.926Z</time></trkpt><trkpt lat="43.751643074558004" lon="10.710205368535906"><ele>40.25</ele><time>2026-04-25T09:58:49.926Z</time></trkpt><trkpt lat="43.75164706929092" lon="10.710012721299394"><ele>40.5</ele><time>2026-04-25T09:58:50.926Z</time></trkpt><trkpt lat="43.75164751089692" lon="10.709809525163786"><ele>40.75</ele><time>2026-04-25T09:58:51.926Z</time></trkpt><trkpt lat="43.7516508447" lon="10.709603721566399"><ele>41.0</ele><time>2026-04-25T09:58:52.926Z</time></trkpt><trkpt lat="43.751653407368" lon="10.709393671095798"><ele>41.666666666666664</ele><time>2026-04-25T09:58:53.926Z</time></trkpt><trkpt lat="43.75164834462338" lon="10.709170192484166"><ele>42.333333333333336</ele><time>2026-04-25T09:58:54.926Z</time></trkpt><trkpt lat="43.75165135371237" lon="10.708936098303857"><ele>43.0</ele><time>2026-04-25T09:58:55.926Z</time></trkpt><trkpt lat="43.75164371167729" lon="10.708697775946007"><ele>42.66666666666667</ele><time>2026-04-25T09:58:56.926Z</time></trkpt><trkpt lat="43.75165961952141" lon="10.7084713551721"><ele>42.333333333333336</ele><time>2026-04-25T09:58:57.926Z</time></trkpt><trkpt lat="43.75164316337353" lon="10.70824516481573"><ele>42.0</ele><time>2026-04-25T09:58:58.926Z</time></trkpt><trkpt lat="43.75166359184966" lon="10.708029453070596"><ele>42.0</ele><time>2026-04-25T09:58:59.926Z</time></trkpt><trkpt lat="43.75166452825116" lon="10.70782753826609"><ele>42.0</ele><time>2026-04-25T09:59:00.926Z</time></trkpt><trkpt lat="43.75165959069512" lon="10.707627205229777"><ele>42.0</ele><time>2026-04-25T09:59:01.926Z</time></trkpt><trkpt lat="43.751650628715964" lon="10.707409022264667"><ele>42.0</ele><time>2026-04-25T09:59:02.926Z</time></trkpt><trkpt lat="43.75164339424542" lon="10.707181158426513"><ele>41.333333333333336</ele><time>2026-04-25T09:59:03.926Z</time></trkpt><trkpt lat="43.75163580878496" lon="10.70695242376776"><ele>40.66666666666667</ele><time>2026-04-25T09:59:04.926Z</time></trkpt><trkpt lat="43.75162629143236" lon="10.70670942932337"><ele>40.0</ele><time>2026-04-25T09:59:05.926Z</time></trkpt><trkpt lat="43.75161337286469" lon="10.70646753457849"><ele>39.66666666666667</ele><time>2026-04-25T09:59:06.926Z</time></trkpt><trkpt lat="43.75159802490307" lon="10.70622696440161"><ele>39.333333333333336</ele><time>2026-04-25T09:59:07.926Z</time></trkpt><trkpt lat="43.751586844669724" lon="10.705988539214001"><ele>39.0</ele><time>2026-04-25T09:59:08.926Z</time></trkpt><trkpt lat="43.75157243309606" lon="10.705737466557373"><ele>39.0</ele><time>2026-04-25T09:59:09.926Z</time></trkpt><trkpt lat="43.75155710354485" lon="10.705478375940068"><ele>39.0</ele><time>2026-04-25T09:59:10.926Z</time></trkpt><trkpt lat="43.75154244447513" lon="10.705226000557122"><ele>39.0</ele><time>2026-04-25T09:59:11.926Z</time></trkpt><trkpt lat="43.75153315304717" lon="10.704967572889611"><ele>39.333333333333336</ele><time>2026-04-25T09:59:12.926Z</time></trkpt><trkpt lat="43.75152359837553" lon="10.704709439012573"><ele>39.66666666666667</ele><time>2026-04-25T09:59:13.926Z</time></trkpt><trkpt lat="43.751511185115525" lon="10.704462181229161"><ele>40.0</ele><time>2026-04-25T09:59:14.926Z</time></trkpt><trkpt lat="43.75149572358233" lon="10.704232998339895"><ele>38.66666666666667</ele><time>2026-04-25T09:59:15.926Z</time></trkpt><trkpt lat="43.75148560881616" lon="10.704005739491814"><ele>37.333333333333336</ele><time>2026-04-25T09:59:16.926Z</time></trkpt><trkpt lat="43.75148115892132" lon="10.70378400371498"><ele>36.0</ele><time>2026-04-25T09:59:17.926Z</time></trkpt><trkpt lat="43.75147885638411" lon="10.7035747279473"><ele>35.75</ele><time>2026-04-25T09:59:18.926Z</time></trkpt><trkpt lat="43.751479131054616" lon="10.703379852696525"><ele>35.5</ele><time>2026-04-25T09:59:19.926Z</time></trkpt><trkpt lat="43.75149409117631" lon="10.703211394492866"><ele>35.25</ele><time>2026-04-25T09:59:20.926Z</time></trkpt><trkpt lat="43.75151230552665" lon="10.703056587711867"><ele>35.0</ele><time>2026-04-25T09:59:21.926Z</time></trkpt><trkpt lat="43.75153980861378" lon="10.702910746012215"><ele>35.0</ele><time>2026-04-25T09:59:22.927Z</time></trkpt><trkpt lat="43.75157982255605" lon="10.702772801707749"><ele>35.0</ele><time>2026-04-25T09:59:23.927Z</time></trkpt><trkpt lat="43.75162502395801" lon="10.702617992063933"><ele>35.0</ele><time>2026-04-25T09:59:24.927Z</time></trkpt><trkpt lat="43.751676211069885" lon="10.702457824836218"><ele>35.0</ele><time>2026-04-25T09:59:25.927Z</time></trkpt><trkpt lat="43.751729323580726" lon="10.702287580344716"><ele>35.0</ele><time>2026-04-25T09:59:26.927Z</time></trkpt><trkpt lat="43.751785999907014" lon="10.702112973452486"><ele>35.0</ele><time>2026-04-25T09:59:27.927Z</time></trkpt><trkpt lat="43.7518389013672" lon="10.701934139800112"><ele>35.0</ele><time>2026-04-25T09:59:28.927Z</time></trkpt><trkpt lat="43.751885515964275" lon="10.70175480192429"><ele>35.0</ele><time>2026-04-25T09:59:29.927Z</time></trkpt><trkpt lat="43.75192746958186" lon="10.701586829860057"><ele>34.8</ele><time>2026-04-25T09:59:30.927Z</time></trkpt><trkpt lat="43.75197864492888" lon="10.70142602839976"><ele>34.6</ele><time>2026-04-25T09:59:31.927Z</time></trkpt><trkpt lat="43.75202132867002" lon="10.701289519359763"><ele>34.4</ele><time>2026-04-25T09:59:32.927Z</time></trkpt><trkpt lat="43.75205473432808" lon="10.701174651808817"><ele>34.2</ele><time>2026-04-25T09:59:33.927Z</time></trkpt><trkpt lat="43.75205557740028" lon="10.70105001074332"><ele>34.0</ele><time>2026-04-25T09:59:35.927Z</time></trkpt><trkpt lat="43.75203739394028" lon="10.700961377664118"><ele>34.0</ele><time>2026-04-25T09:59:42.927Z</time></trkpt><trkpt lat="43.75191455341976" lon="10.70099373722587"><ele>34.0</ele><time>2026-04-25T09:59:44.927Z</time></trkpt><trkpt lat="43.75180319998534" lon="10.701094323500696"><ele>34.0</ele><time>2026-04-25T09:59:45.927Z</time></trkpt><trkpt lat="43.75168239780407" lon="10.701165876544026"><ele>34.0</ele><time>2026-04-25T09:59:46.927Z</time></trkpt><trkpt lat="43.75156581958389" lon="10.70124485023695"><ele>34.25</ele><time>2026-04-25T09:59:47.927Z</time></trkpt><trkpt lat="43.75144963013817" lon="10.701321669809067"><ele>34.5</ele><time>2026-04-25T09:59:48.927Z</time></trkpt><trkpt lat="43.751340633599526" lon="10.701396509592639"><ele>34.75</ele><time>2026-04-25T09:59:49.927Z</time></trkpt><trkpt lat="43.75123156753549" lon="10.7014663611034"><ele>35.0</ele><time>2026-04-25T09:59:50.927Z</time></trkpt><trkpt lat="43.7511360475003" lon="10.701508797471439"><ele>35.0</ele><time>2026-04-25T09:59:51.927Z</time></trkpt><trkpt lat="43.75105019115032" lon="10.701532007348126"><ele>35.0</ele><time>2026-04-25T09:59:52.927Z</time></trkpt><trkpt lat="43.750959677013256" lon="10.701490301001531"><ele>35.0</ele><time>2026-04-25T09:59:53.927Z</time></trkpt><trkpt lat="43.75085685222065" lon="10.701410688542289"><ele>35.0</ele><time>2026-04-25T09:59:54.927Z</time></trkpt><trkpt lat="43.75076159708793" lon="10.701237459456319"><ele>34.666666666666664</ele><time>2026-04-25T09:59:55.927Z</time></trkpt><trkpt lat="43.75065024560117" lon="10.701049564758788"><ele>34.333333333333336</ele><time>2026-04-25T09:59:56.927Z</time></trkpt><trkpt lat="43.75052694091286" lon="10.700841751779818"><ele>34.0</ele><time>2026-04-25T09:59:57.927Z</time></trkpt><trkpt lat="43.75040308775201" lon="10.700618920971474"><ele>34.0</ele><time>2026-04-25T09:59:58.927Z</time></trkpt><trkpt lat="43.750298007042446" lon="10.700395815712422"><ele>34.0</ele><time>2026-04-25T09:59:59.927Z</time></trkpt><trkpt lat="43.75021070045352" lon="10.7001883312046"><ele>34.0</ele><time>2026-04-25T10:00:00.927Z</time></trkpt><trkpt lat="43.750133080727714" lon="10.699988129060372"><ele>31.333333333333336</ele><time>2026-04-25T10:00:01.927Z</time></trkpt><trkpt lat="43.75006004493808" lon="10.699799749977998"><ele>28.666666666666664</ele><time>2026-04-25T10:00:02.927Z</time></trkpt><trkpt lat="43.74998397639967" lon="10.699608203909102"><ele>26.0</ele><time>2026-04-25T10:00:03.927Z</time></trkpt><trkpt lat="43.74989540646568" lon="10.699438060003006"><ele>26.0</ele><time>2026-04-25T10:00:04.927Z</time></trkpt><trkpt lat="43.749776804491454" lon="10.699291320731627"><ele>26.0</ele><time>2026-04-25T10:00:05.927Z</time></trkpt><trkpt lat="43.749668569897786" lon="10.699136050234543"><ele>26.0</ele><time>2026-04-25T10:00:06.927Z</time></trkpt><trkpt lat="43.74955995469404" lon="10.698994615528388"><ele>26.0</ele><time>2026-04-25T10:00:07.927Z</time></trkpt><trkpt lat="43.74945494371238" lon="10.698859244476594"><ele>26.0</ele><time>2026-04-25T10:00:08.927Z</time></trkpt><trkpt lat="43.7493675095127" lon="10.69873973379146"><ele>26.0</ele><time>2026-04-25T10:00:09.924Z</time></trkpt><trkpt lat="43.74930878081354" lon="10.698653288042381"><ele>26.0</ele><time>2026-04-25T10:00:10.925Z</time></trkpt><trkpt lat="43.74926031046929" lon="10.698593556597846"><ele>26.0</ele><time>2026-04-25T10:00:12.925Z</time></trkpt><trkpt lat="43.74920632659855" lon="10.698527849409091"><ele>24.8</ele><time>2026-04-25T10:00:15.924Z</time></trkpt><trkpt lat="43.74913815105469" lon="10.698435932571323"><ele>23.6</ele><time>2026-04-25T10:00:17.924Z</time></trkpt><trkpt lat="43.74907761233736" lon="10.698349617312712"><ele>22.4</ele><time>2026-04-25T10:00:18.924Z</time></trkpt><trkpt lat="43.74900040031419" lon="10.698243373104296"><ele>21.2</ele><time>2026-04-25T10:00:19.924Z</time></trkpt><trkpt lat="43.74888903800433" lon="10.698103341940161"><ele>20.0</ele><time>2026-04-25T10:00:20.924Z</time></trkpt><trkpt lat="43.7487464007738" lon="10.697921556627966"><ele>18.0</ele><time>2026-04-25T10:00:21.924Z</time></trkpt><trkpt lat="43.74859646997869" lon="10.697708345453833"><ele>16.0</ele><time>2026-04-25T10:00:22.924Z</time></trkpt><trkpt lat="43.74841599495073" lon="10.69746024774156"><ele>16.0</ele><time>2026-04-25T10:00:23.924Z</time></trkpt><trkpt lat="43.748214365590165" lon="10.697194869929442"><ele>16.0</ele><time>2026-04-25T10:00:24.924Z</time></trkpt><trkpt lat="43.747995863989864" lon="10.696904107294278"><ele>16.5</ele><time>2026-04-25T10:00:25.924Z</time></trkpt><trkpt lat="43.747752010858285" lon="10.696599593595469"><ele>17.0</ele><time>2026-04-25T10:00:26.924Z</time></trkpt><trkpt lat="43.74749229651076" lon="10.696295871807148"><ele>14.5</ele><time>2026-04-25T10:00:27.924Z</time></trkpt><trkpt lat="43.74726719271774" lon="10.696010777563927"><ele>12.0</ele><time>2026-04-25T10:00:28.924Z</time></trkpt><trkpt lat="43.74706936540286" lon="10.69576706910219"><ele>12.0</ele><time>2026-04-25T10:00:29.924Z</time></trkpt><trkpt lat="43.746895569815734" lon="10.695552389496914"><ele>12.0</ele><time>2026-04-25T10:00:30.924Z</time></trkpt><trkpt lat="43.74674251555818" lon="10.695353770012268"><ele>12.0</ele><time>2026-04-25T10:00:31.924Z</time></trkpt><trkpt lat="43.74662459648514" lon="10.695169162211148"><ele>14.333333333333332</ele><time>2026-04-25T10:00:32.924Z</time></trkpt><trkpt lat="43.74654161944799" lon="10.694976450680043"><ele>16.666666666666664</ele><time>2026-04-25T10:00:33.924Z</time></trkpt><trkpt lat="43.74651798291937" lon="10.694731887724634"><ele>19.0</ele><time>2026-04-25T10:00:34.924Z</time></trkpt><trkpt lat="43.746478782590266" lon="10.694456501282483"><ele>20.0</ele><time>2026-04-25T10:00:35.924Z</time></trkpt><trkpt lat="43.74643726221648" lon="10.694161362505255"><ele>21.0</ele><time>2026-04-25T10:00:36.924Z</time></trkpt><trkpt lat="43.74639179410223" lon="10.69383988002511"><ele>22.0</ele><time>2026-04-25T10:00:37.924Z</time></trkpt><trkpt lat="43.746348120109786" lon="10.693529877939904"><ele>23.0</ele><time>2026-04-25T10:00:38.924Z</time></trkpt><trkpt lat="43.74630526973444" lon="10.693270973839908"><ele>24.0</ele><time>2026-04-25T10:00:39.924Z</time></trkpt><trkpt lat="43.746247417506225" lon="10.693095844194731"><ele>24.0</ele><time>2026-04-25T10:00:40.925Z</time></trkpt><trkpt lat="43.74618801545468" lon="10.692905595618392"><ele>24.0</ele><time>2026-04-25T10:00:41.925Z</time></trkpt><trkpt lat="43.746066487889316" lon="10.692798674681832"><ele>24.0</ele><time>2026-04-25T10:00:42.925Z</time></trkpt><trkpt lat="43.7458913499836" lon="10.692616320298457"><ele>28.5</ele><time>2026-04-25T10:00:43.925Z</time></trkpt><trkpt lat="43.74566252769264" lon="10.69241725068349"><ele>33.0</ele><time>2026-04-25T10:00:44.925Z</time></trkpt><trkpt lat="43.74547246500446" lon="10.692232258313778"><ele>33.0</ele><time>2026-04-25T10:00:45.925Z</time></trkpt><trkpt lat="43.745312912363225" lon="10.69209398349428"><ele>33.0</ele><time>2026-04-25T10:00:46.925Z</time></trkpt><trkpt lat="43.74516213191516" lon="10.692006150408494"><ele>33.0</ele><time>2026-04-25T10:00:47.925Z</time></trkpt><trkpt lat="43.74499359589264" lon="10.69202021864608"><ele>34.0</ele><time>2026-04-25T10:00:48.925Z</time></trkpt><trkpt lat="43.74481365599686" lon="10.692105013146481"><ele>35.0</ele><time>2026-04-25T10:00:49.925Z</time></trkpt><trkpt lat="43.74464089148052" lon="10.69224780041092"><ele>36.0</ele><time>2026-04-25T10:00:50.925Z</time></trkpt><trkpt lat="43.74443039578212" lon="10.692420150592596"><ele>36.0</ele><time>2026-04-25T10:00:51.925Z</time></trkpt><trkpt lat="43.74418166532506" lon="10.69260709642159"><ele>36.0</ele><time>2026-04-25T10:00:52.925Z</time></trkpt><trkpt lat="43.7439353992618" lon="10.692720530508659"><ele>37.0</ele><time>2026-04-25T10:00:53.925Z</time></trkpt><trkpt lat="43.7436872211934" lon="10.692824175615593"><ele>38.0</ele><time>2026-04-25T10:00:54.925Z</time></trkpt><trkpt lat="43.74342541704771" lon="10.692888831015773"><ele>40.5</ele><time>2026-04-25T10:00:55.925Z</time></trkpt><trkpt lat="43.743173472205136" lon="10.692906889729198"><ele>43.0</ele><time>2026-04-25T10:00:56.925Z</time></trkpt><trkpt lat="43.742940759795076" lon="10.69287742058129"><ele>43.0</ele><time>2026-04-25T10:00:57.925Z</time></trkpt><trkpt lat="43.742739054916356" lon="10.692849235078429"><ele>43.0</ele><time>2026-04-25T10:00:58.925Z</time></trkpt><trkpt lat="43.742571091786665" lon="10.69281026198652"><ele>43.0</ele><time>2026-04-25T10:00:59.925Z</time></trkpt><trkpt lat="43.74241564988535" lon="10.692773491928902"><ele>42.5</ele><time>2026-04-25T10:01:00.925Z</time></trkpt><trkpt lat="43.74227110789947" lon="10.692735227690838"><ele>42.0</ele><time>2026-04-25T10:01:01.925Z</time></trkpt><trkpt lat="43.742146995360095" lon="10.692705356735036"><ele>41.5</ele><time>2026-04-25T10:01:02.925Z</time></trkpt><trkpt lat="43.74203117494453" lon="10.692679344216238"><ele>41.0</ele><time>2026-04-25T10:01:03.925Z</time></trkpt><trkpt lat="43.74191617822352" lon="10.692655556525493"><ele>40.83333333333333</ele><time>2026-04-25T10:01:04.925Z</time></trkpt><trkpt lat="43.741810981891575" lon="10.692631080223942"><ele>40.666666666666664</ele><time>2026-04-25T10:01:05.925Z</time></trkpt><trkpt lat="43.74173911414446" lon="10.692601734567807"><ele>40.5</ele><time>2026-04-25T10:01:06.925Z</time></trkpt><trkpt lat="43.74167981981962" lon="10.692536867122097"><ele>40.333333333333336</ele><time>2026-04-25T10:01:07.925Z</time></trkpt><trkpt lat="43.74159739011217" lon="10.69251020931176"><ele>40.16666666666667</ele><time>2026-04-25T10:01:08.925Z</time></trkpt><trkpt lat="43.74150318151994" lon="10.69247532345998"><ele>40.0</ele><time>2026-04-25T10:01:09.925Z</time></trkpt><trkpt lat="43.74141500616991" lon="10.692428432555044"><ele>40.0</ele><time>2026-04-25T10:01:10.925Z</time></trkpt><trkpt lat="43.741308688113286" lon="10.692369293308145"><ele>40.0</ele><time>2026-04-25T10:01:11.925Z</time></trkpt><trkpt lat="43.741197478676916" lon="10.692275061737096"><ele>40.0</ele><time>2026-04-25T10:01:12.925Z</time></trkpt><trkpt lat="43.74110464815301" lon="10.69213796637176"><ele>40.0</ele><time>2026-04-25T10:01:13.925Z</time></trkpt><trkpt lat="43.7410620055596" lon="10.69198031860281"><ele>41.0</ele><time>2026-04-25T10:01:14.925Z</time></trkpt><trkpt lat="43.741046292324825" lon="10.691789693825447"><ele>42.0</ele><time>2026-04-25T10:01:15.925Z</time></trkpt><trkpt lat="43.741014590851776" lon="10.691569221431896"><ele>43.0</ele><time>2026-04-25T10:01:16.925Z</time></trkpt><trkpt lat="43.740954367004804" lon="10.691319885965296"><ele>43.0</ele><time>2026-04-25T10:01:17.925Z</time></trkpt><trkpt lat="43.74087681285678" lon="10.691077298718918"><ele>43.0</ele><time>2026-04-25T10:01:18.925Z</time></trkpt><trkpt lat="43.740756364274766" lon="10.690897605089429"><ele>43.0</ele><time>2026-04-25T10:01:19.925Z</time></trkpt><trkpt lat="43.74061348901221" lon="10.690742404900307"><ele>43.0</ele><time>2026-04-25T10:01:20.925Z</time></trkpt><trkpt lat="43.74045489499456" lon="10.690616260781454"><ele>43.0</ele><time>2026-04-25T10:01:21.925Z</time></trkpt><trkpt lat="43.740296321296626" lon="10.690490931283726"><ele>43.0</ele><time>2026-04-25T10:01:22.925Z</time></trkpt><trkpt lat="43.740141209965195" lon="10.690401329895202"><ele>43.2</ele><time>2026-04-25T10:01:23.925Z</time></trkpt><trkpt lat="43.74001044518876" lon="10.690350892410436"><ele>43.4</ele><time>2026-04-25T10:01:24.925Z</time></trkpt><trkpt lat="43.73990590153062" lon="10.690325294022555"><ele>43.6</ele><time>2026-04-25T10:01:25.925Z</time></trkpt><trkpt lat="43.73984032906817" lon="10.690333364222138"><ele>43.800000000000004</ele><time>2026-04-25T10:01:26.925Z</time></trkpt><trkpt lat="43.73975826821853" lon="10.690296954112178"><ele>44.0</ele><time>2026-04-25T10:01:29.925Z</time></trkpt><trkpt lat="43.73965397033435" lon="10.690294270045703"><ele>44.0</ele><time>2026-04-25T10:01:31.925Z</time></trkpt><trkpt lat="43.73978274613631" lon="10.690302140161137"><ele>44.0</ele><time>2026-04-25T10:01:40.925Z</time></trkpt><trkpt lat="43.7398866591673" lon="10.690351227554101"><ele>44.0</ele><time>2026-04-25T10:01:41.925Z</time></trkpt><trkpt lat="43.74001835319732" lon="10.690397809341798"><ele>44.0</ele><time>2026-04-25T10:01:42.925Z</time></trkpt><trkpt lat="43.7401698527204" lon="10.690451044896813"><ele>43.666666666666664</ele><time>2026-04-25T10:01:43.925Z</time></trkpt><trkpt lat="43.74033652256023" lon="10.69055564235379"><ele>43.333333333333336</ele><time>2026-04-25T10:01:44.925Z</time></trkpt><trkpt lat="43.74051209255966" lon="10.69069462273291"><ele>43.0</ele><time>2026-04-25T10:01:45.925Z</time></trkpt><trkpt lat="43.7406710508598" lon="10.690840585719233"><ele>43.0</ele><time>2026-04-25T10:01:46.925Z</time></trkpt><trkpt lat="43.740814176653636" lon="10.691013430509035"><ele>43.0</ele><time>2026-04-25T10:01:47.925Z</time></trkpt><trkpt lat="43.740920418031" lon="10.69120764622465"><ele>43.0</ele><time>2026-04-25T10:01:48.926Z</time></trkpt><trkpt lat="43.740998021785856" lon="10.69145070818787"><ele>43.0</ele><time>2026-04-25T10:01:49.926Z</time></trkpt><trkpt lat="43.74104424817788" lon="10.691729337975032"><ele>43.0</ele><time>2026-04-25T10:01:50.926Z</time></trkpt><trkpt lat="43.74102660880477" lon="10.691880501409711"><ele>43.0</ele><time>2026-04-25T10:01:51.926Z</time></trkpt><trkpt lat="43.741075126346956" lon="10.69211266704679"><ele>42.25</ele><time>2026-04-25T10:01:52.926Z</time></trkpt><trkpt lat="43.74114211594932" lon="10.692284589370212"><ele>41.5</ele><time>2026-04-25T10:01:53.926Z</time></trkpt><trkpt lat="43.74126468684053" lon="10.692405985201537"><ele>40.75</ele><time>2026-04-25T10:01:54.926Z</time></trkpt><trkpt lat="43.74139712992787" lon="10.69251513979079"><ele>40.0</ele><time>2026-04-25T10:01:55.926Z</time></trkpt><trkpt lat="43.7415973439888" lon="10.692599887018286"><ele>40.0</ele><time>2026-04-25T10:01:56.926Z</time></trkpt><trkpt lat="43.74179572532547" lon="10.69267333395143"><ele>40.0</ele><time>2026-04-25T10:01:57.926Z</time></trkpt><trkpt lat="43.741997121158924" lon="10.692736431714637"><ele>40.0</ele><time>2026-04-25T10:01:58.926Z</time></trkpt><trkpt lat="43.74218643562864" lon="10.692794504614136"><ele>42.0</ele><time>2026-04-25T10:01:59.926Z</time></trkpt><trkpt lat="43.74235741786624" lon="10.692799933949374"><ele>44.0</ele><time>2026-04-25T10:02:00.926Z</time></trkpt><trkpt lat="43.74249821702195" lon="10.692825488315053"><ele>46.0</ele><time>2026-04-25T10:02:01.926Z</time></trkpt><trkpt lat="43.74259948310915" lon="10.692843806063577"><ele>48.0</ele><time>2026-04-25T10:02:02.926Z</time></trkpt><trkpt lat="43.742665282004054" lon="10.692858312803171"><ele>47.0</ele><time>2026-04-25T10:02:03.926Z</time></trkpt><trkpt lat="43.74273355720637" lon="10.692863771564177"><ele>46.0</ele><time>2026-04-25T10:02:06.926Z</time></trkpt><trkpt lat="43.742729284450434" lon="10.692644287848116"><ele>45.0</ele><time>2026-04-25T10:02:07.926Z</time></trkpt><trkpt lat="43.74274540305051" lon="10.6925367638961"><ele>44.0</ele><time>2026-04-25T10:02:08.926Z</time></trkpt><trkpt lat="43.74276201466214" lon="10.69243234235342"><ele>43.0</ele><time>2026-04-25T10:02:09.926Z</time></trkpt><trkpt lat="43.74278641859882" lon="10.692289386798087"><ele>42.0</ele><time>2026-04-25T10:02:10.926Z</time></trkpt><trkpt lat="43.74283227148331" lon="10.69214545180059"><ele>41.0</ele><time>2026-04-25T10:02:11.926Z</time></trkpt><trkpt lat="43.74284925687317" lon="10.69199483942929"><ele>40.0</ele><time>2026-04-25T10:02:12.926Z</time></trkpt><trkpt lat="43.74287909747244" lon="10.69184408378995"><ele>39.0</ele><time>2026-04-25T10:02:13.926Z</time></trkpt><trkpt lat="43.742889844165326" lon="10.69166900245107"><ele>38.6</ele><time>2026-04-25T10:02:14.926Z</time></trkpt><trkpt lat="43.7429172538613" lon="10.691527062848786"><ele>38.2</ele><time>2026-04-25T10:02:15.924Z</time></trkpt><trkpt lat="43.74294117306498" lon="10.691382823643277"><ele>37.800000000000004</ele><time>2026-04-25T10:02:16.923Z</time></trkpt><trkpt lat="43.742965251832416" lon="10.691239124403047"><ele>37.4</ele><time>2026-04-25T10:02:17.923Z</time></trkpt><trkpt lat="43.74299154758639" lon="10.69109969360478"><ele>37.0</ele><time>2026-04-25T10:02:18.923Z</time></trkpt><trkpt lat="43.74301599835848" lon="10.690954978807492"><ele>36.4</ele><time>2026-04-25T10:02:19.923Z</time></trkpt><trkpt lat="43.743046088554784" lon="10.690807014569149"><ele>35.800000000000004</ele><time>2026-04-25T10:02:20.923Z</time></trkpt><trkpt lat="43.743069558702935" lon="10.690672735073623"><ele>35.2</ele><time>2026-04-25T10:02:21.923Z</time></trkpt><trkpt lat="43.743093307869565" lon="10.690548359575907"><ele>34.6</ele><time>2026-04-25T10:02:22.924Z</time></trkpt><trkpt lat="43.74311771799665" lon="10.69042027591206"><ele>34.0</ele><time>2026-04-25T10:02:23.924Z</time></trkpt><trkpt lat="43.7431416735537" lon="10.690280132829718"><ele>33.8</ele><time>2026-04-25T10:02:24.924Z</time></trkpt><trkpt lat="43.743169842048616" lon="10.690131349570633"><ele>33.599999999999994</ele><time>2026-04-25T10:02:25.923Z</time></trkpt><trkpt lat="43.74318911808839" lon="10.68998502904264"><ele>33.4</ele><time>2026-04-25T10:02:26.923Z</time></trkpt><trkpt lat="43.74321016575165" lon="10.689841382419356"><ele>33.199999999999996</ele><time>2026-04-25T10:02:27.924Z</time></trkpt><trkpt lat="43.743235970815704" lon="10.689691455061785"><ele>33.0</ele><time>2026-04-25T10:02:28.924Z</time></trkpt><trkpt lat="43.74326318900885" lon="10.689543359980632"><ele>32.8</ele><time>2026-04-25T10:02:29.924Z</time></trkpt><trkpt lat="43.74328916949418" lon="10.689395755677232"><ele>32.599999999999994</ele><time>2026-04-25T10:02:30.924Z</time></trkpt><trkpt lat="43.74331409913997" lon="10.689246276826829"><ele>32.400000000000006</ele><time>2026-04-25T10:02:31.924Z</time></trkpt><trkpt lat="43.74334003759002" lon="10.689097916458763"><ele>32.2</ele><time>2026-04-25T10:02:32.924Z</time></trkpt><trkpt lat="43.743368064885146" lon="10.68893836967628"><ele>32.0</ele><time>2026-04-25T10:02:33.924Z</time></trkpt><trkpt lat="43.74339736175827" lon="10.68878433250687"><ele>32.0</ele><time>2026-04-25T10:02:34.924Z</time></trkpt><trkpt lat="43.74342419870417" lon="10.68862524142467"><ele>32.0</ele><time>2026-04-25T10:02:35.924Z</time></trkpt><trkpt lat="43.74345234448061" lon="10.688467622613457"><ele>32.0</ele><time>2026-04-25T10:02:36.924Z</time></trkpt><trkpt lat="43.74347934758641" lon="10.688312398439928"><ele>32.0</ele><time>2026-04-25T10:02:37.924Z</time></trkpt><trkpt lat="43.74351171032285" lon="10.688159932398142"><ele>32.0</ele><time>2026-04-25T10:02:38.924Z</time></trkpt><trkpt lat="43.74353971625456" lon="10.688006565613287"><ele>32.0</ele><time>2026-04-25T10:02:39.924Z</time></trkpt><trkpt lat="43.743567414139505" lon="10.687860035386427"><ele>32.0</ele><time>2026-04-25T10:02:40.924Z</time></trkpt><trkpt lat="43.74359233266402" lon="10.687706307435008"><ele>32.0</ele><time>2026-04-25T10:02:41.924Z</time></trkpt><trkpt lat="43.74362107031978" lon="10.687549481800605"><ele>31.75</ele><time>2026-04-25T10:02:42.924Z</time></trkpt><trkpt lat="43.74364758117716" lon="10.687397563074374"><ele>31.5</ele><time>2026-04-25T10:02:43.924Z</time></trkpt><trkpt lat="43.743675865727326" lon="10.68724295370451"><ele>31.25</ele><time>2026-04-25T10:02:44.924Z</time></trkpt><trkpt lat="43.74370521679385" lon="10.687087410585328"><ele>31.0</ele><time>2026-04-25T10:02:45.924Z</time></trkpt><trkpt lat="43.74373065391349" lon="10.686934238116569"><ele>31.0</ele><time>2026-04-25T10:02:46.924Z</time></trkpt><trkpt lat="43.74375898334286" lon="10.686781533540334"><ele>31.0</ele><time>2026-04-25T10:02:47.924Z</time></trkpt><trkpt lat="43.74377971380067" lon="10.68663470909053"><ele>31.0</ele><time>2026-04-25T10:02:48.924Z</time></trkpt><trkpt lat="43.74379863353605" lon="10.686473254938068"><ele>31.0</ele><time>2026-04-25T10:02:49.924Z</time></trkpt><trkpt lat="43.74382492589289" lon="10.686307375968008"><ele>31.0</ele><time>2026-04-25T10:02:50.924Z</time></trkpt><trkpt lat="43.74385473835983" lon="10.68613229019084"><ele>31.0</ele><time>2026-04-25T10:02:51.924Z</time></trkpt><trkpt lat="43.74388568950213" lon="10.685970904096111"><ele>31.0</ele><time>2026-04-25T10:02:52.924Z</time></trkpt><trkpt lat="43.74391795780741" lon="10.685811313313764"><ele>31.0</ele><time>2026-04-25T10:02:53.924Z</time></trkpt><trkpt lat="43.7439496901247" lon="10.685652121140347"><ele>31.25</ele><time>2026-04-25T10:02:54.924Z</time></trkpt><trkpt lat="43.74397940548855" lon="10.68549946507209"><ele>31.5</ele><time>2026-04-25T10:02:55.924Z</time></trkpt><trkpt lat="43.744003650674166" lon="10.685333881585382"><ele>31.75</ele><time>2026-04-25T10:02:56.924Z</time></trkpt><trkpt lat="43.744033558984384" lon="10.685172528029911"><ele>32.0</ele><time>2026-04-25T10:02:57.924Z</time></trkpt><trkpt lat="43.744066761954535" lon="10.685019954337303"><ele>32.0</ele><time>2026-04-25T10:02:58.924Z</time></trkpt><trkpt lat="43.74409410293267" lon="10.684865759238535"><ele>32.0</ele><time>2026-04-25T10:02:59.924Z</time></trkpt><trkpt lat="43.74411784761334" lon="10.68471107039368"><ele>32.0</ele><time>2026-04-25T10:03:00.924Z</time></trkpt><trkpt lat="43.74414908915503" lon="10.684552894985192"><ele>32.0</ele><time>2026-04-25T10:03:01.924Z</time></trkpt><trkpt lat="43.74417667642766" lon="10.68438709681907"><ele>32.0</ele><time>2026-04-25T10:03:02.924Z</time></trkpt><trkpt lat="43.74420157961362" lon="10.684220485851256"><ele>32.0</ele><time>2026-04-25T10:03:03.924Z</time></trkpt><trkpt lat="43.74423345932177" lon="10.684058953942268"><ele>32.0</ele><time>2026-04-25T10:03:04.924Z</time></trkpt><trkpt lat="43.744265133909714" lon="10.683900241043629"><ele>32.0</ele><time>2026-04-25T10:03:05.924Z</time></trkpt><trkpt lat="43.744293246253896" lon="10.683739510613345"><ele>31.8</ele><time>2026-04-25T10:03:06.924Z</time></trkpt><trkpt lat="43.74432417223977" lon="10.68358182273208"><ele>31.6</ele><time>2026-04-25T10:03:07.924Z</time></trkpt><trkpt lat="43.74435120681419" lon="10.68343928798475"><ele>31.400000000000002</ele><time>2026-04-25T10:03:08.924Z</time></trkpt><trkpt lat="43.74437434204946" lon="10.683294054098543"><ele>31.200000000000003</ele><time>2026-04-25T10:03:09.924Z</time></trkpt><trkpt lat="43.74439747443559" lon="10.683146224945986"><ele>31.0</ele><time>2026-04-25T10:03:10.925Z</time></trkpt><trkpt lat="43.744423491145795" lon="10.68299877535061"><ele>30.8</ele><time>2026-04-25T10:03:11.925Z</time></trkpt><trkpt lat="43.744447534817134" lon="10.682849911625901"><ele>30.6</ele><time>2026-04-25T10:03:12.925Z</time></trkpt><trkpt lat="43.74447037174467" lon="10.682702986189868"><ele>30.4</ele><time>2026-04-25T10:03:13.925Z</time></trkpt><trkpt lat="43.74451444100126" lon="10.682560499068051"><ele>30.2</ele><time>2026-04-25T10:03:14.925Z</time></trkpt><trkpt lat="43.74453814736214" lon="10.68241496493345"><ele>30.0</ele><time>2026-04-25T10:03:15.925Z</time></trkpt><trkpt lat="43.74456555875521" lon="10.682258219564572"><ele>30.0</ele><time>2026-04-25T10:03:16.925Z</time></trkpt><trkpt lat="43.74459510823391" lon="10.6821023719904"><ele>30.0</ele><time>2026-04-25T10:03:17.925Z</time></trkpt><trkpt lat="43.744622775817234" lon="10.681947182362899"><ele>30.0</ele><time>2026-04-25T10:03:18.925Z</time></trkpt><trkpt lat="43.744650059333075" lon="10.681784620961247"><ele>30.0</ele><time>2026-04-25T10:03:19.925Z</time></trkpt><trkpt lat="43.74467554570614" lon="10.6816205383416"><ele>29.5</ele><time>2026-04-25T10:03:20.925Z</time></trkpt><trkpt lat="43.74470184233348" lon="10.681461486009892"><ele>29.0</ele><time>2026-04-25T10:03:21.925Z</time></trkpt><trkpt lat="43.74473459272012" lon="10.68129577377344"><ele>28.5</ele><time>2026-04-25T10:03:22.925Z</time></trkpt><trkpt lat="43.74476723532334" lon="10.68112736292703"><ele>28.0</ele><time>2026-04-25T10:03:23.925Z</time></trkpt><trkpt lat="43.74479954825638" lon="10.680952472445655"><ele>27.75</ele><time>2026-04-25T10:03:24.925Z</time></trkpt><trkpt lat="43.74482663927618" lon="10.68078292059665"><ele>27.5</ele><time>2026-04-25T10:03:25.925Z</time></trkpt><trkpt lat="43.74485878067697" lon="10.68060166705206"><ele>27.25</ele><time>2026-04-25T10:03:26.925Z</time></trkpt><trkpt lat="43.74488711242509" lon="10.680426970868641"><ele>27.0</ele><time>2026-04-25T10:03:27.925Z</time></trkpt><trkpt lat="43.744920307465016" lon="10.680256880613126"><ele>27.0</ele><time>2026-04-25T10:03:28.925Z</time></trkpt><trkpt lat="43.744952752422236" lon="10.680082467419941"><ele>27.0</ele><time>2026-04-25T10:03:29.925Z</time></trkpt><trkpt lat="43.74498432667294" lon="10.679910202025122"><ele>27.0</ele><time>2026-04-25T10:03:30.925Z</time></trkpt><trkpt lat="43.745015239097796" lon="10.679737680836833"><ele>27.0</ele><time>2026-04-25T10:03:31.925Z</time></trkpt><trkpt lat="43.74504603360201" lon="10.679570712302391"><ele>26.8</ele><time>2026-04-25T10:03:32.925Z</time></trkpt><trkpt lat="43.745071361983314" lon="10.679418494223896"><ele>26.6</ele><time>2026-04-25T10:03:33.925Z</time></trkpt><trkpt lat="43.74509384479095" lon="10.679279868761746"><ele>26.400000000000002</ele><time>2026-04-25T10:03:34.925Z</time></trkpt><trkpt lat="43.74511299805117" lon="10.67915358993435"><ele>26.200000000000003</ele><time>2026-04-25T10:03:35.925Z</time></trkpt><trkpt lat="43.74513128274715" lon="10.679034203687204"><ele>26.0</ele><time>2026-04-25T10:03:36.925Z</time></trkpt><trkpt lat="43.745135816492486" lon="10.678925022196388"><ele>25.999999999999996</ele><time>2026-04-25T10:03:37.925Z</time></trkpt><trkpt lat="43.74513251157905" lon="10.678821887804686"><ele>26.0</ele><time>2026-04-25T10:03:38.925Z</time></trkpt><trkpt lat="43.74511181959128" lon="10.678732914583087"><ele>26.0</ele><time>2026-04-25T10:03:39.925Z</time></trkpt><trkpt lat="43.745080083885625" lon="10.678631062927563"><ele>26.0</ele><time>2026-04-25T10:03:40.925Z</time></trkpt><trkpt lat="43.74502916786525" lon="10.678525651285728"><ele>25.999999999999996</ele><time>2026-04-25T10:03:41.925Z</time></trkpt><trkpt lat="43.7449704931724" lon="10.67842061665045"><ele>26.0</ele><time>2026-04-25T10:03:42.925Z</time></trkpt><trkpt lat="43.744912686675015" lon="10.678297316910598"><ele>26.0</ele><time>2026-04-25T10:03:43.925Z</time></trkpt><trkpt lat="43.74484362317525" lon="10.678165115769124"><ele>26.0</ele><time>2026-04-25T10:03:44.925Z</time></trkpt><trkpt lat="43.74477839497196" lon="10.678032925619506"><ele>26.0</ele><time>2026-04-25T10:03:45.925Z</time></trkpt><trkpt lat="43.74471046551726" lon="10.677897080770098"><ele>26.0</ele><time>2026-04-25T10:03:46.925Z</time></trkpt><trkpt lat="43.744647779785765" lon="10.677762148367057"><ele>26.25</ele><time>2026-04-25T10:03:47.925Z</time></trkpt><trkpt lat="43.74458306451038" lon="10.677626186403359"><ele>26.5</ele><time>2026-04-25T10:03:48.925Z</time></trkpt><trkpt lat="43.744544333076064" lon="10.677477524994234"><ele>26.75</ele><time>2026-04-25T10:03:49.925Z</time></trkpt><trkpt lat="43.74448709835907" lon="10.677340899178777"><ele>27.0</ele><time>2026-04-25T10:03:50.925Z</time></trkpt><trkpt lat="43.74442798567368" lon="10.677213409163414"><ele>27.0</ele><time>2026-04-25T10:03:51.925Z</time></trkpt><trkpt lat="43.74438047686427" lon="10.677090582491184"><ele>27.000000000000004</ele><time>2026-04-25T10:03:52.925Z</time></trkpt><trkpt lat="43.74432720331963" lon="10.676975189112635"><ele>27.000000000000004</ele><time>2026-04-25T10:03:53.925Z</time></trkpt><trkpt lat="43.74427787274849" lon="10.676868043051144"><ele>27.0</ele><time>2026-04-25T10:03:54.925Z</time></trkpt><trkpt lat="43.74422271210356" lon="10.67676394555727"><ele>27.0</ele><time>2026-04-25T10:03:55.925Z</time></trkpt><trkpt lat="43.74417125318481" lon="10.676637323451423"><ele>26.400000000000002</ele><time>2026-04-25T10:03:56.925Z</time></trkpt><trkpt lat="43.744104807734864" lon="10.676507737031972"><ele>25.800000000000004</ele><time>2026-04-25T10:03:57.925Z</time></trkpt><trkpt lat="43.74404072625157" lon="10.676389809200423"><ele>25.2</ele><time>2026-04-25T10:03:58.925Z</time></trkpt><trkpt lat="43.74399076172366" lon="10.676268032929595"><ele>24.6</ele><time>2026-04-25T10:03:59.925Z</time></trkpt><trkpt lat="43.743938610311595" lon="10.676132158258142"><ele>24.0</ele><time>2026-04-25T10:04:00.925Z</time></trkpt><trkpt lat="43.7438778915159" lon="10.67601359913383"><ele>24.0</ele><time>2026-04-25T10:04:01.925Z</time></trkpt><trkpt lat="43.743818609660735" lon="10.675904310720526"><ele>24.0</ele><time>2026-04-25T10:04:02.925Z</time></trkpt><trkpt lat="43.7437690537473" lon="10.675792633732003"><ele>24.0</ele><time>2026-04-25T10:04:03.925Z</time></trkpt><trkpt lat="43.7437208211263" lon="10.675676801425332"><ele>24.0</ele><time>2026-04-25T10:04:04.925Z</time></trkpt><trkpt lat="43.74366851066223" lon="10.675557532543042"><ele>24.0</ele><time>2026-04-25T10:04:05.925Z</time></trkpt><trkpt lat="43.7436253679824" lon="10.67545632574458"><ele>24.0</ele><time>2026-04-25T10:04:06.925Z</time></trkpt><trkpt lat="43.743597810805824" lon="10.675341886405297"><ele>24.0</ele><time>2026-04-25T10:04:07.925Z</time></trkpt><trkpt lat="43.743561982996596" lon="10.675250316101751"><ele>24.0</ele><time>2026-04-25T10:04:08.925Z</time></trkpt><trkpt lat="43.743514316146566" lon="10.675170838863673"><ele>24.0</ele><time>2026-04-25T10:04:09.925Z</time></trkpt><trkpt lat="43.74349777481329" lon="10.675070689756215"><ele>24.0</ele><time>2026-04-25T10:04:10.925Z</time></trkpt><trkpt lat="43.74347338276609" lon="10.67498569240235"><ele>24.0</ele><time>2026-04-25T10:04:11.925Z</time></trkpt><trkpt lat="43.74343372225061" lon="10.674863287523378"><ele>24.0</ele><time>2026-04-25T10:04:13.925Z</time></trkpt><trkpt lat="43.74345991681344" lon="10.674754536341716"><ele>24.0</ele><time>2026-04-25T10:04:15.925Z</time></trkpt><trkpt lat="43.743466834151846" lon="10.674661404897206"><ele>24.0</ele><time>2026-04-25T10:04:16.925Z</time></trkpt><trkpt lat="43.74349672328842" lon="10.674562321164792"><ele>24.0</ele><time>2026-04-25T10:04:17.926Z</time></trkpt><trkpt lat="43.74350182890858" lon="10.674449093276412"><ele>24.0</ele><time>2026-04-25T10:04:18.926Z</time></trkpt><trkpt lat="43.74350231402595" lon="10.674321535127202"><ele>24.0</ele><time>2026-04-25T10:04:19.926Z</time></trkpt><trkpt lat="43.743500362432805" lon="10.674194352206616"><ele>24.0</ele><time>2026-04-25T10:04:20.926Z</time></trkpt><trkpt lat="43.743508932846474" lon="10.67406391832311"><ele>24.0</ele><time>2026-04-25T10:04:21.923Z</time></trkpt><trkpt lat="43.743516374551035" lon="10.673937774659999"><ele>24.0</ele><time>2026-04-25T10:04:22.923Z</time></trkpt><trkpt lat="43.743523932405765" lon="10.673814250669695"><ele>24.0</ele><time>2026-04-25T10:04:23.923Z</time></trkpt><trkpt lat="43.74352845749471" lon="10.673703139642221"><ele>24.0</ele><time>2026-04-25T10:04:24.923Z</time></trkpt><trkpt lat="43.74353180490922" lon="10.673600531823654"><ele>24.0</ele><time>2026-04-25T10:04:25.923Z</time></trkpt><trkpt lat="43.743541243220704" lon="10.673514350222675"><ele>24.4</ele><time>2026-04-25T10:04:26.923Z</time></trkpt><trkpt lat="43.74354330808851" lon="10.673369451519873"><ele>24.799999999999997</ele><time>2026-04-25T10:04:28.923Z</time></trkpt><trkpt lat="43.74354077925875" lon="10.673263333583606"><ele>25.200000000000003</ele><time>2026-04-25T10:04:30.923Z</time></trkpt><trkpt lat="43.74353078071691" lon="10.673129890618409"><ele>25.6</ele><time>2026-04-25T10:04:32.923Z</time></trkpt><trkpt lat="43.74355005153028" lon="10.6729919853423"><ele>26.0</ele><time>2026-04-25T10:04:34.922Z</time></trkpt><trkpt lat="43.743559171281056" lon="10.672857781672413"><ele>25.6</ele><time>2026-04-25T10:04:36.922Z</time></trkpt><trkpt lat="43.74356647881219" lon="10.672762433405628"><ele>25.200000000000003</ele><time>2026-04-25T10:04:37.922Z</time></trkpt><trkpt lat="43.74355618502469" lon="10.672656285948134"><ele>24.799999999999997</ele><time>2026-04-25T10:04:38.922Z</time></trkpt><trkpt lat="43.743529965933774" lon="10.672484750957816"><ele>24.4</ele><time>2026-04-25T10:04:40.922Z</time></trkpt><trkpt lat="43.74353362807327" lon="10.672299101067034"><ele>24.0</ele><time>2026-04-25T10:04:42.922Z</time></trkpt><trkpt lat="43.743534702405334" lon="10.672201346425416"><ele>24.0</ele><time>2026-04-25T10:04:43.922Z</time></trkpt><trkpt lat="43.743522498021704" lon="10.672013185021001"><ele>24.0</ele><time>2026-04-25T10:04:45.922Z</time></trkpt><trkpt lat="43.74352487944361" lon="10.67192267545387"><ele>24.0</ele><time>2026-04-25T10:04:46.923Z</time></trkpt><trkpt lat="43.743525574638824" lon="10.671824382067701"><ele>24.0</ele><time>2026-04-25T10:04:47.923Z</time></trkpt><trkpt lat="43.74352572119349" lon="10.671726297346526"><ele>24.0</ele><time>2026-04-25T10:04:48.923Z</time></trkpt><trkpt lat="43.7435264425728" lon="10.671636717577064"><ele>24.0</ele><time>2026-04-25T10:04:49.923Z</time></trkpt><trkpt lat="43.74353120473646" lon="10.671502023405715"><ele>23.0</ele><time>2026-04-25T10:04:51.923Z</time></trkpt><trkpt lat="43.743520276916875" lon="10.671359614933747"><ele>22.0</ele><time>2026-04-25T10:04:53.923Z</time></trkpt><trkpt lat="43.74351509705527" lon="10.671271834615368"><ele>21.0</ele><time>2026-04-25T10:04:54.923Z</time></trkpt><trkpt lat="43.74351380398267" lon="10.67113437284065"><ele>20.0</ele><time>2026-04-25T10:04:56.923Z</time></trkpt><trkpt lat="43.74351570203949" lon="10.670995882771054"><ele>19.0</ele><time>2026-04-25T10:04:58.923Z</time></trkpt><trkpt lat="43.74351492648666" lon="10.670836554976667"><ele>17.4</ele><time>2026-04-25T10:05:00.923Z</time></trkpt><trkpt lat="43.7435113198269" lon="10.670664618678545"><ele>15.799999999999999</ele><time>2026-04-25T10:05:02.923Z</time></trkpt><trkpt lat="43.74351444165803" lon="10.670497410923112"><ele>14.2</ele><time>2026-04-25T10:05:04.923Z</time></trkpt><trkpt lat="43.743514700594396" lon="10.670408250984117"><ele>12.600000000000001</ele><time>2026-04-25T10:05:05.923Z</time></trkpt><trkpt lat="43.7435124345345" lon="10.670308507436717"><ele>11.0</ele><time>2026-04-25T10:05:06.923Z</time></trkpt><trkpt lat="43.74350891720779" lon="10.670199840669579"><ele>10.166666666666666</ele><time>2026-04-25T10:05:07.923Z</time></trkpt><trkpt lat="43.74350554662244" lon="10.670075083239114"><ele>9.333333333333332</ele><time>2026-04-25T10:05:08.923Z</time></trkpt><trkpt lat="43.74351171373972" lon="10.669952157080372"><ele>8.5</ele><time>2026-04-25T10:05:09.923Z</time></trkpt><trkpt lat="43.743512566912095" lon="10.669831046824294"><ele>7.666666666666666</ele><time>2026-04-25T10:05:10.923Z</time></trkpt><trkpt lat="43.74350885772735" lon="10.669722072698463"><ele>6.833333333333333</ele><time>2026-04-25T10:05:11.923Z</time></trkpt><trkpt lat="43.74350918193314" lon="10.669615176955647"><ele>6.0</ele><time>2026-04-25T10:05:12.923Z</time></trkpt><trkpt lat="43.743510892246796" lon="10.66951267606011"><ele>5.857142857142857</ele><time>2026-04-25T10:05:13.923Z</time></trkpt><trkpt lat="43.743510140010876" lon="10.669407988766572"><ele>5.714285714285714</ele><time>2026-04-25T10:05:14.923Z</time></trkpt><trkpt lat="43.74351045527115" lon="10.669305721151037"><ele>5.571428571428571</ele><time>2026-04-25T10:05:15.923Z</time></trkpt><trkpt lat="43.74351137465767" lon="10.66921034892748"><ele>5.428571428571429</ele><time>2026-04-25T10:05:16.923Z</time></trkpt><trkpt lat="43.743508672547016" lon="10.669115235698415"><ele>5.285714285714286</ele><time>2026-04-25T10:05:17.923Z</time></trkpt><trkpt lat="43.74350766297449" lon="10.669006427996035"><ele>5.142857142857142</ele><time>2026-04-25T10:05:18.923Z</time></trkpt><trkpt lat="43.74350494555286" lon="10.668910047499057"><ele>5.0</ele><time>2026-04-25T10:05:19.923Z</time></trkpt><trkpt lat="43.743500568683004" lon="10.668803148335803"><ele>5.0</ele><time>2026-04-25T10:05:20.923Z</time></trkpt><trkpt lat="43.74350097441368" lon="10.668687758719068"><ele>5.0</ele><time>2026-04-25T10:05:21.923Z</time></trkpt><trkpt lat="43.7435031785126" lon="10.668562133843661"><ele>5.0</ele><time>2026-04-25T10:05:22.923Z</time></trkpt><trkpt lat="43.743500427634636" lon="10.668434803349614"><ele>5.0</ele><time>2026-04-25T10:05:23.923Z</time></trkpt><trkpt lat="43.74350352420568" lon="10.668306320027513"><ele>5.0</ele><time>2026-04-25T10:05:24.923Z</time></trkpt><trkpt lat="43.7435022856834" lon="10.668193254028475"><ele>5.0</ele><time>2026-04-25T10:05:25.923Z</time></trkpt><trkpt lat="43.74349964499453" lon="10.668083900441518"><ele>5.0</ele><time>2026-04-25T10:05:26.923Z</time></trkpt><trkpt lat="43.74349821426191" lon="10.667972185920085"><ele>5.0</ele><time>2026-04-25T10:05:27.923Z</time></trkpt><trkpt lat="43.74349866181325" lon="10.667861225953905"><ele>5.0</ele><time>2026-04-25T10:05:28.923Z</time></trkpt><trkpt lat="43.743498377609534" lon="10.667748190355494"><ele>5.0</ele><time>2026-04-25T10:05:29.923Z</time></trkpt><trkpt lat="43.74349583912394" lon="10.667638149762736"><ele>5.0</ele><time>2026-04-25T10:05:30.923Z</time></trkpt><trkpt lat="43.74349390297585" lon="10.667538731732332"><ele>5.0</ele><time>2026-04-25T10:05:31.923Z</time></trkpt><trkpt lat="43.74349172658885" lon="10.667446996024823"><ele>5.0</ele><time>2026-04-25T10:05:32.923Z</time></trkpt><trkpt lat="43.74349121155904" lon="10.667346811758994"><ele>5.0</ele><time>2026-04-25T10:05:33.923Z</time></trkpt><trkpt lat="43.74351005092754" lon="10.66724299337961"><ele>5.0</ele><time>2026-04-25T10:05:34.923Z</time></trkpt><trkpt lat="43.743508643953" lon="10.66714702827133"><ele>5.0</ele><time>2026-04-25T10:05:35.923Z</time></trkpt><trkpt lat="43.74351795921323" lon="10.666998007810786"><ele>5.0</ele><time>2026-04-25T10:05:37.923Z</time></trkpt><trkpt lat="43.743535778040574" lon="10.666903880320147"><ele>5.0</ele><time>2026-04-25T10:05:39.923Z</time></trkpt><trkpt lat="43.74364570520212" lon="10.666825580286169"><ele>5.0</ele><time>2026-04-25T10:05:48.923Z</time></trkpt><trkpt lat="43.74373980564086" lon="10.66679244043819"><ele>5.0</ele><time>2026-04-25T10:05:50.923Z</time></trkpt><trkpt lat="43.743821427224894" lon="10.666738452506788"><ele>5.0</ele><time>2026-04-25T10:05:52.923Z</time></trkpt><trkpt lat="43.74392485693231" lon="10.666678175860353"><ele>5.0</ele><time>2026-04-25T10:05:54.924Z</time></trkpt><trkpt lat="43.74402500766259" lon="10.666640998066145"><ele>5.0</ele><time>2026-04-25T10:05:56.924Z</time></trkpt><trkpt lat="43.74412538978821" lon="10.666587082175903"><ele>5.0</ele><time>2026-04-25T10:05:58.924Z</time></trkpt><trkpt lat="43.744226148505476" lon="10.666538245722254"><ele>5.0</ele><time>2026-04-25T10:06:00.924Z</time></trkpt><trkpt lat="43.74428862715509" lon="10.666500739271463"><ele>5.0</ele><time>2026-04-25T10:06:01.924Z</time></trkpt><trkpt lat="43.74441032433911" lon="10.66642957746059"><ele>5.0</ele><time>2026-04-25T10:06:03.924Z</time></trkpt><trkpt lat="43.74447552285019" lon="10.666390530859113"><ele>5.0</ele><time>2026-04-25T10:06:04.924Z</time></trkpt><trkpt lat="43.74453768931544" lon="10.666351795653112"><ele>5.0</ele><time>2026-04-25T10:06:05.924Z</time></trkpt><trkpt lat="43.744594329138806" lon="10.66631177057914"><ele>4.666666666666667</ele><time>2026-04-25T10:06:06.924Z</time></trkpt><trkpt lat="43.74466174002879" lon="10.666265141295085"><ele>4.333333333333334</ele><time>2026-04-25T10:06:07.924Z</time></trkpt><trkpt lat="43.74473016180445" lon="10.666227661745083"><ele>4.0</ele><time>2026-04-25T10:06:08.924Z</time></trkpt><trkpt lat="43.74479389879808" lon="10.666187469785372"><ele>3.666666666666667</ele><time>2026-04-25T10:06:09.924Z</time></trkpt><trkpt lat="43.744854071132984" lon="10.666152053782247"><ele>3.3333333333333335</ele><time>2026-04-25T10:06:10.924Z</time></trkpt><trkpt lat="43.744968738914054" lon="10.666082667434022"><ele>3.0</ele><time>2026-04-25T10:06:12.924Z</time></trkpt><trkpt lat="43.74506915768275" lon="10.666010239617789"><ele>3.0</ele><time>2026-04-25T10:06:14.924Z</time></trkpt><trkpt lat="43.745182108097374" lon="10.665941278889658"><ele>3.0</ele><time>2026-04-25T10:06:16.924Z</time></trkpt><trkpt lat="43.745288799911044" lon="10.665886591213086"><ele>3.0</ele><time>2026-04-25T10:06:18.924Z</time></trkpt><trkpt lat="43.74538283112057" lon="10.665825984194715"><ele>3.0</ele><time>2026-04-25T10:06:20.924Z</time></trkpt><trkpt lat="43.74548706739556" lon="10.66578463929977"><ele>3.0</ele><time>2026-04-25T10:06:22.924Z</time></trkpt><trkpt lat="43.74556304629362" lon="10.665737304312687"><ele>3.1666666666666665</ele><time>2026-04-25T10:06:24.924Z</time></trkpt><trkpt lat="43.745650099304676" lon="10.665669410779309"><ele>3.333333333333333</ele><time>2026-04-25T10:06:26.924Z</time></trkpt><trkpt lat="43.74570886441717" lon="10.665637033124403"><ele>3.5</ele><time>2026-04-25T10:06:27.922Z</time></trkpt><trkpt lat="43.745768866041026" lon="10.665600596057244"><ele>3.6666666666666665</ele><time>2026-04-25T10:06:28.921Z</time></trkpt><trkpt lat="43.74583109314719" lon="10.665571432524603"><ele>3.833333333333333</ele><time>2026-04-25T10:06:29.921Z</time></trkpt><trkpt lat="43.74593492719642" lon="10.665516838734924"><ele>4.0</ele><time>2026-04-25T10:06:31.922Z</time></trkpt><trkpt lat="43.74604254140852" lon="10.66545455999068"><ele>4.166666666666666</ele><time>2026-04-25T10:06:33.922Z</time></trkpt><trkpt lat="43.74610185961442" lon="10.665422806396947"><ele>4.333333333333333</ele><time>2026-04-25T10:06:34.921Z</time></trkpt><trkpt lat="43.74616253596159" lon="10.665385709856038"><ele>4.5</ele><time>2026-04-25T10:06:35.921Z</time></trkpt><trkpt lat="43.746221608404205" lon="10.66534953690714"><ele>4.666666666666667</ele><time>2026-04-25T10:06:36.921Z</time></trkpt><trkpt lat="43.746341458785714" lon="10.665284326403471"><ele>4.833333333333334</ele><time>2026-04-25T10:06:38.922Z</time></trkpt><trkpt lat="43.746454988764924" lon="10.665214491098082"><ele>5.0</ele><time>2026-04-25T10:06:40.922Z</time></trkpt><trkpt lat="43.746513230936685" lon="10.665177918317212"><ele>5.0</ele><time>2026-04-25T10:06:41.922Z</time></trkpt><trkpt lat="43.74661808293128" lon="10.665102362654032"><ele>5.0</ele><time>2026-04-25T10:06:43.922Z</time></trkpt><trkpt lat="43.74674841834308" lon="10.665030590435407"><ele>5.0</ele><time>2026-04-25T10:06:45.922Z</time></trkpt><trkpt lat="43.74681497184032" lon="10.664990110301336"><ele>5.0</ele><time>2026-04-25T10:06:46.922Z</time></trkpt><trkpt lat="43.74687850163327" lon="10.664960416988146"><ele>5.0</ele><time>2026-04-25T10:06:47.922Z</time></trkpt><trkpt lat="43.746990879188125" lon="10.664904170360577"><ele>5.0</ele><time>2026-04-25T10:06:49.922Z</time></trkpt><trkpt lat="43.74709023781906" lon="10.664849651844271"><ele>5.0</ele><time>2026-04-25T10:06:51.922Z</time></trkpt><trkpt lat="43.74717258808371" lon="10.664813320859265"><ele>5.0</ele><time>2026-04-25T10:06:53.922Z</time></trkpt><trkpt lat="43.74726543405925" lon="10.664802035265488"><ele>5.0</ele><time>2026-04-25T10:06:55.922Z</time></trkpt><trkpt lat="43.7473909667769" lon="10.6647991211071"><ele>5.0</ele><time>2026-04-25T10:06:57.922Z</time></trkpt><trkpt lat="43.74746310037587" lon="10.66479733890019"><ele>5.0</ele><time>2026-04-25T10:06:58.922Z</time></trkpt><trkpt lat="43.747531982922446" lon="10.664790663807203"><ele>5.0</ele><time>2026-04-25T10:06:59.922Z</time></trkpt><trkpt lat="43.74765184447581" lon="10.664786049917518"><ele>5.0</ele><time>2026-04-25T10:07:01.922Z</time></trkpt><trkpt lat="43.74773094097087" lon="10.664790477981086"><ele>5.0</ele><time>2026-04-25T10:07:02.922Z</time></trkpt><trkpt lat="43.747807547058756" lon="10.664779381499681"><ele>5.0</ele><time>2026-04-25T10:07:03.922Z</time></trkpt><trkpt lat="43.74788686801379" lon="10.664771455676762"><ele>5.0</ele><time>2026-04-25T10:07:04.922Z</time></trkpt><trkpt lat="43.74800954920383" lon="10.6647592375084"><ele>5.5</ele><time>2026-04-25T10:07:06.922Z</time></trkpt><trkpt lat="43.748077351560276" lon="10.664756609527387"><ele>6.0</ele><time>2026-04-25T10:07:07.922Z</time></trkpt><trkpt lat="43.74814320593123" lon="10.664752641520314"><ele>6.5</ele><time>2026-04-25T10:07:08.922Z</time></trkpt><trkpt lat="43.74820934683657" lon="10.664744309011523"><ele>7.0</ele><time>2026-04-25T10:07:09.922Z</time></trkpt><trkpt lat="43.748274352684874" lon="10.664737372180504"><ele>7.499999999999999</ele><time>2026-04-25T10:07:10.922Z</time></trkpt><trkpt lat="43.74839514584" lon="10.664749866204536"><ele>8.0</ele><time>2026-04-25T10:07:12.922Z</time></trkpt><trkpt lat="43.74846166873672" lon="10.664743643510842"><ele>8.0</ele><time>2026-04-25T10:07:13.922Z</time></trkpt><trkpt lat="43.74852780561871" lon="10.66474485303072"><ele>7.999999999999999</ele><time>2026-04-25T10:07:14.922Z</time></trkpt><trkpt lat="43.748598799885286" lon="10.664734097769216"><ele>8.0</ele><time>2026-04-25T10:07:15.922Z</time></trkpt><trkpt lat="43.74866917681629" lon="10.664731416410332"><ele>8.0</ele><time>2026-04-25T10:07:16.922Z</time></trkpt><trkpt lat="43.74873297200824" lon="10.66473908330775"><ele>7.999999999999999</ele><time>2026-04-25T10:07:17.922Z</time></trkpt><trkpt lat="43.74879886638958" lon="10.664739406538262"><ele>8.0</ele><time>2026-04-25T10:07:18.922Z</time></trkpt><trkpt lat="43.74886920730917" lon="10.664734016715752"><ele>8.0</ele><time>2026-04-25T10:07:19.922Z</time></trkpt><trkpt lat="43.74899471518897" lon="10.664721725704016"><ele>7.999999999999999</ele><time>2026-04-25T10:07:21.922Z</time></trkpt><trkpt lat="43.74905789723996" lon="10.664711898299036"><ele>8.0</ele><time>2026-04-25T10:07:22.922Z</time></trkpt><trkpt lat="43.74912417984581" lon="10.664708746992547"><ele>8.0</ele><time>2026-04-25T10:07:23.922Z</time></trkpt><trkpt lat="43.74919312162089" lon="10.664709536687319"><ele>8.0</ele><time>2026-04-25T10:07:24.922Z</time></trkpt><trkpt lat="43.749308757286364" lon="10.664701037670886"><ele>7.999999999999999</ele><time>2026-04-25T10:07:26.922Z</time></trkpt><trkpt lat="43.74941209776384" lon="10.66467526221062"><ele>8.0</ele><time>2026-04-25T10:07:28.922Z</time></trkpt><trkpt lat="43.749518462042836" lon="10.664663742944876"><ele>9.0</ele><time>2026-04-25T10:07:30.923Z</time></trkpt><trkpt lat="43.749582091947154" lon="10.66466544793893"><ele>10.0</ele><time>2026-04-25T10:07:31.923Z</time></trkpt><trkpt lat="43.749703737267225" lon="10.6646710971158"><ele>11.0</ele><time>2026-04-25T10:07:33.923Z</time></trkpt><trkpt lat="43.74977335178854" lon="10.664677687003353"><ele>12.0</ele><time>2026-04-25T10:07:34.923Z</time></trkpt><trkpt lat="43.74983972056642" lon="10.664685862036393"><ele>13.000000000000002</ele><time>2026-04-25T10:07:35.923Z</time></trkpt><trkpt lat="43.74991336325718" lon="10.664681258944787"><ele>14.0</ele><time>2026-04-25T10:07:36.923Z</time></trkpt><trkpt lat="43.74998762138444" lon="10.664673236017403"><ele>14.000000000000002</ele><time>2026-04-25T10:07:37.923Z</time></trkpt><trkpt lat="43.75006093448401" lon="10.664663107955315"><ele>14.0</ele><time>2026-04-25T10:07:38.923Z</time></trkpt><trkpt lat="43.750131520405866" lon="10.664645876696742"><ele>14.0</ele><time>2026-04-25T10:07:39.923Z</time></trkpt><trkpt lat="43.750201312310786" lon="10.664631800363688"><ele>14.0</ele><time>2026-04-25T10:07:40.923Z</time></trkpt><trkpt lat="43.75026849563975" lon="10.664620603113379"><ele>14.000000000000002</ele><time>2026-04-25T10:07:41.923Z</time></trkpt><trkpt lat="43.750390434777394" lon="10.664577573068357"><ele>14.0</ele><time>2026-04-25T10:07:43.923Z</time></trkpt><trkpt lat="43.7504478862808" lon="10.664536709694573"><ele>27.0</ele><time>2026-04-25T10:07:44.923Z</time></trkpt><trkpt lat="43.750531262270215" lon="10.664476467752342"><ele>27.0</ele><time>2026-04-25T10:07:46.923Z</time></trkpt></trkseg></trk></gpx>